<?xml version='1.0' encoding='UTF-8'?><gpx version="1.1" creator="JPX - https://github.com/jenetics/jpx" xmlns="http://www.topografix.com/GPX/1/1"><trk><trkseg><trkpt lat="40.8938163" lon="14.2878151"><ele>80.0</ele><time>2026-03-30T11:42:45.934Z</time></trkpt><trkpt lat="40.8937548" lon="14.2878548"><ele>80.0</ele><time>2026-03-30T11:42:59.326Z</time></trkpt><trkpt lat="40.8936828" lon="14.2878578"><ele>80.0</ele><time>2026-03-30T11:43:02.291Z</time></trkpt><trkpt lat="40.8936009" lon="14.287872"><ele>80.0</ele><time>2026-03-30T11:43:05.369Z</time></trkpt><trkpt lat="40.8935055" lon="14.2878915"><ele>80.0</ele><time>2026-03-30T11:43:08.39Z</time></trkpt><trkpt lat="40.893434" lon="14.2879076"><ele>80.0</ele><time>2026-03-30T11:43:10.404Z</time></trkpt><trkpt lat="40.8936386" lon="14.2873417"><ele>80.0</ele><time>2026-03-30T11:43:13.325Z</time></trkpt><trkpt lat="40.8936662" lon="14.2869867"><ele>80.0</ele><time>2026-03-30T11:43:14.332Z</time></trkpt><trkpt lat="40.89365" lon="14.2869052"><ele>80.0</ele><time>2026-03-30T11:43:15.339Z</time></trkpt><trkpt lat="40.8936123" lon="14.2867871"><ele>80.0</ele><time>2026-03-30T11:43:17.354Z</time></trkpt><trkpt lat="40.8935795" lon="14.2866769"><ele>80.0</ele><time>2026-03-30T11:43:19.368Z</time></trkpt><trkpt lat="40.8935466" lon="14.2865741"><ele>80.0</ele><time>2026-03-30T11:43:21.383Z</time></trkpt><trkpt lat="40.8935033" lon="14.2864883"><ele>80.0</ele><time>2026-03-30T11:43:23.293Z</time></trkpt><trkpt lat="40.893475" lon="14.286395"><ele>80.0</ele><time>2026-03-30T11:43:25.297Z</time></trkpt><trkpt lat="40.89345" lon="14.2863017"><ele>80.0</ele><time>2026-03-30T11:43:27.292Z</time></trkpt><trkpt lat="40.8934367" lon="14.2862083"><ele>80.0</ele><time>2026-03-30T11:43:29.295Z</time></trkpt><trkpt lat="40.8935" lon="14.2861283"><ele>80.16666666666667</ele><time>2026-03-30T11:43:32.292Z</time></trkpt><trkpt lat="40.8935667" lon="14.2860733"><ele>80.33333333333334</ele><time>2026-03-30T11:43:35.292Z</time></trkpt><trkpt lat="40.8936483" lon="14.2860583"><ele>80.5</ele><time>2026-03-30T11:43:37.292Z</time></trkpt><trkpt lat="40.8937317" lon="14.2860417"><ele>80.66666666666667</ele><time>2026-03-30T11:43:39.292Z</time></trkpt><trkpt lat="40.893825" lon="14.2860267"><ele>80.83333333333333</ele><time>2026-03-30T11:43:41.292Z</time></trkpt><trkpt lat="40.8939183" lon="14.2860317"><ele>81.0</ele><time>2026-03-30T11:43:43.292Z</time></trkpt><trkpt lat="40.8940133" lon="14.286065"><ele>81.0</ele><time>2026-03-30T11:43:45.292Z</time></trkpt><trkpt lat="40.8941067" lon="14.2860933"><ele>81.0</ele><time>2026-03-30T11:43:47.292Z</time></trkpt><trkpt lat="40.8942033" lon="14.2861167"><ele>81.0</ele><time>2026-03-30T11:43:49.292Z</time></trkpt><trkpt lat="40.8943" lon="14.2861383"><ele>81.0</ele><time>2026-03-30T11:43:51.292Z</time></trkpt><trkpt lat="40.89441" lon="14.2861633"><ele>81.0</ele><time>2026-03-30T11:43:53.292Z</time></trkpt><trkpt lat="40.89452" lon="14.2861817"><ele>80.8</ele><time>2026-03-30T11:43:55.293Z</time></trkpt><trkpt lat="40.894635" lon="14.2861833"><ele>80.6</ele><time>2026-03-30T11:43:57.292Z</time></trkpt><trkpt lat="40.894725" lon="14.2861433"><ele>80.4</ele><time>2026-03-30T11:43:59.293Z</time></trkpt><trkpt lat="40.8948467" lon="14.2861467"><ele>80.2</ele><time>2026-03-30T11:44:01.292Z</time></trkpt><trkpt lat="40.8949483" lon="14.2861417"><ele>80.0</ele><time>2026-03-30T11:44:03.292Z</time></trkpt><trkpt lat="40.8950133" lon="14.286155"><ele>79.5</ele><time>2026-03-30T11:44:04.292Z</time></trkpt><trkpt lat="40.8951283" lon="14.2861783"><ele>79.0</ele><time>2026-03-30T11:44:06.292Z</time></trkpt><trkpt lat="40.8952567" lon="14.2862017"><ele>78.5</ele><time>2026-03-30T11:44:08.293Z</time></trkpt><trkpt lat="40.8953733" lon="14.286215"><ele>78.0</ele><time>2026-03-30T11:44:10.292Z</time></trkpt><trkpt lat="40.8954883" lon="14.28622"><ele>78.0</ele><time>2026-03-30T11:44:12.292Z</time></trkpt><trkpt lat="40.8955983" lon="14.2862283"><ele>78.0</ele><time>2026-03-30T11:44:14.292Z</time></trkpt><trkpt lat="40.895705" lon="14.2862417"><ele>78.0</ele><time>2026-03-30T11:44:16.292Z</time></trkpt><trkpt lat="40.8958083" lon="14.2862533"><ele>78.0</ele><time>2026-03-30T11:44:18.292Z</time></trkpt><trkpt lat="40.89592" lon="14.2862783"><ele>78.0</ele><time>2026-03-30T11:44:20.292Z</time></trkpt><trkpt lat="40.8960167" lon="14.2862817"><ele>78.4</ele><time>2026-03-30T11:44:22.292Z</time></trkpt><trkpt lat="40.8961183" lon="14.2862967"><ele>78.8</ele><time>2026-03-30T11:44:24.292Z</time></trkpt><trkpt lat="40.8962217" lon="14.2863233"><ele>79.2</ele><time>2026-03-30T11:44:26.292Z</time></trkpt><trkpt lat="40.8963283" lon="14.286365"><ele>79.6</ele><time>2026-03-30T11:44:28.292Z</time></trkpt><trkpt lat="40.89642" lon="14.2864"><ele>80.0</ele><time>2026-03-30T11:44:30.292Z</time></trkpt><trkpt lat="40.8965167" lon="14.28642"><ele>80.0</ele><time>2026-03-30T11:44:32.293Z</time></trkpt><trkpt lat="40.8965867" lon="14.28641"><ele>80.0</ele><time>2026-03-30T11:44:34.292Z</time></trkpt><trkpt lat="40.8966683" lon="14.2863733"><ele>80.0</ele><time>2026-03-30T11:44:36.292Z</time></trkpt><trkpt lat="40.8967317" lon="14.2863433"><ele>80.0</ele><time>2026-03-30T11:44:38.292Z</time></trkpt><trkpt lat="40.8967867" lon="14.286235"><ele>80.0</ele><time>2026-03-30T11:44:41.292Z</time></trkpt><trkpt lat="40.8968467" lon="14.2861483"><ele>80.0</ele><time>2026-03-30T11:44:43.293Z</time></trkpt><trkpt lat="40.8969017" lon="14.2860283"><ele>80.2</ele><time>2026-03-30T11:44:45.292Z</time></trkpt><trkpt lat="40.8969733" lon="14.2859383"><ele>80.4</ele><time>2026-03-30T11:44:47.292Z</time></trkpt><trkpt lat="40.89704" lon="14.285845"><ele>80.6</ele><time>2026-03-30T11:44:49.293Z</time></trkpt><trkpt lat="40.8971233" lon="14.28574"><ele>80.8</ele><time>2026-03-30T11:44:51.292Z</time></trkpt><trkpt lat="40.8971983" lon="14.285655"><ele>81.0</ele><time>2026-03-30T11:44:53.292Z</time></trkpt><trkpt lat="40.8972717" lon="14.2855433"><ele>81.0</ele><time>2026-03-30T11:44:55.293Z</time></trkpt><trkpt lat="40.8973483" lon="14.285435"><ele>81.0</ele><time>2026-03-30T11:44:57.292Z</time></trkpt><trkpt lat="40.8974167" lon="14.2853317"><ele>81.0</ele><time>2026-03-30T11:44:59.292Z</time></trkpt><trkpt lat="40.8974567" lon="14.285265"><ele>81.0</ele><time>2026-03-30T11:45:00.292Z</time></trkpt><trkpt lat="40.8975233" lon="14.2851583"><ele>81.0</ele><time>2026-03-30T11:45:02.293Z</time></trkpt><trkpt lat="40.8976017" lon="14.2850517"><ele>80.8</ele><time>2026-03-30T11:45:04.292Z</time></trkpt><trkpt lat="40.8976717" lon="14.2849567"><ele>80.6</ele><time>2026-03-30T11:45:06.292Z</time></trkpt><trkpt lat="40.89774" lon="14.2848617"><ele>80.4</ele><time>2026-03-30T11:45:08.292Z</time></trkpt><trkpt lat="40.89781" lon="14.2847683"><ele>80.2</ele><time>2026-03-30T11:45:10.292Z</time></trkpt><trkpt lat="40.897865" lon="14.2846717"><ele>80.0</ele><time>2026-03-30T11:45:12.292Z</time></trkpt><trkpt lat="40.89792" lon="14.28459"><ele>79.66666666666667</ele><time>2026-03-30T11:45:14.292Z</time></trkpt><trkpt lat="40.8979767" lon="14.2845367"><ele>79.33333333333334</ele><time>2026-03-30T11:45:16.293Z</time></trkpt><trkpt lat="40.8980383" lon="14.2845133"><ele>79.0</ele><time>2026-03-30T11:45:18.292Z</time></trkpt><trkpt lat="40.8981117" lon="14.2845317"><ele>78.66666666666667</ele><time>2026-03-30T11:45:20.292Z</time></trkpt><trkpt lat="40.8981867" lon="14.284565"><ele>78.33333333333333</ele><time>2026-03-30T11:45:22.292Z</time></trkpt><trkpt lat="40.8982567" lon="14.28462"><ele>78.0</ele><time>2026-03-30T11:45:24.292Z</time></trkpt><trkpt lat="40.8983233" lon="14.284695"><ele>78.5</ele><time>2026-03-30T11:45:26.292Z</time></trkpt><trkpt lat="40.8984" lon="14.28478"><ele>79.0</ele><time>2026-03-30T11:45:28.292Z</time></trkpt><trkpt lat="40.8984717" lon="14.2848733"><ele>79.5</ele><time>2026-03-30T11:45:30.292Z</time></trkpt><trkpt lat="40.8985417" lon="14.2849733"><ele>80.0</ele><time>2026-03-30T11:45:32.292Z</time></trkpt><trkpt lat="40.898655" lon="14.2851283"><ele>80.42857142857143</ele><time>2026-03-30T11:45:35.292Z</time></trkpt><trkpt lat="40.8987183" lon="14.2851633"><ele>80.85714285714286</ele><time>2026-03-30T11:45:36.292Z</time></trkpt><trkpt lat="40.8987767" lon="14.2852"><ele>81.28571428571428</ele><time>2026-03-30T11:45:37.293Z</time></trkpt><trkpt lat="40.8988367" lon="14.28524"><ele>81.71428571428572</ele><time>2026-03-30T11:45:38.292Z</time></trkpt><trkpt lat="40.8988983" lon="14.285285"><ele>82.14285714285715</ele><time>2026-03-30T11:45:39.292Z</time></trkpt><trkpt lat="40.8989533" lon="14.2853383"><ele>82.57142857142857</ele><time>2026-03-30T11:45:40.293Z</time></trkpt><trkpt lat="40.899025" lon="14.2854417"><ele>83.0</ele><time>2026-03-30T11:45:42.292Z</time></trkpt><trkpt lat="40.89909" lon="14.2855517"><ele>83.2</ele><time>2026-03-30T11:45:44.292Z</time></trkpt><trkpt lat="40.8991733" lon="14.28563"><ele>83.4</ele><time>2026-03-30T11:45:46.292Z</time></trkpt><trkpt lat="40.89927" lon="14.2856767"><ele>83.60000000000001</ele><time>2026-03-30T11:45:48.292Z</time></trkpt><trkpt lat="40.8993833" lon="14.2857333"><ele>83.80000000000001</ele><time>2026-03-30T11:45:50.292Z</time></trkpt><trkpt lat="40.899445" lon="14.2857617"><ele>84.0</ele><time>2026-03-30T11:45:51.292Z</time></trkpt><trkpt lat="40.8995067" lon="14.2857817"><ele>84.0</ele><time>2026-03-30T11:45:52.294Z</time></trkpt><trkpt lat="40.8995767" lon="14.2857917"><ele>84.0</ele><time>2026-03-30T11:45:53.293Z</time></trkpt><trkpt lat="40.8996467" lon="14.28581"><ele>84.0</ele><time>2026-03-30T11:45:54.293Z</time></trkpt><trkpt lat="40.8997717" lon="14.2858417"><ele>84.0</ele><time>2026-03-30T11:45:56.292Z</time></trkpt><trkpt lat="40.8998817" lon="14.2859017"><ele>84.0</ele><time>2026-03-30T11:45:58.292Z</time></trkpt><trkpt lat="40.899945" lon="14.28593"><ele>84.0</ele><time>2026-03-30T11:45:59.292Z</time></trkpt><trkpt lat="40.90001" lon="14.28596"><ele>84.0</ele><time>2026-03-30T11:46:00.292Z</time></trkpt><trkpt lat="40.9000817" lon="14.2859767"><ele>84.0</ele><time>2026-03-30T11:46:01.293Z</time></trkpt><trkpt lat="40.9001517" lon="14.285995"><ele>84.0</ele><time>2026-03-30T11:46:02.292Z</time></trkpt><trkpt lat="40.9002167" lon="14.2860183"><ele>84.0</ele><time>2026-03-30T11:46:03.293Z</time></trkpt><trkpt lat="40.9002783" lon="14.28604"><ele>84.0</ele><time>2026-03-30T11:46:04.292Z</time></trkpt><trkpt lat="40.9003917" lon="14.2860717"><ele>84.5</ele><time>2026-03-30T11:46:06.292Z</time></trkpt><trkpt lat="40.9005083" lon="14.2860933"><ele>85.0</ele><time>2026-03-30T11:46:08.292Z</time></trkpt><trkpt lat="40.900625" lon="14.2861133"><ele>85.5</ele><time>2026-03-30T11:46:10.292Z</time></trkpt><trkpt lat="40.9007433" lon="14.286125"><ele>86.0</ele><time>2026-03-30T11:46:12.292Z</time></trkpt><trkpt lat="40.90086" lon="14.286125"><ele>85.8</ele><time>2026-03-30T11:46:14.293Z</time></trkpt><trkpt lat="40.9009233" lon="14.28612"><ele>85.6</ele><time>2026-03-30T11:46:15.292Z</time></trkpt><trkpt lat="40.9010483" lon="14.2860933"><ele>85.4</ele><time>2026-03-30T11:46:17.293Z</time></trkpt><trkpt lat="40.9011167" lon="14.2860817"><ele>85.2</ele><time>2026-03-30T11:46:18.292Z</time></trkpt><trkpt lat="40.9011783" lon="14.2860533"><ele>85.0</ele><time>2026-03-30T11:46:19.292Z</time></trkpt><trkpt lat="40.9013033" lon="14.28601"><ele>85.0</ele><time>2026-03-30T11:46:21.292Z</time></trkpt><trkpt lat="40.9013683" lon="14.2859867"><ele>85.0</ele><time>2026-03-30T11:46:22.292Z</time></trkpt><trkpt lat="40.9014317" lon="14.2859633"><ele>85.0</ele><time>2026-03-30T11:46:23.293Z</time></trkpt><trkpt lat="40.901495" lon="14.2859417"><ele>85.0</ele><time>2026-03-30T11:46:24.292Z</time></trkpt><trkpt lat="40.9015567" lon="14.2859167"><ele>85.0</ele><time>2026-03-30T11:46:25.293Z</time></trkpt><trkpt lat="40.9016233" lon="14.2858983"><ele>85.0</ele><time>2026-03-30T11:46:26.292Z</time></trkpt><trkpt lat="40.901685" lon="14.28588"><ele>85.0</ele><time>2026-03-30T11:46:27.292Z</time></trkpt><trkpt lat="40.9018017" lon="14.2858467"><ele>85.2</ele><time>2026-03-30T11:46:29.293Z</time></trkpt><trkpt lat="40.9018667" lon="14.2858333"><ele>85.4</ele><time>2026-03-30T11:46:30.292Z</time></trkpt><trkpt lat="40.9019867" lon="14.2858067"><ele>85.6</ele><time>2026-03-30T11:46:32.292Z</time></trkpt><trkpt lat="40.9020933" lon="14.2857933"><ele>85.8</ele><time>2026-03-30T11:46:34.292Z</time></trkpt><trkpt lat="40.9022083" lon="14.2857717"><ele>86.0</ele><time>2026-03-30T11:46:36.292Z</time></trkpt><trkpt lat="40.90227" lon="14.2857483"><ele>86.0</ele><time>2026-03-30T11:46:37.298Z</time></trkpt><trkpt lat="40.9023383" lon="14.2857283"><ele>86.0</ele><time>2026-03-30T11:46:38.295Z</time></trkpt><trkpt lat="40.9024033" lon="14.2857067"><ele>86.0</ele><time>2026-03-30T11:46:39.294Z</time></trkpt><trkpt lat="40.902465" lon="14.2856817"><ele>86.0</ele><time>2026-03-30T11:46:40.294Z</time></trkpt><trkpt lat="40.90258" lon="14.2856467"><ele>86.0</ele><time>2026-03-30T11:46:42.292Z</time></trkpt><trkpt lat="40.9027117" lon="14.2855717"><ele>85.6</ele><time>2026-03-30T11:46:44.292Z</time></trkpt><trkpt lat="40.9028383" lon="14.2855133"><ele>85.19999999999999</ele><time>2026-03-30T11:46:46.292Z</time></trkpt><trkpt lat="40.9029617" lon="14.2854867"><ele>84.80000000000001</ele><time>2026-03-30T11:46:48.293Z</time></trkpt><trkpt lat="40.903035" lon="14.2854533"><ele>84.4</ele><time>2026-03-30T11:46:49.293Z</time></trkpt><trkpt lat="40.9031017" lon="14.2854367"><ele>84.0</ele><time>2026-03-30T11:46:50.293Z</time></trkpt><trkpt lat="40.9032283" lon="14.2854033"><ele>84.0</ele><time>2026-03-30T11:46:52.292Z</time></trkpt><trkpt lat="40.90335" lon="14.285365"><ele>84.0</ele><time>2026-03-30T11:46:54.292Z</time></trkpt><trkpt lat="40.903415" lon="14.2853517"><ele>84.0</ele><time>2026-03-30T11:46:55.293Z</time></trkpt><trkpt lat="40.9035367" lon="14.2853333"><ele>84.0</ele><time>2026-03-30T11:46:57.292Z</time></trkpt><trkpt lat="40.9036" lon="14.2853117"><ele>84.0</ele><time>2026-03-30T11:46:58.292Z</time></trkpt><trkpt lat="40.9036633" lon="14.285295"><ele>84.0</ele><time>2026-03-30T11:46:59.292Z</time></trkpt><trkpt lat="40.90373" lon="14.28527"><ele>83.33333333333333</ele><time>2026-03-30T11:47:00.292Z</time></trkpt><trkpt lat="40.903795" lon="14.28525"><ele>82.66666666666667</ele><time>2026-03-30T11:47:01.292Z</time></trkpt><trkpt lat="40.90386" lon="14.28523"><ele>82.0</ele><time>2026-03-30T11:47:02.297Z</time></trkpt><trkpt lat="40.9039267" lon="14.2852183"><ele>81.33333333333334</ele><time>2026-03-30T11:47:03.293Z</time></trkpt><trkpt lat="40.904045" lon="14.2851967"><ele>80.66666666666667</ele><time>2026-03-30T11:47:05.292Z</time></trkpt><trkpt lat="40.9041467" lon="14.2851667"><ele>80.0</ele><time>2026-03-30T11:47:07.292Z</time></trkpt><trkpt lat="40.9042483" lon="14.2851283"><ele>79.8</ele><time>2026-03-30T11:47:09.292Z</time></trkpt><trkpt lat="40.90436" lon="14.2850933"><ele>79.6</ele><time>2026-03-30T11:47:11.292Z</time></trkpt><trkpt lat="40.9044733" lon="14.2850633"><ele>79.4</ele><time>2026-03-30T11:47:13.293Z</time></trkpt><trkpt lat="40.9045917" lon="14.2850283"><ele>79.2</ele><time>2026-03-30T11:47:15.292Z</time></trkpt><trkpt lat="40.9046567" lon="14.2850083"><ele>79.0</ele><time>2026-03-30T11:47:16.293Z</time></trkpt><trkpt lat="40.90472" lon="14.2849883"><ele>79.00000000000001</ele><time>2026-03-30T11:47:17.292Z</time></trkpt><trkpt lat="40.9047817" lon="14.2849667"><ele>79.0</ele><time>2026-03-30T11:47:18.293Z</time></trkpt><trkpt lat="40.9048467" lon="14.2849433"><ele>79.0</ele><time>2026-03-30T11:47:19.292Z</time></trkpt><trkpt lat="40.9049117" lon="14.284915"><ele>79.0</ele><time>2026-03-30T11:47:20.292Z</time></trkpt><trkpt lat="40.90498" lon="14.2848833"><ele>79.0</ele><time>2026-03-30T11:47:21.292Z</time></trkpt><trkpt lat="40.9050467" lon="14.284855"><ele>79.00000000000001</ele><time>2026-03-30T11:47:22.292Z</time></trkpt><trkpt lat="40.9051133" lon="14.28483"><ele>79.0</ele><time>2026-03-30T11:47:23.292Z</time></trkpt><trkpt lat="40.9051833" lon="14.2848167"><ele>79.00000000000001</ele><time>2026-03-30T11:47:24.292Z</time></trkpt><trkpt lat="40.9052533" lon="14.2847967"><ele>79.0</ele><time>2026-03-30T11:47:25.293Z</time></trkpt><trkpt lat="40.9053217" lon="14.2847767"><ele>79.0</ele><time>2026-03-30T11:47:26.292Z</time></trkpt><trkpt lat="40.905395" lon="14.2847567"><ele>79.0</ele><time>2026-03-30T11:47:27.292Z</time></trkpt><trkpt lat="40.9054617" lon="14.284735"><ele>79.0</ele><time>2026-03-30T11:47:28.292Z</time></trkpt><trkpt lat="40.90553" lon="14.2847333"><ele>79.00000000000001</ele><time>2026-03-30T11:47:29.292Z</time></trkpt><trkpt lat="40.9055983" lon="14.28473"><ele>79.0</ele><time>2026-03-30T11:47:30.292Z</time></trkpt><trkpt lat="40.9056683" lon="14.2847383"><ele>79.00000000000001</ele><time>2026-03-30T11:47:31.292Z</time></trkpt><trkpt lat="40.9057367" lon="14.2847433"><ele>79.0</ele><time>2026-03-30T11:47:32.292Z</time></trkpt><trkpt lat="40.9058083" lon="14.28475"><ele>79.0</ele><time>2026-03-30T11:47:33.292Z</time></trkpt><trkpt lat="40.90588" lon="14.2847567"><ele>79.0</ele><time>2026-03-30T11:47:34.292Z</time></trkpt><trkpt lat="40.9059517" lon="14.28476"><ele>79.0</ele><time>2026-03-30T11:47:35.292Z</time></trkpt><trkpt lat="40.9060217" lon="14.2847717"><ele>79.00000000000001</ele><time>2026-03-30T11:47:36.292Z</time></trkpt><trkpt lat="40.9060933" lon="14.2847883"><ele>79.0</ele><time>2026-03-30T11:47:37.293Z</time></trkpt><trkpt lat="40.906165" lon="14.2848067"><ele>78.85714285714286</ele><time>2026-03-30T11:47:38.292Z</time></trkpt><trkpt lat="40.9062367" lon="14.2848283"><ele>78.71428571428572</ele><time>2026-03-30T11:47:39.292Z</time></trkpt><trkpt lat="40.9063067" lon="14.28485"><ele>78.57142857142858</ele><time>2026-03-30T11:47:40.293Z</time></trkpt><trkpt lat="40.9063733" lon="14.2848783"><ele>78.42857142857143</ele><time>2026-03-30T11:47:41.293Z</time></trkpt><trkpt lat="40.9064417" lon="14.28491"><ele>78.28571428571428</ele><time>2026-03-30T11:47:42.292Z</time></trkpt><trkpt lat="40.9065133" lon="14.2849533"><ele>78.14285714285715</ele><time>2026-03-30T11:47:43.293Z</time></trkpt><trkpt lat="40.9065917" lon="14.284985"><ele>78.0</ele><time>2026-03-30T11:47:44.292Z</time></trkpt><trkpt lat="40.90666" lon="14.2850183"><ele>78.0</ele><time>2026-03-30T11:47:45.292Z</time></trkpt><trkpt lat="40.9067267" lon="14.2850533"><ele>78.0</ele><time>2026-03-30T11:47:46.292Z</time></trkpt><trkpt lat="40.90679" lon="14.2850967"><ele>78.0</ele><time>2026-03-30T11:47:47.293Z</time></trkpt><trkpt lat="40.9068567" lon="14.2851417"><ele>78.0</ele><time>2026-03-30T11:47:48.292Z</time></trkpt><trkpt lat="40.9069233" lon="14.28519"><ele>78.0</ele><time>2026-03-30T11:47:49.293Z</time></trkpt><trkpt lat="40.90699" lon="14.2852417"><ele>78.0</ele><time>2026-03-30T11:47:50.292Z</time></trkpt><trkpt lat="40.9070567" lon="14.28529"><ele>78.0</ele><time>2026-03-30T11:47:51.292Z</time></trkpt><trkpt lat="40.90712" lon="14.2853417"><ele>77.42857142857143</ele><time>2026-03-30T11:47:52.292Z</time></trkpt><trkpt lat="40.90718" lon="14.2853933"><ele>76.85714285714285</ele><time>2026-03-30T11:47:53.293Z</time></trkpt><trkpt lat="40.9072433" lon="14.2854467"><ele>76.28571428571428</ele><time>2026-03-30T11:47:54.292Z</time></trkpt><trkpt lat="40.9073083" lon="14.2854983"><ele>75.71428571428572</ele><time>2026-03-30T11:47:55.293Z</time></trkpt><trkpt lat="40.9073717" lon="14.2855533"><ele>75.14285714285714</ele><time>2026-03-30T11:47:56.292Z</time></trkpt><trkpt lat="40.9074367" lon="14.2856067"><ele>74.57142857142857</ele><time>2026-03-30T11:47:57.293Z</time></trkpt><trkpt lat="40.9074967" lon="14.28565"><ele>74.0</ele><time>2026-03-30T11:47:58.292Z</time></trkpt><trkpt lat="40.9075617" lon="14.2857017"><ele>73.16666666666667</ele><time>2026-03-30T11:47:59.292Z</time></trkpt><trkpt lat="40.9076283" lon="14.2857617"><ele>72.33333333333334</ele><time>2026-03-30T11:48:00.292Z</time></trkpt><trkpt lat="40.9076917" lon="14.2858183"><ele>71.5</ele><time>2026-03-30T11:48:01.292Z</time></trkpt><trkpt lat="40.9077583" lon="14.285875"><ele>70.66666666666667</ele><time>2026-03-30T11:48:02.292Z</time></trkpt><trkpt lat="40.9078233" lon="14.2859317"><ele>69.83333333333333</ele><time>2026-03-30T11:48:03.292Z</time></trkpt><trkpt lat="40.9078917" lon="14.2859867"><ele>69.0</ele><time>2026-03-30T11:48:04.292Z</time></trkpt><trkpt lat="40.9079617" lon="14.2860433"><ele>69.0</ele><time>2026-03-30T11:48:05.293Z</time></trkpt><trkpt lat="40.9080317" lon="14.2861033"><ele>69.0</ele><time>2026-03-30T11:48:06.292Z</time></trkpt><trkpt lat="40.9081033" lon="14.2861633"><ele>69.0</ele><time>2026-03-30T11:48:07.293Z</time></trkpt><trkpt lat="40.9081717" lon="14.286225"><ele>69.0</ele><time>2026-03-30T11:48:08.292Z</time></trkpt><trkpt lat="40.9082433" lon="14.2862883"><ele>69.0</ele><time>2026-03-30T11:48:09.292Z</time></trkpt><trkpt lat="40.9083183" lon="14.28635"><ele>69.0</ele><time>2026-03-30T11:48:10.292Z</time></trkpt><trkpt lat="40.9083917" lon="14.2864117"><ele>69.16666666666667</ele><time>2026-03-30T11:48:11.292Z</time></trkpt><trkpt lat="40.908465" lon="14.2864733"><ele>69.33333333333333</ele><time>2026-03-30T11:48:12.292Z</time></trkpt><trkpt lat="40.9085383" lon="14.2865333"><ele>69.5</ele><time>2026-03-30T11:48:13.292Z</time></trkpt><trkpt lat="40.90861" lon="14.286595"><ele>69.66666666666666</ele><time>2026-03-30T11:48:14.293Z</time></trkpt><trkpt lat="40.9086817" lon="14.2866567"><ele>69.83333333333333</ele><time>2026-03-30T11:48:15.292Z</time></trkpt><trkpt lat="40.908755" lon="14.28672"><ele>70.0</ele><time>2026-03-30T11:48:16.292Z</time></trkpt><trkpt lat="40.9088317" lon="14.286785"><ele>70.0</ele><time>2026-03-30T11:48:17.292Z</time></trkpt><trkpt lat="40.9089133" lon="14.2868433"><ele>70.0</ele><time>2026-03-30T11:48:18.292Z</time></trkpt><trkpt lat="40.9089983" lon="14.286905"><ele>70.0</ele><time>2026-03-30T11:48:19.293Z</time></trkpt><trkpt lat="40.9090817" lon="14.28697"><ele>70.0</ele><time>2026-03-30T11:48:20.294Z</time></trkpt><trkpt lat="40.9091617" lon="14.287035"><ele>70.0</ele><time>2026-03-30T11:48:21.292Z</time></trkpt><trkpt lat="40.9092383" lon="14.2871033"><ele>69.8</ele><time>2026-03-30T11:48:22.292Z</time></trkpt><trkpt lat="40.9093167" lon="14.2871667"><ele>69.6</ele><time>2026-03-30T11:48:23.292Z</time></trkpt><trkpt lat="40.909395" lon="14.28723"><ele>69.4</ele><time>2026-03-30T11:48:24.292Z</time></trkpt><trkpt lat="40.9094733" lon="14.2872917"><ele>69.2</ele><time>2026-03-30T11:48:25.292Z</time></trkpt><trkpt lat="40.9095533" lon="14.28736"><ele>69.0</ele><time>2026-03-30T11:48:26.293Z</time></trkpt><trkpt lat="40.9096333" lon="14.287425"><ele>68.8</ele><time>2026-03-30T11:48:27.292Z</time></trkpt><trkpt lat="40.9097117" lon="14.2874867"><ele>68.60000000000001</ele><time>2026-03-30T11:48:28.292Z</time></trkpt><trkpt lat="40.9097917" lon="14.2875483"><ele>68.4</ele><time>2026-03-30T11:48:29.292Z</time></trkpt><trkpt lat="40.909875" lon="14.2876133"><ele>68.2</ele><time>2026-03-30T11:48:30.292Z</time></trkpt><trkpt lat="40.9099567" lon="14.28768"><ele>68.0</ele><time>2026-03-30T11:48:31.292Z</time></trkpt><trkpt lat="40.9100383" lon="14.2877483"><ele>67.0</ele><time>2026-03-30T11:48:32.294Z</time></trkpt><trkpt lat="40.91012" lon="14.2878183"><ele>66.0</ele><time>2026-03-30T11:48:33.293Z</time></trkpt><trkpt lat="40.9102067" lon="14.28788"><ele>65.0</ele><time>2026-03-30T11:48:34.294Z</time></trkpt><trkpt lat="40.9102883" lon="14.28794"><ele>64.0</ele><time>2026-03-30T11:48:35.292Z</time></trkpt><trkpt lat="40.9103667" lon="14.2880017"><ele>63.0</ele><time>2026-03-30T11:48:36.292Z</time></trkpt><trkpt lat="40.91044" lon="14.2880633"><ele>63.4</ele><time>2026-03-30T11:48:37.293Z</time></trkpt><trkpt lat="40.9105167" lon="14.2881267"><ele>63.8</ele><time>2026-03-30T11:48:38.293Z</time></trkpt><trkpt lat="40.9105983" lon="14.2881867"><ele>64.2</ele><time>2026-03-30T11:48:39.292Z</time></trkpt><trkpt lat="40.9106817" lon="14.288245"><ele>64.6</ele><time>2026-03-30T11:48:40.292Z</time></trkpt><trkpt lat="40.9107583" lon="14.2883017"><ele>65.0</ele><time>2026-03-30T11:48:41.292Z</time></trkpt><trkpt lat="40.9108283" lon="14.2883633"><ele>65.0</ele><time>2026-03-30T11:48:42.293Z</time></trkpt><trkpt lat="40.9108967" lon="14.28842"><ele>65.0</ele><time>2026-03-30T11:48:43.293Z</time></trkpt><trkpt lat="40.9109617" lon="14.2884767"><ele>65.0</ele><time>2026-03-30T11:48:44.292Z</time></trkpt><trkpt lat="40.9110267" lon="14.2885333"><ele>65.0</ele><time>2026-03-30T11:48:45.292Z</time></trkpt><trkpt lat="40.911095" lon="14.2885883"><ele>65.0</ele><time>2026-03-30T11:48:46.292Z</time></trkpt><trkpt lat="40.911165" lon="14.2886383"><ele>65.0</ele><time>2026-03-30T11:48:47.293Z</time></trkpt><trkpt lat="40.9112367" lon="14.2886917"><ele>65.2</ele><time>2026-03-30T11:48:48.291Z</time></trkpt><trkpt lat="40.911305" lon="14.2887417"><ele>65.4</ele><time>2026-03-30T11:48:49.291Z</time></trkpt><trkpt lat="40.9113633" lon="14.2887883"><ele>65.6</ele><time>2026-03-30T11:48:50.291Z</time></trkpt><trkpt lat="40.9114183" lon="14.288835"><ele>65.8</ele><time>2026-03-30T11:48:51.291Z</time></trkpt><trkpt lat="40.9115217" lon="14.2889217"><ele>66.0</ele><time>2026-03-30T11:48:53.292Z</time></trkpt><trkpt lat="40.9116167" lon="14.289025"><ele>66.0</ele><time>2026-03-30T11:48:55.292Z</time></trkpt><trkpt lat="40.9116717" lon="14.28909"><ele>66.0</ele><time>2026-03-30T11:48:56.291Z</time></trkpt><trkpt lat="40.9117317" lon="14.2891533"><ele>66.0</ele><time>2026-03-30T11:48:57.291Z</time></trkpt><trkpt lat="40.911795" lon="14.28922"><ele>66.0</ele><time>2026-03-30T11:48:58.291Z</time></trkpt><trkpt lat="40.9118667" lon="14.2892867"><ele>66.0</ele><time>2026-03-30T11:48:59.292Z</time></trkpt><trkpt lat="40.911945" lon="14.28935"><ele>66.0</ele><time>2026-03-30T11:49:00.291Z</time></trkpt><trkpt lat="40.9120267" lon="14.2894133"><ele>65.39999999999999</ele><time>2026-03-30T11:49:01.292Z</time></trkpt><trkpt lat="40.9121117" lon="14.289475"><ele>64.8</ele><time>2026-03-30T11:49:02.291Z</time></trkpt><trkpt lat="40.9122" lon="14.2895433"><ele>64.19999999999999</ele><time>2026-03-30T11:49:03.291Z</time></trkpt><trkpt lat="40.9122867" lon="14.28961"><ele>63.599999999999994</ele><time>2026-03-30T11:49:04.291Z</time></trkpt><trkpt lat="40.9123717" lon="14.2896717"><ele>63.0</ele><time>2026-03-30T11:49:05.291Z</time></trkpt><trkpt lat="40.9124617" lon="14.289725"><ele>63.0</ele><time>2026-03-30T11:49:06.291Z</time></trkpt><trkpt lat="40.9125433" lon="14.2897867"><ele>63.0</ele><time>2026-03-30T11:49:07.291Z</time></trkpt><trkpt lat="40.91262" lon="14.28984"><ele>63.0</ele><time>2026-03-30T11:49:08.291Z</time></trkpt><trkpt lat="40.91269" lon="14.2898917"><ele>63.0</ele><time>2026-03-30T11:49:09.292Z</time></trkpt><trkpt lat="40.9127517" lon="14.2899417"><ele>63.0</ele><time>2026-03-30T11:49:10.291Z</time></trkpt><trkpt lat="40.91281" lon="14.289985"><ele>63.0</ele><time>2026-03-30T11:49:11.291Z</time></trkpt><trkpt lat="40.9128717" lon="14.29003"><ele>63.0</ele><time>2026-03-30T11:49:12.291Z</time></trkpt><trkpt lat="40.91294" lon="14.2900783"><ele>63.0</ele><time>2026-03-30T11:49:13.292Z</time></trkpt><trkpt lat="40.9130067" lon="14.29014"><ele>63.0</ele><time>2026-03-30T11:49:14.291Z</time></trkpt><trkpt lat="40.913075" lon="14.2901983"><ele>63.0</ele><time>2026-03-30T11:49:15.291Z</time></trkpt><trkpt lat="40.91315" lon="14.2902533"><ele>63.0</ele><time>2026-03-30T11:49:16.291Z</time></trkpt><trkpt lat="40.91323" lon="14.2903033"><ele>63.0</ele><time>2026-03-30T11:49:17.291Z</time></trkpt><trkpt lat="40.9133117" lon="14.29035"><ele>63.0</ele><time>2026-03-30T11:49:18.291Z</time></trkpt><trkpt lat="40.9133967" lon="14.2903933"><ele>63.0</ele><time>2026-03-30T11:49:19.292Z</time></trkpt><trkpt lat="40.9134817" lon="14.2904317"><ele>63.0</ele><time>2026-03-30T11:49:20.292Z</time></trkpt><trkpt lat="40.9135667" lon="14.2904683"><ele>63.0</ele><time>2026-03-30T11:49:21.291Z</time></trkpt><trkpt lat="40.9136483" lon="14.2905017"><ele>63.0</ele><time>2026-03-30T11:49:22.291Z</time></trkpt><trkpt lat="40.9137267" lon="14.2905383"><ele>63.0</ele><time>2026-03-30T11:49:23.292Z</time></trkpt><trkpt lat="40.9138067" lon="14.2905667"><ele>62.833333333333336</ele><time>2026-03-30T11:49:24.291Z</time></trkpt><trkpt lat="40.9138883" lon="14.2905883"><ele>62.66666666666667</ele><time>2026-03-30T11:49:25.291Z</time></trkpt><trkpt lat="40.913975" lon="14.2906067"><ele>62.5</ele><time>2026-03-30T11:49:26.291Z</time></trkpt><trkpt lat="40.9140583" lon="14.29063"><ele>62.333333333333336</ele><time>2026-03-30T11:49:27.291Z</time></trkpt><trkpt lat="40.91414" lon="14.290645"><ele>62.16666666666667</ele><time>2026-03-30T11:49:28.291Z</time></trkpt><trkpt lat="40.9142217" lon="14.29066"><ele>62.0</ele><time>2026-03-30T11:49:29.294Z</time></trkpt><trkpt lat="40.9143083" lon="14.2906617"><ele>61.50000000000001</ele><time>2026-03-30T11:49:30.291Z</time></trkpt><trkpt lat="40.91439" lon="14.2906633"><ele>61.0</ele><time>2026-03-30T11:49:31.292Z</time></trkpt><trkpt lat="40.9144733" lon="14.2906617"><ele>60.5</ele><time>2026-03-30T11:49:32.291Z</time></trkpt><trkpt lat="40.91455" lon="14.2906683"><ele>60.0</ele><time>2026-03-30T11:49:33.291Z</time></trkpt><trkpt lat="40.91463" lon="14.2906617"><ele>59.50000000000001</ele><time>2026-03-30T11:49:34.291Z</time></trkpt><trkpt lat="40.9147117" lon="14.2906567"><ele>59.0</ele><time>2026-03-30T11:49:35.291Z</time></trkpt><trkpt lat="40.9147933" lon="14.29065"><ele>59.00000000000001</ele><time>2026-03-30T11:49:36.292Z</time></trkpt><trkpt lat="40.9148733" lon="14.290645"><ele>59.0</ele><time>2026-03-30T11:49:37.291Z</time></trkpt><trkpt lat="40.9149567" lon="14.29064"><ele>59.0</ele><time>2026-03-30T11:49:38.292Z</time></trkpt><trkpt lat="40.915035" lon="14.2906367"><ele>59.0</ele><time>2026-03-30T11:49:39.291Z</time></trkpt><trkpt lat="40.9151183" lon="14.2906317"><ele>59.00000000000001</ele><time>2026-03-30T11:49:40.291Z</time></trkpt><trkpt lat="40.9152" lon="14.29063"><ele>59.0</ele><time>2026-03-30T11:49:41.292Z</time></trkpt><trkpt lat="40.91528" lon="14.2906233"><ele>59.00000000000001</ele><time>2026-03-30T11:49:42.292Z</time></trkpt><trkpt lat="40.91536" lon="14.2906183"><ele>59.0</ele><time>2026-03-30T11:49:43.292Z</time></trkpt><trkpt lat="40.9154433" lon="14.290615"><ele>59.0</ele><time>2026-03-30T11:49:44.291Z</time></trkpt><trkpt lat="40.91552" lon="14.2906117"><ele>59.0</ele><time>2026-03-30T11:49:45.292Z</time></trkpt><trkpt lat="40.9156" lon="14.290615"><ele>59.00000000000001</ele><time>2026-03-30T11:49:46.291Z</time></trkpt><trkpt lat="40.91568" lon="14.2906183"><ele>59.0</ele><time>2026-03-30T11:49:47.294Z</time></trkpt><trkpt lat="40.9157567" lon="14.2906233"><ele>59.00000000000001</ele><time>2026-03-30T11:49:48.291Z</time></trkpt><trkpt lat="40.9158367" lon="14.2906333"><ele>59.0</ele><time>2026-03-30T11:49:49.291Z</time></trkpt><trkpt lat="40.9159167" lon="14.2906467"><ele>59.0</ele><time>2026-03-30T11:49:50.291Z</time></trkpt><trkpt lat="40.9159933" lon="14.2906633"><ele>59.0</ele><time>2026-03-30T11:49:51.291Z</time></trkpt><trkpt lat="40.91607" lon="14.290685"><ele>59.00000000000001</ele><time>2026-03-30T11:49:52.292Z</time></trkpt><trkpt lat="40.916145" lon="14.2907167"><ele>59.0</ele><time>2026-03-30T11:49:53.291Z</time></trkpt><trkpt lat="40.9162217" lon="14.2907517"><ele>58.66666666666667</ele><time>2026-03-30T11:49:54.291Z</time></trkpt><trkpt lat="40.916295" lon="14.29079"><ele>58.333333333333336</ele><time>2026-03-30T11:49:55.291Z</time></trkpt><trkpt lat="40.9163683" lon="14.2908233"><ele>58.0</ele><time>2026-03-30T11:49:56.291Z</time></trkpt><trkpt lat="40.9164417" lon="14.2908617"><ele>57.66666666666667</ele><time>2026-03-30T11:49:57.291Z</time></trkpt><trkpt lat="40.9165117" lon="14.2909017"><ele>57.333333333333336</ele><time>2026-03-30T11:49:58.291Z</time></trkpt><trkpt lat="40.9165817" lon="14.2909417"><ele>57.0</ele><time>2026-03-30T11:49:59.292Z</time></trkpt><trkpt lat="40.91665" lon="14.2909833"><ele>57.0</ele><time>2026-03-30T11:50:00.292Z</time></trkpt><trkpt lat="40.9167183" lon="14.2910217"><ele>56.99999999999999</ele><time>2026-03-30T11:50:01.291Z</time></trkpt><trkpt lat="40.9167867" lon="14.2910633"><ele>57.0</ele><time>2026-03-30T11:50:02.291Z</time></trkpt><trkpt lat="40.9168583" lon="14.2911017"><ele>57.0</ele><time>2026-03-30T11:50:03.291Z</time></trkpt><trkpt lat="40.916925" lon="14.2911383"><ele>56.99999999999999</ele><time>2026-03-30T11:50:04.291Z</time></trkpt><trkpt lat="40.9169917" lon="14.29118"><ele>57.0</ele><time>2026-03-30T11:50:05.291Z</time></trkpt><trkpt lat="40.9170567" lon="14.2912233"><ele>57.0</ele><time>2026-03-30T11:50:06.294Z</time></trkpt><trkpt lat="40.917125" lon="14.2912617"><ele>57.0</ele><time>2026-03-30T11:50:07.292Z</time></trkpt><trkpt lat="40.917195" lon="14.2913"><ele>57.0</ele><time>2026-03-30T11:50:08.292Z</time></trkpt><trkpt lat="40.9172667" lon="14.2913467"><ele>57.0</ele><time>2026-03-30T11:50:09.292Z</time></trkpt><trkpt lat="40.9173333" lon="14.2914"><ele>57.0</ele><time>2026-03-30T11:50:10.291Z</time></trkpt><trkpt lat="40.9174" lon="14.291455"><ele>57.0</ele><time>2026-03-30T11:50:11.292Z</time></trkpt><trkpt lat="40.91747" lon="14.2915067"><ele>57.0</ele><time>2026-03-30T11:50:12.291Z</time></trkpt><trkpt lat="40.91754" lon="14.2915667"><ele>56.666666666666664</ele><time>2026-03-30T11:50:13.291Z</time></trkpt><trkpt lat="40.9176133" lon="14.2916217"><ele>56.33333333333333</ele><time>2026-03-30T11:50:14.291Z</time></trkpt><trkpt lat="40.9176883" lon="14.29167"><ele>56.0</ele><time>2026-03-30T11:50:15.292Z</time></trkpt><trkpt lat="40.9177633" lon="14.2917217"><ele>55.666666666666664</ele><time>2026-03-30T11:50:16.292Z</time></trkpt><trkpt lat="40.9178417" lon="14.2917667"><ele>55.33333333333333</ele><time>2026-03-30T11:50:17.291Z</time></trkpt><trkpt lat="40.9179167" lon="14.2918183"><ele>55.0</ele><time>2026-03-30T11:50:18.291Z</time></trkpt><trkpt lat="40.9179933" lon="14.29186"><ele>54.99999999999999</ele><time>2026-03-30T11:50:19.292Z</time></trkpt><trkpt lat="40.91807" lon="14.2918967"><ele>55.0</ele><time>2026-03-30T11:50:20.291Z</time></trkpt><trkpt lat="40.91815" lon="14.2919283"><ele>55.0</ele><time>2026-03-30T11:50:21.291Z</time></trkpt><trkpt lat="40.9182333" lon="14.2919633"><ele>55.0</ele><time>2026-03-30T11:50:22.292Z</time></trkpt><trkpt lat="40.9183167" lon="14.291995"><ele>54.99999999999999</ele><time>2026-03-30T11:50:23.291Z</time></trkpt><trkpt lat="40.9183983" lon="14.29203"><ele>55.0</ele><time>2026-03-30T11:50:24.291Z</time></trkpt><trkpt lat="40.9184833" lon="14.292065"><ele>54.99999999999999</ele><time>2026-03-30T11:50:25.292Z</time></trkpt><trkpt lat="40.9185683" lon="14.2920967"><ele>55.0</ele><time>2026-03-30T11:50:26.292Z</time></trkpt><trkpt lat="40.918655" lon="14.2921283"><ele>55.0</ele><time>2026-03-30T11:50:27.291Z</time></trkpt><trkpt lat="40.91874" lon="14.29216"><ele>55.0</ele><time>2026-03-30T11:50:28.291Z</time></trkpt><trkpt lat="40.91882" lon="14.29219"><ele>54.99999999999999</ele><time>2026-03-30T11:50:29.292Z</time></trkpt><trkpt lat="40.9189017" lon="14.2922183"><ele>55.0</ele><time>2026-03-30T11:50:30.291Z</time></trkpt><trkpt lat="40.91898" lon="14.292255"><ele>54.99999999999999</ele><time>2026-03-30T11:50:31.291Z</time></trkpt><trkpt lat="40.91906" lon="14.292295"><ele>55.0</ele><time>2026-03-30T11:50:32.291Z</time></trkpt><trkpt lat="40.91914" lon="14.2923317"><ele>55.0</ele><time>2026-03-30T11:50:33.292Z</time></trkpt><trkpt lat="40.9192217" lon="14.2923683"><ele>55.0</ele><time>2026-03-30T11:50:34.291Z</time></trkpt><trkpt lat="40.919305" lon="14.2924083"><ele>54.99999999999999</ele><time>2026-03-30T11:50:35.292Z</time></trkpt><trkpt lat="40.9193883" lon="14.2924517"><ele>55.0</ele><time>2026-03-30T11:50:36.291Z</time></trkpt><trkpt lat="40.9194733" lon="14.2925017"><ele>54.6</ele><time>2026-03-30T11:50:37.292Z</time></trkpt><trkpt lat="40.919555" lon="14.29256"><ele>54.2</ele><time>2026-03-30T11:50:38.291Z</time></trkpt><trkpt lat="40.9196333" lon="14.29263"><ele>53.8</ele><time>2026-03-30T11:50:39.291Z</time></trkpt><trkpt lat="40.91971" lon="14.292705"><ele>53.4</ele><time>2026-03-30T11:50:40.291Z</time></trkpt><trkpt lat="40.919785" lon="14.292775"><ele>53.0</ele><time>2026-03-30T11:50:41.292Z</time></trkpt><trkpt lat="40.9198533" lon="14.292845"><ele>53.0</ele><time>2026-03-30T11:50:42.291Z</time></trkpt><trkpt lat="40.919905" lon="14.292915"><ele>53.0</ele><time>2026-03-30T11:50:43.292Z</time></trkpt><trkpt lat="40.919965" lon="14.2930333"><ele>53.0</ele><time>2026-03-30T11:50:45.291Z</time></trkpt><trkpt lat="40.9199883" lon="14.2931717"><ele>53.0</ele><time>2026-03-30T11:50:47.291Z</time></trkpt><trkpt lat="40.9200133" lon="14.2933233"><ele>53.0</ele><time>2026-03-30T11:50:49.292Z</time></trkpt><trkpt lat="40.9200533" lon="14.2933883"><ele>53.0</ele><time>2026-03-30T11:50:50.291Z</time></trkpt><trkpt lat="40.9201033" lon="14.2934433"><ele>53.0</ele><time>2026-03-30T11:50:51.291Z</time></trkpt><trkpt lat="40.9201667" lon="14.2934783"><ele>53.0</ele><time>2026-03-30T11:50:52.291Z</time></trkpt><trkpt lat="40.92024" lon="14.2934933"><ele>53.0</ele><time>2026-03-30T11:50:53.292Z</time></trkpt><trkpt lat="40.9203217" lon="14.2934983"><ele>53.0</ele><time>2026-03-30T11:50:54.291Z</time></trkpt><trkpt lat="40.9203983" lon="14.2935233"><ele>53.0</ele><time>2026-03-30T11:50:55.291Z</time></trkpt><trkpt lat="40.9204733" lon="14.2935583"><ele>53.0</ele><time>2026-03-30T11:50:56.291Z</time></trkpt><trkpt lat="40.9205533" lon="14.2935983"><ele>53.00000000000001</ele><time>2026-03-30T11:50:57.291Z</time></trkpt><trkpt lat="40.9206283" lon="14.2936483"><ele>53.0</ele><time>2026-03-30T11:50:58.291Z</time></trkpt><trkpt lat="40.9207" lon="14.2937017"><ele>53.0</ele><time>2026-03-30T11:50:59.292Z</time></trkpt><trkpt lat="40.9207733" lon="14.293755"><ele>53.0</ele><time>2026-03-30T11:51:00.291Z</time></trkpt><trkpt lat="40.920845" lon="14.2938067"><ele>53.00000000000001</ele><time>2026-03-30T11:51:01.292Z</time></trkpt><trkpt lat="40.9209233" lon="14.29385"><ele>53.0</ele><time>2026-03-30T11:51:02.291Z</time></trkpt><trkpt lat="40.9210033" lon="14.2938883"><ele>52.833333333333336</ele><time>2026-03-30T11:51:03.291Z</time></trkpt><trkpt lat="40.9210867" lon="14.2939217"><ele>52.66666666666667</ele><time>2026-03-30T11:51:04.292Z</time></trkpt><trkpt lat="40.92117" lon="14.293955"><ele>52.5</ele><time>2026-03-30T11:51:05.293Z</time></trkpt><trkpt lat="40.9212517" lon="14.29399"><ele>52.33333333333333</ele><time>2026-03-30T11:51:06.291Z</time></trkpt><trkpt lat="40.921335" lon="14.2940233"><ele>52.166666666666664</ele><time>2026-03-30T11:51:07.292Z</time></trkpt><trkpt lat="40.921415" lon="14.2940533"><ele>52.0</ele><time>2026-03-30T11:51:08.291Z</time></trkpt><trkpt lat="40.9214967" lon="14.2940867"><ele>51.99999999999999</ele><time>2026-03-30T11:51:09.292Z</time></trkpt><trkpt lat="40.9215767" lon="14.2941183"><ele>52.0</ele><time>2026-03-30T11:51:10.291Z</time></trkpt><trkpt lat="40.9216567" lon="14.2941533"><ele>52.0</ele><time>2026-03-30T11:51:11.292Z</time></trkpt><trkpt lat="40.921735" lon="14.29419"><ele>52.0</ele><time>2026-03-30T11:51:12.291Z</time></trkpt><trkpt lat="40.9218117" lon="14.2942267"><ele>51.99999999999999</ele><time>2026-03-30T11:51:13.292Z</time></trkpt><trkpt lat="40.9218933" lon="14.2942617"><ele>52.0</ele><time>2026-03-30T11:51:14.292Z</time></trkpt><trkpt lat="40.9219717" lon="14.2943017"><ele>51.83333333333333</ele><time>2026-03-30T11:51:15.292Z</time></trkpt><trkpt lat="40.9220517" lon="14.2943367"><ele>51.666666666666664</ele><time>2026-03-30T11:51:16.292Z</time></trkpt><trkpt lat="40.922135" lon="14.2943717"><ele>51.5</ele><time>2026-03-30T11:51:17.292Z</time></trkpt><trkpt lat="40.9222183" lon="14.294405"><ele>51.33333333333333</ele><time>2026-03-30T11:51:18.292Z</time></trkpt><trkpt lat="40.9223033" lon="14.29444"><ele>51.166666666666664</ele><time>2026-03-30T11:51:19.292Z</time></trkpt><trkpt lat="40.9223867" lon="14.294475"><ele>51.0</ele><time>2026-03-30T11:51:20.291Z</time></trkpt><trkpt lat="40.9224733" lon="14.294505"><ele>51.0</ele><time>2026-03-30T11:51:21.291Z</time></trkpt><trkpt lat="40.9225567" lon="14.2945483"><ele>51.0</ele><time>2026-03-30T11:51:22.292Z</time></trkpt><trkpt lat="40.9226383" lon="14.2946017"><ele>51.0</ele><time>2026-03-30T11:51:23.291Z</time></trkpt><trkpt lat="40.9227133" lon="14.29467"><ele>51.0</ele><time>2026-03-30T11:51:24.291Z</time></trkpt><trkpt lat="40.9227833" lon="14.2947467"><ele>51.0</ele><time>2026-03-30T11:51:25.292Z</time></trkpt><trkpt lat="40.9228433" lon="14.2948383"><ele>50.8</ele><time>2026-03-30T11:51:26.291Z</time></trkpt><trkpt lat="40.9229" lon="14.2949333"><ele>50.599999999999994</ele><time>2026-03-30T11:51:27.292Z</time></trkpt><trkpt lat="40.9229533" lon="14.2950333"><ele>50.4</ele><time>2026-03-30T11:51:28.294Z</time></trkpt><trkpt lat="40.9230067" lon="14.2951333"><ele>50.2</ele><time>2026-03-30T11:51:29.292Z</time></trkpt><trkpt lat="40.92306" lon="14.2952317"><ele>50.0</ele><time>2026-03-30T11:51:30.291Z</time></trkpt><trkpt lat="40.9231167" lon="14.2953317"><ele>50.0</ele><time>2026-03-30T11:51:31.292Z</time></trkpt><trkpt lat="40.9231717" lon="14.2954333"><ele>50.0</ele><time>2026-03-30T11:51:32.292Z</time></trkpt><trkpt lat="40.92323" lon="14.295535"><ele>50.0</ele><time>2026-03-30T11:51:33.291Z</time></trkpt><trkpt lat="40.9232883" lon="14.2956317"><ele>50.0</ele><time>2026-03-30T11:51:34.292Z</time></trkpt><trkpt lat="40.9233467" lon="14.29573"><ele>50.0</ele><time>2026-03-30T11:51:35.292Z</time></trkpt><trkpt lat="40.9234033" lon="14.2958317"><ele>49.4</ele><time>2026-03-30T11:51:36.292Z</time></trkpt><trkpt lat="40.923455" lon="14.2959333"><ele>48.8</ele><time>2026-03-30T11:51:37.291Z</time></trkpt><trkpt lat="40.9235133" lon="14.2960317"><ele>48.2</ele><time>2026-03-30T11:51:38.292Z</time></trkpt><trkpt lat="40.92357" lon="14.2961267"><ele>47.6</ele><time>2026-03-30T11:51:39.292Z</time></trkpt><trkpt lat="40.923625" lon="14.2962233"><ele>47.0</ele><time>2026-03-30T11:51:40.291Z</time></trkpt><trkpt lat="40.9236817" lon="14.2963183"><ele>47.0</ele><time>2026-03-30T11:51:41.291Z</time></trkpt><trkpt lat="40.923735" lon="14.2964133"><ele>47.0</ele><time>2026-03-30T11:51:42.291Z</time></trkpt><trkpt lat="40.92379" lon="14.29651"><ele>47.0</ele><time>2026-03-30T11:51:43.292Z</time></trkpt><trkpt lat="40.9238467" lon="14.2966033"><ele>47.0</ele><time>2026-03-30T11:51:44.292Z</time></trkpt><trkpt lat="40.9239083" lon="14.2966967"><ele>47.0</ele><time>2026-03-30T11:51:45.291Z</time></trkpt><trkpt lat="40.9239667" lon="14.2967933"><ele>47.0</ele><time>2026-03-30T11:51:46.291Z</time></trkpt><trkpt lat="40.924025" lon="14.2968883"><ele>47.0</ele><time>2026-03-30T11:51:47.292Z</time></trkpt><trkpt lat="40.9240833" lon="14.2969833"><ele>47.0</ele><time>2026-03-30T11:51:48.292Z</time></trkpt><trkpt lat="40.9241383" lon="14.2970817"><ele>47.0</ele><time>2026-03-30T11:51:49.292Z</time></trkpt><trkpt lat="40.9241917" lon="14.2971817"><ele>47.0</ele><time>2026-03-30T11:51:50.291Z</time></trkpt><trkpt lat="40.9242483" lon="14.29728"><ele>46.83333333333333</ele><time>2026-03-30T11:51:51.291Z</time></trkpt><trkpt lat="40.924305" lon="14.2973717"><ele>46.666666666666664</ele><time>2026-03-30T11:51:52.291Z</time></trkpt><trkpt lat="40.9243617" lon="14.2974633"><ele>46.5</ele><time>2026-03-30T11:51:53.292Z</time></trkpt><trkpt lat="40.9244167" lon="14.297555"><ele>46.333333333333336</ele><time>2026-03-30T11:51:54.292Z</time></trkpt><trkpt lat="40.92447" lon="14.2976467"><ele>46.16666666666667</ele><time>2026-03-30T11:51:55.292Z</time></trkpt><trkpt lat="40.924525" lon="14.2977383"><ele>46.0</ele><time>2026-03-30T11:51:56.291Z</time></trkpt><trkpt lat="40.924585" lon="14.2978317"><ele>46.0</ele><time>2026-03-30T11:51:57.291Z</time></trkpt><trkpt lat="40.9246433" lon="14.297925"><ele>46.0</ele><time>2026-03-30T11:51:58.291Z</time></trkpt><trkpt lat="40.9247067" lon="14.298015"><ele>46.0</ele><time>2026-03-30T11:51:59.292Z</time></trkpt><trkpt lat="40.924775" lon="14.2981"><ele>46.0</ele><time>2026-03-30T11:52:00.292Z</time></trkpt><trkpt lat="40.9248467" lon="14.2981767"><ele>46.0</ele><time>2026-03-30T11:52:01.292Z</time></trkpt><trkpt lat="40.9249233" lon="14.2982533"><ele>46.0</ele><time>2026-03-30T11:52:02.291Z</time></trkpt><trkpt lat="40.9250017" lon="14.29833"><ele>46.0</ele><time>2026-03-30T11:52:03.291Z</time></trkpt><trkpt lat="40.9250783" lon="14.2984067"><ele>46.0</ele><time>2026-03-30T11:52:04.292Z</time></trkpt><trkpt lat="40.9251617" lon="14.29847"><ele>46.0</ele><time>2026-03-30T11:52:05.292Z</time></trkpt><trkpt lat="40.9252467" lon="14.2985283"><ele>46.0</ele><time>2026-03-30T11:52:06.292Z</time></trkpt><trkpt lat="40.925335" lon="14.2985733"><ele>46.199999999999996</ele><time>2026-03-30T11:52:07.292Z</time></trkpt><trkpt lat="40.925425" lon="14.29861"><ele>46.4</ele><time>2026-03-30T11:52:08.291Z</time></trkpt><trkpt lat="40.9255183" lon="14.2986417"><ele>46.6</ele><time>2026-03-30T11:52:09.291Z</time></trkpt><trkpt lat="40.9256133" lon="14.2986683"><ele>46.8</ele><time>2026-03-30T11:52:10.291Z</time></trkpt><trkpt lat="40.925705" lon="14.2986867"><ele>47.0</ele><time>2026-03-30T11:52:11.292Z</time></trkpt><trkpt lat="40.9257967" lon="14.2987017"><ele>47.0</ele><time>2026-03-30T11:52:12.292Z</time></trkpt><trkpt lat="40.9258867" lon="14.2987133"><ele>47.0</ele><time>2026-03-30T11:52:13.292Z</time></trkpt><trkpt lat="40.925975" lon="14.298715"><ele>47.0</ele><time>2026-03-30T11:52:14.292Z</time></trkpt><trkpt lat="40.9260667" lon="14.2987133"><ele>47.0</ele><time>2026-03-30T11:52:15.291Z</time></trkpt><trkpt lat="40.926155" lon="14.2987067"><ele>47.0</ele><time>2026-03-30T11:52:16.291Z</time></trkpt><trkpt lat="40.9262417" lon="14.2987033"><ele>47.0</ele><time>2026-03-30T11:52:17.292Z</time></trkpt><trkpt lat="40.9263283" lon="14.2986933"><ele>46.666666666666664</ele><time>2026-03-30T11:52:18.292Z</time></trkpt><trkpt lat="40.926415" lon="14.2986867"><ele>46.33333333333333</ele><time>2026-03-30T11:52:19.291Z</time></trkpt><trkpt lat="40.9265017" lon="14.29868"><ele>46.0</ele><time>2026-03-30T11:52:20.292Z</time></trkpt><trkpt lat="40.9265883" lon="14.298675"><ele>45.666666666666664</ele><time>2026-03-30T11:52:21.291Z</time></trkpt><trkpt lat="40.92668" lon="14.29867"><ele>45.333333333333336</ele><time>2026-03-30T11:52:22.291Z</time></trkpt><trkpt lat="40.92677" lon="14.298665"><ele>45.0</ele><time>2026-03-30T11:52:23.292Z</time></trkpt><trkpt lat="40.9268617" lon="14.2986567"><ele>44.714285714285715</ele><time>2026-03-30T11:52:24.291Z</time></trkpt><trkpt lat="40.9269467" lon="14.2986467"><ele>44.42857142857143</ele><time>2026-03-30T11:52:25.292Z</time></trkpt><trkpt lat="40.9270183" lon="14.2986367"><ele>44.142857142857146</ele><time>2026-03-30T11:52:26.292Z</time></trkpt><trkpt lat="40.927085" lon="14.2986283"><ele>43.85714285714286</ele><time>2026-03-30T11:52:27.291Z</time></trkpt><trkpt lat="40.9271533" lon="14.2986383"><ele>43.57142857142857</ele><time>2026-03-30T11:52:28.291Z</time></trkpt><trkpt lat="40.92722" lon="14.2986633"><ele>43.28571428571429</ele><time>2026-03-30T11:52:29.292Z</time></trkpt><trkpt lat="40.9272867" lon="14.2986767"><ele>43.0</ele><time>2026-03-30T11:52:30.291Z</time></trkpt><trkpt lat="40.9273567" lon="14.2986717"><ele>43.00000000000001</ele><time>2026-03-30T11:52:31.291Z</time></trkpt><trkpt lat="40.92742" lon="14.29865"><ele>43.0</ele><time>2026-03-30T11:52:32.292Z</time></trkpt><trkpt lat="40.9274867" lon="14.29863"><ele>43.0</ele><time>2026-03-30T11:52:33.291Z</time></trkpt><trkpt lat="40.9275533" lon="14.2986117"><ele>43.0</ele><time>2026-03-30T11:52:34.292Z</time></trkpt><trkpt lat="40.9276217" lon="14.2985967"><ele>43.0</ele><time>2026-03-30T11:52:35.292Z</time></trkpt><trkpt lat="40.9276917" lon="14.298585"><ele>43.00000000000001</ele><time>2026-03-30T11:52:36.292Z</time></trkpt><trkpt lat="40.9277667" lon="14.2985767"><ele>43.0</ele><time>2026-03-30T11:52:37.292Z</time></trkpt><trkpt lat="40.9278467" lon="14.2985683"><ele>43.0</ele><time>2026-03-30T11:52:38.292Z</time></trkpt><trkpt lat="40.9279267" lon="14.2985567"><ele>43.0</ele><time>2026-03-30T11:52:39.291Z</time></trkpt><trkpt lat="40.9280083" lon="14.2985467"><ele>43.0</ele><time>2026-03-30T11:52:40.292Z</time></trkpt><trkpt lat="40.9280933" lon="14.2985367"><ele>43.0</ele><time>2026-03-30T11:52:41.292Z</time></trkpt><trkpt lat="40.92818" lon="14.298525"><ele>43.0</ele><time>2026-03-30T11:52:42.292Z</time></trkpt><trkpt lat="40.9282683" lon="14.2985117"><ele>43.0</ele><time>2026-03-30T11:52:43.292Z</time></trkpt><trkpt lat="40.92836" lon="14.2984933"><ele>42.8</ele><time>2026-03-30T11:52:44.292Z</time></trkpt><trkpt lat="40.92845" lon="14.2984767"><ele>42.599999999999994</ele><time>2026-03-30T11:52:45.292Z</time></trkpt><trkpt lat="40.9285433" lon="14.298465"><ele>42.400000000000006</ele><time>2026-03-30T11:52:46.291Z</time></trkpt><trkpt lat="40.9286367" lon="14.298455"><ele>42.2</ele><time>2026-03-30T11:52:47.292Z</time></trkpt><trkpt lat="40.9287283" lon="14.2984467"><ele>42.0</ele><time>2026-03-30T11:52:48.291Z</time></trkpt><trkpt lat="40.9288217" lon="14.2984317"><ele>42.0</ele><time>2026-03-30T11:52:49.291Z</time></trkpt><trkpt lat="40.9289133" lon="14.2984217"><ele>42.0</ele><time>2026-03-30T11:52:50.291Z</time></trkpt><trkpt lat="40.9290067" lon="14.2984117"><ele>42.0</ele><time>2026-03-30T11:52:51.291Z</time></trkpt><trkpt lat="40.9291017" lon="14.2984033"><ele>42.0</ele><time>2026-03-30T11:52:52.292Z</time></trkpt><trkpt lat="40.9292" lon="14.2983867"><ele>42.0</ele><time>2026-03-30T11:52:53.291Z</time></trkpt><trkpt lat="40.9293" lon="14.2983717"><ele>42.0</ele><time>2026-03-30T11:52:54.292Z</time></trkpt><trkpt lat="40.9293983" lon="14.2983567"><ele>42.0</ele><time>2026-03-30T11:52:55.292Z</time></trkpt><trkpt lat="40.929495" lon="14.2983433"><ele>42.0</ele><time>2026-03-30T11:52:56.291Z</time></trkpt><trkpt lat="40.92959" lon="14.29833"><ele>42.0</ele><time>2026-03-30T11:52:57.293Z</time></trkpt><trkpt lat="40.929685" lon="14.2983217"><ele>42.0</ele><time>2026-03-30T11:52:58.291Z</time></trkpt><trkpt lat="40.9297767" lon="14.298325"><ele>42.0</ele><time>2026-03-30T11:52:59.291Z</time></trkpt><trkpt lat="40.9298617" lon="14.2983467"><ele>42.0</ele><time>2026-03-30T11:53:00.292Z</time></trkpt><trkpt lat="40.9299417" lon="14.29839"><ele>42.0</ele><time>2026-03-30T11:53:01.292Z</time></trkpt><trkpt lat="40.9300133" lon="14.2984483"><ele>42.0</ele><time>2026-03-30T11:53:02.292Z</time></trkpt><trkpt lat="40.93008" lon="14.29852"><ele>42.0</ele><time>2026-03-30T11:53:03.291Z</time></trkpt><trkpt lat="40.9301433" lon="14.2986033"><ele>42.0</ele><time>2026-03-30T11:53:04.291Z</time></trkpt><trkpt lat="40.9302083" lon="14.2986917"><ele>42.0</ele><time>2026-03-30T11:53:05.292Z</time></trkpt><trkpt lat="40.9302733" lon="14.2987783"><ele>42.0</ele><time>2026-03-30T11:53:06.291Z</time></trkpt><trkpt lat="40.9303383" lon="14.29887"><ele>42.0</ele><time>2026-03-30T11:53:07.292Z</time></trkpt><trkpt lat="40.9304033" lon="14.2989583"><ele>42.0</ele><time>2026-03-30T11:53:08.291Z</time></trkpt><trkpt lat="40.9304667" lon="14.29905"><ele>42.0</ele><time>2026-03-30T11:53:09.291Z</time></trkpt><trkpt lat="40.930535" lon="14.2991433"><ele>41.6</ele><time>2026-03-30T11:53:10.292Z</time></trkpt><trkpt lat="40.9306017" lon="14.2992367"><ele>41.2</ele><time>2026-03-30T11:53:11.292Z</time></trkpt><trkpt lat="40.9306667" lon="14.29933"><ele>40.8</ele><time>2026-03-30T11:53:12.291Z</time></trkpt><trkpt lat="40.93073" lon="14.2994283"><ele>40.4</ele><time>2026-03-30T11:53:13.292Z</time></trkpt><trkpt lat="40.9307933" lon="14.29953"><ele>40.0</ele><time>2026-03-30T11:53:14.292Z</time></trkpt><trkpt lat="40.9308567" lon="14.29963"><ele>40.0</ele><time>2026-03-30T11:53:15.291Z</time></trkpt><trkpt lat="40.93092" lon="14.2997283"><ele>40.0</ele><time>2026-03-30T11:53:16.292Z</time></trkpt><trkpt lat="40.930985" lon="14.2998233"><ele>40.0</ele><time>2026-03-30T11:53:17.291Z</time></trkpt><trkpt lat="40.93105" lon="14.2999183"><ele>40.0</ele><time>2026-03-30T11:53:18.291Z</time></trkpt><trkpt lat="40.9311167" lon="14.30001"><ele>40.0</ele><time>2026-03-30T11:53:19.292Z</time></trkpt><trkpt lat="40.9311833" lon="14.300105"><ele>40.0</ele><time>2026-03-30T11:53:20.291Z</time></trkpt><trkpt lat="40.9312517" lon="14.3001983"><ele>40.0</ele><time>2026-03-30T11:53:21.291Z</time></trkpt><trkpt lat="40.93132" lon="14.3002917"><ele>40.0</ele><time>2026-03-30T11:53:22.291Z</time></trkpt><trkpt lat="40.9313867" lon="14.3003883"><ele>40.0</ele><time>2026-03-30T11:53:23.292Z</time></trkpt><trkpt lat="40.9314533" lon="14.3004817"><ele>40.0</ele><time>2026-03-30T11:53:24.292Z</time></trkpt><trkpt lat="40.93152" lon="14.3005783"><ele>40.0</ele><time>2026-03-30T11:53:25.292Z</time></trkpt><trkpt lat="40.9315867" lon="14.3006783"><ele>40.0</ele><time>2026-03-30T11:53:26.291Z</time></trkpt><trkpt lat="40.9316517" lon="14.300775"><ele>40.0</ele><time>2026-03-30T11:53:27.291Z</time></trkpt><trkpt lat="40.9317167" lon="14.3008683"><ele>40.0</ele><time>2026-03-30T11:53:28.291Z</time></trkpt><trkpt lat="40.9317833" lon="14.3009517"><ele>40.0</ele><time>2026-03-30T11:53:29.292Z</time></trkpt><trkpt lat="40.9318533" lon="14.301025"><ele>40.0</ele><time>2026-03-30T11:53:30.292Z</time></trkpt><trkpt lat="40.9319283" lon="14.301085"><ele>40.0</ele><time>2026-03-30T11:53:31.292Z</time></trkpt><trkpt lat="40.9320083" lon="14.3011317"><ele>40.0</ele><time>2026-03-30T11:53:32.291Z</time></trkpt><trkpt lat="40.93209" lon="14.3011683"><ele>40.0</ele><time>2026-03-30T11:53:33.291Z</time></trkpt><trkpt lat="40.932175" lon="14.301195"><ele>40.0</ele><time>2026-03-30T11:53:34.291Z</time></trkpt><trkpt lat="40.9322633" lon="14.301215"><ele>40.0</ele><time>2026-03-30T11:53:35.291Z</time></trkpt><trkpt lat="40.9323567" lon="14.3012333"><ele>40.0</ele><time>2026-03-30T11:53:36.292Z</time></trkpt><trkpt lat="40.9324483" lon="14.3012533"><ele>40.0</ele><time>2026-03-30T11:53:37.292Z</time></trkpt><trkpt lat="40.9325417" lon="14.3012617"><ele>40.0</ele><time>2026-03-30T11:53:38.291Z</time></trkpt><trkpt lat="40.932635" lon="14.30127"><ele>40.0</ele><time>2026-03-30T11:53:39.291Z</time></trkpt><trkpt lat="40.9327267" lon="14.3012717"><ele>40.0</ele><time>2026-03-30T11:53:40.291Z</time></trkpt><trkpt lat="40.93282" lon="14.3012717"><ele>39.8</ele><time>2026-03-30T11:53:41.292Z</time></trkpt><trkpt lat="40.9329133" lon="14.3012667"><ele>39.6</ele><time>2026-03-30T11:53:42.291Z</time></trkpt><trkpt lat="40.933005" lon="14.3012667"><ele>39.4</ele><time>2026-03-30T11:53:43.292Z</time></trkpt><trkpt lat="40.9330967" lon="14.301265"><ele>39.2</ele><time>2026-03-30T11:53:44.292Z</time></trkpt><trkpt lat="40.93319" lon="14.301265"><ele>39.0</ele><time>2026-03-30T11:53:45.291Z</time></trkpt><trkpt lat="40.9332833" lon="14.3012667"><ele>39.0</ele><time>2026-03-30T11:53:46.292Z</time></trkpt><trkpt lat="40.93337" lon="14.301275"><ele>39.0</ele><time>2026-03-30T11:53:47.292Z</time></trkpt><trkpt lat="40.933455" lon="14.301295"><ele>39.0</ele><time>2026-03-30T11:53:48.291Z</time></trkpt><trkpt lat="40.9335383" lon="14.30133"><ele>39.0</ele><time>2026-03-30T11:53:49.292Z</time></trkpt><trkpt lat="40.9336167" lon="14.3013783"><ele>39.0</ele><time>2026-03-30T11:53:50.292Z</time></trkpt><trkpt lat="40.9336867" lon="14.3014333"><ele>39.0</ele><time>2026-03-30T11:53:51.291Z</time></trkpt><trkpt lat="40.9337567" lon="14.3014867"><ele>38.833333333333336</ele><time>2026-03-30T11:53:52.291Z</time></trkpt><trkpt lat="40.9338283" lon="14.30151"><ele>38.666666666666664</ele><time>2026-03-30T11:53:53.292Z</time></trkpt><trkpt lat="40.9339017" lon="14.3015233"><ele>38.5</ele><time>2026-03-30T11:53:54.291Z</time></trkpt><trkpt lat="40.9339733" lon="14.301505"><ele>38.33333333333333</ele><time>2026-03-30T11:53:55.291Z</time></trkpt><trkpt lat="40.9340433" lon="14.30145"><ele>38.166666666666664</ele><time>2026-03-30T11:53:56.291Z</time></trkpt><trkpt lat="40.9341133" lon="14.3014033"><ele>38.0</ele><time>2026-03-30T11:53:57.291Z</time></trkpt><trkpt lat="40.9341917" lon="14.30137"><ele>38.199999999999996</ele><time>2026-03-30T11:53:58.291Z</time></trkpt><trkpt lat="40.9342817" lon="14.3013383"><ele>38.4</ele><time>2026-03-30T11:53:59.292Z</time></trkpt><trkpt lat="40.9343617" lon="14.301305"><ele>38.599999999999994</ele><time>2026-03-30T11:54:00.291Z</time></trkpt><trkpt lat="40.9344517" lon="14.3012917"><ele>38.8</ele><time>2026-03-30T11:54:01.292Z</time></trkpt><trkpt lat="40.93454" lon="14.3012983"><ele>39.0</ele><time>2026-03-30T11:54:02.291Z</time></trkpt><trkpt lat="40.934635" lon="14.3013017"><ele>39.0</ele><time>2026-03-30T11:54:03.292Z</time></trkpt><trkpt lat="40.9347283" lon="14.3012983"><ele>39.0</ele><time>2026-03-30T11:54:04.291Z</time></trkpt><trkpt lat="40.9348233" lon="14.3012933"><ele>39.0</ele><time>2026-03-30T11:54:05.293Z</time></trkpt><trkpt lat="40.9349167" lon="14.30129"><ele>39.0</ele><time>2026-03-30T11:54:06.291Z</time></trkpt><trkpt lat="40.9350067" lon="14.3012917"><ele>39.0</ele><time>2026-03-30T11:54:07.292Z</time></trkpt><trkpt lat="40.9350983" lon="14.30129"><ele>38.6</ele><time>2026-03-30T11:54:08.293Z</time></trkpt><trkpt lat="40.9351883" lon="14.3012917"><ele>38.2</ele><time>2026-03-30T11:54:09.291Z</time></trkpt><trkpt lat="40.9352817" lon="14.3012933"><ele>37.800000000000004</ele><time>2026-03-30T11:54:10.291Z</time></trkpt><trkpt lat="40.9353733" lon="14.3012967"><ele>37.4</ele><time>2026-03-30T11:54:11.292Z</time></trkpt><trkpt lat="40.935465" lon="14.3012983"><ele>37.0</ele><time>2026-03-30T11:54:12.292Z</time></trkpt><trkpt lat="40.9355583" lon="14.3012933"><ele>37.0</ele><time>2026-03-30T11:54:13.292Z</time></trkpt><trkpt lat="40.9356533" lon="14.3012917"><ele>37.0</ele><time>2026-03-30T11:54:14.291Z</time></trkpt><trkpt lat="40.935745" lon="14.3012917"><ele>37.0</ele><time>2026-03-30T11:54:15.291Z</time></trkpt><trkpt lat="40.9358367" lon="14.301285"><ele>37.0</ele><time>2026-03-30T11:54:16.292Z</time></trkpt><trkpt lat="40.935925" lon="14.301275"><ele>37.0</ele><time>2026-03-30T11:54:17.292Z</time></trkpt><trkpt lat="40.9360133" lon="14.30126"><ele>37.0</ele><time>2026-03-30T11:54:18.292Z</time></trkpt><trkpt lat="40.9360983" lon="14.301245"><ele>37.0</ele><time>2026-03-30T11:54:19.292Z</time></trkpt><trkpt lat="40.9361833" lon="14.3012283"><ele>37.0</ele><time>2026-03-30T11:54:20.291Z</time></trkpt><trkpt lat="40.9362633" lon="14.3012083"><ele>37.0</ele><time>2026-03-30T11:54:21.291Z</time></trkpt><trkpt lat="40.936345" lon="14.3011833"><ele>37.0</ele><time>2026-03-30T11:54:22.291Z</time></trkpt><trkpt lat="40.9364283" lon="14.3011633"><ele>37.0</ele><time>2026-03-30T11:54:23.292Z</time></trkpt><trkpt lat="40.9365133" lon="14.30115"><ele>37.0</ele><time>2026-03-30T11:54:24.291Z</time></trkpt><trkpt lat="40.9366" lon="14.301135"><ele>37.0</ele><time>2026-03-30T11:54:25.292Z</time></trkpt><trkpt lat="40.9366833" lon="14.3011217"><ele>37.0</ele><time>2026-03-30T11:54:26.291Z</time></trkpt><trkpt lat="40.9367667" lon="14.301105"><ele>37.0</ele><time>2026-03-30T11:54:27.291Z</time></trkpt><trkpt lat="40.9368517" lon="14.301085"><ele>37.0</ele><time>2026-03-30T11:54:28.292Z</time></trkpt><trkpt lat="40.9369383" lon="14.301065"><ele>37.0</ele><time>2026-03-30T11:54:29.292Z</time></trkpt><trkpt lat="40.9370267" lon="14.3010433"><ele>37.0</ele><time>2026-03-30T11:54:30.292Z</time></trkpt><trkpt lat="40.9371133" lon="14.3010267"><ele>37.0</ele><time>2026-03-30T11:54:31.292Z</time></trkpt><trkpt lat="40.9372017" lon="14.3010083"><ele>37.0</ele><time>2026-03-30T11:54:32.292Z</time></trkpt><trkpt lat="40.937285" lon="14.30099"><ele>37.0</ele><time>2026-03-30T11:54:33.291Z</time></trkpt><trkpt lat="40.93737" lon="14.30097"><ele>37.0</ele><time>2026-03-30T11:54:34.292Z</time></trkpt><trkpt lat="40.93746" lon="14.3009467"><ele>37.0</ele><time>2026-03-30T11:54:35.292Z</time></trkpt><trkpt lat="40.9375467" lon="14.3009267"><ele>37.16666666666667</ele><time>2026-03-30T11:54:36.292Z</time></trkpt><trkpt lat="40.93763" lon="14.3009067"><ele>37.333333333333336</ele><time>2026-03-30T11:54:37.292Z</time></trkpt><trkpt lat="40.9377167" lon="14.3008867"><ele>37.5</ele><time>2026-03-30T11:54:38.292Z</time></trkpt><trkpt lat="40.9378033" lon="14.3008633"><ele>37.666666666666664</ele><time>2026-03-30T11:54:39.291Z</time></trkpt><trkpt lat="40.9378867" lon="14.3008367"><ele>37.83333333333333</ele><time>2026-03-30T11:54:40.292Z</time></trkpt><trkpt lat="40.9379683" lon="14.3008067"><ele>38.0</ele><time>2026-03-30T11:54:41.292Z</time></trkpt><trkpt lat="40.9380483" lon="14.3007733"><ele>38.0</ele><time>2026-03-30T11:54:42.292Z</time></trkpt><trkpt lat="40.938125" lon="14.3007367"><ele>38.0</ele><time>2026-03-30T11:54:43.292Z</time></trkpt><trkpt lat="40.9382017" lon="14.3007"><ele>38.0</ele><time>2026-03-30T11:54:44.292Z</time></trkpt><trkpt lat="40.9382767" lon="14.30066"><ele>38.0</ele><time>2026-03-30T11:54:45.291Z</time></trkpt><trkpt lat="40.9383517" lon="14.3006133"><ele>38.0</ele><time>2026-03-30T11:54:46.292Z</time></trkpt><trkpt lat="40.938425" lon="14.3005667"><ele>38.0</ele><time>2026-03-30T11:54:47.292Z</time></trkpt><trkpt lat="40.9384967" lon="14.3005167"><ele>37.857142857142854</ele><time>2026-03-30T11:54:48.292Z</time></trkpt><trkpt lat="40.9385633" lon="14.3004733"><ele>37.714285714285715</ele><time>2026-03-30T11:54:49.292Z</time></trkpt><trkpt lat="40.9386317" lon="14.3004333"><ele>37.57142857142857</ele><time>2026-03-30T11:54:50.292Z</time></trkpt><trkpt lat="40.9387" lon="14.3003983"><ele>37.42857142857143</ele><time>2026-03-30T11:54:51.291Z</time></trkpt><trkpt lat="40.938765" lon="14.300365"><ele>37.285714285714285</ele><time>2026-03-30T11:54:52.292Z</time></trkpt><trkpt lat="40.93883" lon="14.300325"><ele>37.142857142857146</ele><time>2026-03-30T11:54:53.292Z</time></trkpt><trkpt lat="40.938895" lon="14.30029"><ele>37.0</ele><time>2026-03-30T11:54:54.292Z</time></trkpt><trkpt lat="40.9389583" lon="14.3002533"><ele>37.0</ele><time>2026-03-30T11:54:55.292Z</time></trkpt><trkpt lat="40.9390233" lon="14.3002167"><ele>37.0</ele><time>2026-03-30T11:54:56.292Z</time></trkpt><trkpt lat="40.939085" lon="14.30018"><ele>37.0</ele><time>2026-03-30T11:54:57.291Z</time></trkpt><trkpt lat="40.93915" lon="14.3001433"><ele>37.0</ele><time>2026-03-30T11:54:58.291Z</time></trkpt><trkpt lat="40.9392183" lon="14.3001"><ele>37.0</ele><time>2026-03-30T11:54:59.292Z</time></trkpt><trkpt lat="40.9392883" lon="14.300055"><ele>37.0</ele><time>2026-03-30T11:55:00.291Z</time></trkpt><trkpt lat="40.9393617" lon="14.3000083"><ele>37.0</ele><time>2026-03-30T11:55:01.292Z</time></trkpt><trkpt lat="40.9394333" lon="14.29996"><ele>36.833333333333336</ele><time>2026-03-30T11:55:02.292Z</time></trkpt><trkpt lat="40.939505" lon="14.2999117"><ele>36.66666666666667</ele><time>2026-03-30T11:55:03.292Z</time></trkpt><trkpt lat="40.93958" lon="14.299875"><ele>36.5</ele><time>2026-03-30T11:55:04.291Z</time></trkpt><trkpt lat="40.9396533" lon="14.299835"><ele>36.333333333333336</ele><time>2026-03-30T11:55:05.292Z</time></trkpt><trkpt lat="40.9397233" lon="14.29979"><ele>36.166666666666664</ele><time>2026-03-30T11:55:06.292Z</time></trkpt><trkpt lat="40.93979" lon="14.2997433"><ele>36.0</ele><time>2026-03-30T11:55:07.292Z</time></trkpt><trkpt lat="40.9398617" lon="14.2997"><ele>36.0</ele><time>2026-03-30T11:55:08.291Z</time></trkpt><trkpt lat="40.939935" lon="14.29966"><ele>36.0</ele><time>2026-03-30T11:55:09.292Z</time></trkpt><trkpt lat="40.9400083" lon="14.2996233"><ele>36.0</ele><time>2026-03-30T11:55:10.291Z</time></trkpt><trkpt lat="40.940085" lon="14.2995883"><ele>36.0</ele><time>2026-03-30T11:55:11.292Z</time></trkpt><trkpt lat="40.9401617" lon="14.2995617"><ele>36.0</ele><time>2026-03-30T11:55:12.292Z</time></trkpt><trkpt lat="40.9402383" lon="14.29954"><ele>36.0</ele><time>2026-03-30T11:55:13.292Z</time></trkpt><trkpt lat="40.940315" lon="14.29952"><ele>36.166666666666664</ele><time>2026-03-30T11:55:14.292Z</time></trkpt><trkpt lat="40.9403933" lon="14.2994967"><ele>36.333333333333336</ele><time>2026-03-30T11:55:15.291Z</time></trkpt><trkpt lat="40.9404733" lon="14.2994783"><ele>36.5</ele><time>2026-03-30T11:55:16.293Z</time></trkpt><trkpt lat="40.9405517" lon="14.299455"><ele>36.66666666666667</ele><time>2026-03-30T11:55:17.292Z</time></trkpt><trkpt lat="40.9406317" lon="14.299425"><ele>36.833333333333336</ele><time>2026-03-30T11:55:18.292Z</time></trkpt><trkpt lat="40.9407083" lon="14.2994"><ele>37.0</ele><time>2026-03-30T11:55:19.292Z</time></trkpt><trkpt lat="40.9407883" lon="14.2993767"><ele>37.0</ele><time>2026-03-30T11:55:20.292Z</time></trkpt><trkpt lat="40.9408667" lon="14.2993483"><ele>37.0</ele><time>2026-03-30T11:55:21.292Z</time></trkpt><trkpt lat="40.9409467" lon="14.2993233"><ele>37.0</ele><time>2026-03-30T11:55:22.292Z</time></trkpt><trkpt lat="40.941025" lon="14.299295"><ele>37.0</ele><time>2026-03-30T11:55:23.292Z</time></trkpt><trkpt lat="40.9410983" lon="14.29927"><ele>37.0</ele><time>2026-03-30T11:55:24.292Z</time></trkpt><trkpt lat="40.9411667" lon="14.2992417"><ele>37.0</ele><time>2026-03-30T11:55:25.292Z</time></trkpt><trkpt lat="40.94123" lon="14.2992183"><ele>37.0</ele><time>2026-03-30T11:55:26.292Z</time></trkpt><trkpt lat="40.9413317" lon="14.29919"><ele>37.0</ele><time>2026-03-30T11:55:28.292Z</time></trkpt><trkpt lat="40.9414333" lon="14.2991483"><ele>37.0</ele><time>2026-03-30T11:55:30.292Z</time></trkpt><trkpt lat="40.9415433" lon="14.2991167"><ele>37.0</ele><time>2026-03-30T11:55:32.291Z</time></trkpt><trkpt lat="40.9416667" lon="14.299085"><ele>37.0</ele><time>2026-03-30T11:55:34.291Z</time></trkpt><trkpt lat="40.94173" lon="14.2990717"><ele>36.833333333333336</ele><time>2026-03-30T11:55:35.292Z</time></trkpt><trkpt lat="40.9417933" lon="14.2990633"><ele>36.66666666666667</ele><time>2026-03-30T11:55:36.292Z</time></trkpt><trkpt lat="40.9418617" lon="14.2990517"><ele>36.5</ele><time>2026-03-30T11:55:37.292Z</time></trkpt><trkpt lat="40.9419283" lon="14.29905"><ele>36.333333333333336</ele><time>2026-03-30T11:55:38.292Z</time></trkpt><trkpt lat="40.9419917" lon="14.2990383"><ele>36.166666666666664</ele><time>2026-03-30T11:55:39.292Z</time></trkpt><trkpt lat="40.94211" lon="14.299015"><ele>36.0</ele><time>2026-03-30T11:55:41.292Z</time></trkpt><trkpt lat="40.942235" lon="14.29901"><ele>36.00000000000001</ele><time>2026-03-30T11:55:43.292Z</time></trkpt><trkpt lat="40.9423" lon="14.2990067"><ele>36.0</ele><time>2026-03-30T11:55:44.292Z</time></trkpt><trkpt lat="40.9423633" lon="14.2990033"><ele>36.0</ele><time>2026-03-30T11:55:45.291Z</time></trkpt><trkpt lat="40.9424317" lon="14.2990033"><ele>36.0</ele><time>2026-03-30T11:55:46.292Z</time></trkpt><trkpt lat="40.9425017" lon="14.2990017"><ele>36.0</ele><time>2026-03-30T11:55:47.292Z</time></trkpt><trkpt lat="40.9425717" lon="14.2990017"><ele>36.00000000000001</ele><time>2026-03-30T11:55:48.292Z</time></trkpt><trkpt lat="40.9426433" lon="14.2990017"><ele>36.0</ele><time>2026-03-30T11:55:49.292Z</time></trkpt><trkpt lat="40.9427133" lon="14.2990017"><ele>35.714285714285715</ele><time>2026-03-30T11:55:50.292Z</time></trkpt><trkpt lat="40.94278" lon="14.29901"><ele>35.42857142857143</ele><time>2026-03-30T11:55:51.292Z</time></trkpt><trkpt lat="40.9428467" lon="14.2990133"><ele>35.14285714285714</ele><time>2026-03-30T11:55:52.292Z</time></trkpt><trkpt lat="40.9429167" lon="14.299015"><ele>34.85714285714286</ele><time>2026-03-30T11:55:53.295Z</time></trkpt><trkpt lat="40.9429883" lon="14.29901"><ele>34.57142857142857</ele><time>2026-03-30T11:55:54.291Z</time></trkpt><trkpt lat="40.9430617" lon="14.2990183"><ele>34.285714285714285</ele><time>2026-03-30T11:55:55.293Z</time></trkpt><trkpt lat="40.9431333" lon="14.2990267"><ele>34.0</ele><time>2026-03-30T11:55:56.291Z</time></trkpt><trkpt lat="40.943205" lon="14.2990333"><ele>33.99999999999999</ele><time>2026-03-30T11:55:57.291Z</time></trkpt><trkpt lat="40.9432783" lon="14.2990433"><ele>34.0</ele><time>2026-03-30T11:55:58.292Z</time></trkpt><trkpt lat="40.94335" lon="14.29905"><ele>34.0</ele><time>2026-03-30T11:55:59.292Z</time></trkpt><trkpt lat="40.9434217" lon="14.2990533"><ele>34.0</ele><time>2026-03-30T11:56:00.292Z</time></trkpt><trkpt lat="40.943495" lon="14.299065"><ele>34.0</ele><time>2026-03-30T11:56:01.292Z</time></trkpt><trkpt lat="40.94357" lon="14.299075"><ele>33.99999999999999</ele><time>2026-03-30T11:56:02.292Z</time></trkpt><trkpt lat="40.9436417" lon="14.299075"><ele>34.0</ele><time>2026-03-30T11:56:03.292Z</time></trkpt><trkpt lat="40.9437183" lon="14.299085"><ele>33.66666666666667</ele><time>2026-03-30T11:56:04.292Z</time></trkpt><trkpt lat="40.943795" lon="14.2991017"><ele>33.333333333333336</ele><time>2026-03-30T11:56:05.292Z</time></trkpt><trkpt lat="40.94387" lon="14.29912"><ele>33.0</ele><time>2026-03-30T11:56:06.292Z</time></trkpt><trkpt lat="40.943945" lon="14.299135"><ele>32.666666666666664</ele><time>2026-03-30T11:56:07.292Z</time></trkpt><trkpt lat="40.9440183" lon="14.299155"><ele>32.33333333333333</ele><time>2026-03-30T11:56:08.292Z</time></trkpt><trkpt lat="40.9440933" lon="14.299175"><ele>32.0</ele><time>2026-03-30T11:56:09.292Z</time></trkpt><trkpt lat="40.9441683" lon="14.2992"><ele>32.14285714285714</ele><time>2026-03-30T11:56:10.292Z</time></trkpt><trkpt lat="40.9442367" lon="14.2992333"><ele>32.285714285714285</ele><time>2026-03-30T11:56:11.292Z</time></trkpt><trkpt lat="40.9443067" lon="14.299265"><ele>32.42857142857143</ele><time>2026-03-30T11:56:12.292Z</time></trkpt><trkpt lat="40.944375" lon="14.2992833"><ele>32.57142857142857</ele><time>2026-03-30T11:56:13.292Z</time></trkpt><trkpt lat="40.944445" lon="14.2992883"><ele>32.714285714285715</ele><time>2026-03-30T11:56:14.291Z</time></trkpt><trkpt lat="40.94452" lon="14.2992817"><ele>32.857142857142854</ele><time>2026-03-30T11:56:15.291Z</time></trkpt><trkpt lat="40.9445967" lon="14.299285"><ele>33.0</ele><time>2026-03-30T11:56:16.291Z</time></trkpt><trkpt lat="40.9446767" lon="14.299285"><ele>33.0</ele><time>2026-03-30T11:56:17.292Z</time></trkpt><trkpt lat="40.9447567" lon="14.2992933"><ele>33.0</ele><time>2026-03-30T11:56:18.292Z</time></trkpt><trkpt lat="40.944835" lon="14.299305"><ele>33.0</ele><time>2026-03-30T11:56:19.292Z</time></trkpt><trkpt lat="40.9449117" lon="14.2993133"><ele>33.0</ele><time>2026-03-30T11:56:20.292Z</time></trkpt><trkpt lat="40.9449867" lon="14.299325"><ele>33.0</ele><time>2026-03-30T11:56:21.293Z</time></trkpt><trkpt lat="40.9450617" lon="14.2993417"><ele>33.0</ele><time>2026-03-30T11:56:22.292Z</time></trkpt><trkpt lat="40.9451383" lon="14.2993633"><ele>33.0</ele><time>2026-03-30T11:56:23.292Z</time></trkpt><trkpt lat="40.945215" lon="14.29938"><ele>33.0</ele><time>2026-03-30T11:56:24.293Z</time></trkpt><trkpt lat="40.9452917" lon="14.299405"><ele>33.0</ele><time>2026-03-30T11:56:25.293Z</time></trkpt><trkpt lat="40.9453683" lon="14.2994317"><ele>33.0</ele><time>2026-03-30T11:56:26.296Z</time></trkpt><trkpt lat="40.9454483" lon="14.2994567"><ele>33.0</ele><time>2026-03-30T11:56:27.291Z</time></trkpt><trkpt lat="40.9455283" lon="14.2994733"><ele>33.0</ele><time>2026-03-30T11:56:28.292Z</time></trkpt><trkpt lat="40.94561" lon="14.29949"><ele>33.0</ele><time>2026-03-30T11:56:29.292Z</time></trkpt><trkpt lat="40.9456967" lon="14.2995033"><ele>33.0</ele><time>2026-03-30T11:56:30.292Z</time></trkpt><trkpt lat="40.9457817" lon="14.2995167"><ele>33.0</ele><time>2026-03-30T11:56:31.293Z</time></trkpt><trkpt lat="40.9458683" lon="14.299535"><ele>33.0</ele><time>2026-03-30T11:56:32.292Z</time></trkpt><trkpt lat="40.945955" lon="14.29955"><ele>33.0</ele><time>2026-03-30T11:56:33.292Z</time></trkpt><trkpt lat="40.9460383" lon="14.29956"><ele>33.0</ele><time>2026-03-30T11:56:34.292Z</time></trkpt><trkpt lat="40.9461233" lon="14.299565"><ele>32.833333333333336</ele><time>2026-03-30T11:56:35.292Z</time></trkpt><trkpt lat="40.946205" lon="14.299565"><ele>32.666666666666664</ele><time>2026-03-30T11:56:36.292Z</time></trkpt><trkpt lat="40.9462817" lon="14.2995817"><ele>32.5</ele><time>2026-03-30T11:56:37.293Z</time></trkpt><trkpt lat="40.946355" lon="14.2996183"><ele>32.33333333333333</ele><time>2026-03-30T11:56:38.291Z</time></trkpt><trkpt lat="40.9464217" lon="14.29967"><ele>32.166666666666664</ele><time>2026-03-30T11:56:39.291Z</time></trkpt><trkpt lat="40.94648" lon="14.299725"><ele>32.0</ele><time>2026-03-30T11:56:40.294Z</time></trkpt><trkpt lat="40.9465267" lon="14.2997983"><ele>31.999999999999996</ele><time>2026-03-30T11:56:41.292Z</time></trkpt><trkpt lat="40.946555" lon="14.2998883"><ele>32.0</ele><time>2026-03-30T11:56:42.292Z</time></trkpt><trkpt lat="40.9465817" lon="14.2999867"><ele>32.0</ele><time>2026-03-30T11:56:43.292Z</time></trkpt><trkpt lat="40.9466133" lon="14.3000833"><ele>32.0</ele><time>2026-03-30T11:56:44.292Z</time></trkpt><trkpt lat="40.9466483" lon="14.30018"><ele>31.999999999999996</ele><time>2026-03-30T11:56:45.292Z</time></trkpt><trkpt lat="40.9466833" lon="14.300275"><ele>32.0</ele><time>2026-03-30T11:56:46.293Z</time></trkpt><trkpt lat="40.946715" lon="14.3003583"><ele>31.833333333333332</ele><time>2026-03-30T11:56:47.292Z</time></trkpt><trkpt lat="40.946745" lon="14.3004317"><ele>31.666666666666664</ele><time>2026-03-30T11:56:48.292Z</time></trkpt><trkpt lat="40.9467967" lon="14.30056"><ele>31.5</ele><time>2026-03-30T11:56:50.292Z</time></trkpt><trkpt lat="40.9468317" lon="14.3006717"><ele>31.333333333333336</ele><time>2026-03-30T11:56:52.292Z</time></trkpt><trkpt lat="40.9468583" lon="14.3007717"><ele>31.166666666666668</ele><time>2026-03-30T11:56:54.292Z</time></trkpt><trkpt lat="40.946885" lon="14.3008833"><ele>31.0</ele><time>2026-03-30T11:56:56.292Z</time></trkpt><trkpt lat="40.9469217" lon="14.3010183"><ele>31.0</ele><time>2026-03-30T11:56:58.293Z</time></trkpt><trkpt lat="40.9469467" lon="14.301095"><ele>31.000000000000004</ele><time>2026-03-30T11:56:59.292Z</time></trkpt><trkpt lat="40.9469733" lon="14.3011767"><ele>31.0</ele><time>2026-03-30T11:57:00.292Z</time></trkpt><trkpt lat="40.9470017" lon="14.301255"><ele>31.0</ele><time>2026-03-30T11:57:01.292Z</time></trkpt><trkpt lat="40.94703" lon="14.3013367"><ele>31.000000000000004</ele><time>2026-03-30T11:57:02.292Z</time></trkpt><trkpt lat="40.9470617" lon="14.30142"><ele>31.0</ele><time>2026-03-30T11:57:03.291Z</time></trkpt><trkpt lat="40.9470933" lon="14.3015083"><ele>31.0</ele><time>2026-03-30T11:57:04.292Z</time></trkpt><trkpt lat="40.9471233" lon="14.3015967"><ele>31.28571428571429</ele><time>2026-03-30T11:57:05.292Z</time></trkpt><trkpt lat="40.9471567" lon="14.3016833"><ele>31.571428571428577</ele><time>2026-03-30T11:57:06.292Z</time></trkpt><trkpt lat="40.94719" lon="14.30177"><ele>31.857142857142858</ele><time>2026-03-30T11:57:07.292Z</time></trkpt><trkpt lat="40.9472283" lon="14.30185"><ele>32.142857142857146</ele><time>2026-03-30T11:57:08.292Z</time></trkpt><trkpt lat="40.9472733" lon="14.3019183"><ele>32.42857142857143</ele><time>2026-03-30T11:57:09.292Z</time></trkpt><trkpt lat="40.947325" lon="14.301985"><ele>32.714285714285715</ele><time>2026-03-30T11:57:10.292Z</time></trkpt><trkpt lat="40.9473717" lon="14.3020583"><ele>33.0</ele><time>2026-03-30T11:57:11.293Z</time></trkpt><trkpt lat="40.947415" lon="14.30213"><ele>33.0</ele><time>2026-03-30T11:57:12.292Z</time></trkpt><trkpt lat="40.9474617" lon="14.3021917"><ele>33.0</ele><time>2026-03-30T11:57:13.292Z</time></trkpt><trkpt lat="40.9475233" lon="14.3022317"><ele>33.0</ele><time>2026-03-30T11:57:14.292Z</time></trkpt><trkpt lat="40.9476083" lon="14.3022267"><ele>33.0</ele><time>2026-03-30T11:57:15.292Z</time></trkpt><trkpt lat="40.947695" lon="14.3022167"><ele>33.0</ele><time>2026-03-30T11:57:16.292Z</time></trkpt><trkpt lat="40.9477733" lon="14.3022233"><ele>33.0</ele><time>2026-03-30T11:57:17.292Z</time></trkpt><trkpt lat="40.9478483" lon="14.302235"><ele>32.833333333333336</ele><time>2026-03-30T11:57:18.292Z</time></trkpt><trkpt lat="40.9479283" lon="14.3022483"><ele>32.666666666666664</ele><time>2026-03-30T11:57:19.292Z</time></trkpt><trkpt lat="40.9480083" lon="14.3022633"><ele>32.5</ele><time>2026-03-30T11:57:20.293Z</time></trkpt><trkpt lat="40.94809" lon="14.3022833"><ele>32.33333333333333</ele><time>2026-03-30T11:57:21.292Z</time></trkpt><trkpt lat="40.94817" lon="14.302305"><ele>32.166666666666664</ele><time>2026-03-30T11:57:22.293Z</time></trkpt><trkpt lat="40.94825" lon="14.3023233"><ele>32.0</ele><time>2026-03-30T11:57:23.292Z</time></trkpt><trkpt lat="40.9483283" lon="14.3023417"><ele>31.857142857142854</ele><time>2026-03-30T11:57:24.292Z</time></trkpt><trkpt lat="40.9484033" lon="14.3023567"><ele>31.71428571428571</ele><time>2026-03-30T11:57:25.292Z</time></trkpt><trkpt lat="40.9484767" lon="14.3023733"><ele>31.57142857142857</ele><time>2026-03-30T11:57:26.292Z</time></trkpt><trkpt lat="40.948545" lon="14.3023967"><ele>31.42857142857143</ele><time>2026-03-30T11:57:27.292Z</time></trkpt><trkpt lat="40.948615" lon="14.302415"><ele>31.28571428571429</ele><time>2026-03-30T11:57:28.293Z</time></trkpt><trkpt lat="40.94869" lon="14.3024217"><ele>31.142857142857146</ele><time>2026-03-30T11:57:29.292Z</time></trkpt><trkpt lat="40.9487567" lon="14.30243"><ele>31.0</ele><time>2026-03-30T11:57:30.292Z</time></trkpt><trkpt lat="40.9488283" lon="14.3024333"><ele>31.0</ele><time>2026-03-30T11:57:31.292Z</time></trkpt><trkpt lat="40.9489" lon="14.3024433"><ele>31.0</ele><time>2026-03-30T11:57:32.292Z</time></trkpt><trkpt lat="40.9489683" lon="14.3024633"><ele>31.0</ele><time>2026-03-30T11:57:33.292Z</time></trkpt><trkpt lat="40.9490867" lon="14.3025"><ele>31.0</ele><time>2026-03-30T11:57:35.292Z</time></trkpt><trkpt lat="40.9492033" lon="14.3025233"><ele>31.0</ele><time>2026-03-30T11:57:37.292Z</time></trkpt><trkpt lat="40.94932" lon="14.3025467"><ele>31.333333333333336</ele><time>2026-03-30T11:57:39.292Z</time></trkpt><trkpt lat="40.949415" lon="14.3025717"><ele>31.666666666666668</ele><time>2026-03-30T11:57:41.292Z</time></trkpt><trkpt lat="40.9494933" lon="14.3025983"><ele>32.0</ele><time>2026-03-30T11:57:43.292Z</time></trkpt><trkpt lat="40.9495783" lon="14.30263"><ele>32.333333333333336</ele><time>2026-03-30T11:57:45.292Z</time></trkpt><trkpt lat="40.94969" lon="14.3026567"><ele>32.666666666666664</ele><time>2026-03-30T11:57:47.292Z</time></trkpt><trkpt lat="40.949755" lon="14.302665"><ele>33.0</ele><time>2026-03-30T11:57:48.292Z</time></trkpt><trkpt lat="40.949825" lon="14.302675"><ele>33.0</ele><time>2026-03-30T11:57:49.292Z</time></trkpt><trkpt lat="40.9498967" lon="14.3026817"><ele>33.0</ele><time>2026-03-30T11:57:50.293Z</time></trkpt><trkpt lat="40.94997" lon="14.3026883"><ele>33.0</ele><time>2026-03-30T11:57:51.291Z</time></trkpt><trkpt lat="40.9500417" lon="14.3026983"><ele>33.0</ele><time>2026-03-30T11:57:52.293Z</time></trkpt><trkpt lat="40.95011" lon="14.3027117"><ele>33.0</ele><time>2026-03-30T11:57:53.292Z</time></trkpt><trkpt lat="40.95018" lon="14.3027233"><ele>33.0</ele><time>2026-03-30T11:57:54.292Z</time></trkpt><trkpt lat="40.9502533" lon="14.302735"><ele>33.0</ele><time>2026-03-30T11:57:55.293Z</time></trkpt><trkpt lat="40.9503233" lon="14.3027533"><ele>32.833333333333336</ele><time>2026-03-30T11:57:56.293Z</time></trkpt><trkpt lat="40.9503983" lon="14.302765"><ele>32.666666666666664</ele><time>2026-03-30T11:57:57.292Z</time></trkpt><trkpt lat="40.9504733" lon="14.3027783"><ele>32.5</ele><time>2026-03-30T11:57:58.292Z</time></trkpt><trkpt lat="40.9505517" lon="14.302795"><ele>32.33333333333333</ele><time>2026-03-30T11:57:59.292Z</time></trkpt><trkpt lat="40.9506283" lon="14.3028167"><ele>32.166666666666664</ele><time>2026-03-30T11:58:00.292Z</time></trkpt><trkpt lat="40.9506983" lon="14.3028383"><ele>32.0</ele><time>2026-03-30T11:58:01.293Z</time></trkpt><trkpt lat="40.9507667" lon="14.30286"><ele>31.999999999999996</ele><time>2026-03-30T11:58:02.292Z</time></trkpt><trkpt lat="40.950835" lon="14.3028867"><ele>32.0</ele><time>2026-03-30T11:58:03.292Z</time></trkpt><trkpt lat="40.9509017" lon="14.3029017"><ele>32.0</ele><time>2026-03-30T11:58:04.292Z</time></trkpt><trkpt lat="40.9509667" lon="14.3029217"><ele>32.0</ele><time>2026-03-30T11:58:05.292Z</time></trkpt><trkpt lat="40.9510317" lon="14.3029383"><ele>31.999999999999996</ele><time>2026-03-30T11:58:06.292Z</time></trkpt><trkpt lat="40.9511517" lon="14.3029633"><ele>32.0</ele><time>2026-03-30T11:58:08.292Z</time></trkpt><trkpt lat="40.9512717" lon="14.3029667"><ele>31.6</ele><time>2026-03-30T11:58:10.292Z</time></trkpt><trkpt lat="40.9513683" lon="14.3029733"><ele>31.200000000000003</ele><time>2026-03-30T11:58:12.292Z</time></trkpt><trkpt lat="40.9514617" lon="14.3029883"><ele>30.8</ele><time>2026-03-30T11:58:14.292Z</time></trkpt><trkpt lat="40.9515567" lon="14.3030367"><ele>30.4</ele><time>2026-03-30T11:58:16.292Z</time></trkpt><trkpt lat="40.9516617" lon="14.3030917"><ele>30.0</ele><time>2026-03-30T11:58:18.292Z</time></trkpt><trkpt lat="40.9517767" lon="14.3031333"><ele>30.0</ele><time>2026-03-30T11:58:20.292Z</time></trkpt><trkpt lat="40.9518483" lon="14.303155"><ele>30.0</ele><time>2026-03-30T11:58:21.292Z</time></trkpt><trkpt lat="40.951915" lon="14.3031867"><ele>30.0</ele><time>2026-03-30T11:58:22.292Z</time></trkpt><trkpt lat="40.95198" lon="14.303215"><ele>30.0</ele><time>2026-03-30T11:58:23.292Z</time></trkpt><trkpt lat="40.95205" lon="14.30324"><ele>30.0</ele><time>2026-03-30T11:58:24.292Z</time></trkpt><trkpt lat="40.95212" lon="14.303265"><ele>30.0</ele><time>2026-03-30T11:58:25.292Z</time></trkpt><trkpt lat="40.9521883" lon="14.3032917"><ele>30.0</ele><time>2026-03-30T11:58:26.292Z</time></trkpt><trkpt lat="40.9522583" lon="14.3033183"><ele>30.0</ele><time>2026-03-30T11:58:27.292Z</time></trkpt><trkpt lat="40.9523283" lon="14.303345"><ele>30.0</ele><time>2026-03-30T11:58:28.292Z</time></trkpt><trkpt lat="40.9523983" lon="14.3033683"><ele>30.0</ele><time>2026-03-30T11:58:29.292Z</time></trkpt><trkpt lat="40.9524667" lon="14.3033917"><ele>30.0</ele><time>2026-03-30T11:58:30.293Z</time></trkpt><trkpt lat="40.9525367" lon="14.3034067"><ele>30.0</ele><time>2026-03-30T11:58:31.292Z</time></trkpt><trkpt lat="40.9526083" lon="14.3034233"><ele>30.0</ele><time>2026-03-30T11:58:32.292Z</time></trkpt><trkpt lat="40.9526783" lon="14.3034417"><ele>30.0</ele><time>2026-03-30T11:58:33.292Z</time></trkpt><trkpt lat="40.9527517" lon="14.3034617"><ele>29.714285714285715</ele><time>2026-03-30T11:58:34.292Z</time></trkpt><trkpt lat="40.95282" lon="14.303495"><ele>29.428571428571427</ele><time>2026-03-30T11:58:35.292Z</time></trkpt><trkpt lat="40.95289" lon="14.30353"><ele>29.142857142857142</ele><time>2026-03-30T11:58:36.292Z</time></trkpt><trkpt lat="40.9529617" lon="14.3035583"><ele>28.857142857142858</ele><time>2026-03-30T11:58:37.292Z</time></trkpt><trkpt lat="40.9530317" lon="14.3035917"><ele>28.57142857142857</ele><time>2026-03-30T11:58:38.292Z</time></trkpt><trkpt lat="40.953105" lon="14.30362"><ele>28.285714285714285</ele><time>2026-03-30T11:58:39.292Z</time></trkpt><trkpt lat="40.9531783" lon="14.303645"><ele>28.0</ele><time>2026-03-30T11:58:40.292Z</time></trkpt><trkpt lat="40.95325" lon="14.303675"><ele>28.000000000000004</ele><time>2026-03-30T11:58:41.293Z</time></trkpt><trkpt lat="40.9533267" lon="14.303695"><ele>28.0</ele><time>2026-03-30T11:58:42.292Z</time></trkpt><trkpt lat="40.9534" lon="14.3037167"><ele>28.0</ele><time>2026-03-30T11:58:43.293Z</time></trkpt><trkpt lat="40.953475" lon="14.3037367"><ele>28.0</ele><time>2026-03-30T11:58:44.292Z</time></trkpt><trkpt lat="40.95355" lon="14.3037633"><ele>28.000000000000004</ele><time>2026-03-30T11:58:45.292Z</time></trkpt><trkpt lat="40.9536267" lon="14.3037933"><ele>28.0</ele><time>2026-03-30T11:58:46.292Z</time></trkpt><trkpt lat="40.9537" lon="14.3038267"><ele>28.000000000000004</ele><time>2026-03-30T11:58:47.293Z</time></trkpt><trkpt lat="40.953775" lon="14.3038617"><ele>28.0</ele><time>2026-03-30T11:58:48.292Z</time></trkpt><trkpt lat="40.95385" lon="14.3038933"><ele>28.0</ele><time>2026-03-30T11:58:49.292Z</time></trkpt><trkpt lat="40.9539233" lon="14.303925"><ele>28.0</ele><time>2026-03-30T11:58:50.292Z</time></trkpt><trkpt lat="40.9539983" lon="14.3039567"><ele>28.000000000000004</ele><time>2026-03-30T11:58:51.292Z</time></trkpt><trkpt lat="40.95407" lon="14.3039917"><ele>28.0</ele><time>2026-03-30T11:58:52.292Z</time></trkpt><trkpt lat="40.9541483" lon="14.3040117"><ele>28.000000000000004</ele><time>2026-03-30T11:58:53.292Z</time></trkpt><trkpt lat="40.954225" lon="14.3040383"><ele>28.0</ele><time>2026-03-30T11:58:54.292Z</time></trkpt><trkpt lat="40.9543033" lon="14.3040667"><ele>28.0</ele><time>2026-03-30T11:58:55.293Z</time></trkpt><trkpt lat="40.95438" lon="14.3040917"><ele>28.0</ele><time>2026-03-30T11:58:56.293Z</time></trkpt><trkpt lat="40.9544583" lon="14.3041183"><ele>28.000000000000004</ele><time>2026-03-30T11:58:57.292Z</time></trkpt><trkpt lat="40.9545383" lon="14.30414"><ele>28.0</ele><time>2026-03-30T11:58:58.293Z</time></trkpt><trkpt lat="40.9546183" lon="14.3041617"><ele>28.000000000000004</ele><time>2026-03-30T11:58:59.292Z</time></trkpt><trkpt lat="40.9546983" lon="14.30419"><ele>28.0</ele><time>2026-03-30T11:59:00.292Z</time></trkpt><trkpt lat="40.954775" lon="14.3042217"><ele>28.0</ele><time>2026-03-30T11:59:01.292Z</time></trkpt><trkpt lat="40.9548533" lon="14.3042517"><ele>28.0</ele><time>2026-03-30T11:59:02.292Z</time></trkpt><trkpt lat="40.9549317" lon="14.3042833"><ele>28.000000000000004</ele><time>2026-03-30T11:59:03.292Z</time></trkpt><trkpt lat="40.9550083" lon="14.3043133"><ele>28.0</ele><time>2026-03-30T11:59:04.292Z</time></trkpt><trkpt lat="40.9550833" lon="14.3043417"><ele>28.0</ele><time>2026-03-30T11:59:05.292Z</time></trkpt><trkpt lat="40.9551617" lon="14.3043633"><ele>28.0</ele><time>2026-03-30T11:59:06.292Z</time></trkpt><trkpt lat="40.9552333" lon="14.30439"><ele>28.0</ele><time>2026-03-30T11:59:07.292Z</time></trkpt><trkpt lat="40.9553033" lon="14.3044167"><ele>28.0</ele><time>2026-03-30T11:59:08.292Z</time></trkpt><trkpt lat="40.9553733" lon="14.3044517"><ele>28.0</ele><time>2026-03-30T11:59:09.292Z</time></trkpt><trkpt lat="40.9554367" lon="14.30448"><ele>28.0</ele><time>2026-03-30T11:59:10.293Z</time></trkpt><trkpt lat="40.9555017" lon="14.3045133"><ele>28.0</ele><time>2026-03-30T11:59:11.292Z</time></trkpt><trkpt lat="40.955575" lon="14.3045383"><ele>28.000000000000004</ele><time>2026-03-30T11:59:12.292Z</time></trkpt><trkpt lat="40.9556483" lon="14.3045617"><ele>28.0</ele><time>2026-03-30T11:59:13.292Z</time></trkpt><trkpt lat="40.9557217" lon="14.30459"><ele>28.0</ele><time>2026-03-30T11:59:14.292Z</time></trkpt><trkpt lat="40.9557967" lon="14.3046167"><ele>28.0</ele><time>2026-03-30T11:59:15.294Z</time></trkpt><trkpt lat="40.955875" lon="14.3046367"><ele>28.000000000000004</ele><time>2026-03-30T11:59:16.293Z</time></trkpt><trkpt lat="40.955955" lon="14.3046617"><ele>28.0</ele><time>2026-03-30T11:59:17.292Z</time></trkpt><trkpt lat="40.956035" lon="14.30469"><ele>28.166666666666668</ele><time>2026-03-30T11:59:18.293Z</time></trkpt><trkpt lat="40.9561133" lon="14.3047117"><ele>28.333333333333336</ele><time>2026-03-30T11:59:19.293Z</time></trkpt><trkpt lat="40.956195" lon="14.304735"><ele>28.5</ele><time>2026-03-30T11:59:20.292Z</time></trkpt><trkpt lat="40.9562767" lon="14.3047567"><ele>28.666666666666664</ele><time>2026-03-30T11:59:21.292Z</time></trkpt><trkpt lat="40.9563617" lon="14.3047717"><ele>28.833333333333332</ele><time>2026-03-30T11:59:22.292Z</time></trkpt><trkpt lat="40.9564433" lon="14.304795"><ele>29.0</ele><time>2026-03-30T11:59:23.293Z</time></trkpt><trkpt lat="40.9565233" lon="14.3048217"><ele>28.999999999999996</ele><time>2026-03-30T11:59:24.292Z</time></trkpt><trkpt lat="40.956605" lon="14.304855"><ele>29.0</ele><time>2026-03-30T11:59:25.292Z</time></trkpt><trkpt lat="40.956685" lon="14.304905"><ele>29.0</ele><time>2026-03-30T11:59:26.293Z</time></trkpt><trkpt lat="40.9567633" lon="14.3049533"><ele>29.0</ele><time>2026-03-30T11:59:27.292Z</time></trkpt><trkpt lat="40.95684" lon="14.3050033"><ele>28.999999999999996</ele><time>2026-03-30T11:59:28.292Z</time></trkpt><trkpt lat="40.956915" lon="14.3050633"><ele>29.0</ele><time>2026-03-30T11:59:29.293Z</time></trkpt><trkpt lat="40.9569883" lon="14.3051267"><ele>28.999999999999996</ele><time>2026-03-30T11:59:30.292Z</time></trkpt><trkpt lat="40.9570617" lon="14.3051833"><ele>29.0</ele><time>2026-03-30T11:59:31.293Z</time></trkpt><trkpt lat="40.957135" lon="14.305245"><ele>29.0</ele><time>2026-03-30T11:59:32.292Z</time></trkpt><trkpt lat="40.9572067" lon="14.3053067"><ele>29.0</ele><time>2026-03-30T11:59:33.292Z</time></trkpt><trkpt lat="40.9572783" lon="14.30537"><ele>28.999999999999996</ele><time>2026-03-30T11:59:34.292Z</time></trkpt><trkpt lat="40.957345" lon="14.3054367"><ele>29.0</ele><time>2026-03-30T11:59:35.293Z</time></trkpt><trkpt lat="40.9574117" lon="14.3055083"><ele>29.0</ele><time>2026-03-30T11:59:36.292Z</time></trkpt><trkpt lat="40.9574817" lon="14.3055817"><ele>29.0</ele><time>2026-03-30T11:59:37.291Z</time></trkpt><trkpt lat="40.957555" lon="14.3056533"><ele>29.0</ele><time>2026-03-30T11:59:38.291Z</time></trkpt><trkpt lat="40.9576283" lon="14.3057267"><ele>29.0</ele><time>2026-03-30T11:59:39.291Z</time></trkpt><trkpt lat="40.9577033" lon="14.3057983"><ele>29.0</ele><time>2026-03-30T11:59:40.291Z</time></trkpt><trkpt lat="40.9577767" lon="14.3058717"><ele>28.999999999999996</ele><time>2026-03-30T11:59:41.291Z</time></trkpt><trkpt lat="40.9578433" lon="14.305945"><ele>29.0</ele><time>2026-03-30T11:59:42.291Z</time></trkpt><trkpt lat="40.9579117" lon="14.3060133"><ele>29.0</ele><time>2026-03-30T11:59:43.292Z</time></trkpt><trkpt lat="40.9579767" lon="14.3060883"><ele>29.0</ele><time>2026-03-30T11:59:44.292Z</time></trkpt><trkpt lat="40.9580433" lon="14.3061583"><ele>28.999999999999996</ele><time>2026-03-30T11:59:45.291Z</time></trkpt><trkpt lat="40.9581067" lon="14.3062267"><ele>29.0</ele><time>2026-03-30T11:59:46.291Z</time></trkpt><trkpt lat="40.9581683" lon="14.3062933"><ele>28.999999999999996</ele><time>2026-03-30T11:59:47.291Z</time></trkpt><trkpt lat="40.958225" lon="14.30636"><ele>29.0</ele><time>2026-03-30T11:59:48.292Z</time></trkpt><trkpt lat="40.9582867" lon="14.306425"><ele>29.0</ele><time>2026-03-30T11:59:49.291Z</time></trkpt><trkpt lat="40.9583517" lon="14.3064867"><ele>29.0</ele><time>2026-03-30T11:59:50.293Z</time></trkpt><trkpt lat="40.958425" lon="14.3065367"><ele>28.999999999999996</ele><time>2026-03-30T11:59:51.291Z</time></trkpt><trkpt lat="40.9584983" lon="14.3065817"><ele>29.0</ele><time>2026-03-30T11:59:52.292Z</time></trkpt><trkpt lat="40.9585717" lon="14.3066217"><ele>28.833333333333332</ele><time>2026-03-30T11:59:53.291Z</time></trkpt><trkpt lat="40.9586433" lon="14.3066617"><ele>28.666666666666664</ele><time>2026-03-30T11:59:54.291Z</time></trkpt><trkpt lat="40.9587183" lon="14.3067"><ele>28.5</ele><time>2026-03-30T11:59:55.291Z</time></trkpt><trkpt lat="40.958795" lon="14.3067367"><ele>28.333333333333336</ele><time>2026-03-30T11:59:56.292Z</time></trkpt><trkpt lat="40.958875" lon="14.3067667"><ele>28.166666666666668</ele><time>2026-03-30T11:59:57.291Z</time></trkpt><trkpt lat="40.9589567" lon="14.30679"><ele>28.0</ele><time>2026-03-30T11:59:58.291Z</time></trkpt><trkpt lat="40.9590417" lon="14.3068133"><ele>28.000000000000004</ele><time>2026-03-30T11:59:59.291Z</time></trkpt><trkpt lat="40.959125" lon="14.3068367"><ele>28.0</ele><time>2026-03-30T12:00:00.291Z</time></trkpt><trkpt lat="40.9592083" lon="14.3068583"><ele>28.0</ele><time>2026-03-30T12:00:01.291Z</time></trkpt><trkpt lat="40.9592933" lon="14.3068717"><ele>28.0</ele><time>2026-03-30T12:00:02.291Z</time></trkpt><trkpt lat="40.9593767" lon="14.30688"><ele>28.000000000000004</ele><time>2026-03-30T12:00:03.291Z</time></trkpt><trkpt lat="40.9594517" lon="14.3068967"><ele>28.0</ele><time>2026-03-30T12:00:04.291Z</time></trkpt><trkpt lat="40.9595267" lon="14.3069133"><ele>27.714285714285715</ele><time>2026-03-30T12:00:05.291Z</time></trkpt><trkpt lat="40.9596033" lon="14.3069383"><ele>27.42857142857143</ele><time>2026-03-30T12:00:06.291Z</time></trkpt><trkpt lat="40.9596767" lon="14.3069567"><ele>27.142857142857142</ele><time>2026-03-30T12:00:07.291Z</time></trkpt><trkpt lat="40.9597483" lon="14.3069733"><ele>26.857142857142858</ele><time>2026-03-30T12:00:08.291Z</time></trkpt><trkpt lat="40.95982" lon="14.3069917"><ele>26.571428571428573</ele><time>2026-03-30T12:00:09.291Z</time></trkpt><trkpt lat="40.95989" lon="14.30701"><ele>26.285714285714285</ele><time>2026-03-30T12:00:10.291Z</time></trkpt><trkpt lat="40.959965" lon="14.3070267"><ele>26.0</ele><time>2026-03-30T12:00:11.291Z</time></trkpt><trkpt lat="40.9600383" lon="14.3070433"><ele>25.999999999999996</ele><time>2026-03-30T12:00:12.292Z</time></trkpt><trkpt lat="40.9601067" lon="14.3070567"><ele>26.0</ele><time>2026-03-30T12:00:13.292Z</time></trkpt><trkpt lat="40.9601733" lon="14.3070683"><ele>26.0</ele><time>2026-03-30T12:00:14.291Z</time></trkpt><trkpt lat="40.9602817" lon="14.3070933"><ele>26.0</ele><time>2026-03-30T12:00:16.291Z</time></trkpt><trkpt lat="40.9603817" lon="14.3071183"><ele>25.999999999999996</ele><time>2026-03-30T12:00:18.291Z</time></trkpt><trkpt lat="40.960475" lon="14.3071433"><ele>26.0</ele><time>2026-03-30T12:00:20.292Z</time></trkpt><trkpt lat="40.9605617" lon="14.3071883"><ele>26.0</ele><time>2026-03-30T12:00:22.291Z</time></trkpt><trkpt lat="40.96064" lon="14.3072617"><ele>26.0</ele><time>2026-03-30T12:00:24.291Z</time></trkpt><trkpt lat="40.9607333" lon="14.307305"><ele>26.0</ele><time>2026-03-30T12:00:26.291Z</time></trkpt><trkpt lat="40.9608333" lon="14.3072967"><ele>26.0</ele><time>2026-03-30T12:00:28.291Z</time></trkpt><trkpt lat="40.9609417" lon="14.3072983"><ele>26.0</ele><time>2026-03-30T12:00:30.292Z</time></trkpt><trkpt lat="40.9610617" lon="14.307325"><ele>26.142857142857142</ele><time>2026-03-30T12:00:32.292Z</time></trkpt><trkpt lat="40.9611267" lon="14.3073333"><ele>26.28571428571429</ele><time>2026-03-30T12:00:33.291Z</time></trkpt><trkpt lat="40.961195" lon="14.3073383"><ele>26.42857142857143</ele><time>2026-03-30T12:00:34.291Z</time></trkpt><trkpt lat="40.9612683" lon="14.3073467"><ele>26.57142857142857</ele><time>2026-03-30T12:00:35.292Z</time></trkpt><trkpt lat="40.96134" lon="14.3073567"><ele>26.714285714285715</ele><time>2026-03-30T12:00:36.292Z</time></trkpt><trkpt lat="40.96141" lon="14.3073683"><ele>26.857142857142858</ele><time>2026-03-30T12:00:37.292Z</time></trkpt><trkpt lat="40.9614817" lon="14.30737"><ele>27.0</ele><time>2026-03-30T12:00:38.292Z</time></trkpt><trkpt lat="40.961555" lon="14.3073683"><ele>27.0</ele><time>2026-03-30T12:00:39.292Z</time></trkpt><trkpt lat="40.9616267" lon="14.3073667"><ele>27.0</ele><time>2026-03-30T12:00:40.292Z</time></trkpt><trkpt lat="40.9617" lon="14.307365"><ele>27.0</ele><time>2026-03-30T12:00:41.292Z</time></trkpt><trkpt lat="40.9617717" lon="14.3073683"><ele>27.0</ele><time>2026-03-30T12:00:42.291Z</time></trkpt><trkpt lat="40.961845" lon="14.3073733"><ele>27.0</ele><time>2026-03-30T12:00:43.291Z</time></trkpt><trkpt lat="40.9619167" lon="14.307375"><ele>27.0</ele><time>2026-03-30T12:00:44.291Z</time></trkpt><trkpt lat="40.96199" lon="14.307375"><ele>27.0</ele><time>2026-03-30T12:00:45.291Z</time></trkpt><trkpt lat="40.96206" lon="14.3073717"><ele>27.0</ele><time>2026-03-30T12:00:46.292Z</time></trkpt><trkpt lat="40.96213" lon="14.3073683"><ele>27.0</ele><time>2026-03-30T12:00:47.293Z</time></trkpt><trkpt lat="40.9622" lon="14.3073633"><ele>27.0</ele><time>2026-03-30T12:00:48.292Z</time></trkpt><trkpt lat="40.9622733" lon="14.3073567"><ele>27.0</ele><time>2026-03-30T12:00:49.292Z</time></trkpt><trkpt lat="40.9623467" lon="14.3073483"><ele>27.0</ele><time>2026-03-30T12:00:50.291Z</time></trkpt><trkpt lat="40.9624183" lon="14.3073383"><ele>27.0</ele><time>2026-03-30T12:00:51.292Z</time></trkpt><trkpt lat="40.9624933" lon="14.3073283"><ele>27.0</ele><time>2026-03-30T12:00:52.291Z</time></trkpt><trkpt lat="40.9625667" lon="14.3073133"><ele>26.857142857142858</ele><time>2026-03-30T12:00:53.291Z</time></trkpt><trkpt lat="40.9626383" lon="14.3073017"><ele>26.714285714285715</ele><time>2026-03-30T12:00:54.292Z</time></trkpt><trkpt lat="40.9627067" lon="14.3072883"><ele>26.57142857142857</ele><time>2026-03-30T12:00:55.292Z</time></trkpt><trkpt lat="40.962775" lon="14.30728"><ele>26.42857142857143</ele><time>2026-03-30T12:00:56.292Z</time></trkpt><trkpt lat="40.9628417" lon="14.3072733"><ele>26.28571428571429</ele><time>2026-03-30T12:00:57.291Z</time></trkpt><trkpt lat="40.9629083" lon="14.3072683"><ele>26.142857142857142</ele><time>2026-03-30T12:00:58.291Z</time></trkpt><trkpt lat="40.9629767" lon="14.30726"><ele>26.0</ele><time>2026-03-30T12:00:59.292Z</time></trkpt><trkpt lat="40.9630483" lon="14.3072533"><ele>26.0</ele><time>2026-03-30T12:01:00.292Z</time></trkpt><trkpt lat="40.9631183" lon="14.30725"><ele>26.0</ele><time>2026-03-30T12:01:01.291Z</time></trkpt><trkpt lat="40.9631883" lon="14.3072483"><ele>26.0</ele><time>2026-03-30T12:01:02.292Z</time></trkpt><trkpt lat="40.9632583" lon="14.3072433"><ele>26.0</ele><time>2026-03-30T12:01:03.291Z</time></trkpt><trkpt lat="40.963325" lon="14.3072417"><ele>26.0</ele><time>2026-03-30T12:01:04.291Z</time></trkpt><trkpt lat="40.963395" lon="14.3072383"><ele>26.0</ele><time>2026-03-30T12:01:05.292Z</time></trkpt><trkpt lat="40.9634633" lon="14.3072383"><ele>26.0</ele><time>2026-03-30T12:01:06.291Z</time></trkpt><trkpt lat="40.9635283" lon="14.307235"><ele>25.499999999999996</ele><time>2026-03-30T12:01:07.291Z</time></trkpt><trkpt lat="40.963595" lon="14.3072283"><ele>25.0</ele><time>2026-03-30T12:01:08.292Z</time></trkpt><trkpt lat="40.9636633" lon="14.3072183"><ele>24.5</ele><time>2026-03-30T12:01:09.292Z</time></trkpt><trkpt lat="40.96373" lon="14.3072033"><ele>24.0</ele><time>2026-03-30T12:01:10.292Z</time></trkpt><trkpt lat="40.9638" lon="14.3071917"><ele>23.5</ele><time>2026-03-30T12:01:11.292Z</time></trkpt><trkpt lat="40.9638667" lon="14.3071817"><ele>23.0</ele><time>2026-03-30T12:01:12.291Z</time></trkpt><trkpt lat="40.9639917" lon="14.3071667"><ele>23.0</ele><time>2026-03-30T12:01:14.291Z</time></trkpt><trkpt lat="40.9641133" lon="14.30716"><ele>23.0</ele><time>2026-03-30T12:01:16.292Z</time></trkpt><trkpt lat="40.9641767" lon="14.3071567"><ele>23.0</ele><time>2026-03-30T12:01:17.291Z</time></trkpt><trkpt lat="40.96424" lon="14.3071517"><ele>23.0</ele><time>2026-03-30T12:01:18.291Z</time></trkpt><trkpt lat="40.964305" lon="14.3071467"><ele>23.0</ele><time>2026-03-30T12:01:19.292Z</time></trkpt><trkpt lat="40.96437" lon="14.3071367"><ele>23.0</ele><time>2026-03-30T12:01:20.292Z</time></trkpt><trkpt lat="40.9644333" lon="14.3071283"><ele>23.0</ele><time>2026-03-30T12:01:21.291Z</time></trkpt><trkpt lat="40.9645" lon="14.3071233"><ele>23.28571428571429</ele><time>2026-03-30T12:01:22.292Z</time></trkpt><trkpt lat="40.9645667" lon="14.30711"><ele>23.57142857142857</ele><time>2026-03-30T12:01:23.292Z</time></trkpt><trkpt lat="40.9646333" lon="14.3071"><ele>23.857142857142858</ele><time>2026-03-30T12:01:24.292Z</time></trkpt><trkpt lat="40.9646983" lon="14.3070933"><ele>24.142857142857146</ele><time>2026-03-30T12:01:25.291Z</time></trkpt><trkpt lat="40.9647667" lon="14.30708"><ele>24.42857142857143</ele><time>2026-03-30T12:01:26.292Z</time></trkpt><trkpt lat="40.964835" lon="14.30707"><ele>24.714285714285715</ele><time>2026-03-30T12:01:27.291Z</time></trkpt><trkpt lat="40.9649" lon="14.3070617"><ele>25.0</ele><time>2026-03-30T12:01:28.291Z</time></trkpt><trkpt lat="40.9649683" lon="14.30705"><ele>25.000000000000004</ele><time>2026-03-30T12:01:29.292Z</time></trkpt><trkpt lat="40.9650367" lon="14.3070317"><ele>25.0</ele><time>2026-03-30T12:01:30.292Z</time></trkpt><trkpt lat="40.9651067" lon="14.30701"><ele>25.0</ele><time>2026-03-30T12:01:31.292Z</time></trkpt><trkpt lat="40.96518" lon="14.3069933"><ele>25.0</ele><time>2026-03-30T12:01:32.292Z</time></trkpt><trkpt lat="40.965245" lon="14.3069717"><ele>25.0</ele><time>2026-03-30T12:01:33.292Z</time></trkpt><trkpt lat="40.9653133" lon="14.306955"><ele>25.000000000000004</ele><time>2026-03-30T12:01:34.292Z</time></trkpt><trkpt lat="40.96538" lon="14.3069383"><ele>25.0</ele><time>2026-03-30T12:01:35.292Z</time></trkpt><trkpt lat="40.9654483" lon="14.3069267"><ele>25.000000000000004</ele><time>2026-03-30T12:01:36.292Z</time></trkpt><trkpt lat="40.9655133" lon="14.306915"><ele>25.0</ele><time>2026-03-30T12:01:37.292Z</time></trkpt><trkpt lat="40.9655783" lon="14.306905"><ele>25.0</ele><time>2026-03-30T12:01:38.292Z</time></trkpt><trkpt lat="40.9656417" lon="14.306895"><ele>25.0</ele><time>2026-03-30T12:01:39.291Z</time></trkpt><trkpt lat="40.965705" lon="14.306895"><ele>25.000000000000004</ele><time>2026-03-30T12:01:40.292Z</time></trkpt><trkpt lat="40.96582" lon="14.30691"><ele>25.0</ele><time>2026-03-30T12:01:42.292Z</time></trkpt><trkpt lat="40.9659317" lon="14.306945"><ele>25.0</ele><time>2026-03-30T12:01:44.292Z</time></trkpt><trkpt lat="40.9660433" lon="14.306995"><ele>25.0</ele><time>2026-03-30T12:01:46.292Z</time></trkpt><trkpt lat="40.9661483" lon="14.3070417"><ele>25.0</ele><time>2026-03-30T12:01:48.291Z</time></trkpt><trkpt lat="40.9662483" lon="14.307085"><ele>25.0</ele><time>2026-03-30T12:01:50.291Z</time></trkpt><trkpt lat="40.966355" lon="14.30714"><ele>25.0</ele><time>2026-03-30T12:01:52.292Z</time></trkpt><trkpt lat="40.9664617" lon="14.3072033"><ele>25.000000000000004</ele><time>2026-03-30T12:01:54.294Z</time></trkpt><trkpt lat="40.9665683" lon="14.3072533"><ele>25.0</ele><time>2026-03-30T12:01:56.293Z</time></trkpt><trkpt lat="40.9666867" lon="14.30731"><ele>25.0</ele><time>2026-03-30T12:01:58.294Z</time></trkpt><trkpt lat="40.966745" lon="14.3073417"><ele>25.0</ele><time>2026-03-30T12:01:59.294Z</time></trkpt><trkpt lat="40.96681" lon="14.3073783"><ele>25.000000000000004</ele><time>2026-03-30T12:02:00.295Z</time></trkpt><trkpt lat="40.9668733" lon="14.3074183"><ele>25.0</ele><time>2026-03-30T12:02:01.293Z</time></trkpt><trkpt lat="40.9669383" lon="14.307455"><ele>24.833333333333336</ele><time>2026-03-30T12:02:02.293Z</time></trkpt><trkpt lat="40.967005" lon="14.3074867"><ele>24.666666666666668</ele><time>2026-03-30T12:02:03.293Z</time></trkpt><trkpt lat="40.9670667" lon="14.3075167"><ele>24.5</ele><time>2026-03-30T12:02:04.293Z</time></trkpt><trkpt lat="40.9671267" lon="14.3075483"><ele>24.333333333333336</ele><time>2026-03-30T12:02:05.293Z</time></trkpt><trkpt lat="40.9672367" lon="14.3076"><ele>24.166666666666668</ele><time>2026-03-30T12:02:07.295Z</time></trkpt><trkpt lat="40.96734" lon="14.30766"><ele>24.0</ele><time>2026-03-30T12:02:09.293Z</time></trkpt><trkpt lat="40.967455" lon="14.307715"><ele>24.333333333333332</ele><time>2026-03-30T12:02:11.293Z</time></trkpt><trkpt lat="40.96758" lon="14.3077683"><ele>24.666666666666664</ele><time>2026-03-30T12:02:13.293Z</time></trkpt><trkpt lat="40.9676467" lon="14.307795"><ele>25.0</ele><time>2026-03-30T12:02:14.295Z</time></trkpt><trkpt lat="40.9677117" lon="14.3078267"><ele>25.333333333333332</ele><time>2026-03-30T12:02:15.296Z</time></trkpt><trkpt lat="40.9677767" lon="14.3078567"><ele>25.666666666666664</ele><time>2026-03-30T12:02:16.296Z</time></trkpt><trkpt lat="40.9678433" lon="14.3078833"><ele>26.0</ele><time>2026-03-30T12:02:17.296Z</time></trkpt><trkpt lat="40.96791" lon="14.307915"><ele>26.0</ele><time>2026-03-30T12:02:18.297Z</time></trkpt><trkpt lat="40.9679767" lon="14.307945"><ele>26.0</ele><time>2026-03-30T12:02:19.297Z</time></trkpt><trkpt lat="40.9680483" lon="14.307975"><ele>26.0</ele><time>2026-03-30T12:02:20.295Z</time></trkpt><trkpt lat="40.9681167" lon="14.3080017"><ele>26.0</ele><time>2026-03-30T12:02:21.293Z</time></trkpt><trkpt lat="40.9681867" lon="14.3080283"><ele>26.0</ele><time>2026-03-30T12:02:22.295Z</time></trkpt><trkpt lat="40.9682567" lon="14.308055"><ele>26.0</ele><time>2026-03-30T12:02:23.293Z</time></trkpt><trkpt lat="40.9683267" lon="14.30808"><ele>26.0</ele><time>2026-03-30T12:02:24.293Z</time></trkpt><trkpt lat="40.9684" lon="14.3081017"><ele>25.833333333333332</ele><time>2026-03-30T12:02:25.295Z</time></trkpt><trkpt lat="40.9684733" lon="14.3081217"><ele>25.666666666666664</ele><time>2026-03-30T12:02:26.293Z</time></trkpt><trkpt lat="40.9685467" lon="14.3081467"><ele>25.5</ele><time>2026-03-30T12:02:27.296Z</time></trkpt><trkpt lat="40.9686217" lon="14.3081717"><ele>25.333333333333336</ele><time>2026-03-30T12:02:28.293Z</time></trkpt><trkpt lat="40.9686933" lon="14.3081883"><ele>25.166666666666668</ele><time>2026-03-30T12:02:29.297Z</time></trkpt><trkpt lat="40.96877" lon="14.3082"><ele>25.0</ele><time>2026-03-30T12:02:30.297Z</time></trkpt><trkpt lat="40.968845" lon="14.3082117"><ele>25.000000000000004</ele><time>2026-03-30T12:02:31.297Z</time></trkpt><trkpt lat="40.9689217" lon="14.3082233"><ele>25.0</ele><time>2026-03-30T12:02:32.295Z</time></trkpt><trkpt lat="40.9689983" lon="14.308235"><ele>25.0</ele><time>2026-03-30T12:02:33.296Z</time></trkpt><trkpt lat="40.969075" lon="14.308245"><ele>25.0</ele><time>2026-03-30T12:02:34.296Z</time></trkpt><trkpt lat="40.9691517" lon="14.3082483"><ele>25.000000000000004</ele><time>2026-03-30T12:02:35.294Z</time></trkpt><trkpt lat="40.9692267" lon="14.3082517"><ele>25.0</ele><time>2026-03-30T12:02:36.297Z</time></trkpt><trkpt lat="40.9693067" lon="14.3082567"><ele>24.833333333333336</ele><time>2026-03-30T12:02:37.296Z</time></trkpt><trkpt lat="40.9693883" lon="14.308265"><ele>24.666666666666668</ele><time>2026-03-30T12:02:38.296Z</time></trkpt><trkpt lat="40.9694667" lon="14.30828"><ele>24.5</ele><time>2026-03-30T12:02:39.296Z</time></trkpt><trkpt lat="40.9695467" lon="14.3082933"><ele>24.333333333333336</ele><time>2026-03-30T12:02:40.296Z</time></trkpt><trkpt lat="40.9696267" lon="14.308305"><ele>24.166666666666668</ele><time>2026-03-30T12:02:41.297Z</time></trkpt><trkpt lat="40.9697017" lon="14.30832"><ele>24.0</ele><time>2026-03-30T12:02:42.293Z</time></trkpt><trkpt lat="40.969775" lon="14.308335"><ele>23.999999999999996</ele><time>2026-03-30T12:02:43.295Z</time></trkpt><trkpt lat="40.9698517" lon="14.3083517"><ele>24.0</ele><time>2026-03-30T12:02:44.295Z</time></trkpt><trkpt lat="40.9699267" lon="14.3083567"><ele>24.0</ele><time>2026-03-30T12:02:45.295Z</time></trkpt><trkpt lat="40.97" lon="14.3083667"><ele>24.0</ele><time>2026-03-30T12:02:46.296Z</time></trkpt><trkpt lat="40.9700717" lon="14.30838"><ele>24.0</ele><time>2026-03-30T12:02:47.296Z</time></trkpt><trkpt lat="40.9701483" lon="14.3083917"><ele>23.999999999999996</ele><time>2026-03-30T12:02:48.295Z</time></trkpt><trkpt lat="40.9702217" lon="14.308395"><ele>24.0</ele><time>2026-03-30T12:02:49.295Z</time></trkpt><trkpt lat="40.9703" lon="14.3083983"><ele>23.833333333333332</ele><time>2026-03-30T12:02:50.293Z</time></trkpt><trkpt lat="40.970375" lon="14.3084133"><ele>23.666666666666668</ele><time>2026-03-30T12:02:51.292Z</time></trkpt><trkpt lat="40.97045" lon="14.3084283"><ele>23.5</ele><time>2026-03-30T12:02:52.293Z</time></trkpt><trkpt lat="40.970525" lon="14.3084433"><ele>23.333333333333336</ele><time>2026-03-30T12:02:53.293Z</time></trkpt><trkpt lat="40.9706033" lon="14.308465"><ele>23.166666666666668</ele><time>2026-03-30T12:02:54.293Z</time></trkpt><trkpt lat="40.9706817" lon="14.3084983"><ele>23.0</ele><time>2026-03-30T12:02:55.293Z</time></trkpt><trkpt lat="40.9707583" lon="14.30854"><ele>23.0</ele><time>2026-03-30T12:02:56.293Z</time></trkpt><trkpt lat="40.9708383" lon="14.308585"><ele>23.0</ele><time>2026-03-30T12:02:57.295Z</time></trkpt><trkpt lat="40.9709167" lon="14.3086317"><ele>23.0</ele><time>2026-03-30T12:02:58.296Z</time></trkpt><trkpt lat="40.970995" lon="14.3086783"><ele>23.0</ele><time>2026-03-30T12:02:59.294Z</time></trkpt><trkpt lat="40.971075" lon="14.3087167"><ele>23.0</ele><time>2026-03-30T12:03:00.296Z</time></trkpt><trkpt lat="40.9711533" lon="14.30876"><ele>23.0</ele><time>2026-03-30T12:03:01.294Z</time></trkpt><trkpt lat="40.9712283" lon="14.308805"><ele>23.166666666666668</ele><time>2026-03-30T12:03:02.294Z</time></trkpt><trkpt lat="40.9713033" lon="14.3088483"><ele>23.333333333333336</ele><time>2026-03-30T12:03:03.293Z</time></trkpt><trkpt lat="40.9713767" lon="14.3088933"><ele>23.5</ele><time>2026-03-30T12:03:04.293Z</time></trkpt><trkpt lat="40.97145" lon="14.3089417"><ele>23.666666666666668</ele><time>2026-03-30T12:03:05.293Z</time></trkpt><trkpt lat="40.971525" lon="14.3089867"><ele>23.833333333333332</ele><time>2026-03-30T12:03:06.296Z</time></trkpt><trkpt lat="40.9716" lon="14.3090317"><ele>24.0</ele><time>2026-03-30T12:03:07.295Z</time></trkpt><trkpt lat="40.9716767" lon="14.3090767"><ele>23.833333333333332</ele><time>2026-03-30T12:03:08.296Z</time></trkpt><trkpt lat="40.9717533" lon="14.30912"><ele>23.666666666666668</ele><time>2026-03-30T12:03:09.296Z</time></trkpt><trkpt lat="40.9718267" lon="14.3091667"><ele>23.5</ele><time>2026-03-30T12:03:10.296Z</time></trkpt><trkpt lat="40.9719033" lon="14.3092117"><ele>23.333333333333336</ele><time>2026-03-30T12:03:11.297Z</time></trkpt><trkpt lat="40.9719817" lon="14.30925"><ele>23.166666666666668</ele><time>2026-03-30T12:03:12.293Z</time></trkpt><trkpt lat="40.9720617" lon="14.3092883"><ele>23.0</ele><time>2026-03-30T12:03:13.293Z</time></trkpt><trkpt lat="40.97214" lon="14.3093217"><ele>23.0</ele><time>2026-03-30T12:03:14.293Z</time></trkpt><trkpt lat="40.9722217" lon="14.3093533"><ele>23.0</ele><time>2026-03-30T12:03:15.293Z</time></trkpt><trkpt lat="40.9723017" lon="14.3093817"><ele>23.0</ele><time>2026-03-30T12:03:16.293Z</time></trkpt><trkpt lat="40.97238" lon="14.3094083"><ele>23.0</ele><time>2026-03-30T12:03:17.294Z</time></trkpt><trkpt lat="40.97246" lon="14.309435"><ele>23.0</ele><time>2026-03-30T12:03:18.293Z</time></trkpt><trkpt lat="40.9725367" lon="14.3094583"><ele>23.0</ele><time>2026-03-30T12:03:19.295Z</time></trkpt><trkpt lat="40.972615" lon="14.3094867"><ele>22.833333333333336</ele><time>2026-03-30T12:03:20.294Z</time></trkpt><trkpt lat="40.97269" lon="14.309515"><ele>22.666666666666668</ele><time>2026-03-30T12:03:21.293Z</time></trkpt><trkpt lat="40.972765" lon="14.3095433"><ele>22.5</ele><time>2026-03-30T12:03:22.294Z</time></trkpt><trkpt lat="40.9728417" lon="14.3095767"><ele>22.333333333333332</ele><time>2026-03-30T12:03:23.293Z</time></trkpt><trkpt lat="40.97292" lon="14.3096033"><ele>22.166666666666664</ele><time>2026-03-30T12:03:24.295Z</time></trkpt><trkpt lat="40.9729933" lon="14.3096333"><ele>22.0</ele><time>2026-03-30T12:03:25.295Z</time></trkpt><trkpt lat="40.9730667" lon="14.309665"><ele>22.0</ele><time>2026-03-30T12:03:26.294Z</time></trkpt><trkpt lat="40.973145" lon="14.3096967"><ele>22.0</ele><time>2026-03-30T12:03:27.293Z</time></trkpt><trkpt lat="40.9732183" lon="14.30973"><ele>22.0</ele><time>2026-03-30T12:03:28.296Z</time></trkpt><trkpt lat="40.9732967" lon="14.30976"><ele>22.0</ele><time>2026-03-30T12:03:29.296Z</time></trkpt><trkpt lat="40.9733767" lon="14.3097917"><ele>22.0</ele><time>2026-03-30T12:03:30.294Z</time></trkpt><trkpt lat="40.9734567" lon="14.30982"><ele>22.0</ele><time>2026-03-30T12:03:31.294Z</time></trkpt><trkpt lat="40.9735367" lon="14.3098467"><ele>22.0</ele><time>2026-03-30T12:03:32.293Z</time></trkpt><trkpt lat="40.9736183" lon="14.3098417"><ele>22.0</ele><time>2026-03-30T12:03:33.293Z</time></trkpt><trkpt lat="40.973705" lon="14.3098567"><ele>22.0</ele><time>2026-03-30T12:03:34.295Z</time></trkpt><trkpt lat="40.9737917" lon="14.3098567"><ele>22.0</ele><time>2026-03-30T12:03:35.297Z</time></trkpt><trkpt lat="40.973875" lon="14.3098583"><ele>22.0</ele><time>2026-03-30T12:03:36.297Z</time></trkpt><trkpt lat="40.9739617" lon="14.3098533"><ele>22.0</ele><time>2026-03-30T12:03:37.297Z</time></trkpt><trkpt lat="40.974045" lon="14.309855"><ele>22.0</ele><time>2026-03-30T12:03:38.295Z</time></trkpt><trkpt lat="40.9741283" lon="14.3098517"><ele>22.0</ele><time>2026-03-30T12:03:39.297Z</time></trkpt><trkpt lat="40.9742133" lon="14.3098517"><ele>22.0</ele><time>2026-03-30T12:03:40.297Z</time></trkpt><trkpt lat="40.9743" lon="14.3098533"><ele>22.0</ele><time>2026-03-30T12:03:41.295Z</time></trkpt><trkpt lat="40.9743867" lon="14.3098533"><ele>22.0</ele><time>2026-03-30T12:03:42.297Z</time></trkpt><trkpt lat="40.9744683" lon="14.3098467"><ele>22.0</ele><time>2026-03-30T12:03:43.297Z</time></trkpt><trkpt lat="40.97455" lon="14.309845"><ele>22.0</ele><time>2026-03-30T12:03:44.296Z</time></trkpt><trkpt lat="40.9746333" lon="14.30984"><ele>22.0</ele><time>2026-03-30T12:03:45.293Z</time></trkpt><trkpt lat="40.9747167" lon="14.30984"><ele>22.0</ele><time>2026-03-30T12:03:46.296Z</time></trkpt><trkpt lat="40.9748" lon="14.3098417"><ele>22.0</ele><time>2026-03-30T12:03:47.292Z</time></trkpt><trkpt lat="40.974885" lon="14.3098433"><ele>22.0</ele><time>2026-03-30T12:03:48.293Z</time></trkpt><trkpt lat="40.974965" lon="14.3098433"><ele>22.0</ele><time>2026-03-30T12:03:49.295Z</time></trkpt><trkpt lat="40.9750433" lon="14.3098417"><ele>22.0</ele><time>2026-03-30T12:03:50.293Z</time></trkpt><trkpt lat="40.9751233" lon="14.309835"><ele>22.0</ele><time>2026-03-30T12:03:51.295Z</time></trkpt><trkpt lat="40.9752033" lon="14.3098283"><ele>22.0</ele><time>2026-03-30T12:03:52.295Z</time></trkpt><trkpt lat="40.975285" lon="14.30982"><ele>22.0</ele><time>2026-03-30T12:03:53.293Z</time></trkpt><trkpt lat="40.9753667" lon="14.3098067"><ele>22.0</ele><time>2026-03-30T12:03:54.295Z</time></trkpt><trkpt lat="40.9754483" lon="14.3097917"><ele>22.0</ele><time>2026-03-30T12:03:55.295Z</time></trkpt><trkpt lat="40.97553" lon="14.309775"><ele>22.0</ele><time>2026-03-30T12:03:56.293Z</time></trkpt><trkpt lat="40.97561" lon="14.3097483"><ele>22.0</ele><time>2026-03-30T12:03:57.295Z</time></trkpt><trkpt lat="40.9756867" lon="14.3097133"><ele>22.0</ele><time>2026-03-30T12:03:58.295Z</time></trkpt><trkpt lat="40.97576" lon="14.3096767"><ele>22.0</ele><time>2026-03-30T12:03:59.295Z</time></trkpt><trkpt lat="40.975835" lon="14.30964"><ele>22.0</ele><time>2026-03-30T12:04:00.297Z</time></trkpt><trkpt lat="40.97591" lon="14.3096017"><ele>22.0</ele><time>2026-03-30T12:04:01.294Z</time></trkpt><trkpt lat="40.9759817" lon="14.3095667"><ele>22.0</ele><time>2026-03-30T12:04:02.294Z</time></trkpt><trkpt lat="40.976055" lon="14.3095283"><ele>22.0</ele><time>2026-03-30T12:04:03.297Z</time></trkpt><trkpt lat="40.97613" lon="14.3094933"><ele>22.0</ele><time>2026-03-30T12:04:04.293Z</time></trkpt><trkpt lat="40.9762033" lon="14.30946"><ele>22.0</ele><time>2026-03-30T12:04:05.294Z</time></trkpt><trkpt lat="40.9762717" lon="14.309425"><ele>22.0</ele><time>2026-03-30T12:04:06.296Z</time></trkpt><trkpt lat="40.9763367" lon="14.3093917"><ele>22.0</ele><time>2026-03-30T12:04:07.297Z</time></trkpt><trkpt lat="40.9764" lon="14.309355"><ele>22.0</ele><time>2026-03-30T12:04:08.296Z</time></trkpt><trkpt lat="40.9764633" lon="14.30932"><ele>22.0</ele><time>2026-03-30T12:04:09.293Z</time></trkpt><trkpt lat="40.9765267" lon="14.3092867"><ele>22.0</ele><time>2026-03-30T12:04:10.293Z</time></trkpt><trkpt lat="40.9765883" lon="14.30925"><ele>22.0</ele><time>2026-03-30T12:04:11.295Z</time></trkpt><trkpt lat="40.9766533" lon="14.3092133"><ele>22.0</ele><time>2026-03-30T12:04:12.296Z</time></trkpt><trkpt lat="40.97672" lon="14.3091783"><ele>22.0</ele><time>2026-03-30T12:04:13.298Z</time></trkpt><trkpt lat="40.976785" lon="14.3091433"><ele>22.0</ele><time>2026-03-30T12:04:14.297Z</time></trkpt><trkpt lat="40.9768483" lon="14.30911"><ele>22.0</ele><time>2026-03-30T12:04:15.293Z</time></trkpt><trkpt lat="40.9769133" lon="14.3090817"><ele>21.714285714285715</ele><time>2026-03-30T12:04:16.293Z</time></trkpt><trkpt lat="40.97698" lon="14.3090583"><ele>21.428571428571427</ele><time>2026-03-30T12:04:17.295Z</time></trkpt><trkpt lat="40.9770533" lon="14.30904"><ele>21.142857142857142</ele><time>2026-03-30T12:04:18.293Z</time></trkpt><trkpt lat="40.977125" lon="14.30903"><ele>20.857142857142858</ele><time>2026-03-30T12:04:19.296Z</time></trkpt><trkpt lat="40.9771967" lon="14.3090267"><ele>20.571428571428573</ele><time>2026-03-30T12:04:20.295Z</time></trkpt><trkpt lat="40.9772683" lon="14.309035"><ele>20.285714285714285</ele><time>2026-03-30T12:04:21.294Z</time></trkpt><trkpt lat="40.97734" lon="14.3090567"><ele>20.0</ele><time>2026-03-30T12:04:22.294Z</time></trkpt><trkpt lat="40.9774083" lon="14.3090917"><ele>20.0</ele><time>2026-03-30T12:04:23.295Z</time></trkpt><trkpt lat="40.977475" lon="14.3091367"><ele>20.0</ele><time>2026-03-30T12:04:24.295Z</time></trkpt><trkpt lat="40.97754" lon="14.3091883"><ele>20.0</ele><time>2026-03-30T12:04:25.295Z</time></trkpt><trkpt lat="40.9775983" lon="14.3092483"><ele>20.0</ele><time>2026-03-30T12:04:26.295Z</time></trkpt><trkpt lat="40.977655" lon="14.3093133"><ele>20.0</ele><time>2026-03-30T12:04:27.293Z</time></trkpt><trkpt lat="40.977715" lon="14.30938"><ele>20.0</ele><time>2026-03-30T12:04:28.295Z</time></trkpt><trkpt lat="40.97777" lon="14.30945"><ele>20.0</ele><time>2026-03-30T12:04:29.292Z</time></trkpt><trkpt lat="40.977825" lon="14.3095217"><ele>20.0</ele><time>2026-03-30T12:04:30.293Z</time></trkpt><trkpt lat="40.9778783" lon="14.3095917"><ele>20.0</ele><time>2026-03-30T12:04:31.295Z</time></trkpt><trkpt lat="40.9779283" lon="14.3096633"><ele>20.0</ele><time>2026-03-30T12:04:32.293Z</time></trkpt><trkpt lat="40.97798" lon="14.3097317"><ele>20.0</ele><time>2026-03-30T12:04:33.296Z</time></trkpt><trkpt lat="40.9780333" lon="14.3097983"><ele>20.0</ele><time>2026-03-30T12:04:34.293Z</time></trkpt><trkpt lat="40.978085" lon="14.3098667"><ele>20.0</ele><time>2026-03-30T12:04:35.295Z</time></trkpt><trkpt lat="40.9781383" lon="14.30993"><ele>20.0</ele><time>2026-03-30T12:04:36.295Z</time></trkpt><trkpt lat="40.9781933" lon="14.3099917"><ele>20.0</ele><time>2026-03-30T12:04:37.294Z</time></trkpt><trkpt lat="40.9782467" lon="14.3100483"><ele>20.0</ele><time>2026-03-30T12:04:38.294Z</time></trkpt><trkpt lat="40.9783033" lon="14.3101067"><ele>20.0</ele><time>2026-03-30T12:04:39.294Z</time></trkpt><trkpt lat="40.9783617" lon="14.3101633"><ele>20.0</ele><time>2026-03-30T12:04:40.297Z</time></trkpt><trkpt lat="40.9784217" lon="14.31022"><ele>20.0</ele><time>2026-03-30T12:04:41.293Z</time></trkpt><trkpt lat="40.9784817" lon="14.31028"><ele>20.0</ele><time>2026-03-30T12:04:42.295Z</time></trkpt><trkpt lat="40.9785433" lon="14.3103383"><ele>20.0</ele><time>2026-03-30T12:04:43.296Z</time></trkpt><trkpt lat="40.9786033" lon="14.3103983"><ele>20.0</ele><time>2026-03-30T12:04:44.295Z</time></trkpt><trkpt lat="40.9786633" lon="14.3104583"><ele>20.0</ele><time>2026-03-30T12:04:45.297Z</time></trkpt><trkpt lat="40.9787217" lon="14.3105133"><ele>20.0</ele><time>2026-03-30T12:04:46.294Z</time></trkpt><trkpt lat="40.978785" lon="14.3105667"><ele>20.0</ele><time>2026-03-30T12:04:47.294Z</time></trkpt><trkpt lat="40.9788467" lon="14.3106233"><ele>20.0</ele><time>2026-03-30T12:04:48.294Z</time></trkpt><trkpt lat="40.97891" lon="14.31068"><ele>20.0</ele><time>2026-03-30T12:04:49.294Z</time></trkpt><trkpt lat="40.9789717" lon="14.310735"><ele>20.142857142857142</ele><time>2026-03-30T12:04:50.295Z</time></trkpt><trkpt lat="40.9790317" lon="14.3107917"><ele>20.285714285714285</ele><time>2026-03-30T12:04:51.295Z</time></trkpt><trkpt lat="40.9790917" lon="14.3108517"><ele>20.42857142857143</ele><time>2026-03-30T12:04:52.294Z</time></trkpt><trkpt lat="40.9791517" lon="14.3109083"><ele>20.57142857142857</ele><time>2026-03-30T12:04:53.295Z</time></trkpt><trkpt lat="40.97921" lon="14.3109617"><ele>20.714285714285715</ele><time>2026-03-30T12:04:54.296Z</time></trkpt><trkpt lat="40.9792683" lon="14.3110133"><ele>20.857142857142858</ele><time>2026-03-30T12:04:55.294Z</time></trkpt><trkpt lat="40.9793267" lon="14.311065"><ele>21.0</ele><time>2026-03-30T12:04:56.293Z</time></trkpt><trkpt lat="40.979385" lon="14.3111167"><ele>21.0</ele><time>2026-03-30T12:04:57.293Z</time></trkpt><trkpt lat="40.9794417" lon="14.311165"><ele>21.0</ele><time>2026-03-30T12:04:58.297Z</time></trkpt><trkpt lat="40.9795" lon="14.3112133"><ele>21.0</ele><time>2026-03-30T12:04:59.293Z</time></trkpt><trkpt lat="40.9795567" lon="14.311265"><ele>21.0</ele><time>2026-03-30T12:05:00.297Z</time></trkpt><trkpt lat="40.9796183" lon="14.3113133"><ele>21.0</ele><time>2026-03-30T12:05:01.298Z</time></trkpt><trkpt lat="40.97968" lon="14.3113617"><ele>21.0</ele><time>2026-03-30T12:05:02.297Z</time></trkpt><trkpt lat="40.9797417" lon="14.3114133"><ele>21.0</ele><time>2026-03-30T12:05:03.293Z</time></trkpt><trkpt lat="40.979805" lon="14.31147"><ele>21.0</ele><time>2026-03-30T12:05:04.295Z</time></trkpt><trkpt lat="40.9798683" lon="14.311525"><ele>21.0</ele><time>2026-03-30T12:05:05.296Z</time></trkpt><trkpt lat="40.9799317" lon="14.3115767"><ele>21.0</ele><time>2026-03-30T12:05:06.296Z</time></trkpt><trkpt lat="40.9799967" lon="14.311625"><ele>21.0</ele><time>2026-03-30T12:05:07.296Z</time></trkpt><trkpt lat="40.9800617" lon="14.3116733"><ele>21.0</ele><time>2026-03-30T12:05:08.297Z</time></trkpt><trkpt lat="40.9801283" lon="14.311715"><ele>21.0</ele><time>2026-03-30T12:05:09.296Z</time></trkpt><trkpt lat="40.980195" lon="14.311755"><ele>21.0</ele><time>2026-03-30T12:05:10.297Z</time></trkpt><trkpt lat="40.98026" lon="14.311795"><ele>21.285714285714285</ele><time>2026-03-30T12:05:11.297Z</time></trkpt><trkpt lat="40.9803233" lon="14.31184"><ele>21.57142857142857</ele><time>2026-03-30T12:05:12.297Z</time></trkpt><trkpt lat="40.9803883" lon="14.3118817"><ele>21.857142857142858</ele><time>2026-03-30T12:05:13.297Z</time></trkpt><trkpt lat="40.9804567" lon="14.31192"><ele>22.142857142857142</ele><time>2026-03-30T12:05:14.296Z</time></trkpt><trkpt lat="40.980525" lon="14.3119583"><ele>22.428571428571427</ele><time>2026-03-30T12:05:15.294Z</time></trkpt><trkpt lat="40.9805933" lon="14.312"><ele>22.714285714285715</ele><time>2026-03-30T12:05:16.296Z</time></trkpt><trkpt lat="40.9806617" lon="14.3120367"><ele>23.0</ele><time>2026-03-30T12:05:17.295Z</time></trkpt><trkpt lat="40.98073" lon="14.3120783"><ele>23.0</ele><time>2026-03-30T12:05:18.293Z</time></trkpt><trkpt lat="40.9808" lon="14.3121183"><ele>23.0</ele><time>2026-03-30T12:05:19.295Z</time></trkpt><trkpt lat="40.98087" lon="14.3121567"><ele>23.0</ele><time>2026-03-30T12:05:20.293Z</time></trkpt><trkpt lat="40.9809383" lon="14.3121967"><ele>23.0</ele><time>2026-03-30T12:05:21.295Z</time></trkpt><trkpt lat="40.9810067" lon="14.3122333"><ele>23.0</ele><time>2026-03-30T12:05:22.296Z</time></trkpt><trkpt lat="40.9810733" lon="14.31227"><ele>23.0</ele><time>2026-03-30T12:05:23.295Z</time></trkpt><trkpt lat="40.9811417" lon="14.3123067"><ele>23.0</ele><time>2026-03-30T12:05:24.295Z</time></trkpt><trkpt lat="40.9812067" lon="14.312345"><ele>22.714285714285715</ele><time>2026-03-30T12:05:25.298Z</time></trkpt><trkpt lat="40.981275" lon="14.31238"><ele>22.428571428571427</ele><time>2026-03-30T12:05:26.293Z</time></trkpt><trkpt lat="40.9813433" lon="14.3124083"><ele>22.142857142857142</ele><time>2026-03-30T12:05:27.293Z</time></trkpt><trkpt lat="40.9814133" lon="14.312435"><ele>21.857142857142858</ele><time>2026-03-30T12:05:28.294Z</time></trkpt><trkpt lat="40.9814817" lon="14.3124617"><ele>21.57142857142857</ele><time>2026-03-30T12:05:29.297Z</time></trkpt><trkpt lat="40.981555" lon="14.31248"><ele>21.285714285714285</ele><time>2026-03-30T12:05:30.296Z</time></trkpt><trkpt lat="40.98163" lon="14.3124917"><ele>21.0</ele><time>2026-03-30T12:05:31.295Z</time></trkpt><trkpt lat="40.981705" lon="14.3125017"><ele>20.833333333333332</ele><time>2026-03-30T12:05:32.293Z</time></trkpt><trkpt lat="40.9817833" lon="14.3125067"><ele>20.666666666666668</ele><time>2026-03-30T12:05:33.294Z</time></trkpt><trkpt lat="40.9818633" lon="14.3125067"><ele>20.5</ele><time>2026-03-30T12:05:34.295Z</time></trkpt><trkpt lat="40.981945" lon="14.3125067"><ele>20.333333333333336</ele><time>2026-03-30T12:05:35.293Z</time></trkpt><trkpt lat="40.982025" lon="14.31251"><ele>20.166666666666668</ele><time>2026-03-30T12:05:36.296Z</time></trkpt><trkpt lat="40.9821067" lon="14.3125083"><ele>20.0</ele><time>2026-03-30T12:05:37.298Z</time></trkpt><trkpt lat="40.9821883" lon="14.3125067"><ele>20.0</ele><time>2026-03-30T12:05:38.297Z</time></trkpt><trkpt lat="40.9822717" lon="14.3125067"><ele>20.0</ele><time>2026-03-30T12:05:39.293Z</time></trkpt><trkpt lat="40.98235" lon="14.3125083"><ele>20.0</ele><time>2026-03-30T12:05:40.295Z</time></trkpt><trkpt lat="40.982435" lon="14.3125083"><ele>20.0</ele><time>2026-03-30T12:05:41.295Z</time></trkpt><trkpt lat="40.9825183" lon="14.3125117"><ele>20.0</ele><time>2026-03-30T12:05:42.297Z</time></trkpt><trkpt lat="40.9826" lon="14.312515"><ele>20.0</ele><time>2026-03-30T12:05:43.297Z</time></trkpt><trkpt lat="40.9826817" lon="14.3125117"><ele>20.0</ele><time>2026-03-30T12:05:44.297Z</time></trkpt><trkpt lat="40.9827633" lon="14.3125117"><ele>20.0</ele><time>2026-03-30T12:05:45.297Z</time></trkpt><trkpt lat="40.9828467" lon="14.31251"><ele>20.0</ele><time>2026-03-30T12:05:46.293Z</time></trkpt><trkpt lat="40.9829283" lon="14.31251"><ele>20.0</ele><time>2026-03-30T12:05:47.293Z</time></trkpt><trkpt lat="40.98301" lon="14.3125033"><ele>20.0</ele><time>2026-03-30T12:05:48.293Z</time></trkpt><trkpt lat="40.9830917" lon="14.312495"><ele>20.0</ele><time>2026-03-30T12:05:49.294Z</time></trkpt><trkpt lat="40.9831733" lon="14.3124833"><ele>20.0</ele><time>2026-03-30T12:05:50.295Z</time></trkpt><trkpt lat="40.983255" lon="14.312465"><ele>20.0</ele><time>2026-03-30T12:05:51.294Z</time></trkpt><trkpt lat="40.983335" lon="14.3124417"><ele>20.0</ele><time>2026-03-30T12:05:52.295Z</time></trkpt><trkpt lat="40.9834133" lon="14.3124083"><ele>20.0</ele><time>2026-03-30T12:05:53.296Z</time></trkpt><trkpt lat="40.98349" lon="14.3123717"><ele>20.0</ele><time>2026-03-30T12:05:54.293Z</time></trkpt><trkpt lat="40.9835667" lon="14.3123333"><ele>20.0</ele><time>2026-03-30T12:05:55.295Z</time></trkpt><trkpt lat="40.98364" lon="14.3122917"><ele>20.0</ele><time>2026-03-30T12:05:56.294Z</time></trkpt><trkpt lat="40.983715" lon="14.3122483"><ele>20.0</ele><time>2026-03-30T12:05:57.292Z</time></trkpt><trkpt lat="40.9837917" lon="14.312205"><ele>20.0</ele><time>2026-03-30T12:05:58.295Z</time></trkpt><trkpt lat="40.9838667" lon="14.312165"><ele>20.0</ele><time>2026-03-30T12:05:59.295Z</time></trkpt><trkpt lat="40.9839417" lon="14.31213"><ele>20.0</ele><time>2026-03-30T12:06:00.295Z</time></trkpt><trkpt lat="40.984015" lon="14.312095"><ele>20.0</ele><time>2026-03-30T12:06:01.296Z</time></trkpt><trkpt lat="40.98409" lon="14.3120583"><ele>20.0</ele><time>2026-03-30T12:06:02.294Z</time></trkpt><trkpt lat="40.9841633" lon="14.312025"><ele>20.0</ele><time>2026-03-30T12:06:03.294Z</time></trkpt><trkpt lat="40.9842383" lon="14.3119883"><ele>20.0</ele><time>2026-03-30T12:06:04.296Z</time></trkpt><trkpt lat="40.9843133" lon="14.3119483"><ele>20.0</ele><time>2026-03-30T12:06:05.297Z</time></trkpt><trkpt lat="40.9843883" lon="14.3119117"><ele>20.0</ele><time>2026-03-30T12:06:06.296Z</time></trkpt><trkpt lat="40.9844633" lon="14.3118783"><ele>20.0</ele><time>2026-03-30T12:06:07.295Z</time></trkpt><trkpt lat="40.984535" lon="14.3118417"><ele>20.166666666666668</ele><time>2026-03-30T12:06:08.297Z</time></trkpt><trkpt lat="40.9846083" lon="14.3118067"><ele>20.333333333333336</ele><time>2026-03-30T12:06:09.297Z</time></trkpt><trkpt lat="40.9846833" lon="14.31177"><ele>20.5</ele><time>2026-03-30T12:06:10.293Z</time></trkpt><trkpt lat="40.9847583" lon="14.3117333"><ele>20.666666666666668</ele><time>2026-03-30T12:06:11.295Z</time></trkpt><trkpt lat="40.98483" lon="14.3116967"><ele>20.833333333333332</ele><time>2026-03-30T12:06:12.293Z</time></trkpt><trkpt lat="40.984905" lon="14.3116617"><ele>21.0</ele><time>2026-03-30T12:06:13.296Z</time></trkpt><trkpt lat="40.9849783" lon="14.3116317"><ele>20.833333333333332</ele><time>2026-03-30T12:06:14.293Z</time></trkpt><trkpt lat="40.985055" lon="14.3116067"><ele>20.666666666666668</ele><time>2026-03-30T12:06:15.295Z</time></trkpt><trkpt lat="40.98513" lon="14.311585"><ele>20.5</ele><time>2026-03-30T12:06:16.293Z</time></trkpt><trkpt lat="40.98521" lon="14.3115683"><ele>20.333333333333336</ele><time>2026-03-30T12:06:17.293Z</time></trkpt><trkpt lat="40.9852917" lon="14.3115617"><ele>20.166666666666668</ele><time>2026-03-30T12:06:18.293Z</time></trkpt><trkpt lat="40.9853717" lon="14.3115667"><ele>20.0</ele><time>2026-03-30T12:06:19.296Z</time></trkpt><trkpt lat="40.9854517" lon="14.3115783"><ele>20.0</ele><time>2026-03-30T12:06:20.297Z</time></trkpt><trkpt lat="40.9855333" lon="14.31159"><ele>20.0</ele><time>2026-03-30T12:06:21.297Z</time></trkpt><trkpt lat="40.985615" lon="14.3116033"><ele>20.0</ele><time>2026-03-30T12:06:22.297Z</time></trkpt><trkpt lat="40.9856983" lon="14.311615"><ele>20.0</ele><time>2026-03-30T12:06:23.297Z</time></trkpt><trkpt lat="40.98578" lon="14.3116267"><ele>20.0</ele><time>2026-03-30T12:06:24.297Z</time></trkpt><trkpt lat="40.9858617" lon="14.3116433"><ele>20.0</ele><time>2026-03-30T12:06:25.296Z</time></trkpt><trkpt lat="40.985945" lon="14.3116583"><ele>20.0</ele><time>2026-03-30T12:06:26.297Z</time></trkpt><trkpt lat="40.9860267" lon="14.3116733"><ele>20.0</ele><time>2026-03-30T12:06:27.297Z</time></trkpt><trkpt lat="40.98611" lon="14.311685"><ele>20.0</ele><time>2026-03-30T12:06:28.297Z</time></trkpt><trkpt lat="40.9861917" lon="14.3116967"><ele>20.0</ele><time>2026-03-30T12:06:29.297Z</time></trkpt><trkpt lat="40.9862733" lon="14.31171"><ele>20.0</ele><time>2026-03-30T12:06:30.297Z</time></trkpt><trkpt lat="40.9863533" lon="14.3117267"><ele>20.0</ele><time>2026-03-30T12:06:31.298Z</time></trkpt><trkpt lat="40.9864317" lon="14.3117367"><ele>20.0</ele><time>2026-03-30T12:06:32.296Z</time></trkpt><trkpt lat="40.98651" lon="14.3117467"><ele>20.0</ele><time>2026-03-30T12:06:33.297Z</time></trkpt><trkpt lat="40.9865883" lon="14.311755"><ele>20.0</ele><time>2026-03-30T12:06:34.297Z</time></trkpt><trkpt lat="40.9866683" lon="14.3117667"><ele>20.0</ele><time>2026-03-30T12:06:35.297Z</time></trkpt><trkpt lat="40.98675" lon="14.3117817"><ele>20.0</ele><time>2026-03-30T12:06:36.294Z</time></trkpt><trkpt lat="40.98683" lon="14.3117983"><ele>20.0</ele><time>2026-03-30T12:06:37.298Z</time></trkpt><trkpt lat="40.9869083" lon="14.31182"><ele>20.0</ele><time>2026-03-30T12:06:38.296Z</time></trkpt><trkpt lat="40.9869867" lon="14.3118483"><ele>20.0</ele><time>2026-03-30T12:06:39.296Z</time></trkpt><trkpt lat="40.9870617" lon="14.3118867"><ele>20.0</ele><time>2026-03-30T12:06:40.295Z</time></trkpt><trkpt lat="40.987135" lon="14.3119333"><ele>20.0</ele><time>2026-03-30T12:06:41.298Z</time></trkpt><trkpt lat="40.9872067" lon="14.3119883"><ele>20.0</ele><time>2026-03-30T12:06:42.294Z</time></trkpt><trkpt lat="40.987275" lon="14.31205"><ele>20.0</ele><time>2026-03-30T12:06:43.297Z</time></trkpt><trkpt lat="40.9873417" lon="14.3121167"><ele>20.0</ele><time>2026-03-30T12:06:44.295Z</time></trkpt><trkpt lat="40.9874083" lon="14.31219"><ele>20.0</ele><time>2026-03-30T12:06:45.295Z</time></trkpt><trkpt lat="40.9874733" lon="14.31226"><ele>20.0</ele><time>2026-03-30T12:06:46.294Z</time></trkpt><trkpt lat="40.9875417" lon="14.31233"><ele>20.0</ele><time>2026-03-30T12:06:47.299Z</time></trkpt><trkpt lat="40.9876083" lon="14.3123983"><ele>20.0</ele><time>2026-03-30T12:06:48.294Z</time></trkpt><trkpt lat="40.987675" lon="14.3124717"><ele>20.0</ele><time>2026-03-30T12:06:49.296Z</time></trkpt><trkpt lat="40.9877433" lon="14.312545"><ele>19.833333333333336</ele><time>2026-03-30T12:06:50.297Z</time></trkpt><trkpt lat="40.98781" lon="14.3126133"><ele>19.666666666666668</ele><time>2026-03-30T12:06:51.294Z</time></trkpt><trkpt lat="40.9878783" lon="14.3126867"><ele>19.5</ele><time>2026-03-30T12:06:52.297Z</time></trkpt><trkpt lat="40.9879467" lon="14.312755"><ele>19.333333333333332</ele><time>2026-03-30T12:06:53.296Z</time></trkpt><trkpt lat="40.9880133" lon="14.3128233"><ele>19.166666666666664</ele><time>2026-03-30T12:06:54.294Z</time></trkpt><trkpt lat="40.9880817" lon="14.3128867"><ele>19.0</ele><time>2026-03-30T12:06:55.295Z</time></trkpt><trkpt lat="40.98815" lon="14.3129567"><ele>19.0</ele><time>2026-03-30T12:06:56.296Z</time></trkpt><trkpt lat="40.98822" lon="14.3130283"><ele>19.0</ele><time>2026-03-30T12:06:57.293Z</time></trkpt><trkpt lat="40.98829" lon="14.313095"><ele>19.0</ele><time>2026-03-30T12:06:58.294Z</time></trkpt><trkpt lat="40.9883617" lon="14.31316"><ele>19.0</ele><time>2026-03-30T12:06:59.297Z</time></trkpt><trkpt lat="40.9884283" lon="14.3132283"><ele>19.0</ele><time>2026-03-30T12:07:00.294Z</time></trkpt><trkpt lat="40.9884983" lon="14.3133017"><ele>19.0</ele><time>2026-03-30T12:07:01.294Z</time></trkpt><trkpt lat="40.9885683" lon="14.3133733"><ele>19.333333333333332</ele><time>2026-03-30T12:07:02.296Z</time></trkpt><trkpt lat="40.98864" lon="14.31344"><ele>19.666666666666664</ele><time>2026-03-30T12:07:03.293Z</time></trkpt><trkpt lat="40.9887083" lon="14.3135133"><ele>20.0</ele><time>2026-03-30T12:07:04.295Z</time></trkpt><trkpt lat="40.9887767" lon="14.3135833"><ele>20.333333333333332</ele><time>2026-03-30T12:07:05.295Z</time></trkpt><trkpt lat="40.9888433" lon="14.313655"><ele>20.666666666666668</ele><time>2026-03-30T12:07:06.296Z</time></trkpt><trkpt lat="40.98891" lon="14.3137267"><ele>21.0</ele><time>2026-03-30T12:07:07.294Z</time></trkpt><trkpt lat="40.9889767" lon="14.3137967"><ele>21.0</ele><time>2026-03-30T12:07:08.297Z</time></trkpt><trkpt lat="40.989045" lon="14.3138683"><ele>21.0</ele><time>2026-03-30T12:07:09.297Z</time></trkpt><trkpt lat="40.989115" lon="14.3139433"><ele>21.0</ele><time>2026-03-30T12:07:10.295Z</time></trkpt><trkpt lat="40.9891867" lon="14.3140183"><ele>21.0</ele><time>2026-03-30T12:07:11.298Z</time></trkpt><trkpt lat="40.9892583" lon="14.314095"><ele>21.0</ele><time>2026-03-30T12:07:12.294Z</time></trkpt><trkpt lat="40.98933" lon="14.3141667"><ele>21.0</ele><time>2026-03-30T12:07:13.297Z</time></trkpt><trkpt lat="40.989405" lon="14.3142383"><ele>21.0</ele><time>2026-03-30T12:07:14.297Z</time></trkpt><trkpt lat="40.9894767" lon="14.3143117"><ele>21.0</ele><time>2026-03-30T12:07:15.297Z</time></trkpt><trkpt lat="40.9895483" lon="14.3143867"><ele>21.0</ele><time>2026-03-30T12:07:16.297Z</time></trkpt><trkpt lat="40.98962" lon="14.3144633"><ele>21.0</ele><time>2026-03-30T12:07:17.297Z</time></trkpt><trkpt lat="40.989695" lon="14.3145467"><ele>21.0</ele><time>2026-03-30T12:07:18.297Z</time></trkpt><trkpt lat="40.9897717" lon="14.3146217"><ele>21.0</ele><time>2026-03-30T12:07:19.297Z</time></trkpt><trkpt lat="40.989845" lon="14.3147017"><ele>21.0</ele><time>2026-03-30T12:07:20.296Z</time></trkpt><trkpt lat="40.98992" lon="14.3147817"><ele>21.0</ele><time>2026-03-30T12:07:21.297Z</time></trkpt><trkpt lat="40.9899983" lon="14.3148617"><ele>21.0</ele><time>2026-03-30T12:07:22.298Z</time></trkpt><trkpt lat="40.9900783" lon="14.314945"><ele>20.8</ele><time>2026-03-30T12:07:23.295Z</time></trkpt><trkpt lat="40.9901583" lon="14.3150217"><ele>20.6</ele><time>2026-03-30T12:07:24.295Z</time></trkpt><trkpt lat="40.99024" lon="14.315095"><ele>20.4</ele><time>2026-03-30T12:07:25.297Z</time></trkpt><trkpt lat="40.9903233" lon="14.3151733"><ele>20.2</ele><time>2026-03-30T12:07:26.297Z</time></trkpt><trkpt lat="40.9904017" lon="14.3152483"><ele>20.0</ele><time>2026-03-30T12:07:27.297Z</time></trkpt><trkpt lat="40.9904783" lon="14.3153217"><ele>20.0</ele><time>2026-03-30T12:07:28.294Z</time></trkpt><trkpt lat="40.9905467" lon="14.315405"><ele>20.0</ele><time>2026-03-30T12:07:29.295Z</time></trkpt><trkpt lat="40.9906133" lon="14.3154817"><ele>20.0</ele><time>2026-03-30T12:07:30.295Z</time></trkpt><trkpt lat="40.9906817" lon="14.3155633"><ele>20.0</ele><time>2026-03-30T12:07:31.297Z</time></trkpt><trkpt lat="40.9907433" lon="14.3156417"><ele>20.0</ele><time>2026-03-30T12:07:32.297Z</time></trkpt><trkpt lat="40.990805" lon="14.315715"><ele>20.0</ele><time>2026-03-30T12:07:33.296Z</time></trkpt><trkpt lat="40.9908683" lon="14.3157883"><ele>19.833333333333336</ele><time>2026-03-30T12:07:34.296Z</time></trkpt><trkpt lat="40.9909317" lon="14.3158583"><ele>19.666666666666668</ele><time>2026-03-30T12:07:35.297Z</time></trkpt><trkpt lat="40.9909983" lon="14.31593"><ele>19.5</ele><time>2026-03-30T12:07:36.298Z</time></trkpt><trkpt lat="40.9910633" lon="14.3159967"><ele>19.333333333333332</ele><time>2026-03-30T12:07:37.298Z</time></trkpt><trkpt lat="40.99113" lon="14.3160633"><ele>19.166666666666664</ele><time>2026-03-30T12:07:38.296Z</time></trkpt><trkpt lat="40.9912" lon="14.3161317"><ele>19.0</ele><time>2026-03-30T12:07:39.296Z</time></trkpt><trkpt lat="40.9912717" lon="14.3162033"><ele>19.0</ele><time>2026-03-30T12:07:40.297Z</time></trkpt><trkpt lat="40.9913417" lon="14.3162783"><ele>19.0</ele><time>2026-03-30T12:07:41.297Z</time></trkpt><trkpt lat="40.9914133" lon="14.3163533"><ele>19.0</ele><time>2026-03-30T12:07:42.297Z</time></trkpt><trkpt lat="40.991485" lon="14.3164267"><ele>19.0</ele><time>2026-03-30T12:07:43.298Z</time></trkpt><trkpt lat="40.9915583" lon="14.3165017"><ele>19.0</ele><time>2026-03-30T12:07:44.297Z</time></trkpt><trkpt lat="40.9916333" lon="14.3165767"><ele>19.2</ele><time>2026-03-30T12:07:45.297Z</time></trkpt><trkpt lat="40.9917117" lon="14.3166533"><ele>19.4</ele><time>2026-03-30T12:07:46.296Z</time></trkpt><trkpt lat="40.9917883" lon="14.3167283"><ele>19.6</ele><time>2026-03-30T12:07:47.297Z</time></trkpt><trkpt lat="40.9918633" lon="14.316805"><ele>19.8</ele><time>2026-03-30T12:07:48.297Z</time></trkpt><trkpt lat="40.99194" lon="14.31688"><ele>20.0</ele><time>2026-03-30T12:07:49.296Z</time></trkpt><trkpt lat="40.9920167" lon="14.3169533"><ele>20.0</ele><time>2026-03-30T12:07:50.297Z</time></trkpt><trkpt lat="40.9920933" lon="14.31703"><ele>20.0</ele><time>2026-03-30T12:07:51.297Z</time></trkpt><trkpt lat="40.9921733" lon="14.3171017"><ele>20.0</ele><time>2026-03-30T12:07:52.297Z</time></trkpt><trkpt lat="40.9922517" lon="14.3171767"><ele>20.0</ele><time>2026-03-30T12:07:53.297Z</time></trkpt><trkpt lat="40.99233" lon="14.3172517"><ele>20.0</ele><time>2026-03-30T12:07:54.297Z</time></trkpt><trkpt lat="40.9924067" lon="14.3173217"><ele>19.8</ele><time>2026-03-30T12:07:55.297Z</time></trkpt><trkpt lat="40.992485" lon="14.3173917"><ele>19.6</ele><time>2026-03-30T12:07:56.297Z</time></trkpt><trkpt lat="40.9925667" lon="14.31746"><ele>19.4</ele><time>2026-03-30T12:07:57.297Z</time></trkpt><trkpt lat="40.9926467" lon="14.3175233"><ele>19.2</ele><time>2026-03-30T12:07:58.296Z</time></trkpt><trkpt lat="40.992725" lon="14.3175817"><ele>19.0</ele><time>2026-03-30T12:07:59.298Z</time></trkpt><trkpt lat="40.99281" lon="14.3176333"><ele>19.0</ele><time>2026-03-30T12:08:00.296Z</time></trkpt><trkpt lat="40.9928967" lon="14.3176717"><ele>19.0</ele><time>2026-03-30T12:08:01.297Z</time></trkpt><trkpt lat="40.9929833" lon="14.3176983"><ele>19.0</ele><time>2026-03-30T12:08:02.297Z</time></trkpt><trkpt lat="40.9930733" lon="14.3177167"><ele>19.0</ele><time>2026-03-30T12:08:03.297Z</time></trkpt><trkpt lat="40.9931633" lon="14.3177367"><ele>19.0</ele><time>2026-03-30T12:08:04.295Z</time></trkpt><trkpt lat="40.993255" lon="14.3177567"><ele>19.0</ele><time>2026-03-30T12:08:05.298Z</time></trkpt><trkpt lat="40.993345" lon="14.3177717"><ele>19.0</ele><time>2026-03-30T12:08:06.295Z</time></trkpt><trkpt lat="40.9934367" lon="14.3177867"><ele>19.0</ele><time>2026-03-30T12:08:07.297Z</time></trkpt><trkpt lat="40.9935283" lon="14.3178"><ele>19.0</ele><time>2026-03-30T12:08:08.297Z</time></trkpt><trkpt lat="40.9936217" lon="14.3178133"><ele>19.0</ele><time>2026-03-30T12:08:09.297Z</time></trkpt><trkpt lat="40.9937133" lon="14.3178217"><ele>19.0</ele><time>2026-03-30T12:08:10.297Z</time></trkpt><trkpt lat="40.9938033" lon="14.3178317"><ele>19.0</ele><time>2026-03-30T12:08:11.297Z</time></trkpt><trkpt lat="40.9938933" lon="14.3178417"><ele>19.0</ele><time>2026-03-30T12:08:12.297Z</time></trkpt><trkpt lat="40.99398" lon="14.3178483"><ele>19.0</ele><time>2026-03-30T12:08:13.297Z</time></trkpt><trkpt lat="40.9940683" lon="14.317855"><ele>19.0</ele><time>2026-03-30T12:08:14.294Z</time></trkpt><trkpt lat="40.994155" lon="14.3178617"><ele>19.0</ele><time>2026-03-30T12:08:15.298Z</time></trkpt><trkpt lat="40.9942417" lon="14.3178733"><ele>19.0</ele><time>2026-03-30T12:08:16.297Z</time></trkpt><trkpt lat="40.994325" lon="14.3178817"><ele>19.0</ele><time>2026-03-30T12:08:17.298Z</time></trkpt><trkpt lat="40.9944133" lon="14.3178917"><ele>19.0</ele><time>2026-03-30T12:08:18.294Z</time></trkpt><trkpt lat="40.9944967" lon="14.3178983"><ele>19.0</ele><time>2026-03-30T12:08:19.296Z</time></trkpt><trkpt lat="40.9945817" lon="14.3179"><ele>19.0</ele><time>2026-03-30T12:08:20.297Z</time></trkpt><trkpt lat="40.9946633" lon="14.3179083"><ele>19.0</ele><time>2026-03-30T12:08:21.296Z</time></trkpt><trkpt lat="40.9947467" lon="14.3179167"><ele>19.0</ele><time>2026-03-30T12:08:22.293Z</time></trkpt><trkpt lat="40.9948267" lon="14.317925"><ele>19.0</ele><time>2026-03-30T12:08:23.293Z</time></trkpt><trkpt lat="40.994905" lon="14.3179317"><ele>19.0</ele><time>2026-03-30T12:08:24.293Z</time></trkpt><trkpt lat="40.9949817" lon="14.3179433"><ele>19.0</ele><time>2026-03-30T12:08:25.294Z</time></trkpt><trkpt lat="40.99506" lon="14.3179533"><ele>19.0</ele><time>2026-03-30T12:08:26.293Z</time></trkpt><trkpt lat="40.99514" lon="14.3179633"><ele>19.0</ele><time>2026-03-30T12:08:27.294Z</time></trkpt><trkpt lat="40.9952217" lon="14.3179733"><ele>19.0</ele><time>2026-03-30T12:08:28.294Z</time></trkpt><trkpt lat="40.9953033" lon="14.3179817"><ele>19.0</ele><time>2026-03-30T12:08:29.295Z</time></trkpt><trkpt lat="40.9953883" lon="14.31799"><ele>19.0</ele><time>2026-03-30T12:08:30.295Z</time></trkpt><trkpt lat="40.9954683" lon="14.318"><ele>19.0</ele><time>2026-03-30T12:08:31.296Z</time></trkpt><trkpt lat="40.9955467" lon="14.31801"><ele>19.0</ele><time>2026-03-30T12:08:32.296Z</time></trkpt><trkpt lat="40.9956267" lon="14.31802"><ele>19.0</ele><time>2026-03-30T12:08:33.296Z</time></trkpt><trkpt lat="40.9957117" lon="14.318025"><ele>19.0</ele><time>2026-03-30T12:08:34.296Z</time></trkpt><trkpt lat="40.9957983" lon="14.31803"><ele>19.0</ele><time>2026-03-30T12:08:35.293Z</time></trkpt><trkpt lat="40.995885" lon="14.3180383"><ele>19.0</ele><time>2026-03-30T12:08:36.292Z</time></trkpt><trkpt lat="40.99597" lon="14.3180467"><ele>19.0</ele><time>2026-03-30T12:08:37.297Z</time></trkpt><trkpt lat="40.9960533" lon="14.3180567"><ele>19.0</ele><time>2026-03-30T12:08:38.296Z</time></trkpt><trkpt lat="40.99614" lon="14.3180667"><ele>19.0</ele><time>2026-03-30T12:08:39.296Z</time></trkpt><trkpt lat="40.9962267" lon="14.318075"><ele>19.166666666666664</ele><time>2026-03-30T12:08:40.295Z</time></trkpt><trkpt lat="40.9963133" lon="14.318085"><ele>19.333333333333332</ele><time>2026-03-30T12:08:41.296Z</time></trkpt><trkpt lat="40.9964" lon="14.3180933"><ele>19.5</ele><time>2026-03-30T12:08:42.293Z</time></trkpt><trkpt lat="40.9964883" lon="14.3181033"><ele>19.666666666666668</ele><time>2026-03-30T12:08:43.297Z</time></trkpt><trkpt lat="40.996575" lon="14.3181067"><ele>19.833333333333336</ele><time>2026-03-30T12:08:44.293Z</time></trkpt><trkpt lat="40.9966617" lon="14.31811"><ele>20.0</ele><time>2026-03-30T12:08:45.296Z</time></trkpt><trkpt lat="40.9967483" lon="14.3181117"><ele>20.166666666666668</ele><time>2026-03-30T12:08:46.298Z</time></trkpt><trkpt lat="40.9968333" lon="14.3181167"><ele>20.333333333333336</ele><time>2026-03-30T12:08:47.295Z</time></trkpt><trkpt lat="40.9969183" lon="14.3181333"><ele>20.5</ele><time>2026-03-30T12:08:48.293Z</time></trkpt><trkpt lat="40.997005" lon="14.318155"><ele>20.666666666666668</ele><time>2026-03-30T12:08:49.297Z</time></trkpt><trkpt lat="40.9970917" lon="14.318175"><ele>20.833333333333332</ele><time>2026-03-30T12:08:50.296Z</time></trkpt><trkpt lat="40.9971783" lon="14.3181883"><ele>21.0</ele><time>2026-03-30T12:08:51.296Z</time></trkpt><trkpt lat="40.9972633" lon="14.3181967"><ele>21.0</ele><time>2026-03-30T12:08:52.296Z</time></trkpt><trkpt lat="40.9973483" lon="14.3182017"><ele>21.0</ele><time>2026-03-30T12:08:53.296Z</time></trkpt><trkpt lat="40.997435" lon="14.3182067"><ele>21.0</ele><time>2026-03-30T12:08:54.296Z</time></trkpt><trkpt lat="40.9975233" lon="14.3182133"><ele>21.0</ele><time>2026-03-30T12:08:55.297Z</time></trkpt><trkpt lat="40.9976117" lon="14.3182233"><ele>21.0</ele><time>2026-03-30T12:08:56.296Z</time></trkpt><trkpt lat="40.9976967" lon="14.31823"><ele>21.0</ele><time>2026-03-30T12:08:57.296Z</time></trkpt><trkpt lat="40.9977817" lon="14.3182367"><ele>20.833333333333332</ele><time>2026-03-30T12:08:58.296Z</time></trkpt><trkpt lat="40.9978633" lon="14.3182467"><ele>20.666666666666668</ele><time>2026-03-30T12:08:59.296Z</time></trkpt><trkpt lat="40.9979483" lon="14.3182583"><ele>20.5</ele><time>2026-03-30T12:09:00.296Z</time></trkpt><trkpt lat="40.99803" lon="14.31827"><ele>20.333333333333336</ele><time>2026-03-30T12:09:01.297Z</time></trkpt><trkpt lat="40.9981117" lon="14.3182817"><ele>20.166666666666668</ele><time>2026-03-30T12:09:02.296Z</time></trkpt><trkpt lat="40.9981917" lon="14.31829"><ele>20.0</ele><time>2026-03-30T12:09:03.296Z</time></trkpt><trkpt lat="40.9982733" lon="14.3182967"><ele>20.166666666666668</ele><time>2026-03-30T12:09:04.295Z</time></trkpt><trkpt lat="40.998355" lon="14.318305"><ele>20.333333333333336</ele><time>2026-03-30T12:09:05.295Z</time></trkpt><trkpt lat="40.998435" lon="14.3183133"><ele>20.5</ele><time>2026-03-30T12:09:06.296Z</time></trkpt><trkpt lat="40.9985167" lon="14.3183217"><ele>20.666666666666668</ele><time>2026-03-30T12:09:07.297Z</time></trkpt><trkpt lat="40.998595" lon="14.31833"><ele>20.833333333333332</ele><time>2026-03-30T12:09:08.295Z</time></trkpt><trkpt lat="40.9986733" lon="14.3183367"><ele>21.0</ele><time>2026-03-30T12:09:09.296Z</time></trkpt><trkpt lat="40.9987517" lon="14.3183433"><ele>21.0</ele><time>2026-03-30T12:09:10.296Z</time></trkpt><trkpt lat="40.99883" lon="14.3183517"><ele>21.0</ele><time>2026-03-30T12:09:11.296Z</time></trkpt><trkpt lat="40.9989067" lon="14.3183583"><ele>21.0</ele><time>2026-03-30T12:09:12.296Z</time></trkpt><trkpt lat="40.9989833" lon="14.31837"><ele>21.0</ele><time>2026-03-30T12:09:13.296Z</time></trkpt><trkpt lat="40.9990617" lon="14.3183817"><ele>21.0</ele><time>2026-03-30T12:09:14.297Z</time></trkpt><trkpt lat="40.9991367" lon="14.3183917"><ele>21.0</ele><time>2026-03-30T12:09:15.295Z</time></trkpt><trkpt lat="40.9992133" lon="14.3184"><ele>21.0</ele><time>2026-03-30T12:09:16.295Z</time></trkpt><trkpt lat="40.9992883" lon="14.3184083"><ele>21.0</ele><time>2026-03-30T12:09:17.293Z</time></trkpt><trkpt lat="40.999365" lon="14.318415"><ele>21.0</ele><time>2026-03-30T12:09:18.294Z</time></trkpt><trkpt lat="40.9994417" lon="14.318425"><ele>21.0</ele><time>2026-03-30T12:09:19.293Z</time></trkpt><trkpt lat="40.9995167" lon="14.318435"><ele>21.0</ele><time>2026-03-30T12:09:20.292Z</time></trkpt><trkpt lat="40.9995933" lon="14.3184417"><ele>21.0</ele><time>2026-03-30T12:09:21.293Z</time></trkpt><trkpt lat="40.99967" lon="14.31845"><ele>21.0</ele><time>2026-03-30T12:09:22.296Z</time></trkpt><trkpt lat="40.9997433" lon="14.3184583"><ele>21.0</ele><time>2026-03-30T12:09:23.297Z</time></trkpt><trkpt lat="40.9998117" lon="14.3184667"><ele>21.0</ele><time>2026-03-30T12:09:24.295Z</time></trkpt><trkpt lat="40.99988" lon="14.318475"><ele>21.0</ele><time>2026-03-30T12:09:25.295Z</time></trkpt><trkpt lat="40.9999483" lon="14.31848"><ele>21.0</ele><time>2026-03-30T12:09:26.296Z</time></trkpt><trkpt lat="41.00002" lon="14.3184833"><ele>21.0</ele><time>2026-03-30T12:09:27.296Z</time></trkpt><trkpt lat="41.0000917" lon="14.3184883"><ele>21.0</ele><time>2026-03-30T12:09:28.296Z</time></trkpt><trkpt lat="41.0001617" lon="14.318495"><ele>21.0</ele><time>2026-03-30T12:09:29.296Z</time></trkpt><trkpt lat="41.00023" lon="14.3185017"><ele>21.0</ele><time>2026-03-30T12:09:30.296Z</time></trkpt><trkpt lat="41.0003" lon="14.31851"><ele>21.0</ele><time>2026-03-30T12:09:31.297Z</time></trkpt><trkpt lat="41.00037" lon="14.3185167"><ele>21.0</ele><time>2026-03-30T12:09:32.295Z</time></trkpt><trkpt lat="41.00044" lon="14.3185217"><ele>21.0</ele><time>2026-03-30T12:09:33.293Z</time></trkpt><trkpt lat="41.0005083" lon="14.3185283"><ele>21.0</ele><time>2026-03-30T12:09:34.297Z</time></trkpt><trkpt lat="41.0005783" lon="14.31854"><ele>21.0</ele><time>2026-03-30T12:09:35.295Z</time></trkpt><trkpt lat="41.0006467" lon="14.3185467"><ele>21.0</ele><time>2026-03-30T12:09:36.296Z</time></trkpt><trkpt lat="41.0007167" lon="14.3185533"><ele>21.0</ele><time>2026-03-30T12:09:37.297Z</time></trkpt><trkpt lat="41.0007833" lon="14.31856"><ele>21.0</ele><time>2026-03-30T12:09:38.296Z</time></trkpt><trkpt lat="41.0008483" lon="14.3185667"><ele>21.0</ele><time>2026-03-30T12:09:39.296Z</time></trkpt><trkpt lat="41.000915" lon="14.318575"><ele>21.0</ele><time>2026-03-30T12:09:40.295Z</time></trkpt><trkpt lat="41.0009817" lon="14.3185817"><ele>21.0</ele><time>2026-03-30T12:09:41.293Z</time></trkpt><trkpt lat="41.001055" lon="14.3185867"><ele>21.0</ele><time>2026-03-30T12:09:42.295Z</time></trkpt><trkpt lat="41.0011283" lon="14.318595"><ele>21.0</ele><time>2026-03-30T12:09:43.295Z</time></trkpt><trkpt lat="41.0011967" lon="14.3186117"><ele>21.0</ele><time>2026-03-30T12:09:44.296Z</time></trkpt><trkpt lat="41.0012617" lon="14.3186483"><ele>21.0</ele><time>2026-03-30T12:09:45.296Z</time></trkpt><trkpt lat="41.0013217" lon="14.3186933"><ele>21.0</ele><time>2026-03-30T12:09:46.295Z</time></trkpt><trkpt lat="41.0013767" lon="14.31875"><ele>21.0</ele><time>2026-03-30T12:09:47.293Z</time></trkpt><trkpt lat="41.0014267" lon="14.3188083"><ele>21.0</ele><time>2026-03-30T12:09:48.295Z</time></trkpt><trkpt lat="41.0014733" lon="14.3188733"><ele>21.0</ele><time>2026-03-30T12:09:49.295Z</time></trkpt><trkpt lat="41.0015117" lon="14.31894"><ele>21.0</ele><time>2026-03-30T12:09:50.294Z</time></trkpt><trkpt lat="41.0015483" lon="14.3190117"><ele>21.0</ele><time>2026-03-30T12:09:51.293Z</time></trkpt><trkpt lat="41.0016417" lon="14.31912"><ele>21.0</ele><time>2026-03-30T12:09:53.296Z</time></trkpt><trkpt lat="41.0017517" lon="14.319165"><ele>21.0</ele><time>2026-03-30T12:09:55.297Z</time></trkpt><trkpt lat="41.001865" lon="14.31914"><ele>21.0</ele><time>2026-03-30T12:09:57.293Z</time></trkpt><trkpt lat="41.00196" lon="14.31904"><ele>21.0</ele><time>2026-03-30T12:09:59.294Z</time></trkpt><trkpt lat="41.002005" lon="14.31898"><ele>21.0</ele><time>2026-03-30T12:10:00.295Z</time></trkpt><trkpt lat="41.0020533" lon="14.3189217"><ele>21.0</ele><time>2026-03-30T12:10:01.295Z</time></trkpt><trkpt lat="41.0021083" lon="14.31887"><ele>21.0</ele><time>2026-03-30T12:10:02.295Z</time></trkpt><trkpt lat="41.0021683" lon="14.3188317"><ele>21.0</ele><time>2026-03-30T12:10:03.292Z</time></trkpt><trkpt lat="41.0022367" lon="14.3188017"><ele>21.0</ele><time>2026-03-30T12:10:04.293Z</time></trkpt><trkpt lat="41.0023033" lon="14.3187817"><ele>21.0</ele><time>2026-03-30T12:10:05.294Z</time></trkpt><trkpt lat="41.0023733" lon="14.3187667"><ele>21.0</ele><time>2026-03-30T12:10:06.294Z</time></trkpt><trkpt lat="41.0024417" lon="14.31876"><ele>21.0</ele><time>2026-03-30T12:10:07.297Z</time></trkpt><trkpt lat="41.0025133" lon="14.3187533"><ele>21.0</ele><time>2026-03-30T12:10:08.295Z</time></trkpt><trkpt lat="41.0025817" lon="14.318755"><ele>21.0</ele><time>2026-03-30T12:10:09.292Z</time></trkpt><trkpt lat="41.0026517" lon="14.3187567"><ele>21.0</ele><time>2026-03-30T12:10:10.294Z</time></trkpt><trkpt lat="41.0027233" lon="14.318765"><ele>21.0</ele><time>2026-03-30T12:10:11.297Z</time></trkpt><trkpt lat="41.002795" lon="14.3187733"><ele>21.0</ele><time>2026-03-30T12:10:12.294Z</time></trkpt><trkpt lat="41.0028683" lon="14.3187767"><ele>21.142857142857142</ele><time>2026-03-30T12:10:13.298Z</time></trkpt><trkpt lat="41.0029417" lon="14.3187867"><ele>21.285714285714285</ele><time>2026-03-30T12:10:14.295Z</time></trkpt><trkpt lat="41.0030167" lon="14.3187967"><ele>21.42857142857143</ele><time>2026-03-30T12:10:15.296Z</time></trkpt><trkpt lat="41.0030917" lon="14.3188083"><ele>21.57142857142857</ele><time>2026-03-30T12:10:16.293Z</time></trkpt><trkpt lat="41.003165" lon="14.3188217"><ele>21.714285714285715</ele><time>2026-03-30T12:10:17.293Z</time></trkpt><trkpt lat="41.00324" lon="14.3188367"><ele>21.857142857142858</ele><time>2026-03-30T12:10:18.295Z</time></trkpt><trkpt lat="41.0033133" lon="14.31885"><ele>22.0</ele><time>2026-03-30T12:10:19.295Z</time></trkpt><trkpt lat="41.0033883" lon="14.3188633"><ele>21.571428571428573</ele><time>2026-03-30T12:10:20.294Z</time></trkpt><trkpt lat="41.00346" lon="14.3188717"><ele>21.142857142857142</ele><time>2026-03-30T12:10:21.295Z</time></trkpt><trkpt lat="41.0035317" lon="14.3188817"><ele>20.714285714285715</ele><time>2026-03-30T12:10:22.294Z</time></trkpt><trkpt lat="41.0036017" lon="14.3188967"><ele>20.285714285714285</ele><time>2026-03-30T12:10:23.297Z</time></trkpt><trkpt lat="41.003675" lon="14.3189083"><ele>19.857142857142858</ele><time>2026-03-30T12:10:24.293Z</time></trkpt><trkpt lat="41.0037467" lon="14.3189167"><ele>19.428571428571427</ele><time>2026-03-30T12:10:25.298Z</time></trkpt><trkpt lat="41.00382" lon="14.3189267"><ele>19.0</ele><time>2026-03-30T12:10:26.296Z</time></trkpt><trkpt lat="41.0038933" lon="14.3189367"><ele>19.0</ele><time>2026-03-30T12:10:27.296Z</time></trkpt><trkpt lat="41.0039633" lon="14.3189533"><ele>19.0</ele><time>2026-03-30T12:10:28.294Z</time></trkpt><trkpt lat="41.0040383" lon="14.3189667"><ele>19.0</ele><time>2026-03-30T12:10:29.298Z</time></trkpt><trkpt lat="41.00411" lon="14.3189767"><ele>19.0</ele><time>2026-03-30T12:10:30.294Z</time></trkpt><trkpt lat="41.0041833" lon="14.31899"><ele>19.0</ele><time>2026-03-30T12:10:31.295Z</time></trkpt><trkpt lat="41.0042567" lon="14.319005"><ele>19.0</ele><time>2026-03-30T12:10:32.293Z</time></trkpt><trkpt lat="41.00433" lon="14.319025"><ele>19.0</ele><time>2026-03-30T12:10:33.296Z</time></trkpt><trkpt lat="41.0044067" lon="14.3190433"><ele>19.666666666666664</ele><time>2026-03-30T12:10:34.296Z</time></trkpt><trkpt lat="41.0044833" lon="14.319065"><ele>20.333333333333332</ele><time>2026-03-30T12:10:35.296Z</time></trkpt><trkpt lat="41.0045583" lon="14.31909"><ele>21.0</ele><time>2026-03-30T12:10:36.296Z</time></trkpt><trkpt lat="41.004635" lon="14.3191133"><ele>21.666666666666668</ele><time>2026-03-30T12:10:37.297Z</time></trkpt><trkpt lat="41.0047117" lon="14.3191383"><ele>22.333333333333336</ele><time>2026-03-30T12:10:38.295Z</time></trkpt><trkpt lat="41.0047867" lon="14.319165"><ele>23.0</ele><time>2026-03-30T12:10:39.295Z</time></trkpt><trkpt lat="41.0048583" lon="14.3191883"><ele>23.0</ele><time>2026-03-30T12:10:40.295Z</time></trkpt><trkpt lat="41.00493" lon="14.3192133"><ele>23.0</ele><time>2026-03-30T12:10:41.295Z</time></trkpt><trkpt lat="41.0050017" lon="14.3192383"><ele>23.0</ele><time>2026-03-30T12:10:42.296Z</time></trkpt><trkpt lat="41.005075" lon="14.319265"><ele>23.0</ele><time>2026-03-30T12:10:43.295Z</time></trkpt><trkpt lat="41.00515" lon="14.3192933"><ele>23.0</ele><time>2026-03-30T12:10:44.293Z</time></trkpt><trkpt lat="41.0052233" lon="14.3193167"><ele>23.0</ele><time>2026-03-30T12:10:45.296Z</time></trkpt><trkpt lat="41.0052933" lon="14.3193383"><ele>22.833333333333336</ele><time>2026-03-30T12:10:46.293Z</time></trkpt><trkpt lat="41.005365" lon="14.3193617"><ele>22.666666666666668</ele><time>2026-03-30T12:10:47.293Z</time></trkpt><trkpt lat="41.0054367" lon="14.31939"><ele>22.5</ele><time>2026-03-30T12:10:48.295Z</time></trkpt><trkpt lat="41.0055083" lon="14.3194233"><ele>22.333333333333332</ele><time>2026-03-30T12:10:49.295Z</time></trkpt><trkpt lat="41.0055783" lon="14.3194567"><ele>22.166666666666664</ele><time>2026-03-30T12:10:50.293Z</time></trkpt><trkpt lat="41.00565" lon="14.3194883"><ele>22.0</ele><time>2026-03-30T12:10:51.293Z</time></trkpt><trkpt lat="41.005725" lon="14.31952"><ele>22.0</ele><time>2026-03-30T12:10:52.294Z</time></trkpt><trkpt lat="41.0057967" lon="14.31955"><ele>22.0</ele><time>2026-03-30T12:10:53.296Z</time></trkpt><trkpt lat="41.0058683" lon="14.3195783"><ele>22.0</ele><time>2026-03-30T12:10:54.295Z</time></trkpt><trkpt lat="41.0059433" lon="14.3196083"><ele>22.0</ele><time>2026-03-30T12:10:55.294Z</time></trkpt><trkpt lat="41.00602" lon="14.31964"><ele>22.0</ele><time>2026-03-30T12:10:56.296Z</time></trkpt><trkpt lat="41.0060967" lon="14.3196717"><ele>22.0</ele><time>2026-03-30T12:10:57.295Z</time></trkpt><trkpt lat="41.0061733" lon="14.3197"><ele>21.833333333333332</ele><time>2026-03-30T12:10:58.293Z</time></trkpt><trkpt lat="41.0062517" lon="14.3197233"><ele>21.666666666666664</ele><time>2026-03-30T12:10:59.294Z</time></trkpt><trkpt lat="41.0063267" lon="14.3197467"><ele>21.5</ele><time>2026-03-30T12:11:00.295Z</time></trkpt><trkpt lat="41.006405" lon="14.3197717"><ele>21.333333333333332</ele><time>2026-03-30T12:11:01.295Z</time></trkpt><trkpt lat="41.0064767" lon="14.3197933"><ele>21.166666666666668</ele><time>2026-03-30T12:11:02.293Z</time></trkpt><trkpt lat="41.0065517" lon="14.3198183"><ele>21.0</ele><time>2026-03-30T12:11:03.293Z</time></trkpt><trkpt lat="41.00663" lon="14.3198467"><ele>21.166666666666668</ele><time>2026-03-30T12:11:04.295Z</time></trkpt><trkpt lat="41.0067067" lon="14.319875"><ele>21.333333333333332</ele><time>2026-03-30T12:11:05.295Z</time></trkpt><trkpt lat="41.006785" lon="14.3199"><ele>21.5</ele><time>2026-03-30T12:11:06.296Z</time></trkpt><trkpt lat="41.0068633" lon="14.3199267"><ele>21.666666666666664</ele><time>2026-03-30T12:11:07.295Z</time></trkpt><trkpt lat="41.00694" lon="14.319955"><ele>21.833333333333332</ele><time>2026-03-30T12:11:08.297Z</time></trkpt><trkpt lat="41.0070183" lon="14.3199833"><ele>22.0</ele><time>2026-03-30T12:11:09.297Z</time></trkpt><trkpt lat="41.0070933" lon="14.3200117"><ele>22.0</ele><time>2026-03-30T12:11:10.294Z</time></trkpt><trkpt lat="41.0071683" lon="14.3200417"><ele>22.0</ele><time>2026-03-30T12:11:11.296Z</time></trkpt><trkpt lat="41.0072483" lon="14.32007"><ele>22.0</ele><time>2026-03-30T12:11:12.293Z</time></trkpt><trkpt lat="41.0073267" lon="14.3200983"><ele>22.0</ele><time>2026-03-30T12:11:13.296Z</time></trkpt><trkpt lat="41.0074017" lon="14.320125"><ele>22.0</ele><time>2026-03-30T12:11:14.294Z</time></trkpt><trkpt lat="41.0074783" lon="14.3201517"><ele>22.0</ele><time>2026-03-30T12:11:15.293Z</time></trkpt><trkpt lat="41.0075533" lon="14.3201783"><ele>21.833333333333332</ele><time>2026-03-30T12:11:16.294Z</time></trkpt><trkpt lat="41.00763" lon="14.3202067"><ele>21.666666666666664</ele><time>2026-03-30T12:11:17.295Z</time></trkpt><trkpt lat="41.0077067" lon="14.3202383"><ele>21.5</ele><time>2026-03-30T12:11:18.295Z</time></trkpt><trkpt lat="41.007785" lon="14.3202633"><ele>21.333333333333332</ele><time>2026-03-30T12:11:19.296Z</time></trkpt><trkpt lat="41.0078633" lon="14.3202917"><ele>21.166666666666668</ele><time>2026-03-30T12:11:20.295Z</time></trkpt><trkpt lat="41.0079433" lon="14.3203217"><ele>21.0</ele><time>2026-03-30T12:11:21.295Z</time></trkpt><trkpt lat="41.0080217" lon="14.32035"><ele>21.0</ele><time>2026-03-30T12:11:22.297Z</time></trkpt><trkpt lat="41.0080983" lon="14.3203783"><ele>21.0</ele><time>2026-03-30T12:11:23.296Z</time></trkpt><trkpt lat="41.008175" lon="14.3204083"><ele>21.0</ele><time>2026-03-30T12:11:24.293Z</time></trkpt><trkpt lat="41.008255" lon="14.3204333"><ele>21.0</ele><time>2026-03-30T12:11:25.295Z</time></trkpt><trkpt lat="41.008335" lon="14.3204617"><ele>21.0</ele><time>2026-03-30T12:11:26.295Z</time></trkpt><trkpt lat="41.0084167" lon="14.3204917"><ele>21.0</ele><time>2026-03-30T12:11:27.297Z</time></trkpt><trkpt lat="41.008495" lon="14.3205233"><ele>20.833333333333332</ele><time>2026-03-30T12:11:28.296Z</time></trkpt><trkpt lat="41.0085767" lon="14.3205533"><ele>20.666666666666668</ele><time>2026-03-30T12:11:29.294Z</time></trkpt><trkpt lat="41.0086583" lon="14.32058"><ele>20.5</ele><time>2026-03-30T12:11:30.295Z</time></trkpt><trkpt lat="41.0087383" lon="14.3206083"><ele>20.333333333333336</ele><time>2026-03-30T12:11:31.297Z</time></trkpt><trkpt lat="41.00882" lon="14.3206383"><ele>20.166666666666668</ele><time>2026-03-30T12:11:32.297Z</time></trkpt><trkpt lat="41.0089017" lon="14.3206717"><ele>20.0</ele><time>2026-03-30T12:11:33.298Z</time></trkpt><trkpt lat="41.00898" lon="14.3207"><ele>20.333333333333336</ele><time>2026-03-30T12:11:34.297Z</time></trkpt><trkpt lat="41.0090583" lon="14.3207267"><ele>20.666666666666668</ele><time>2026-03-30T12:11:35.293Z</time></trkpt><trkpt lat="41.0091383" lon="14.3207533"><ele>21.0</ele><time>2026-03-30T12:11:36.294Z</time></trkpt><trkpt lat="41.0092167" lon="14.3207817"><ele>21.333333333333332</ele><time>2026-03-30T12:11:37.295Z</time></trkpt><trkpt lat="41.0092967" lon="14.3208117"><ele>21.666666666666664</ele><time>2026-03-30T12:11:38.297Z</time></trkpt><trkpt lat="41.0093767" lon="14.3208383"><ele>22.0</ele><time>2026-03-30T12:11:39.296Z</time></trkpt><trkpt lat="41.0094583" lon="14.3208667"><ele>22.166666666666664</ele><time>2026-03-30T12:11:40.295Z</time></trkpt><trkpt lat="41.0095383" lon="14.3208933"><ele>22.333333333333332</ele><time>2026-03-30T12:11:41.297Z</time></trkpt><trkpt lat="41.00962" lon="14.3209217"><ele>22.5</ele><time>2026-03-30T12:11:42.295Z</time></trkpt><trkpt lat="41.0096967" lon="14.3209517"><ele>22.666666666666668</ele><time>2026-03-30T12:11:43.298Z</time></trkpt><trkpt lat="41.009775" lon="14.32098"><ele>22.833333333333336</ele><time>2026-03-30T12:11:44.293Z</time></trkpt><trkpt lat="41.0098533" lon="14.3210067"><ele>23.0</ele><time>2026-03-30T12:11:45.293Z</time></trkpt><trkpt lat="41.0099283" lon="14.3210367"><ele>22.833333333333336</ele><time>2026-03-30T12:11:46.294Z</time></trkpt><trkpt lat="41.010005" lon="14.3210633"><ele>22.666666666666668</ele><time>2026-03-30T12:11:47.293Z</time></trkpt><trkpt lat="41.0100817" lon="14.3210883"><ele>22.5</ele><time>2026-03-30T12:11:48.294Z</time></trkpt><trkpt lat="41.0101617" lon="14.321115"><ele>22.333333333333332</ele><time>2026-03-30T12:11:49.295Z</time></trkpt><trkpt lat="41.0102417" lon="14.3211417"><ele>22.166666666666664</ele><time>2026-03-30T12:11:50.294Z</time></trkpt><trkpt lat="41.0103183" lon="14.3211683"><ele>22.0</ele><time>2026-03-30T12:11:51.294Z</time></trkpt><trkpt lat="41.0103933" lon="14.3211917"><ele>22.0</ele><time>2026-03-30T12:11:52.294Z</time></trkpt><trkpt lat="41.01047" lon="14.3212167"><ele>22.0</ele><time>2026-03-30T12:11:53.295Z</time></trkpt><trkpt lat="41.0105417" lon="14.3212417"><ele>22.0</ele><time>2026-03-30T12:11:54.297Z</time></trkpt><trkpt lat="41.010615" lon="14.3212667"><ele>22.0</ele><time>2026-03-30T12:11:55.298Z</time></trkpt><trkpt lat="41.0106883" lon="14.321295"><ele>22.0</ele><time>2026-03-30T12:11:56.297Z</time></trkpt><trkpt lat="41.0107583" lon="14.3213267"><ele>22.0</ele><time>2026-03-30T12:11:57.297Z</time></trkpt><trkpt lat="41.0108267" lon="14.3213617"><ele>22.0</ele><time>2026-03-30T12:11:58.293Z</time></trkpt><trkpt lat="41.0108933" lon="14.321395"><ele>22.0</ele><time>2026-03-30T12:11:59.297Z</time></trkpt><trkpt lat="41.0109583" lon="14.3214333"><ele>22.0</ele><time>2026-03-30T12:12:00.296Z</time></trkpt><trkpt lat="41.0110217" lon="14.32148"><ele>22.0</ele><time>2026-03-30T12:12:01.295Z</time></trkpt><trkpt lat="41.0110867" lon="14.3215267"><ele>22.0</ele><time>2026-03-30T12:12:02.295Z</time></trkpt><trkpt lat="41.011155" lon="14.3215767"><ele>22.0</ele><time>2026-03-30T12:12:03.297Z</time></trkpt><trkpt lat="41.01122" lon="14.3216333"><ele>22.0</ele><time>2026-03-30T12:12:04.297Z</time></trkpt><trkpt lat="41.0112817" lon="14.3216933"><ele>22.142857142857142</ele><time>2026-03-30T12:12:05.296Z</time></trkpt><trkpt lat="41.0113417" lon="14.321755"><ele>22.285714285714285</ele><time>2026-03-30T12:12:06.296Z</time></trkpt><trkpt lat="41.0114" lon="14.321815"><ele>22.42857142857143</ele><time>2026-03-30T12:12:07.298Z</time></trkpt><trkpt lat="41.0114567" lon="14.3218767"><ele>22.57142857142857</ele><time>2026-03-30T12:12:08.296Z</time></trkpt><trkpt lat="41.0115117" lon="14.3219383"><ele>22.71428571428571</ele><time>2026-03-30T12:12:09.297Z</time></trkpt><trkpt lat="41.01157" lon="14.322005"><ele>22.857142857142858</ele><time>2026-03-30T12:12:10.297Z</time></trkpt><trkpt lat="41.0116267" lon="14.3220683"><ele>23.0</ele><time>2026-03-30T12:12:11.296Z</time></trkpt><trkpt lat="41.0116867" lon="14.3221333"><ele>23.0</ele><time>2026-03-30T12:12:12.297Z</time></trkpt><trkpt lat="41.0117467" lon="14.3222"><ele>23.0</ele><time>2026-03-30T12:12:13.297Z</time></trkpt><trkpt lat="41.0118033" lon="14.322265"><ele>23.0</ele><time>2026-03-30T12:12:14.297Z</time></trkpt><trkpt lat="41.0118617" lon="14.3223283"><ele>23.0</ele><time>2026-03-30T12:12:15.297Z</time></trkpt><trkpt lat="41.011915" lon="14.3223933"><ele>23.0</ele><time>2026-03-30T12:12:16.294Z</time></trkpt><trkpt lat="41.011965" lon="14.3224533"><ele>23.0</ele><time>2026-03-30T12:12:17.295Z</time></trkpt><trkpt lat="41.0120133" lon="14.3225133"><ele>23.0</ele><time>2026-03-30T12:12:18.293Z</time></trkpt><trkpt lat="41.0120617" lon="14.3225717"><ele>23.28571428571429</ele><time>2026-03-30T12:12:19.295Z</time></trkpt><trkpt lat="41.0121117" lon="14.3226317"><ele>23.57142857142857</ele><time>2026-03-30T12:12:20.295Z</time></trkpt><trkpt lat="41.012165" lon="14.32269"><ele>23.857142857142858</ele><time>2026-03-30T12:12:21.295Z</time></trkpt><trkpt lat="41.012215" lon="14.322745"><ele>24.142857142857146</ele><time>2026-03-30T12:12:22.295Z</time></trkpt><trkpt lat="41.0122633" lon="14.3228017"><ele>24.42857142857143</ele><time>2026-03-30T12:12:23.296Z</time></trkpt><trkpt lat="41.0123133" lon="14.3228583"><ele>24.714285714285715</ele><time>2026-03-30T12:12:24.295Z</time></trkpt><trkpt lat="41.012365" lon="14.322915"><ele>25.0</ele><time>2026-03-30T12:12:25.298Z</time></trkpt><trkpt lat="41.0124183" lon="14.32298"><ele>25.000000000000004</ele><time>2026-03-30T12:12:26.296Z</time></trkpt><trkpt lat="41.0124733" lon="14.323045"><ele>25.0</ele><time>2026-03-30T12:12:27.296Z</time></trkpt><trkpt lat="41.0125267" lon="14.32311"><ele>25.0</ele><time>2026-03-30T12:12:28.296Z</time></trkpt><trkpt lat="41.01258" lon="14.3231717"><ele>25.0</ele><time>2026-03-30T12:12:29.296Z</time></trkpt><trkpt lat="41.0126333" lon="14.3232333"><ele>25.0</ele><time>2026-03-30T12:12:30.296Z</time></trkpt><trkpt lat="41.01269" lon="14.323295"><ele>25.000000000000004</ele><time>2026-03-30T12:12:31.297Z</time></trkpt><trkpt lat="41.0127467" lon="14.3233533"><ele>25.0</ele><time>2026-03-30T12:12:32.294Z</time></trkpt><trkpt lat="41.0128" lon="14.323415"><ele>25.142857142857146</ele><time>2026-03-30T12:12:33.297Z</time></trkpt><trkpt lat="41.0128517" lon="14.323475"><ele>25.285714285714285</ele><time>2026-03-30T12:12:34.297Z</time></trkpt><trkpt lat="41.012905" lon="14.32353"><ele>25.42857142857143</ele><time>2026-03-30T12:12:35.295Z</time></trkpt><trkpt lat="41.0129633" lon="14.3235917"><ele>25.571428571428573</ele><time>2026-03-30T12:12:36.294Z</time></trkpt><trkpt lat="41.013025" lon="14.3236583"><ele>25.714285714285715</ele><time>2026-03-30T12:12:37.296Z</time></trkpt><trkpt lat="41.013085" lon="14.3237283"><ele>25.857142857142858</ele><time>2026-03-30T12:12:38.297Z</time></trkpt><trkpt lat="41.0131383" lon="14.3238017"><ele>26.0</ele><time>2026-03-30T12:12:39.296Z</time></trkpt><trkpt lat="41.01319" lon="14.3238733"><ele>26.166666666666664</ele><time>2026-03-30T12:12:40.292Z</time></trkpt><trkpt lat="41.0132433" lon="14.3239517"><ele>26.333333333333332</ele><time>2026-03-30T12:12:41.295Z</time></trkpt><trkpt lat="41.013295" lon="14.32403"><ele>26.5</ele><time>2026-03-30T12:12:42.297Z</time></trkpt><trkpt lat="41.013345" lon="14.32411"><ele>26.666666666666664</ele><time>2026-03-30T12:12:43.295Z</time></trkpt><trkpt lat="41.0133933" lon="14.3241983"><ele>26.833333333333332</ele><time>2026-03-30T12:12:44.293Z</time></trkpt><trkpt lat="41.0134367" lon="14.3242883"><ele>27.0</ele><time>2026-03-30T12:12:45.293Z</time></trkpt><trkpt lat="41.013475" lon="14.3243783"><ele>26.666666666666668</ele><time>2026-03-30T12:12:46.294Z</time></trkpt><trkpt lat="41.0135083" lon="14.3244733"><ele>26.333333333333336</ele><time>2026-03-30T12:12:47.295Z</time></trkpt><trkpt lat="41.0135383" lon="14.32457"><ele>26.0</ele><time>2026-03-30T12:12:48.293Z</time></trkpt><trkpt lat="41.0135667" lon="14.324665"><ele>25.666666666666668</ele><time>2026-03-30T12:12:49.295Z</time></trkpt><trkpt lat="41.0135967" lon="14.324755"><ele>25.333333333333336</ele><time>2026-03-30T12:12:50.295Z</time></trkpt><trkpt lat="41.013625" lon="14.32485"><ele>25.0</ele><time>2026-03-30T12:12:51.293Z</time></trkpt><trkpt lat="41.01365" lon="14.324945"><ele>24.666666666666668</ele><time>2026-03-30T12:12:52.294Z</time></trkpt><trkpt lat="41.0136783" lon="14.3250367"><ele>24.333333333333336</ele><time>2026-03-30T12:12:53.295Z</time></trkpt><trkpt lat="41.0137067" lon="14.32513"><ele>24.0</ele><time>2026-03-30T12:12:54.295Z</time></trkpt><trkpt lat="41.013735" lon="14.325225"><ele>23.666666666666668</ele><time>2026-03-30T12:12:55.295Z</time></trkpt><trkpt lat="41.01377" lon="14.32532"><ele>23.333333333333336</ele><time>2026-03-30T12:12:56.295Z</time></trkpt><trkpt lat="41.0138033" lon="14.32542"><ele>23.0</ele><time>2026-03-30T12:12:57.297Z</time></trkpt><trkpt lat="41.0138367" lon="14.3255217"><ele>23.0</ele><time>2026-03-30T12:12:58.297Z</time></trkpt><trkpt lat="41.0138767" lon="14.3256167"><ele>23.0</ele><time>2026-03-30T12:12:59.296Z</time></trkpt><trkpt lat="41.01392" lon="14.3257117"><ele>23.0</ele><time>2026-03-30T12:13:00.293Z</time></trkpt><trkpt lat="41.013965" lon="14.3258033"><ele>23.0</ele><time>2026-03-30T12:13:01.293Z</time></trkpt><trkpt lat="41.0140067" lon="14.325895"><ele>23.0</ele><time>2026-03-30T12:13:02.295Z</time></trkpt><trkpt lat="41.0140483" lon="14.3259883"><ele>23.0</ele><time>2026-03-30T12:13:03.295Z</time></trkpt><trkpt lat="41.0140967" lon="14.3260767"><ele>23.0</ele><time>2026-03-30T12:13:04.295Z</time></trkpt><trkpt lat="41.0141483" lon="14.326195"><ele>23.0</ele><time>2026-03-30T12:13:05.294Z</time></trkpt><trkpt lat="41.0142083" lon="14.3262967"><ele>23.0</ele><time>2026-03-30T12:13:06.294Z</time></trkpt><trkpt lat="41.0142633" lon="14.3263967"><ele>23.0</ele><time>2026-03-30T12:13:07.295Z</time></trkpt><trkpt lat="41.0143267" lon="14.32648"><ele>23.0</ele><time>2026-03-30T12:13:08.295Z</time></trkpt><trkpt lat="41.014395" lon="14.3265633"><ele>23.0</ele><time>2026-03-30T12:13:09.293Z</time></trkpt><trkpt lat="41.014465" lon="14.3266433"><ele>23.0</ele><time>2026-03-30T12:13:10.295Z</time></trkpt><trkpt lat="41.01454" lon="14.32672"><ele>23.0</ele><time>2026-03-30T12:13:11.295Z</time></trkpt><trkpt lat="41.014615" lon="14.32679"><ele>23.0</ele><time>2026-03-30T12:13:12.295Z</time></trkpt><trkpt lat="41.0146917" lon="14.326855"><ele>23.0</ele><time>2026-03-30T12:13:13.296Z</time></trkpt><trkpt lat="41.0147733" lon="14.3269167"><ele>23.0</ele><time>2026-03-30T12:13:14.297Z</time></trkpt><trkpt lat="41.0148583" lon="14.3269717"><ele>23.0</ele><time>2026-03-30T12:13:15.297Z</time></trkpt><trkpt lat="41.0149433" lon="14.3270283"><ele>23.0</ele><time>2026-03-30T12:13:16.295Z</time></trkpt><trkpt lat="41.0150267" lon="14.3270833"><ele>23.0</ele><time>2026-03-30T12:13:17.293Z</time></trkpt><trkpt lat="41.01511" lon="14.327135"><ele>23.0</ele><time>2026-03-30T12:13:18.294Z</time></trkpt><trkpt lat="41.0152017" lon="14.3271867"><ele>23.0</ele><time>2026-03-30T12:13:19.295Z</time></trkpt><trkpt lat="41.0152917" lon="14.3272333"><ele>23.0</ele><time>2026-03-30T12:13:20.294Z</time></trkpt><trkpt lat="41.0153833" lon="14.3272783"><ele>23.0</ele><time>2026-03-30T12:13:21.293Z</time></trkpt><trkpt lat="41.0154833" lon="14.3273217"><ele>23.0</ele><time>2026-03-30T12:13:22.293Z</time></trkpt><trkpt lat="41.015585" lon="14.3273533"><ele>23.0</ele><time>2026-03-30T12:13:23.295Z</time></trkpt><trkpt lat="41.015685" lon="14.3273833"><ele>23.0</ele><time>2026-03-30T12:13:24.297Z</time></trkpt><trkpt lat="41.01579" lon="14.3273983"><ele>23.0</ele><time>2026-03-30T12:13:25.297Z</time></trkpt><trkpt lat="41.015895" lon="14.3274017"><ele>23.0</ele><time>2026-03-30T12:13:26.294Z</time></trkpt><trkpt lat="41.0159983" lon="14.3274033"><ele>23.0</ele><time>2026-03-30T12:13:27.293Z</time></trkpt><trkpt lat="41.0161017" lon="14.3274067"><ele>23.0</ele><time>2026-03-30T12:13:28.297Z</time></trkpt><trkpt lat="41.0161983" lon="14.32741"><ele>23.0</ele><time>2026-03-30T12:13:29.296Z</time></trkpt><trkpt lat="41.0162983" lon="14.3274133"><ele>23.0</ele><time>2026-03-30T12:13:30.293Z</time></trkpt><trkpt lat="41.0164017" lon="14.327415"><ele>23.0</ele><time>2026-03-30T12:13:31.295Z</time></trkpt><trkpt lat="41.0165067" lon="14.3274067"><ele>23.0</ele><time>2026-03-30T12:13:32.295Z</time></trkpt><trkpt lat="41.01661" lon="14.32739"><ele>23.0</ele><time>2026-03-30T12:13:33.296Z</time></trkpt><trkpt lat="41.0167117" lon="14.327365"><ele>23.0</ele><time>2026-03-30T12:13:34.295Z</time></trkpt><trkpt lat="41.0168117" lon="14.3273433"><ele>23.0</ele><time>2026-03-30T12:13:35.294Z</time></trkpt><trkpt lat="41.01691" lon="14.3273267"><ele>23.0</ele><time>2026-03-30T12:13:36.297Z</time></trkpt><trkpt lat="41.0170117" lon="14.3273183"><ele>23.0</ele><time>2026-03-30T12:13:37.297Z</time></trkpt><trkpt lat="41.0171117" lon="14.3273083"><ele>23.0</ele><time>2026-03-30T12:13:38.295Z</time></trkpt><trkpt lat="41.01721" lon="14.327295"><ele>23.0</ele><time>2026-03-30T12:13:39.295Z</time></trkpt><trkpt lat="41.0173083" lon="14.327285"><ele>23.0</ele><time>2026-03-30T12:13:40.295Z</time></trkpt><trkpt lat="41.0174017" lon="14.3272717"><ele>23.0</ele><time>2026-03-30T12:13:41.294Z</time></trkpt><trkpt lat="41.0174933" lon="14.327255"><ele>23.0</ele><time>2026-03-30T12:13:42.296Z</time></trkpt><trkpt lat="41.0175817" lon="14.3272417"><ele>23.0</ele><time>2026-03-30T12:13:43.297Z</time></trkpt><trkpt lat="41.0176733" lon="14.3272283"><ele>23.0</ele><time>2026-03-30T12:13:44.296Z</time></trkpt><trkpt lat="41.0177617" lon="14.327215"><ele>23.0</ele><time>2026-03-30T12:13:45.293Z</time></trkpt><trkpt lat="41.017845" lon="14.3272"><ele>23.0</ele><time>2026-03-30T12:13:46.297Z</time></trkpt><trkpt lat="41.0179283" lon="14.3271833"><ele>23.0</ele><time>2026-03-30T12:13:47.296Z</time></trkpt><trkpt lat="41.01801" lon="14.3271667"><ele>23.0</ele><time>2026-03-30T12:13:48.295Z</time></trkpt><trkpt lat="41.0180933" lon="14.3271533"><ele>23.0</ele><time>2026-03-30T12:13:49.298Z</time></trkpt><trkpt lat="41.018175" lon="14.327135"><ele>23.0</ele><time>2026-03-30T12:13:50.296Z</time></trkpt><trkpt lat="41.0182533" lon="14.3271167"><ele>23.0</ele><time>2026-03-30T12:13:51.297Z</time></trkpt><trkpt lat="41.0183317" lon="14.327105"><ele>23.0</ele><time>2026-03-30T12:13:52.293Z</time></trkpt><trkpt lat="41.0184133" lon="14.3270983"><ele>23.0</ele><time>2026-03-30T12:13:53.295Z</time></trkpt><trkpt lat="41.0184917" lon="14.3270933"><ele>23.0</ele><time>2026-03-30T12:13:54.295Z</time></trkpt><trkpt lat="41.01857" lon="14.3270783"><ele>23.0</ele><time>2026-03-30T12:13:55.295Z</time></trkpt><trkpt lat="41.0186483" lon="14.3270667"><ele>23.166666666666668</ele><time>2026-03-30T12:13:56.293Z</time></trkpt><trkpt lat="41.018725" lon="14.327055"><ele>23.333333333333336</ele><time>2026-03-30T12:13:57.294Z</time></trkpt><trkpt lat="41.0188017" lon="14.3270467"><ele>23.5</ele><time>2026-03-30T12:13:58.295Z</time></trkpt><trkpt lat="41.018875" lon="14.327035"><ele>23.666666666666668</ele><time>2026-03-30T12:13:59.296Z</time></trkpt><trkpt lat="41.0189517" lon="14.327025"><ele>23.833333333333332</ele><time>2026-03-30T12:14:00.296Z</time></trkpt><trkpt lat="41.0190283" lon="14.3270067"><ele>24.0</ele><time>2026-03-30T12:14:01.297Z</time></trkpt><trkpt lat="41.0191067" lon="14.326985"><ele>24.333333333333332</ele><time>2026-03-30T12:14:02.293Z</time></trkpt><trkpt lat="41.0191817" lon="14.3269583"><ele>24.666666666666664</ele><time>2026-03-30T12:14:03.297Z</time></trkpt><trkpt lat="41.0192567" lon="14.3269317"><ele>25.0</ele><time>2026-03-30T12:14:04.294Z</time></trkpt><trkpt lat="41.01933" lon="14.3269017"><ele>25.333333333333332</ele><time>2026-03-30T12:14:05.295Z</time></trkpt><trkpt lat="41.0194017" lon="14.3268667"><ele>25.666666666666664</ele><time>2026-03-30T12:14:06.294Z</time></trkpt><trkpt lat="41.0194717" lon="14.3268317"><ele>26.0</ele><time>2026-03-30T12:14:07.295Z</time></trkpt><trkpt lat="41.0195417" lon="14.326795"><ele>26.0</ele><time>2026-03-30T12:14:08.295Z</time></trkpt><trkpt lat="41.01961" lon="14.326755"><ele>26.0</ele><time>2026-03-30T12:14:09.295Z</time></trkpt><trkpt lat="41.0196767" lon="14.32671"><ele>26.0</ele><time>2026-03-30T12:14:10.293Z</time></trkpt><trkpt lat="41.0197383" lon="14.3266583"><ele>26.0</ele><time>2026-03-30T12:14:11.293Z</time></trkpt><trkpt lat="41.0198" lon="14.326605"><ele>26.0</ele><time>2026-03-30T12:14:12.297Z</time></trkpt><trkpt lat="41.0198617" lon="14.3265517"><ele>26.0</ele><time>2026-03-30T12:14:13.298Z</time></trkpt><trkpt lat="41.0199217" lon="14.3264967"><ele>26.0</ele><time>2026-03-30T12:14:14.296Z</time></trkpt><trkpt lat="41.01998" lon="14.3264417"><ele>26.142857142857142</ele><time>2026-03-30T12:14:15.295Z</time></trkpt><trkpt lat="41.020035" lon="14.3263817"><ele>26.28571428571429</ele><time>2026-03-30T12:14:16.295Z</time></trkpt><trkpt lat="41.0200917" lon="14.3263183"><ele>26.42857142857143</ele><time>2026-03-30T12:14:17.295Z</time></trkpt><trkpt lat="41.020145" lon="14.32625"><ele>26.57142857142857</ele><time>2026-03-30T12:14:18.295Z</time></trkpt><trkpt lat="41.0201967" lon="14.326185"><ele>26.714285714285715</ele><time>2026-03-30T12:14:19.294Z</time></trkpt><trkpt lat="41.02025" lon="14.3261217"><ele>26.857142857142858</ele><time>2026-03-30T12:14:20.293Z</time></trkpt><trkpt lat="41.0203033" lon="14.3260567"><ele>27.0</ele><time>2026-03-30T12:14:21.293Z</time></trkpt><trkpt lat="41.020355" lon="14.3259933"><ele>27.0</ele><time>2026-03-30T12:14:22.295Z</time></trkpt><trkpt lat="41.0204067" lon="14.32593"><ele>27.0</ele><time>2026-03-30T12:14:23.298Z</time></trkpt><trkpt lat="41.0204583" lon="14.3258667"><ele>27.0</ele><time>2026-03-30T12:14:24.293Z</time></trkpt><trkpt lat="41.0205117" lon="14.3258"><ele>27.0</ele><time>2026-03-30T12:14:25.295Z</time></trkpt><trkpt lat="41.0205667" lon="14.3257317"><ele>27.0</ele><time>2026-03-30T12:14:26.295Z</time></trkpt><trkpt lat="41.0206217" lon="14.3256667"><ele>27.0</ele><time>2026-03-30T12:14:27.294Z</time></trkpt><trkpt lat="41.020675" lon="14.3256017"><ele>27.0</ele><time>2026-03-30T12:14:28.294Z</time></trkpt><trkpt lat="41.020725" lon="14.3255333"><ele>26.857142857142858</ele><time>2026-03-30T12:14:29.295Z</time></trkpt><trkpt lat="41.0207767" lon="14.3254667"><ele>26.714285714285715</ele><time>2026-03-30T12:14:30.295Z</time></trkpt><trkpt lat="41.02083" lon="14.3254"><ele>26.57142857142857</ele><time>2026-03-30T12:14:31.295Z</time></trkpt><trkpt lat="41.0208883" lon="14.32534"><ele>26.42857142857143</ele><time>2026-03-30T12:14:32.295Z</time></trkpt><trkpt lat="41.02095" lon="14.32529"><ele>26.28571428571429</ele><time>2026-03-30T12:14:33.295Z</time></trkpt><trkpt lat="41.0210133" lon="14.32524"><ele>26.142857142857142</ele><time>2026-03-30T12:14:34.295Z</time></trkpt><trkpt lat="41.0210783" lon="14.3251917"><ele>26.0</ele><time>2026-03-30T12:14:35.295Z</time></trkpt><trkpt lat="41.021145" lon="14.3251467"><ele>25.999999999999996</ele><time>2026-03-30T12:14:36.295Z</time></trkpt><trkpt lat="41.0212167" lon="14.3251083"><ele>26.0</ele><time>2026-03-30T12:14:37.294Z</time></trkpt><trkpt lat="41.0212883" lon="14.3250717"><ele>26.0</ele><time>2026-03-30T12:14:38.295Z</time></trkpt><trkpt lat="41.0213633" lon="14.3250383"><ele>26.0</ele><time>2026-03-30T12:14:39.294Z</time></trkpt><trkpt lat="41.02144" lon="14.3250117"><ele>25.999999999999996</ele><time>2026-03-30T12:14:40.295Z</time></trkpt><trkpt lat="41.021515" lon="14.324995"><ele>26.0</ele><time>2026-03-30T12:14:41.295Z</time></trkpt><trkpt lat="41.0215933" lon="14.3249833"><ele>26.166666666666664</ele><time>2026-03-30T12:14:42.294Z</time></trkpt><trkpt lat="41.02167" lon="14.3249783"><ele>26.333333333333332</ele><time>2026-03-30T12:14:43.296Z</time></trkpt><trkpt lat="41.0217517" lon="14.3249767"><ele>26.5</ele><time>2026-03-30T12:14:44.295Z</time></trkpt><trkpt lat="41.02183" lon="14.324975"><ele>26.666666666666664</ele><time>2026-03-30T12:14:45.295Z</time></trkpt><trkpt lat="41.0219083" lon="14.3249717"><ele>26.833333333333332</ele><time>2026-03-30T12:14:46.294Z</time></trkpt><trkpt lat="41.0219833" lon="14.3249717"><ele>27.0</ele><time>2026-03-30T12:14:47.295Z</time></trkpt><trkpt lat="41.02206" lon="14.3249717"><ele>27.0</ele><time>2026-03-30T12:14:48.293Z</time></trkpt><trkpt lat="41.0221367" lon="14.32497"><ele>27.0</ele><time>2026-03-30T12:14:49.295Z</time></trkpt><trkpt lat="41.0222133" lon="14.32497"><ele>27.0</ele><time>2026-03-30T12:14:50.295Z</time></trkpt><trkpt lat="41.0222883" lon="14.32497"><ele>27.0</ele><time>2026-03-30T12:14:51.297Z</time></trkpt><trkpt lat="41.0223617" lon="14.32497"><ele>27.0</ele><time>2026-03-30T12:14:52.297Z</time></trkpt><trkpt lat="41.0224367" lon="14.3249717"><ele>27.0</ele><time>2026-03-30T12:14:53.295Z</time></trkpt><trkpt lat="41.0225117" lon="14.3249733"><ele>27.0</ele><time>2026-03-30T12:14:54.294Z</time></trkpt><trkpt lat="41.022585" lon="14.3249733"><ele>27.0</ele><time>2026-03-30T12:14:55.293Z</time></trkpt><trkpt lat="41.0226633" lon="14.3249733"><ele>27.0</ele><time>2026-03-30T12:14:56.294Z</time></trkpt><trkpt lat="41.02274" lon="14.3249733"><ele>27.0</ele><time>2026-03-30T12:14:57.294Z</time></trkpt><trkpt lat="41.022815" lon="14.3249717"><ele>27.0</ele><time>2026-03-30T12:14:58.295Z</time></trkpt><trkpt lat="41.0228883" lon="14.3249717"><ele>27.0</ele><time>2026-03-30T12:14:59.295Z</time></trkpt><trkpt lat="41.0229633" lon="14.3249717"><ele>27.0</ele><time>2026-03-30T12:15:00.295Z</time></trkpt><trkpt lat="41.02304" lon="14.3249717"><ele>27.0</ele><time>2026-03-30T12:15:01.296Z</time></trkpt><trkpt lat="41.0231133" lon="14.3249717"><ele>27.0</ele><time>2026-03-30T12:15:02.295Z</time></trkpt><trkpt lat="41.02319" lon="14.324975"><ele>27.0</ele><time>2026-03-30T12:15:03.293Z</time></trkpt><trkpt lat="41.0232617" lon="14.324975"><ele>27.0</ele><time>2026-03-30T12:15:04.295Z</time></trkpt><trkpt lat="41.023335" lon="14.3249733"><ele>27.0</ele><time>2026-03-30T12:15:05.295Z</time></trkpt><trkpt lat="41.02341" lon="14.3249683"><ele>27.0</ele><time>2026-03-30T12:15:06.294Z</time></trkpt><trkpt lat="41.0234817" lon="14.3249633"><ele>27.0</ele><time>2026-03-30T12:15:07.295Z</time></trkpt><trkpt lat="41.02356" lon="14.3249667"><ele>27.0</ele><time>2026-03-30T12:15:08.294Z</time></trkpt><trkpt lat="41.023635" lon="14.3249667"><ele>27.0</ele><time>2026-03-30T12:15:09.294Z</time></trkpt><trkpt lat="41.0237083" lon="14.324965"><ele>27.0</ele><time>2026-03-30T12:15:10.293Z</time></trkpt><trkpt lat="41.02378" lon="14.3249633"><ele>27.0</ele><time>2026-03-30T12:15:11.294Z</time></trkpt><trkpt lat="41.02385" lon="14.324965"><ele>27.0</ele><time>2026-03-30T12:15:12.298Z</time></trkpt><trkpt lat="41.0239233" lon="14.324965"><ele>27.0</ele><time>2026-03-30T12:15:13.296Z</time></trkpt><trkpt lat="41.023995" lon="14.324965"><ele>27.0</ele><time>2026-03-30T12:15:14.293Z</time></trkpt><trkpt lat="41.02407" lon="14.3249683"><ele>27.0</ele><time>2026-03-30T12:15:15.292Z</time></trkpt><trkpt lat="41.024145" lon="14.3249683"><ele>27.0</ele><time>2026-03-30T12:15:16.294Z</time></trkpt><trkpt lat="41.024215" lon="14.3249817"><ele>27.0</ele><time>2026-03-30T12:15:17.294Z</time></trkpt><trkpt lat="41.0242783" lon="14.3250167"><ele>27.0</ele><time>2026-03-30T12:15:18.295Z</time></trkpt><trkpt lat="41.0243467" lon="14.3250483"><ele>27.0</ele><time>2026-03-30T12:15:19.293Z</time></trkpt><trkpt lat="41.0244183" lon="14.3250583"><ele>27.0</ele><time>2026-03-30T12:15:20.294Z</time></trkpt><trkpt lat="41.0244917" lon="14.3250517"><ele>26.857142857142858</ele><time>2026-03-30T12:15:21.293Z</time></trkpt><trkpt lat="41.0245633" lon="14.3250333"><ele>26.714285714285715</ele><time>2026-03-30T12:15:22.295Z</time></trkpt><trkpt lat="41.0246367" lon="14.32502"><ele>26.57142857142857</ele><time>2026-03-30T12:15:23.293Z</time></trkpt><trkpt lat="41.02471" lon="14.32501"><ele>26.42857142857143</ele><time>2026-03-30T12:15:24.293Z</time></trkpt><trkpt lat="41.0247833" lon="14.3250017"><ele>26.28571428571429</ele><time>2026-03-30T12:15:25.294Z</time></trkpt><trkpt lat="41.024855" lon="14.324995"><ele>26.142857142857142</ele><time>2026-03-30T12:15:26.294Z</time></trkpt><trkpt lat="41.02493" lon="14.3249917"><ele>26.0</ele><time>2026-03-30T12:15:27.293Z</time></trkpt><trkpt lat="41.025005" lon="14.324985"><ele>26.285714285714285</ele><time>2026-03-30T12:15:28.294Z</time></trkpt><trkpt lat="41.0250767" lon="14.3249783"><ele>26.571428571428573</ele><time>2026-03-30T12:15:29.296Z</time></trkpt><trkpt lat="41.02515" lon="14.3249717"><ele>26.857142857142858</ele><time>2026-03-30T12:15:30.296Z</time></trkpt><trkpt lat="41.0252183" lon="14.3249683"><ele>27.142857142857142</ele><time>2026-03-30T12:15:31.296Z</time></trkpt><trkpt lat="41.02529" lon="14.3249667"><ele>27.42857142857143</ele><time>2026-03-30T12:15:32.295Z</time></trkpt><trkpt lat="41.02536" lon="14.324965"><ele>27.714285714285715</ele><time>2026-03-30T12:15:33.293Z</time></trkpt><trkpt lat="41.0254317" lon="14.324965"><ele>28.0</ele><time>2026-03-30T12:15:34.292Z</time></trkpt><trkpt lat="41.0255017" lon="14.324965"><ele>28.0</ele><time>2026-03-30T12:15:35.294Z</time></trkpt><trkpt lat="41.0255733" lon="14.3249633"><ele>28.0</ele><time>2026-03-30T12:15:36.296Z</time></trkpt><trkpt lat="41.0256433" lon="14.32496"><ele>28.0</ele><time>2026-03-30T12:15:37.294Z</time></trkpt><trkpt lat="41.025715" lon="14.3249567"><ele>28.0</ele><time>2026-03-30T12:15:38.294Z</time></trkpt><trkpt lat="41.025785" lon="14.324955"><ele>28.0</ele><time>2026-03-30T12:15:39.293Z</time></trkpt><trkpt lat="41.025855" lon="14.324955"><ele>28.0</ele><time>2026-03-30T12:15:40.293Z</time></trkpt><trkpt lat="41.025925" lon="14.3249533"><ele>28.0</ele><time>2026-03-30T12:15:41.296Z</time></trkpt><trkpt lat="41.0259933" lon="14.3249533"><ele>28.142857142857142</ele><time>2026-03-30T12:15:42.293Z</time></trkpt><trkpt lat="41.02606" lon="14.3249517"><ele>28.285714285714285</ele><time>2026-03-30T12:15:43.295Z</time></trkpt><trkpt lat="41.0261283" lon="14.32495"><ele>28.42857142857143</ele><time>2026-03-30T12:15:44.294Z</time></trkpt><trkpt lat="41.026195" lon="14.3249517"><ele>28.571428571428573</ele><time>2026-03-30T12:15:45.294Z</time></trkpt><trkpt lat="41.0262583" lon="14.3249483"><ele>28.714285714285715</ele><time>2026-03-30T12:15:46.296Z</time></trkpt><trkpt lat="41.026325" lon="14.3249467"><ele>28.85714285714286</ele><time>2026-03-30T12:15:47.294Z</time></trkpt><trkpt lat="41.0263917" lon="14.324945"><ele>29.000000000000004</ele><time>2026-03-30T12:15:48.293Z</time></trkpt><trkpt lat="41.0264633" lon="14.324945"><ele>29.000000000000004</ele><time>2026-03-30T12:15:49.295Z</time></trkpt><trkpt lat="41.0265317" lon="14.3249433"><ele>29.0</ele><time>2026-03-30T12:15:50.294Z</time></trkpt><trkpt lat="41.0266" lon="14.324945"><ele>29.000000000000004</ele><time>2026-03-30T12:15:51.293Z</time></trkpt><trkpt lat="41.02667" lon="14.3249467"><ele>29.000000000000004</ele><time>2026-03-30T12:15:52.293Z</time></trkpt><trkpt lat="41.02674" lon="14.324945"><ele>29.0</ele><time>2026-03-30T12:15:53.295Z</time></trkpt><trkpt lat="41.0268083" lon="14.32494"><ele>29.000000000000004</ele><time>2026-03-30T12:15:54.293Z</time></trkpt><trkpt lat="41.02688" lon="14.3249367"><ele>29.000000000000004</ele><time>2026-03-30T12:15:55.295Z</time></trkpt><trkpt lat="41.0269517" lon="14.324935"><ele>29.142857142857146</ele><time>2026-03-30T12:15:56.293Z</time></trkpt><trkpt lat="41.0270217" lon="14.3249333"><ele>29.285714285714285</ele><time>2026-03-30T12:15:57.294Z</time></trkpt><trkpt lat="41.0270917" lon="14.3249333"><ele>29.42857142857143</ele><time>2026-03-30T12:15:58.293Z</time></trkpt><trkpt lat="41.0271617" lon="14.324935"><ele>29.571428571428573</ele><time>2026-03-30T12:15:59.294Z</time></trkpt><trkpt lat="41.0272283" lon="14.3249367"><ele>29.714285714285715</ele><time>2026-03-30T12:16:00.296Z</time></trkpt><trkpt lat="41.0272967" lon="14.324935"><ele>29.857142857142858</ele><time>2026-03-30T12:16:01.296Z</time></trkpt><trkpt lat="41.0273633" lon="14.3249367"><ele>30.0</ele><time>2026-03-30T12:16:02.293Z</time></trkpt><trkpt lat="41.0274333" lon="14.3249367"><ele>30.42857142857143</ele><time>2026-03-30T12:16:03.296Z</time></trkpt><trkpt lat="41.0275017" lon="14.324935"><ele>30.857142857142854</ele><time>2026-03-30T12:16:04.293Z</time></trkpt><trkpt lat="41.0275717" lon="14.324935"><ele>31.285714285714285</ele><time>2026-03-30T12:16:05.295Z</time></trkpt><trkpt lat="41.027645" lon="14.3249333"><ele>31.714285714285715</ele><time>2026-03-30T12:16:06.295Z</time></trkpt><trkpt lat="41.027715" lon="14.3249333"><ele>32.142857142857146</ele><time>2026-03-30T12:16:07.294Z</time></trkpt><trkpt lat="41.0277867" lon="14.32493"><ele>32.57142857142857</ele><time>2026-03-30T12:16:08.297Z</time></trkpt><trkpt lat="41.0278583" lon="14.3249233"><ele>33.0</ele><time>2026-03-30T12:16:09.295Z</time></trkpt><trkpt lat="41.0279267" lon="14.3249217"><ele>33.0</ele><time>2026-03-30T12:16:10.294Z</time></trkpt><trkpt lat="41.027995" lon="14.324925"><ele>33.0</ele><time>2026-03-30T12:16:11.298Z</time></trkpt><trkpt lat="41.028065" lon="14.324925"><ele>33.0</ele><time>2026-03-30T12:16:12.295Z</time></trkpt><trkpt lat="41.0281317" lon="14.3249233"><ele>33.0</ele><time>2026-03-30T12:16:13.295Z</time></trkpt><trkpt lat="41.0281983" lon="14.324925"><ele>33.0</ele><time>2026-03-30T12:16:14.296Z</time></trkpt><trkpt lat="41.028265" lon="14.324925"><ele>33.0</ele><time>2026-03-30T12:16:15.296Z</time></trkpt><trkpt lat="41.0283317" lon="14.324925"><ele>33.0</ele><time>2026-03-30T12:16:16.293Z</time></trkpt><trkpt lat="41.0284017" lon="14.324925"><ele>32.857142857142854</ele><time>2026-03-30T12:16:17.293Z</time></trkpt><trkpt lat="41.02847" lon="14.3249217"><ele>32.714285714285715</ele><time>2026-03-30T12:16:18.294Z</time></trkpt><trkpt lat="41.0285383" lon="14.3249183"><ele>32.57142857142857</ele><time>2026-03-30T12:16:19.294Z</time></trkpt><trkpt lat="41.028605" lon="14.3249167"><ele>32.42857142857143</ele><time>2026-03-30T12:16:20.293Z</time></trkpt><trkpt lat="41.0286717" lon="14.324915"><ele>32.285714285714285</ele><time>2026-03-30T12:16:21.292Z</time></trkpt><trkpt lat="41.0287367" lon="14.324915"><ele>32.14285714285714</ele><time>2026-03-30T12:16:22.295Z</time></trkpt><trkpt lat="41.028805" lon="14.3249117"><ele>32.0</ele><time>2026-03-30T12:16:23.294Z</time></trkpt><trkpt lat="41.02887" lon="14.3249067"><ele>31.999999999999996</ele><time>2026-03-30T12:16:24.294Z</time></trkpt><trkpt lat="41.0289367" lon="14.3249067"><ele>32.0</ele><time>2026-03-30T12:16:25.295Z</time></trkpt><trkpt lat="41.0290633" lon="14.3249117"><ele>32.0</ele><time>2026-03-30T12:16:27.293Z</time></trkpt><trkpt lat="41.0291283" lon="14.324915"><ele>32.0</ele><time>2026-03-30T12:16:28.293Z</time></trkpt><trkpt lat="41.0291933" lon="14.324915"><ele>31.999999999999996</ele><time>2026-03-30T12:16:29.293Z</time></trkpt><trkpt lat="41.0292617" lon="14.3249183"><ele>32.0</ele><time>2026-03-30T12:16:30.293Z</time></trkpt><trkpt lat="41.0293267" lon="14.3249217"><ele>32.0</ele><time>2026-03-30T12:16:31.293Z</time></trkpt><trkpt lat="41.02939" lon="14.3249283"><ele>31.999999999999996</ele><time>2026-03-30T12:16:32.295Z</time></trkpt><trkpt lat="41.0294567" lon="14.3249233"><ele>32.0</ele><time>2026-03-30T12:16:33.299Z</time></trkpt><trkpt lat="41.0295233" lon="14.324915"><ele>32.0</ele><time>2026-03-30T12:16:34.294Z</time></trkpt><trkpt lat="41.0295883" lon="14.324915"><ele>31.999999999999996</ele><time>2026-03-30T12:16:35.294Z</time></trkpt><trkpt lat="41.029655" lon="14.3249183"><ele>32.0</ele><time>2026-03-30T12:16:36.294Z</time></trkpt><trkpt lat="41.02972" lon="14.3249183"><ele>32.0</ele><time>2026-03-30T12:16:37.294Z</time></trkpt><trkpt lat="41.0297833" lon="14.3249217"><ele>31.999999999999996</ele><time>2026-03-30T12:16:38.296Z</time></trkpt><trkpt lat="41.0298467" lon="14.32492"><ele>32.0</ele><time>2026-03-30T12:16:39.293Z</time></trkpt><trkpt lat="41.02991" lon="14.3249167"><ele>32.0</ele><time>2026-03-30T12:16:40.296Z</time></trkpt><trkpt lat="41.030035" lon="14.3249167"><ele>32.0</ele><time>2026-03-30T12:16:42.296Z</time></trkpt><trkpt lat="41.0301017" lon="14.3249117"><ele>31.999999999999996</ele><time>2026-03-30T12:16:43.297Z</time></trkpt><trkpt lat="41.0301667" lon="14.3249083"><ele>32.0</ele><time>2026-03-30T12:16:44.293Z</time></trkpt><trkpt lat="41.030235" lon="14.3249067"><ele>31.8</ele><time>2026-03-30T12:16:45.296Z</time></trkpt><trkpt lat="41.0302983" lon="14.324905"><ele>31.6</ele><time>2026-03-30T12:16:46.293Z</time></trkpt><trkpt lat="41.0304233" lon="14.324905"><ele>31.400000000000002</ele><time>2026-03-30T12:16:48.295Z</time></trkpt><trkpt lat="41.0305483" lon="14.3249"><ele>31.200000000000003</ele><time>2026-03-30T12:16:50.293Z</time></trkpt><trkpt lat="41.0306683" lon="14.3248967"><ele>31.0</ele><time>2026-03-30T12:16:52.294Z</time></trkpt><trkpt lat="41.03079" lon="14.3248917"><ele>31.25</ele><time>2026-03-30T12:16:54.294Z</time></trkpt><trkpt lat="41.03091" lon="14.3248967"><ele>31.5</ele><time>2026-03-30T12:16:56.295Z</time></trkpt><trkpt lat="41.031025" lon="14.3249"><ele>31.75</ele><time>2026-03-30T12:16:58.296Z</time></trkpt><trkpt lat="41.0311367" lon="14.3249017"><ele>32.0</ele><time>2026-03-30T12:17:00.295Z</time></trkpt><trkpt lat="41.0312483" lon="14.324905"><ele>31.999999999999996</ele><time>2026-03-30T12:17:02.294Z</time></trkpt><trkpt lat="41.0313633" lon="14.3249017"><ele>32.0</ele><time>2026-03-30T12:17:04.296Z</time></trkpt><trkpt lat="41.0314883" lon="14.3248917"><ele>32.0</ele><time>2026-03-30T12:17:06.297Z</time></trkpt><trkpt lat="41.0315517" lon="14.324895"><ele>32.0</ele><time>2026-03-30T12:17:07.295Z</time></trkpt><trkpt lat="41.031615" lon="14.3249017"><ele>31.999999999999996</ele><time>2026-03-30T12:17:08.294Z</time></trkpt><trkpt lat="41.03168" lon="14.3249083"><ele>32.0</ele><time>2026-03-30T12:17:09.297Z</time></trkpt><trkpt lat="41.031745" lon="14.324915"><ele>32.0</ele><time>2026-03-30T12:17:10.295Z</time></trkpt><trkpt lat="41.0318133" lon="14.3249183"><ele>31.999999999999996</ele><time>2026-03-30T12:17:11.295Z</time></trkpt><trkpt lat="41.0318817" lon="14.3249233"><ele>32.0</ele><time>2026-03-30T12:17:12.297Z</time></trkpt><trkpt lat="41.0319483" lon="14.324925"><ele>32.0</ele><time>2026-03-30T12:17:13.298Z</time></trkpt><trkpt lat="41.0320167" lon="14.324925"><ele>31.999999999999996</ele><time>2026-03-30T12:17:14.295Z</time></trkpt><trkpt lat="41.0320833" lon="14.324925"><ele>32.0</ele><time>2026-03-30T12:17:15.293Z</time></trkpt><trkpt lat="41.0321483" lon="14.3249217"><ele>32.0</ele><time>2026-03-30T12:17:16.295Z</time></trkpt><trkpt lat="41.0322133" lon="14.3249183"><ele>32.0</ele><time>2026-03-30T12:17:17.298Z</time></trkpt><trkpt lat="41.032335" lon="14.3249067"><ele>32.0</ele><time>2026-03-30T12:17:19.296Z</time></trkpt><trkpt lat="41.0324583" lon="14.3248983"><ele>32.0</ele><time>2026-03-30T12:17:21.294Z</time></trkpt><trkpt lat="41.0325817" lon="14.32489"><ele>32.0</ele><time>2026-03-30T12:17:23.297Z</time></trkpt><trkpt lat="41.0327" lon="14.324895"><ele>32.5</ele><time>2026-03-30T12:17:25.297Z</time></trkpt><trkpt lat="41.0328217" lon="14.3248917"><ele>33.0</ele><time>2026-03-30T12:17:27.296Z</time></trkpt><trkpt lat="41.032945" lon="14.32489"><ele>33.5</ele><time>2026-03-30T12:17:29.296Z</time></trkpt><trkpt lat="41.033065" lon="14.3248883"><ele>34.0</ele><time>2026-03-30T12:17:31.296Z</time></trkpt><trkpt lat="41.0331817" lon="14.3248833"><ele>34.0</ele><time>2026-03-30T12:17:33.293Z</time></trkpt><trkpt lat="41.0333017" lon="14.3248867"><ele>34.0</ele><time>2026-03-30T12:17:35.298Z</time></trkpt><trkpt lat="41.0334233" lon="14.3248883"><ele>34.0</ele><time>2026-03-30T12:17:37.299Z</time></trkpt><trkpt lat="41.0335467" lon="14.32489"><ele>34.0</ele><time>2026-03-30T12:17:39.297Z</time></trkpt><trkpt lat="41.03367" lon="14.324895"><ele>34.16666666666667</ele><time>2026-03-30T12:17:41.298Z</time></trkpt><trkpt lat="41.0337917" lon="14.3249033"><ele>34.333333333333336</ele><time>2026-03-30T12:17:43.295Z</time></trkpt><trkpt lat="41.0339183" lon="14.3249183"><ele>34.5</ele><time>2026-03-30T12:17:45.297Z</time></trkpt><trkpt lat="41.0339833" lon="14.32492"><ele>34.666666666666664</ele><time>2026-03-30T12:17:46.295Z</time></trkpt><trkpt lat="41.03405" lon="14.32492"><ele>34.83333333333333</ele><time>2026-03-30T12:17:47.295Z</time></trkpt><trkpt lat="41.034115" lon="14.3249233"><ele>35.0</ele><time>2026-03-30T12:17:48.295Z</time></trkpt><trkpt lat="41.0341817" lon="14.3249217"><ele>35.2</ele><time>2026-03-30T12:17:49.295Z</time></trkpt><trkpt lat="41.0342467" lon="14.32492"><ele>35.4</ele><time>2026-03-30T12:17:50.293Z</time></trkpt><trkpt lat="41.03437" lon="14.3249117"><ele>35.6</ele><time>2026-03-30T12:17:52.294Z</time></trkpt><trkpt lat="41.034485" lon="14.324905"><ele>35.8</ele><time>2026-03-30T12:17:54.293Z</time></trkpt><trkpt lat="41.0346033" lon="14.32489"><ele>36.0</ele><time>2026-03-30T12:17:56.295Z</time></trkpt><trkpt lat="41.034725" lon="14.32488"><ele>36.0</ele><time>2026-03-30T12:17:58.295Z</time></trkpt><trkpt lat="41.03484" lon="14.324865"><ele>36.0</ele><time>2026-03-30T12:18:00.295Z</time></trkpt><trkpt lat="41.0349483" lon="14.324855"><ele>36.0</ele><time>2026-03-30T12:18:02.295Z</time></trkpt><trkpt lat="41.0350633" lon="14.3248567"><ele>36.0</ele><time>2026-03-30T12:18:04.293Z</time></trkpt><trkpt lat="41.0351817" lon="14.3248583"><ele>36.0</ele><time>2026-03-30T12:18:06.295Z</time></trkpt><trkpt lat="41.0353017" lon="14.32485"><ele>36.0</ele><time>2026-03-30T12:18:08.296Z</time></trkpt><trkpt lat="41.0354167" lon="14.324845"><ele>36.0</ele><time>2026-03-30T12:18:10.294Z</time></trkpt><trkpt lat="41.0355333" lon="14.3248467"><ele>36.0</ele><time>2026-03-30T12:18:12.295Z</time></trkpt><trkpt lat="41.0356483" lon="14.324845"><ele>36.0</ele><time>2026-03-30T12:18:14.293Z</time></trkpt><trkpt lat="41.03577" lon="14.3248417"><ele>36.0</ele><time>2026-03-30T12:18:16.296Z</time></trkpt><trkpt lat="41.035895" lon="14.32484"><ele>36.0</ele><time>2026-03-30T12:18:18.293Z</time></trkpt><trkpt lat="41.0359583" lon="14.32484"><ele>36.0</ele><time>2026-03-30T12:18:19.295Z</time></trkpt><trkpt lat="41.0360217" lon="14.324845"><ele>36.0</ele><time>2026-03-30T12:18:20.293Z</time></trkpt><trkpt lat="41.036145" lon="14.32485"><ele>36.333333333333336</ele><time>2026-03-30T12:18:22.295Z</time></trkpt><trkpt lat="41.0362117" lon="14.324855"><ele>36.666666666666664</ele><time>2026-03-30T12:18:23.294Z</time></trkpt><trkpt lat="41.0363333" lon="14.3248633"><ele>37.0</ele><time>2026-03-30T12:18:25.295Z</time></trkpt><trkpt lat="41.0364317" lon="14.324845"><ele>37.33333333333333</ele><time>2026-03-30T12:18:27.293Z</time></trkpt><trkpt lat="41.0365" lon="14.3248317"><ele>37.666666666666664</ele><time>2026-03-30T12:18:28.295Z</time></trkpt><trkpt lat="41.0365867" lon="14.324815"><ele>38.0</ele><time>2026-03-30T12:18:30.293Z</time></trkpt><trkpt lat="41.0366533" lon="14.32481"><ele>38.4</ele><time>2026-03-30T12:18:31.296Z</time></trkpt><trkpt lat="41.03672" lon="14.3248133"><ele>38.8</ele><time>2026-03-30T12:18:32.294Z</time></trkpt><trkpt lat="41.036785" lon="14.3248183"><ele>39.2</ele><time>2026-03-30T12:18:33.293Z</time></trkpt><trkpt lat="41.0369083" lon="14.3248233"><ele>39.6</ele><time>2026-03-30T12:18:35.295Z</time></trkpt><trkpt lat="41.03703" lon="14.3248233"><ele>40.0</ele><time>2026-03-30T12:18:37.297Z</time></trkpt><trkpt lat="41.0371533" lon="14.3248233"><ele>40.0</ele><time>2026-03-30T12:18:39.293Z</time></trkpt><trkpt lat="41.03722" lon="14.32483"><ele>40.0</ele><time>2026-03-30T12:18:40.294Z</time></trkpt><trkpt lat="41.037285" lon="14.3248383"><ele>40.0</ele><time>2026-03-30T12:18:41.294Z</time></trkpt><trkpt lat="41.03735" lon="14.3248383"><ele>40.0</ele><time>2026-03-30T12:18:42.293Z</time></trkpt><trkpt lat="41.0374167" lon="14.3248333"><ele>40.0</ele><time>2026-03-30T12:18:43.295Z</time></trkpt><trkpt lat="41.0374833" lon="14.324825"><ele>40.0</ele><time>2026-03-30T12:18:44.294Z</time></trkpt><trkpt lat="41.0375483" lon="14.324825"><ele>40.0</ele><time>2026-03-30T12:18:45.295Z</time></trkpt><trkpt lat="41.0376167" lon="14.3248283"><ele>40.285714285714285</ele><time>2026-03-30T12:18:46.293Z</time></trkpt><trkpt lat="41.037685" lon="14.32483"><ele>40.57142857142857</ele><time>2026-03-30T12:18:47.295Z</time></trkpt><trkpt lat="41.037755" lon="14.3248317"><ele>40.85714285714286</ele><time>2026-03-30T12:18:48.294Z</time></trkpt><trkpt lat="41.0378217" lon="14.3248317"><ele>41.14285714285714</ele><time>2026-03-30T12:18:49.295Z</time></trkpt><trkpt lat="41.03789" lon="14.3248317"><ele>41.42857142857143</ele><time>2026-03-30T12:18:50.294Z</time></trkpt><trkpt lat="41.0379617" lon="14.3248333"><ele>41.714285714285715</ele><time>2026-03-30T12:18:51.293Z</time></trkpt><trkpt lat="41.0380317" lon="14.324835"><ele>42.0</ele><time>2026-03-30T12:18:52.296Z</time></trkpt><trkpt lat="41.0381033" lon="14.3248333"><ele>42.0</ele><time>2026-03-30T12:18:53.295Z</time></trkpt><trkpt lat="41.0381733" lon="14.3248317"><ele>42.0</ele><time>2026-03-30T12:18:54.295Z</time></trkpt><trkpt lat="41.038245" lon="14.3248283"><ele>42.0</ele><time>2026-03-30T12:18:55.296Z</time></trkpt><trkpt lat="41.0383167" lon="14.3248267"><ele>42.0</ele><time>2026-03-30T12:18:56.294Z</time></trkpt><trkpt lat="41.0383867" lon="14.3248233"><ele>42.0</ele><time>2026-03-30T12:18:57.294Z</time></trkpt><trkpt lat="41.0384567" lon="14.3248233"><ele>42.0</ele><time>2026-03-30T12:18:58.295Z</time></trkpt><trkpt lat="41.0385267" lon="14.324825"><ele>42.0</ele><time>2026-03-30T12:18:59.295Z</time></trkpt><trkpt lat="41.0385967" lon="14.3248283"><ele>41.714285714285715</ele><time>2026-03-30T12:19:00.294Z</time></trkpt><trkpt lat="41.038665" lon="14.3248267"><ele>41.42857142857143</ele><time>2026-03-30T12:19:01.296Z</time></trkpt><trkpt lat="41.0387317" lon="14.324825"><ele>41.14285714285714</ele><time>2026-03-30T12:19:02.294Z</time></trkpt><trkpt lat="41.0388" lon="14.324825"><ele>40.85714285714286</ele><time>2026-03-30T12:19:03.295Z</time></trkpt><trkpt lat="41.0388667" lon="14.32482"><ele>40.57142857142857</ele><time>2026-03-30T12:19:04.294Z</time></trkpt><trkpt lat="41.0389333" lon="14.324815"><ele>40.285714285714285</ele><time>2026-03-30T12:19:05.296Z</time></trkpt><trkpt lat="41.0390017" lon="14.324815"><ele>40.0</ele><time>2026-03-30T12:19:06.295Z</time></trkpt><trkpt lat="41.0390683" lon="14.324815"><ele>40.0</ele><time>2026-03-30T12:19:07.296Z</time></trkpt><trkpt lat="41.0391317" lon="14.3248133"><ele>40.0</ele><time>2026-03-30T12:19:08.296Z</time></trkpt><trkpt lat="41.0391967" lon="14.3248133"><ele>40.0</ele><time>2026-03-30T12:19:09.295Z</time></trkpt><trkpt lat="41.0392617" lon="14.32481"><ele>40.0</ele><time>2026-03-30T12:19:10.295Z</time></trkpt><trkpt lat="41.039325" lon="14.32481"><ele>40.0</ele><time>2026-03-30T12:19:11.296Z</time></trkpt><trkpt lat="41.0393883" lon="14.3248083"><ele>40.0</ele><time>2026-03-30T12:19:12.294Z</time></trkpt><trkpt lat="41.0395117" lon="14.3248083"><ele>40.0</ele><time>2026-03-30T12:19:14.296Z</time></trkpt><trkpt lat="41.0395767" lon="14.3248067"><ele>39.857142857142854</ele><time>2026-03-30T12:19:15.294Z</time></trkpt><trkpt lat="41.03964" lon="14.32481"><ele>39.714285714285715</ele><time>2026-03-30T12:19:16.295Z</time></trkpt><trkpt lat="41.0397033" lon="14.3248117"><ele>39.57142857142857</ele><time>2026-03-30T12:19:17.295Z</time></trkpt><trkpt lat="41.03977" lon="14.3248117"><ele>39.42857142857143</ele><time>2026-03-30T12:19:18.294Z</time></trkpt><trkpt lat="41.039835" lon="14.3248067"><ele>39.285714285714285</ele><time>2026-03-30T12:19:19.296Z</time></trkpt><trkpt lat="41.0399" lon="14.3248017"><ele>39.142857142857146</ele><time>2026-03-30T12:19:20.295Z</time></trkpt><trkpt lat="41.0399633" lon="14.3247983"><ele>39.0</ele><time>2026-03-30T12:19:21.293Z</time></trkpt><trkpt lat="41.0400267" lon="14.3247933"><ele>39.0</ele><time>2026-03-30T12:19:22.296Z</time></trkpt><trkpt lat="41.04009" lon="14.32479"><ele>39.0</ele><time>2026-03-30T12:19:23.296Z</time></trkpt><trkpt lat="41.040155" lon="14.3247867"><ele>39.0</ele><time>2026-03-30T12:19:24.297Z</time></trkpt><trkpt lat="41.0402217" lon="14.3247867"><ele>39.0</ele><time>2026-03-30T12:19:25.297Z</time></trkpt><trkpt lat="41.0402883" lon="14.324785"><ele>39.0</ele><time>2026-03-30T12:19:26.294Z</time></trkpt><trkpt lat="41.0403533" lon="14.3247833"><ele>39.0</ele><time>2026-03-30T12:19:27.293Z</time></trkpt><trkpt lat="41.0404183" lon="14.3247817"><ele>39.0</ele><time>2026-03-30T12:19:28.295Z</time></trkpt><trkpt lat="41.0404817" lon="14.3247817"><ele>39.0</ele><time>2026-03-30T12:19:29.296Z</time></trkpt><trkpt lat="41.0405467" lon="14.324785"><ele>39.0</ele><time>2026-03-30T12:19:30.296Z</time></trkpt><trkpt lat="41.0406133" lon="14.324785"><ele>39.0</ele><time>2026-03-30T12:19:31.296Z</time></trkpt><trkpt lat="41.0406767" lon="14.324785"><ele>39.0</ele><time>2026-03-30T12:19:32.295Z</time></trkpt><trkpt lat="41.0408" lon="14.3247883"><ele>39.0</ele><time>2026-03-30T12:19:34.294Z</time></trkpt><trkpt lat="41.040865" lon="14.3247867"><ele>39.0</ele><time>2026-03-30T12:19:35.294Z</time></trkpt><trkpt lat="41.0409317" lon="14.324785"><ele>39.142857142857146</ele><time>2026-03-30T12:19:36.295Z</time></trkpt><trkpt lat="41.0409967" lon="14.3247833"><ele>39.285714285714285</ele><time>2026-03-30T12:19:37.296Z</time></trkpt><trkpt lat="41.041065" lon="14.3247833"><ele>39.42857142857143</ele><time>2026-03-30T12:19:38.296Z</time></trkpt><trkpt lat="41.0411317" lon="14.32478"><ele>39.57142857142857</ele><time>2026-03-30T12:19:39.294Z</time></trkpt><trkpt lat="41.0412" lon="14.324775"><ele>39.714285714285715</ele><time>2026-03-30T12:19:40.296Z</time></trkpt><trkpt lat="41.0412683" lon="14.32477"><ele>39.857142857142854</ele><time>2026-03-30T12:19:41.295Z</time></trkpt><trkpt lat="41.0413367" lon="14.324765"><ele>40.0</ele><time>2026-03-30T12:19:42.296Z</time></trkpt><trkpt lat="41.041405" lon="14.3247633"><ele>40.0</ele><time>2026-03-30T12:19:43.295Z</time></trkpt><trkpt lat="41.0414717" lon="14.3247633"><ele>40.0</ele><time>2026-03-30T12:19:44.294Z</time></trkpt><trkpt lat="41.0415383" lon="14.3247667"><ele>40.0</ele><time>2026-03-30T12:19:45.293Z</time></trkpt><trkpt lat="41.0416033" lon="14.32477"><ele>40.0</ele><time>2026-03-30T12:19:46.296Z</time></trkpt><trkpt lat="41.0416717" lon="14.3247767"><ele>40.0</ele><time>2026-03-30T12:19:47.296Z</time></trkpt><trkpt lat="41.04174" lon="14.3247783"><ele>40.0</ele><time>2026-03-30T12:19:48.296Z</time></trkpt><trkpt lat="41.0418083" lon="14.3247783"><ele>40.0</ele><time>2026-03-30T12:19:49.295Z</time></trkpt><trkpt lat="41.041875" lon="14.3247767"><ele>40.0</ele><time>2026-03-30T12:19:50.296Z</time></trkpt><trkpt lat="41.0419417" lon="14.324775"><ele>40.0</ele><time>2026-03-30T12:19:51.295Z</time></trkpt><trkpt lat="41.04201" lon="14.3247717"><ele>40.0</ele><time>2026-03-30T12:19:52.293Z</time></trkpt><trkpt lat="41.0420767" lon="14.3247717"><ele>40.0</ele><time>2026-03-30T12:19:53.295Z</time></trkpt><trkpt lat="41.0422" lon="14.3247767"><ele>40.0</ele><time>2026-03-30T12:19:55.295Z</time></trkpt><trkpt lat="41.0422633" lon="14.3247783"><ele>40.0</ele><time>2026-03-30T12:19:56.296Z</time></trkpt><trkpt lat="41.0423283" lon="14.3247783"><ele>40.0</ele><time>2026-03-30T12:19:57.293Z</time></trkpt><trkpt lat="41.0423933" lon="14.324775"><ele>40.0</ele><time>2026-03-30T12:19:58.295Z</time></trkpt><trkpt lat="41.04246" lon="14.3247717"><ele>40.0</ele><time>2026-03-30T12:19:59.296Z</time></trkpt><trkpt lat="41.042525" lon="14.32477"><ele>40.0</ele><time>2026-03-30T12:20:00.296Z</time></trkpt><trkpt lat="41.0426533" lon="14.3247783"><ele>40.0</ele><time>2026-03-30T12:20:02.296Z</time></trkpt><trkpt lat="41.0427167" lon="14.3247883"><ele>40.0</ele><time>2026-03-30T12:20:03.294Z</time></trkpt><trkpt lat="41.0427817" lon="14.3247967"><ele>40.14285714285714</ele><time>2026-03-30T12:20:04.294Z</time></trkpt><trkpt lat="41.042845" lon="14.3248033"><ele>40.285714285714285</ele><time>2026-03-30T12:20:05.295Z</time></trkpt><trkpt lat="41.04291" lon="14.324815"><ele>40.42857142857143</ele><time>2026-03-30T12:20:06.295Z</time></trkpt><trkpt lat="41.0429767" lon="14.3248267"><ele>40.57142857142857</ele><time>2026-03-30T12:20:07.295Z</time></trkpt><trkpt lat="41.0430433" lon="14.3248283"><ele>40.714285714285715</ele><time>2026-03-30T12:20:08.295Z</time></trkpt><trkpt lat="41.0431067" lon="14.3248367"><ele>40.857142857142854</ele><time>2026-03-30T12:20:09.293Z</time></trkpt><trkpt lat="41.0432267" lon="14.3248633"><ele>41.0</ele><time>2026-03-30T12:20:11.295Z</time></trkpt><trkpt lat="41.0433433" lon="14.3248883"><ele>41.199999999999996</ele><time>2026-03-30T12:20:13.295Z</time></trkpt><trkpt lat="41.0434433" lon="14.3249283"><ele>41.4</ele><time>2026-03-30T12:20:15.294Z</time></trkpt><trkpt lat="41.0435217" lon="14.3249883"><ele>41.6</ele><time>2026-03-30T12:20:17.295Z</time></trkpt><trkpt lat="41.043595" lon="14.325065"><ele>41.8</ele><time>2026-03-30T12:20:19.297Z</time></trkpt><trkpt lat="41.0436767" lon="14.3251017"><ele>42.0</ele><time>2026-03-30T12:20:21.295Z</time></trkpt><trkpt lat="41.0437617" lon="14.3251017"><ele>42.0</ele><time>2026-03-30T12:20:23.295Z</time></trkpt><trkpt lat="41.0438433" lon="14.3250417"><ele>42.0</ele><time>2026-03-30T12:20:25.295Z</time></trkpt><trkpt lat="41.0439233" lon="14.32497"><ele>42.0</ele><time>2026-03-30T12:20:27.293Z</time></trkpt><trkpt lat="41.044015" lon="14.3249317"><ele>42.0</ele><time>2026-03-30T12:20:29.293Z</time></trkpt><trkpt lat="41.0441217" lon="14.3249217"><ele>42.0</ele><time>2026-03-30T12:20:31.294Z</time></trkpt><trkpt lat="41.0442333" lon="14.3249367"><ele>42.25</ele><time>2026-03-30T12:20:33.294Z</time></trkpt><trkpt lat="41.04435" lon="14.32495"><ele>42.5</ele><time>2026-03-30T12:20:35.296Z</time></trkpt><trkpt lat="41.0444633" lon="14.3249633"><ele>42.75</ele><time>2026-03-30T12:20:37.295Z</time></trkpt><trkpt lat="41.0445733" lon="14.32498"><ele>43.0</ele><time>2026-03-30T12:20:39.295Z</time></trkpt><trkpt lat="41.044685" lon="14.324985"><ele>43.0</ele><time>2026-03-30T12:20:41.294Z</time></trkpt><trkpt lat="41.0447983" lon="14.3249917"><ele>43.0</ele><time>2026-03-30T12:20:43.295Z</time></trkpt><trkpt lat="41.04491" lon="14.325"><ele>43.0</ele><time>2026-03-30T12:20:45.295Z</time></trkpt><trkpt lat="41.0450217" lon="14.3250083"><ele>43.0</ele><time>2026-03-30T12:20:47.293Z</time></trkpt><trkpt lat="41.0451283" lon="14.325015"><ele>43.0</ele><time>2026-03-30T12:20:49.295Z</time></trkpt><trkpt lat="41.04523" lon="14.3250267"><ele>43.4</ele><time>2026-03-30T12:20:51.293Z</time></trkpt><trkpt lat="41.0453233" lon="14.3250367"><ele>43.8</ele><time>2026-03-30T12:20:53.295Z</time></trkpt><trkpt lat="41.0454217" lon="14.3250333"><ele>44.2</ele><time>2026-03-30T12:20:55.295Z</time></trkpt><trkpt lat="41.0455233" lon="14.325035"><ele>44.6</ele><time>2026-03-30T12:20:57.293Z</time></trkpt><trkpt lat="41.045635" lon="14.325045"><ele>45.0</ele><time>2026-03-30T12:20:59.295Z</time></trkpt><trkpt lat="41.0457517" lon="14.3250533"><ele>45.25</ele><time>2026-03-30T12:21:01.295Z</time></trkpt><trkpt lat="41.0458683" lon="14.3250617"><ele>45.5</ele><time>2026-03-30T12:21:03.293Z</time></trkpt><trkpt lat="41.0459867" lon="14.32507"><ele>45.75</ele><time>2026-03-30T12:21:05.293Z</time></trkpt><trkpt lat="41.0461033" lon="14.32508"><ele>46.0</ele><time>2026-03-30T12:21:07.295Z</time></trkpt><trkpt lat="41.0462183" lon="14.3250867"><ele>46.0</ele><time>2026-03-30T12:21:09.293Z</time></trkpt><trkpt lat="41.0463283" lon="14.32509"><ele>46.0</ele><time>2026-03-30T12:21:11.295Z</time></trkpt><trkpt lat="41.0464333" lon="14.3250983"><ele>46.0</ele><time>2026-03-30T12:21:13.295Z</time></trkpt><trkpt lat="41.0465383" lon="14.3251083"><ele>46.0</ele><time>2026-03-30T12:21:15.297Z</time></trkpt><trkpt lat="41.04665" lon="14.32512"><ele>46.0</ele><time>2026-03-30T12:21:17.294Z</time></trkpt><trkpt lat="41.0467617" lon="14.3251333"><ele>46.599999999999994</ele><time>2026-03-30T12:21:19.294Z</time></trkpt><trkpt lat="41.0468717" lon="14.325135"><ele>47.2</ele><time>2026-03-30T12:21:21.293Z</time></trkpt><trkpt lat="41.0469783" lon="14.3251483"><ele>47.8</ele><time>2026-03-30T12:21:23.294Z</time></trkpt><trkpt lat="41.0470933" lon="14.325165"><ele>48.400000000000006</ele><time>2026-03-30T12:21:25.295Z</time></trkpt><trkpt lat="41.0472033" lon="14.3251717"><ele>49.0</ele><time>2026-03-30T12:21:27.293Z</time></trkpt><trkpt lat="41.04731" lon="14.3251817"><ele>49.0</ele><time>2026-03-30T12:21:29.294Z</time></trkpt><trkpt lat="41.0474183" lon="14.3251917"><ele>49.0</ele><time>2026-03-30T12:21:31.295Z</time></trkpt><trkpt lat="41.0475283" lon="14.3252"><ele>49.0</ele><time>2026-03-30T12:21:33.293Z</time></trkpt><trkpt lat="41.0476433" lon="14.3252083"><ele>49.0</ele><time>2026-03-30T12:21:35.295Z</time></trkpt><trkpt lat="41.0477567" lon="14.3252133"><ele>49.0</ele><time>2026-03-30T12:21:37.295Z</time></trkpt><trkpt lat="41.0478767" lon="14.3252167"><ele>48.75</ele><time>2026-03-30T12:21:39.293Z</time></trkpt><trkpt lat="41.0479917" lon="14.3252267"><ele>48.5</ele><time>2026-03-30T12:21:41.295Z</time></trkpt><trkpt lat="41.0481083" lon="14.325235"><ele>48.25</ele><time>2026-03-30T12:21:43.293Z</time></trkpt><trkpt lat="41.0482233" lon="14.3252467"><ele>48.0</ele><time>2026-03-30T12:21:45.293Z</time></trkpt><trkpt lat="41.0483417" lon="14.3252533"><ele>48.5</ele><time>2026-03-30T12:21:47.295Z</time></trkpt><trkpt lat="41.0484583" lon="14.32526"><ele>49.0</ele><time>2026-03-30T12:21:49.295Z</time></trkpt><trkpt lat="41.0485767" lon="14.3252633"><ele>49.5</ele><time>2026-03-30T12:21:51.293Z</time></trkpt><trkpt lat="41.0486933" lon="14.325265"><ele>50.0</ele><time>2026-03-30T12:21:53.295Z</time></trkpt><trkpt lat="41.0488083" lon="14.3252767"><ele>50.0</ele><time>2026-03-30T12:21:55.296Z</time></trkpt><trkpt lat="41.048925" lon="14.325285"><ele>50.0</ele><time>2026-03-30T12:21:57.296Z</time></trkpt><trkpt lat="41.0490433" lon="14.325295"><ele>50.0</ele><time>2026-03-30T12:21:59.295Z</time></trkpt><trkpt lat="41.049165" lon="14.325305"><ele>50.0</ele><time>2026-03-30T12:22:01.297Z</time></trkpt><trkpt lat="41.0492283" lon="14.3253117"><ele>50.0</ele><time>2026-03-30T12:22:02.292Z</time></trkpt><trkpt lat="41.0492917" lon="14.32532"><ele>50.2</ele><time>2026-03-30T12:22:03.295Z</time></trkpt><trkpt lat="41.0494167" lon="14.3253333"><ele>50.4</ele><time>2026-03-30T12:22:05.295Z</time></trkpt><trkpt lat="41.0494817" lon="14.3253383"><ele>50.599999999999994</ele><time>2026-03-30T12:22:06.292Z</time></trkpt><trkpt lat="41.0496017" lon="14.3253483"><ele>50.8</ele><time>2026-03-30T12:22:08.293Z</time></trkpt><trkpt lat="41.0497167" lon="14.3253517"><ele>51.0</ele><time>2026-03-30T12:22:10.293Z</time></trkpt><trkpt lat="41.049825" lon="14.3253667"><ele>51.0</ele><time>2026-03-30T12:22:12.294Z</time></trkpt><trkpt lat="41.0499383" lon="14.3253867"><ele>51.0</ele><time>2026-03-30T12:22:14.295Z</time></trkpt><trkpt lat="41.05005" lon="14.32538"><ele>51.0</ele><time>2026-03-30T12:22:16.293Z</time></trkpt><trkpt lat="41.050165" lon="14.3253767"><ele>51.0</ele><time>2026-03-30T12:22:18.294Z</time></trkpt><trkpt lat="41.05028" lon="14.3253867"><ele>51.25</ele><time>2026-03-30T12:22:20.292Z</time></trkpt><trkpt lat="41.050395" lon="14.325405"><ele>51.5</ele><time>2026-03-30T12:22:22.294Z</time></trkpt><trkpt lat="41.050515" lon="14.3254133"><ele>51.75</ele><time>2026-03-30T12:22:24.294Z</time></trkpt><trkpt lat="41.05064" lon="14.3254267"><ele>52.0</ele><time>2026-03-30T12:22:26.292Z</time></trkpt><trkpt lat="41.05076" lon="14.32544"><ele>51.8</ele><time>2026-03-30T12:22:28.294Z</time></trkpt><trkpt lat="41.0508233" lon="14.32544"><ele>51.6</ele><time>2026-03-30T12:22:29.293Z</time></trkpt><trkpt lat="41.0508867" lon="14.3254383"><ele>51.4</ele><time>2026-03-30T12:22:30.293Z</time></trkpt><trkpt lat="41.051005" lon="14.32545"><ele>51.199999999999996</ele><time>2026-03-30T12:22:32.292Z</time></trkpt><trkpt lat="41.051125" lon="14.3254633"><ele>51.0</ele><time>2026-03-30T12:22:34.294Z</time></trkpt><trkpt lat="41.05124" lon="14.3254683"><ele>51.0</ele><time>2026-03-30T12:22:36.292Z</time></trkpt><trkpt lat="41.0513567" lon="14.3254833"><ele>51.0</ele><time>2026-03-30T12:22:38.292Z</time></trkpt><trkpt lat="41.0514667" lon="14.325495"><ele>51.0</ele><time>2026-03-30T12:22:40.294Z</time></trkpt><trkpt lat="41.05157" lon="14.3255"><ele>51.0</ele><time>2026-03-30T12:22:42.295Z</time></trkpt><trkpt lat="41.05166" lon="14.3255067"><ele>51.0</ele><time>2026-03-30T12:22:44.294Z</time></trkpt><trkpt lat="41.0517383" lon="14.3255167"><ele>51.0</ele><time>2026-03-30T12:22:47.295Z</time></trkpt><trkpt lat="41.0518383" lon="14.3255217"><ele>51.0</ele><time>2026-03-30T12:22:50.292Z</time></trkpt><trkpt lat="41.0519283" lon="14.325525"><ele>51.0</ele><time>2026-03-30T12:22:52.294Z</time></trkpt><trkpt lat="41.052025" lon="14.3255317"><ele>51.0</ele><time>2026-03-30T12:22:54.295Z</time></trkpt><trkpt lat="41.052125" lon="14.32554"><ele>51.0</ele><time>2026-03-30T12:22:56.294Z</time></trkpt><trkpt lat="41.05223" lon="14.3255467"><ele>51.0</ele><time>2026-03-30T12:22:58.294Z</time></trkpt><trkpt lat="41.05234" lon="14.3255567"><ele>51.0</ele><time>2026-03-30T12:23:00.294Z</time></trkpt><trkpt lat="41.05245" lon="14.3255667"><ele>51.0</ele><time>2026-03-30T12:23:02.293Z</time></trkpt><trkpt lat="41.0525633" lon="14.325575"><ele>51.0</ele><time>2026-03-30T12:23:04.294Z</time></trkpt><trkpt lat="41.052675" lon="14.3255867"><ele>51.0</ele><time>2026-03-30T12:23:06.295Z</time></trkpt><trkpt lat="41.05279" lon="14.325595"><ele>51.75</ele><time>2026-03-30T12:23:08.293Z</time></trkpt><trkpt lat="41.0529083" lon="14.325605"><ele>52.5</ele><time>2026-03-30T12:23:10.293Z</time></trkpt><trkpt lat="41.05303" lon="14.3256117"><ele>53.25</ele><time>2026-03-30T12:23:12.293Z</time></trkpt><trkpt lat="41.0531517" lon="14.3256233"><ele>54.0</ele><time>2026-03-30T12:23:14.292Z</time></trkpt><trkpt lat="41.0532717" lon="14.3256383"><ele>54.25</ele><time>2026-03-30T12:23:16.295Z</time></trkpt><trkpt lat="41.053395" lon="14.3256517"><ele>54.5</ele><time>2026-03-30T12:23:18.293Z</time></trkpt><trkpt lat="41.05351" lon="14.3256617"><ele>54.75</ele><time>2026-03-30T12:23:20.295Z</time></trkpt><trkpt lat="41.053635" lon="14.3256733"><ele>55.0</ele><time>2026-03-30T12:23:22.293Z</time></trkpt><trkpt lat="41.0537567" lon="14.325685"><ele>55.0</ele><time>2026-03-30T12:23:24.294Z</time></trkpt><trkpt lat="41.05388" lon="14.325695"><ele>55.0</ele><time>2026-03-30T12:23:26.293Z</time></trkpt><trkpt lat="41.0540033" lon="14.3257017"><ele>55.0</ele><time>2026-03-30T12:23:28.293Z</time></trkpt><trkpt lat="41.0541267" lon="14.32571"><ele>55.0</ele><time>2026-03-30T12:23:30.294Z</time></trkpt><trkpt lat="41.0542467" lon="14.32572"><ele>54.666666666666664</ele><time>2026-03-30T12:23:32.295Z</time></trkpt><trkpt lat="41.0543683" lon="14.325725"><ele>54.33333333333333</ele><time>2026-03-30T12:23:34.294Z</time></trkpt><trkpt lat="41.0544333" lon="14.3257317"><ele>54.0</ele><time>2026-03-30T12:23:35.293Z</time></trkpt><trkpt lat="41.0544967" lon="14.325735"><ele>53.66666666666667</ele><time>2026-03-30T12:23:36.295Z</time></trkpt><trkpt lat="41.05456" lon="14.3257367"><ele>53.333333333333336</ele><time>2026-03-30T12:23:37.296Z</time></trkpt><trkpt lat="41.054685" lon="14.32575"><ele>53.0</ele><time>2026-03-30T12:23:39.295Z</time></trkpt><trkpt lat="41.0547483" lon="14.3257567"><ele>53.0</ele><time>2026-03-30T12:23:40.295Z</time></trkpt><trkpt lat="41.0548133" lon="14.3257633"><ele>53.0</ele><time>2026-03-30T12:23:41.293Z</time></trkpt><trkpt lat="41.0548767" lon="14.3257667"><ele>53.0</ele><time>2026-03-30T12:23:42.295Z</time></trkpt><trkpt lat="41.05494" lon="14.3257667"><ele>53.0</ele><time>2026-03-30T12:23:43.295Z</time></trkpt><trkpt lat="41.0550033" lon="14.3257717"><ele>53.0</ele><time>2026-03-30T12:23:44.294Z</time></trkpt><trkpt lat="41.055125" lon="14.32578"><ele>53.0</ele><time>2026-03-30T12:23:46.295Z</time></trkpt><trkpt lat="41.0551883" lon="14.3257833"><ele>53.0</ele><time>2026-03-30T12:23:47.295Z</time></trkpt><trkpt lat="41.05531" lon="14.3257917"><ele>53.0</ele><time>2026-03-30T12:23:49.295Z</time></trkpt><trkpt lat="41.05543" lon="14.3258017"><ele>53.0</ele><time>2026-03-30T12:23:51.293Z</time></trkpt><trkpt lat="41.0555483" lon="14.32581"><ele>53.0</ele><time>2026-03-30T12:23:53.294Z</time></trkpt><trkpt lat="41.0556683" lon="14.32582"><ele>53.0</ele><time>2026-03-30T12:23:55.294Z</time></trkpt><trkpt lat="41.05579" lon="14.3258317"><ele>53.0</ele><time>2026-03-30T12:23:57.293Z</time></trkpt><trkpt lat="41.0558533" lon="14.32584"><ele>53.0</ele><time>2026-03-30T12:23:58.294Z</time></trkpt><trkpt lat="41.0559783" lon="14.32585"><ele>53.0</ele><time>2026-03-30T12:24:00.294Z</time></trkpt><trkpt lat="41.0561017" lon="14.32586"><ele>53.0</ele><time>2026-03-30T12:24:02.294Z</time></trkpt><trkpt lat="41.0562233" lon="14.32587"><ele>53.0</ele><time>2026-03-30T12:24:04.295Z</time></trkpt><trkpt lat="41.0563433" lon="14.3258817"><ele>53.0</ele><time>2026-03-30T12:24:06.294Z</time></trkpt><trkpt lat="41.0564667" lon="14.325885"><ele>53.0</ele><time>2026-03-30T12:24:08.294Z</time></trkpt><trkpt lat="41.05658" lon="14.3259133"><ele>53.0</ele><time>2026-03-30T12:24:10.295Z</time></trkpt><trkpt lat="41.0566933" lon="14.325975"><ele>53.0</ele><time>2026-03-30T12:24:12.294Z</time></trkpt><trkpt lat="41.056815" lon="14.3259983"><ele>53.25</ele><time>2026-03-30T12:24:14.294Z</time></trkpt><trkpt lat="41.0569383" lon="14.3259867"><ele>53.5</ele><time>2026-03-30T12:24:16.295Z</time></trkpt><trkpt lat="41.05706" lon="14.32595"><ele>53.75</ele><time>2026-03-30T12:24:18.295Z</time></trkpt><trkpt lat="41.0571783" lon="14.3259417"><ele>54.0</ele><time>2026-03-30T12:24:20.293Z</time></trkpt><trkpt lat="41.0572983" lon="14.3259517"><ele>54.0</ele><time>2026-03-30T12:24:22.294Z</time></trkpt><trkpt lat="41.0574217" lon="14.32596"><ele>54.0</ele><time>2026-03-30T12:24:24.293Z</time></trkpt><trkpt lat="41.057545" lon="14.32597"><ele>54.0</ele><time>2026-03-30T12:24:26.295Z</time></trkpt><trkpt lat="41.0576683" lon="14.32598"><ele>54.0</ele><time>2026-03-30T12:24:28.295Z</time></trkpt><trkpt lat="41.05779" lon="14.325995"><ele>53.5</ele><time>2026-03-30T12:24:30.294Z</time></trkpt><trkpt lat="41.0579133" lon="14.326005"><ele>53.0</ele><time>2026-03-30T12:24:32.293Z</time></trkpt><trkpt lat="41.058035" lon="14.3260167"><ele>52.5</ele><time>2026-03-30T12:24:34.294Z</time></trkpt><trkpt lat="41.0581567" lon="14.3260267"><ele>52.0</ele><time>2026-03-30T12:24:36.294Z</time></trkpt><trkpt lat="41.058275" lon="14.3260367"><ele>52.400000000000006</ele><time>2026-03-30T12:24:38.294Z</time></trkpt><trkpt lat="41.0583933" lon="14.32605"><ele>52.800000000000004</ele><time>2026-03-30T12:24:40.294Z</time></trkpt><trkpt lat="41.0585133" lon="14.3260583"><ele>53.2</ele><time>2026-03-30T12:24:42.295Z</time></trkpt><trkpt lat="41.0585767" lon="14.3260633"><ele>53.6</ele><time>2026-03-30T12:24:43.293Z</time></trkpt><trkpt lat="41.0586967" lon="14.3260733"><ele>54.0</ele><time>2026-03-30T12:24:45.293Z</time></trkpt><trkpt lat="41.05876" lon="14.3260783"><ele>54.0</ele><time>2026-03-30T12:24:46.295Z</time></trkpt><trkpt lat="41.0588817" lon="14.3260867"><ele>54.00000000000001</ele><time>2026-03-30T12:24:48.293Z</time></trkpt><trkpt lat="41.058945" lon="14.32609"><ele>54.00000000000001</ele><time>2026-03-30T12:24:49.295Z</time></trkpt><trkpt lat="41.0590617" lon="14.3260983"><ele>54.0</ele><time>2026-03-30T12:24:51.293Z</time></trkpt><trkpt lat="41.05918" lon="14.3261017"><ele>54.0</ele><time>2026-03-30T12:24:53.295Z</time></trkpt><trkpt lat="41.0593017" lon="14.3261133"><ele>54.166666666666664</ele><time>2026-03-30T12:24:55.295Z</time></trkpt><trkpt lat="41.0594267" lon="14.326125"><ele>54.33333333333333</ele><time>2026-03-30T12:24:57.294Z</time></trkpt><trkpt lat="41.05949" lon="14.3261317"><ele>54.5</ele><time>2026-03-30T12:24:58.294Z</time></trkpt><trkpt lat="41.0595567" lon="14.32614"><ele>54.666666666666664</ele><time>2026-03-30T12:24:59.294Z</time></trkpt><trkpt lat="41.059625" lon="14.3261483"><ele>54.83333333333333</ele><time>2026-03-30T12:25:00.297Z</time></trkpt><trkpt lat="41.0596917" lon="14.32615"><ele>55.0</ele><time>2026-03-30T12:25:01.295Z</time></trkpt><trkpt lat="41.0597583" lon="14.32615"><ele>54.99999999999999</ele><time>2026-03-30T12:25:02.293Z</time></trkpt><trkpt lat="41.059825" lon="14.3261567"><ele>55.0</ele><time>2026-03-30T12:25:03.295Z</time></trkpt><trkpt lat="41.05989" lon="14.3261633"><ele>55.0</ele><time>2026-03-30T12:25:04.296Z</time></trkpt><trkpt lat="41.059955" lon="14.326165"><ele>55.0</ele><time>2026-03-30T12:25:05.293Z</time></trkpt><trkpt lat="41.0600183" lon="14.32617"><ele>55.0</ele><time>2026-03-30T12:25:06.294Z</time></trkpt><trkpt lat="41.0600817" lon="14.326175"><ele>54.99999999999999</ele><time>2026-03-30T12:25:07.295Z</time></trkpt><trkpt lat="41.060145" lon="14.32618"><ele>55.0</ele><time>2026-03-30T12:25:08.295Z</time></trkpt><trkpt lat="41.0602683" lon="14.32619"><ele>54.99999999999999</ele><time>2026-03-30T12:25:10.294Z</time></trkpt><trkpt lat="41.0603317" lon="14.326195"><ele>55.0</ele><time>2026-03-30T12:25:11.295Z</time></trkpt><trkpt lat="41.060395" lon="14.3262017"><ele>55.0</ele><time>2026-03-30T12:25:12.293Z</time></trkpt><trkpt lat="41.0605183" lon="14.3262117"><ele>55.0</ele><time>2026-03-30T12:25:14.294Z</time></trkpt><trkpt lat="41.0606417" lon="14.32622"><ele>54.99999999999999</ele><time>2026-03-30T12:25:16.295Z</time></trkpt><trkpt lat="41.060705" lon="14.3262217"><ele>55.0</ele><time>2026-03-30T12:25:17.295Z</time></trkpt><trkpt lat="41.0608283" lon="14.3262283"><ele>55.14285714285714</ele><time>2026-03-30T12:25:19.295Z</time></trkpt><trkpt lat="41.06095" lon="14.326235"><ele>55.285714285714285</ele><time>2026-03-30T12:25:21.292Z</time></trkpt><trkpt lat="41.0610133" lon="14.32624"><ele>55.42857142857143</ele><time>2026-03-30T12:25:22.294Z</time></trkpt><trkpt lat="41.0610767" lon="14.326245"><ele>55.57142857142857</ele><time>2026-03-30T12:25:23.296Z</time></trkpt><trkpt lat="41.06114" lon="14.32625"><ele>55.714285714285715</ele><time>2026-03-30T12:25:24.295Z</time></trkpt><trkpt lat="41.061205" lon="14.3262533"><ele>55.857142857142854</ele><time>2026-03-30T12:25:25.296Z</time></trkpt><trkpt lat="41.06127" lon="14.3262583"><ele>56.0</ele><time>2026-03-30T12:25:26.293Z</time></trkpt><trkpt lat="41.061395" lon="14.3262683"><ele>56.0</ele><time>2026-03-30T12:25:28.293Z</time></trkpt><trkpt lat="41.0614617" lon="14.3262717"><ele>56.0</ele><time>2026-03-30T12:25:29.294Z</time></trkpt><trkpt lat="41.061525" lon="14.3262783"><ele>56.0</ele><time>2026-03-30T12:25:30.297Z</time></trkpt><trkpt lat="41.0615883" lon="14.32629"><ele>56.0</ele><time>2026-03-30T12:25:31.294Z</time></trkpt><trkpt lat="41.0616533" lon="14.3262933"><ele>56.0</ele><time>2026-03-30T12:25:32.294Z</time></trkpt><trkpt lat="41.06172" lon="14.3262983"><ele>56.0</ele><time>2026-03-30T12:25:33.293Z</time></trkpt><trkpt lat="41.061785" lon="14.326305"><ele>56.0</ele><time>2026-03-30T12:25:34.295Z</time></trkpt><trkpt lat="41.0618483" lon="14.3263117"><ele>56.333333333333336</ele><time>2026-03-30T12:25:35.295Z</time></trkpt><trkpt lat="41.061915" lon="14.32632"><ele>56.66666666666667</ele><time>2026-03-30T12:25:36.293Z</time></trkpt><trkpt lat="41.06198" lon="14.3263267"><ele>57.0</ele><time>2026-03-30T12:25:37.295Z</time></trkpt><trkpt lat="41.062045" lon="14.3263317"><ele>57.33333333333333</ele><time>2026-03-30T12:25:38.295Z</time></trkpt><trkpt lat="41.06217" lon="14.3263367"><ele>57.666666666666664</ele><time>2026-03-30T12:25:40.295Z</time></trkpt><trkpt lat="41.062235" lon="14.32634"><ele>58.0</ele><time>2026-03-30T12:25:41.295Z</time></trkpt><trkpt lat="41.0622983" lon="14.3263433"><ele>58.00000000000001</ele><time>2026-03-30T12:25:42.295Z</time></trkpt><trkpt lat="41.0623617" lon="14.3263467"><ele>58.0</ele><time>2026-03-30T12:25:43.295Z</time></trkpt><trkpt lat="41.062425" lon="14.326355"><ele>58.00000000000001</ele><time>2026-03-30T12:25:44.295Z</time></trkpt><trkpt lat="41.06249" lon="14.3263617"><ele>58.00000000000001</ele><time>2026-03-30T12:25:45.295Z</time></trkpt><trkpt lat="41.0625533" lon="14.3263667"><ele>58.0</ele><time>2026-03-30T12:25:46.295Z</time></trkpt><trkpt lat="41.0626783" lon="14.326375"><ele>58.00000000000001</ele><time>2026-03-30T12:25:48.293Z</time></trkpt><trkpt lat="41.0627433" lon="14.32638"><ele>58.00000000000001</ele><time>2026-03-30T12:25:49.295Z</time></trkpt><trkpt lat="41.0628067" lon="14.3263867"><ele>58.166666666666664</ele><time>2026-03-30T12:25:50.295Z</time></trkpt><trkpt lat="41.06287" lon="14.326395"><ele>58.33333333333333</ele><time>2026-03-30T12:25:51.294Z</time></trkpt><trkpt lat="41.0629967" lon="14.32641"><ele>58.5</ele><time>2026-03-30T12:25:53.294Z</time></trkpt><trkpt lat="41.0630617" lon="14.326415"><ele>58.66666666666667</ele><time>2026-03-30T12:25:54.293Z</time></trkpt><trkpt lat="41.0631283" lon="14.3264233"><ele>58.833333333333336</ele><time>2026-03-30T12:25:55.294Z</time></trkpt><trkpt lat="41.0631933" lon="14.3264267"><ele>59.0</ele><time>2026-03-30T12:25:56.295Z</time></trkpt><trkpt lat="41.0632617" lon="14.3264317"><ele>59.66666666666667</ele><time>2026-03-30T12:25:57.295Z</time></trkpt><trkpt lat="41.06333" lon="14.3264383"><ele>60.333333333333336</ele><time>2026-03-30T12:25:58.294Z</time></trkpt><trkpt lat="41.0633983" lon="14.326445"><ele>61.0</ele><time>2026-03-30T12:25:59.294Z</time></trkpt><trkpt lat="41.0634667" lon="14.3264483"><ele>61.66666666666667</ele><time>2026-03-30T12:26:00.293Z</time></trkpt><trkpt lat="41.063535" lon="14.3264517"><ele>62.333333333333336</ele><time>2026-03-30T12:26:01.295Z</time></trkpt><trkpt lat="41.0636017" lon="14.3264533"><ele>63.0</ele><time>2026-03-30T12:26:02.295Z</time></trkpt><trkpt lat="41.0637267" lon="14.3264483"><ele>63.0</ele><time>2026-03-30T12:26:04.295Z</time></trkpt><trkpt lat="41.0638483" lon="14.3264567"><ele>63.0</ele><time>2026-03-30T12:26:06.295Z</time></trkpt><trkpt lat="41.0639717" lon="14.3264633"><ele>63.0</ele><time>2026-03-30T12:26:08.294Z</time></trkpt><trkpt lat="41.0640967" lon="14.326485"><ele>63.0</ele><time>2026-03-30T12:26:10.295Z</time></trkpt><trkpt lat="41.0642217" lon="14.3265033"><ele>62.333333333333336</ele><time>2026-03-30T12:26:12.294Z</time></trkpt><trkpt lat="41.0643467" lon="14.3265167"><ele>61.66666666666667</ele><time>2026-03-30T12:26:14.295Z</time></trkpt><trkpt lat="41.0644117" lon="14.3265217"><ele>61.0</ele><time>2026-03-30T12:26:15.293Z</time></trkpt><trkpt lat="41.064475" lon="14.32653"><ele>60.333333333333336</ele><time>2026-03-30T12:26:16.295Z</time></trkpt><trkpt lat="41.0645967" lon="14.3265433"><ele>59.66666666666667</ele><time>2026-03-30T12:26:18.294Z</time></trkpt><trkpt lat="41.06466" lon="14.3265467"><ele>59.0</ele><time>2026-03-30T12:26:19.293Z</time></trkpt><trkpt lat="41.064785" lon="14.3265533"><ele>59.0</ele><time>2026-03-30T12:26:21.293Z</time></trkpt><trkpt lat="41.0649067" lon="14.3265567"><ele>59.0</ele><time>2026-03-30T12:26:23.295Z</time></trkpt><trkpt lat="41.065025" lon="14.3265667"><ele>59.0</ele><time>2026-03-30T12:26:25.295Z</time></trkpt><trkpt lat="41.0651483" lon="14.326575"><ele>59.0</ele><time>2026-03-30T12:26:27.293Z</time></trkpt><trkpt lat="41.0652667" lon="14.3265867"><ele>58.800000000000004</ele><time>2026-03-30T12:26:29.295Z</time></trkpt><trkpt lat="41.0653817" lon="14.3266"><ele>58.60000000000001</ele><time>2026-03-30T12:26:31.295Z</time></trkpt><trkpt lat="41.0654917" lon="14.3266117"><ele>58.4</ele><time>2026-03-30T12:26:33.293Z</time></trkpt><trkpt lat="41.065595" lon="14.32662"><ele>58.2</ele><time>2026-03-30T12:26:35.295Z</time></trkpt><trkpt lat="41.0656967" lon="14.3266283"><ele>58.0</ele><time>2026-03-30T12:26:37.295Z</time></trkpt><trkpt lat="41.065795" lon="14.3266483"><ele>58.4</ele><time>2026-03-30T12:26:39.292Z</time></trkpt><trkpt lat="41.0658867" lon="14.3267083"><ele>58.8</ele><time>2026-03-30T12:26:41.293Z</time></trkpt><trkpt lat="41.0659633" lon="14.32679"><ele>59.2</ele><time>2026-03-30T12:26:43.295Z</time></trkpt><trkpt lat="41.0660317" lon="14.3268833"><ele>59.6</ele><time>2026-03-30T12:26:45.293Z</time></trkpt><trkpt lat="41.0660983" lon="14.32699"><ele>60.0</ele><time>2026-03-30T12:26:47.293Z</time></trkpt><trkpt lat="41.0661667" lon="14.327095"><ele>60.0</ele><time>2026-03-30T12:26:49.295Z</time></trkpt><trkpt lat="41.0662267" lon="14.3272033"><ele>60.0</ele><time>2026-03-30T12:26:51.296Z</time></trkpt><trkpt lat="41.0662767" lon="14.3273183"><ele>60.0</ele><time>2026-03-30T12:26:53.295Z</time></trkpt><trkpt lat="41.0663267" lon="14.3274333"><ele>60.0</ele><time>2026-03-30T12:26:55.295Z</time></trkpt><trkpt lat="41.0663767" lon="14.3275533"><ele>60.0</ele><time>2026-03-30T12:26:57.293Z</time></trkpt><trkpt lat="41.0664267" lon="14.3276717"><ele>60.0</ele><time>2026-03-30T12:26:59.294Z</time></trkpt><trkpt lat="41.06648" lon="14.32778"><ele>60.0</ele><time>2026-03-30T12:27:01.294Z</time></trkpt><trkpt lat="41.0665367" lon="14.327895"><ele>60.0</ele><time>2026-03-30T12:27:03.296Z</time></trkpt><trkpt lat="41.0665783" lon="14.3279867"><ele>60.0</ele><time>2026-03-30T12:27:05.292Z</time></trkpt><trkpt lat="41.06662" lon="14.3280883"><ele>60.0</ele><time>2026-03-30T12:27:07.292Z</time></trkpt><trkpt lat="41.0666533" lon="14.3281883"><ele>60.166666666666664</ele><time>2026-03-30T12:27:09.293Z</time></trkpt><trkpt lat="41.0666967" lon="14.3282833"><ele>60.33333333333333</ele><time>2026-03-30T12:27:11.292Z</time></trkpt><trkpt lat="41.0667467" lon="14.3283633"><ele>60.5</ele><time>2026-03-30T12:27:13.293Z</time></trkpt><trkpt lat="41.0667833" lon="14.3284417"><ele>60.666666666666664</ele><time>2026-03-30T12:27:15.292Z</time></trkpt><trkpt lat="41.0668133" lon="14.3285417"><ele>60.83333333333333</ele><time>2026-03-30T12:27:17.292Z</time></trkpt><trkpt lat="41.0668533" lon="14.32865"><ele>61.0</ele><time>2026-03-30T12:27:19.292Z</time></trkpt><trkpt lat="41.066885" lon="14.3287583"><ele>61.0</ele><time>2026-03-30T12:27:21.293Z</time></trkpt><trkpt lat="41.0669267" lon="14.3288533"><ele>60.99999999999999</ele><time>2026-03-30T12:27:23.292Z</time></trkpt><trkpt lat="41.0669783" lon="14.3289533"><ele>60.99999999999999</ele><time>2026-03-30T12:27:25.293Z</time></trkpt><trkpt lat="41.06703" lon="14.3290633"><ele>61.0</ele><time>2026-03-30T12:27:27.292Z</time></trkpt><trkpt lat="41.0670783" lon="14.3291817"><ele>61.0</ele><time>2026-03-30T12:27:29.292Z</time></trkpt><trkpt lat="41.0671317" lon="14.3293067"><ele>61.0</ele><time>2026-03-30T12:27:31.292Z</time></trkpt><trkpt lat="41.0671833" lon="14.3294467"><ele>61.0</ele><time>2026-03-30T12:27:33.292Z</time></trkpt><trkpt lat="41.0672317" lon="14.3295917"><ele>61.0</ele><time>2026-03-30T12:27:35.292Z</time></trkpt><trkpt lat="41.067275" lon="14.3297183"><ele>61.0</ele><time>2026-03-30T12:27:37.292Z</time></trkpt><trkpt lat="41.0673317" lon="14.3298517"><ele>61.75</ele><time>2026-03-30T12:27:39.292Z</time></trkpt><trkpt lat="41.067385" lon="14.329985"><ele>62.5</ele><time>2026-03-30T12:27:41.292Z</time></trkpt><trkpt lat="41.067445" lon="14.3301183"><ele>63.25</ele><time>2026-03-30T12:27:43.292Z</time></trkpt><trkpt lat="41.0675267" lon="14.3302333"><ele>64.0</ele><time>2026-03-30T12:27:45.292Z</time></trkpt><trkpt lat="41.0676217" lon="14.3303283"><ele>63.99999999999999</ele><time>2026-03-30T12:27:47.292Z</time></trkpt><trkpt lat="41.067725" lon="14.330405"><ele>64.0</ele><time>2026-03-30T12:27:49.292Z</time></trkpt><trkpt lat="41.067785" lon="14.3304367"><ele>64.0</ele><time>2026-03-30T12:27:50.292Z</time></trkpt><trkpt lat="41.0679067" lon="14.3304767"><ele>64.0</ele><time>2026-03-30T12:27:52.292Z</time></trkpt><trkpt lat="41.06797" lon="14.3304833"><ele>63.99999999999999</ele><time>2026-03-30T12:27:53.292Z</time></trkpt><trkpt lat="41.06804" lon="14.33049"><ele>64.0</ele><time>2026-03-30T12:27:54.292Z</time></trkpt><trkpt lat="41.0681083" lon="14.33049"><ele>64.0</ele><time>2026-03-30T12:27:55.295Z</time></trkpt><trkpt lat="41.068175" lon="14.33049"><ele>63.99999999999999</ele><time>2026-03-30T12:27:56.292Z</time></trkpt><trkpt lat="41.0682383" lon="14.33049"><ele>64.0</ele><time>2026-03-30T12:27:57.292Z</time></trkpt><trkpt lat="41.068305" lon="14.33049"><ele>64.0</ele><time>2026-03-30T12:27:58.292Z</time></trkpt><trkpt lat="41.0683683" lon="14.3304917"><ele>63.99999999999999</ele><time>2026-03-30T12:27:59.292Z</time></trkpt><trkpt lat="41.0684333" lon="14.330495"><ele>64.0</ele><time>2026-03-30T12:28:00.292Z</time></trkpt><trkpt lat="41.0685" lon="14.330495"><ele>64.0</ele><time>2026-03-30T12:28:01.292Z</time></trkpt><trkpt lat="41.068565" lon="14.3305"><ele>64.28571428571428</ele><time>2026-03-30T12:28:02.292Z</time></trkpt><trkpt lat="41.0686283" lon="14.3305067"><ele>64.57142857142857</ele><time>2026-03-30T12:28:03.292Z</time></trkpt><trkpt lat="41.0686967" lon="14.3305167"><ele>64.85714285714286</ele><time>2026-03-30T12:28:04.292Z</time></trkpt><trkpt lat="41.068765" lon="14.3305267"><ele>65.14285714285714</ele><time>2026-03-30T12:28:05.293Z</time></trkpt><trkpt lat="41.068835" lon="14.3305317"><ele>65.42857142857143</ele><time>2026-03-30T12:28:06.292Z</time></trkpt><trkpt lat="41.0689017" lon="14.330535"><ele>65.71428571428571</ele><time>2026-03-30T12:28:07.292Z</time></trkpt><trkpt lat="41.0689683" lon="14.33054"><ele>66.0</ele><time>2026-03-30T12:28:08.292Z</time></trkpt><trkpt lat="41.0690383" lon="14.3305383"><ele>66.0</ele><time>2026-03-30T12:28:09.293Z</time></trkpt><trkpt lat="41.069105" lon="14.3305433"><ele>66.0</ele><time>2026-03-30T12:28:10.292Z</time></trkpt><trkpt lat="41.06917" lon="14.3305483"><ele>66.0</ele><time>2026-03-30T12:28:11.292Z</time></trkpt><trkpt lat="41.0692367" lon="14.3305517"><ele>66.0</ele><time>2026-03-30T12:28:12.292Z</time></trkpt><trkpt lat="41.0693017" lon="14.33055"><ele>66.0</ele><time>2026-03-30T12:28:13.292Z</time></trkpt><trkpt lat="41.069375" lon="14.3305517"><ele>66.0</ele><time>2026-03-30T12:28:14.292Z</time></trkpt><trkpt lat="41.0694483" lon="14.3305583"><ele>66.0</ele><time>2026-03-30T12:28:15.292Z</time></trkpt><trkpt lat="41.069525" lon="14.330565"><ele>66.33333333333333</ele><time>2026-03-30T12:28:16.292Z</time></trkpt><trkpt lat="41.0696017" lon="14.33057"><ele>66.66666666666667</ele><time>2026-03-30T12:28:17.292Z</time></trkpt><trkpt lat="41.0696817" lon="14.330575"><ele>67.0</ele><time>2026-03-30T12:28:18.292Z</time></trkpt><trkpt lat="41.0697617" lon="14.3305917"><ele>67.33333333333334</ele><time>2026-03-30T12:28:19.292Z</time></trkpt><trkpt lat="41.0698383" lon="14.3306233"><ele>67.66666666666667</ele><time>2026-03-30T12:28:20.292Z</time></trkpt><trkpt lat="41.0699017" lon="14.3306683"><ele>68.0</ele><time>2026-03-30T12:28:21.292Z</time></trkpt><trkpt lat="41.0699917" lon="14.3307767"><ele>68.0</ele><time>2026-03-30T12:28:23.292Z</time></trkpt><trkpt lat="41.07006" lon="14.3309083"><ele>68.0</ele><time>2026-03-30T12:28:25.292Z</time></trkpt><trkpt lat="41.0700917" lon="14.33099"><ele>68.0</ele><time>2026-03-30T12:28:26.292Z</time></trkpt><trkpt lat="41.0701167" lon="14.331075"><ele>68.0</ele><time>2026-03-30T12:28:27.292Z</time></trkpt><trkpt lat="41.0701317" lon="14.331165"><ele>68.0</ele><time>2026-03-30T12:28:28.292Z</time></trkpt><trkpt lat="41.0701367" lon="14.3312567"><ele>68.0</ele><time>2026-03-30T12:28:29.294Z</time></trkpt><trkpt lat="41.0701367" lon="14.3313467"><ele>68.42857142857142</ele><time>2026-03-30T12:28:30.292Z</time></trkpt><trkpt lat="41.0701383" lon="14.33144"><ele>68.85714285714286</ele><time>2026-03-30T12:28:31.293Z</time></trkpt><trkpt lat="41.070135" lon="14.3315333"><ele>69.28571428571428</ele><time>2026-03-30T12:28:32.292Z</time></trkpt><trkpt lat="41.0701317" lon="14.33163"><ele>69.71428571428571</ele><time>2026-03-30T12:28:33.292Z</time></trkpt><trkpt lat="41.0701267" lon="14.3317283"><ele>70.14285714285714</ele><time>2026-03-30T12:28:34.293Z</time></trkpt><trkpt lat="41.070125" lon="14.3318233"><ele>70.57142857142857</ele><time>2026-03-30T12:28:35.292Z</time></trkpt><trkpt lat="41.0701267" lon="14.331925"><ele>71.0</ele><time>2026-03-30T12:28:36.292Z</time></trkpt><trkpt lat="41.0701283" lon="14.332025"><ele>71.0</ele><time>2026-03-30T12:28:37.292Z</time></trkpt><trkpt lat="41.0701267" lon="14.33213"><ele>71.0</ele><time>2026-03-30T12:28:38.292Z</time></trkpt><trkpt lat="41.0701133" lon="14.3322367"><ele>71.0</ele><time>2026-03-30T12:28:39.292Z</time></trkpt><trkpt lat="41.0701083" lon="14.3323417"><ele>71.0</ele><time>2026-03-30T12:28:40.293Z</time></trkpt><trkpt lat="41.0701033" lon="14.3324467"><ele>71.0</ele><time>2026-03-30T12:28:41.292Z</time></trkpt><trkpt lat="41.0701033" lon="14.3325533"><ele>71.0</ele><time>2026-03-30T12:28:42.292Z</time></trkpt><trkpt lat="41.0701067" lon="14.3326583"><ele>71.0</ele><time>2026-03-30T12:28:43.292Z</time></trkpt><trkpt lat="41.070105" lon="14.3327617"><ele>71.0</ele><time>2026-03-30T12:28:44.292Z</time></trkpt><trkpt lat="41.0701017" lon="14.332865"><ele>71.0</ele><time>2026-03-30T12:28:45.292Z</time></trkpt><trkpt lat="41.0700933" lon="14.3329667"><ele>71.0</ele><time>2026-03-30T12:28:46.292Z</time></trkpt><trkpt lat="41.0700867" lon="14.3330633"><ele>71.0</ele><time>2026-03-30T12:28:47.292Z</time></trkpt><trkpt lat="41.0700767" lon="14.3331583"><ele>71.0</ele><time>2026-03-30T12:28:48.292Z</time></trkpt><trkpt lat="41.0700683" lon="14.33325"><ele>71.0</ele><time>2026-03-30T12:28:49.292Z</time></trkpt><trkpt lat="41.0700617" lon="14.33334"><ele>70.71428571428571</ele><time>2026-03-30T12:28:50.292Z</time></trkpt><trkpt lat="41.0700517" lon="14.3334317"><ele>70.42857142857142</ele><time>2026-03-30T12:28:51.293Z</time></trkpt><trkpt lat="41.0700417" lon="14.3335283"><ele>70.14285714285714</ele><time>2026-03-30T12:28:52.292Z</time></trkpt><trkpt lat="41.07004" lon="14.3336267"><ele>69.85714285714286</ele><time>2026-03-30T12:28:53.292Z</time></trkpt><trkpt lat="41.07003" lon="14.3337283"><ele>69.57142857142858</ele><time>2026-03-30T12:28:54.292Z</time></trkpt><trkpt lat="41.0700217" lon="14.3338317"><ele>69.28571428571429</ele><time>2026-03-30T12:28:55.292Z</time></trkpt><trkpt lat="41.0700133" lon="14.33393"><ele>69.0</ele><time>2026-03-30T12:28:56.292Z</time></trkpt><trkpt lat="41.0700083" lon="14.334025"><ele>69.0</ele><time>2026-03-30T12:28:57.292Z</time></trkpt><trkpt lat="41.069995" lon="14.3341133"><ele>69.0</ele><time>2026-03-30T12:28:58.292Z</time></trkpt><trkpt lat="41.0699817" lon="14.3342017"><ele>69.0</ele><time>2026-03-30T12:28:59.292Z</time></trkpt><trkpt lat="41.0699717" lon="14.3342933"><ele>69.0</ele><time>2026-03-30T12:29:00.293Z</time></trkpt><trkpt lat="41.0699633" lon="14.3343867"><ele>69.0</ele><time>2026-03-30T12:29:01.292Z</time></trkpt><trkpt lat="41.0699567" lon="14.33448"><ele>69.0</ele><time>2026-03-30T12:29:02.292Z</time></trkpt><trkpt lat="41.0699433" lon="14.334575"><ele>69.0</ele><time>2026-03-30T12:29:03.292Z</time></trkpt><trkpt lat="41.0699317" lon="14.3346683"><ele>69.28571428571429</ele><time>2026-03-30T12:29:04.292Z</time></trkpt><trkpt lat="41.0699167" lon="14.334765"><ele>69.57142857142858</ele><time>2026-03-30T12:29:05.292Z</time></trkpt><trkpt lat="41.06991" lon="14.3348617"><ele>69.85714285714286</ele><time>2026-03-30T12:29:06.292Z</time></trkpt><trkpt lat="41.0699" lon="14.334955"><ele>70.14285714285714</ele><time>2026-03-30T12:29:07.292Z</time></trkpt><trkpt lat="41.0699" lon="14.3350483"><ele>70.42857142857142</ele><time>2026-03-30T12:29:08.292Z</time></trkpt><trkpt lat="41.0698967" lon="14.3351433"><ele>70.71428571428571</ele><time>2026-03-30T12:29:09.292Z</time></trkpt><trkpt lat="41.0698917" lon="14.335245"><ele>71.0</ele><time>2026-03-30T12:29:10.292Z</time></trkpt><trkpt lat="41.0698733" lon="14.3353533"><ele>71.0</ele><time>2026-03-30T12:29:11.292Z</time></trkpt><trkpt lat="41.0698517" lon="14.3354483"><ele>71.0</ele><time>2026-03-30T12:29:12.292Z</time></trkpt><trkpt lat="41.0698417" lon="14.3355417"><ele>71.0</ele><time>2026-03-30T12:29:13.292Z</time></trkpt><trkpt lat="41.06983" lon="14.33563"><ele>71.0</ele><time>2026-03-30T12:29:14.292Z</time></trkpt><trkpt lat="41.069825" lon="14.3357183"><ele>71.0</ele><time>2026-03-30T12:29:15.292Z</time></trkpt><trkpt lat="41.0698217" lon="14.3358033"><ele>71.0</ele><time>2026-03-30T12:29:16.293Z</time></trkpt><trkpt lat="41.069825" lon="14.3359633"><ele>71.2</ele><time>2026-03-30T12:29:18.292Z</time></trkpt><trkpt lat="41.06981" lon="14.336125"><ele>71.39999999999999</ele><time>2026-03-30T12:29:20.292Z</time></trkpt><trkpt lat="41.069825" lon="14.3362883"><ele>71.6</ele><time>2026-03-30T12:29:22.292Z</time></trkpt><trkpt lat="41.0698283" lon="14.33645"><ele>71.8</ele><time>2026-03-30T12:29:24.292Z</time></trkpt><trkpt lat="41.06982" lon="14.336535"><ele>72.0</ele><time>2026-03-30T12:29:25.292Z</time></trkpt><trkpt lat="41.0698217" lon="14.3366233"><ele>72.00000000000001</ele><time>2026-03-30T12:29:26.293Z</time></trkpt><trkpt lat="41.069825" lon="14.33671"><ele>72.0</ele><time>2026-03-30T12:29:27.292Z</time></trkpt><trkpt lat="41.0698283" lon="14.3368017"><ele>72.0</ele><time>2026-03-30T12:29:28.292Z</time></trkpt><trkpt lat="41.069825" lon="14.3368917"><ele>72.0</ele><time>2026-03-30T12:29:29.292Z</time></trkpt><trkpt lat="41.0698183" lon="14.3369833"><ele>72.0</ele><time>2026-03-30T12:29:30.292Z</time></trkpt><trkpt lat="41.0698117" lon="14.337075"><ele>72.00000000000001</ele><time>2026-03-30T12:29:31.293Z</time></trkpt><trkpt lat="41.0698033" lon="14.3371617"><ele>72.0</ele><time>2026-03-30T12:29:32.292Z</time></trkpt><trkpt lat="41.0697933" lon="14.3372483"><ele>72.00000000000001</ele><time>2026-03-30T12:29:33.292Z</time></trkpt><trkpt lat="41.0697867" lon="14.3373367"><ele>72.0</ele><time>2026-03-30T12:29:34.292Z</time></trkpt><trkpt lat="41.06978" lon="14.33743"><ele>72.0</ele><time>2026-03-30T12:29:35.293Z</time></trkpt><trkpt lat="41.0697817" lon="14.3375267"><ele>72.0</ele><time>2026-03-30T12:29:36.292Z</time></trkpt><trkpt lat="41.06978" lon="14.3376217"><ele>72.0</ele><time>2026-03-30T12:29:37.292Z</time></trkpt><trkpt lat="41.06977" lon="14.3377167"><ele>72.00000000000001</ele><time>2026-03-30T12:29:38.292Z</time></trkpt><trkpt lat="41.0697617" lon="14.3378067"><ele>72.0</ele><time>2026-03-30T12:29:39.292Z</time></trkpt><trkpt lat="41.06976" lon="14.3379"><ele>72.00000000000001</ele><time>2026-03-30T12:29:40.292Z</time></trkpt><trkpt lat="41.0697517" lon="14.3379933"><ele>72.0</ele><time>2026-03-30T12:29:41.293Z</time></trkpt><trkpt lat="41.0697483" lon="14.3380917"><ele>72.0</ele><time>2026-03-30T12:29:42.292Z</time></trkpt><trkpt lat="41.06975" lon="14.3381867"><ele>72.0</ele><time>2026-03-30T12:29:43.292Z</time></trkpt><trkpt lat="41.069745" lon="14.33828"><ele>72.0</ele><time>2026-03-30T12:29:44.292Z</time></trkpt><trkpt lat="41.0697433" lon="14.3383667"><ele>72.00000000000001</ele><time>2026-03-30T12:29:45.292Z</time></trkpt><trkpt lat="41.06975" lon="14.3384567"><ele>72.0</ele><time>2026-03-30T12:29:46.292Z</time></trkpt><trkpt lat="41.06976" lon="14.3385417"><ele>71.71428571428572</ele><time>2026-03-30T12:29:47.293Z</time></trkpt><trkpt lat="41.0697683" lon="14.338635"><ele>71.42857142857143</ele><time>2026-03-30T12:29:48.293Z</time></trkpt><trkpt lat="41.069765" lon="14.3387233"><ele>71.14285714285714</ele><time>2026-03-30T12:29:49.292Z</time></trkpt><trkpt lat="41.0697583" lon="14.33881"><ele>70.85714285714286</ele><time>2026-03-30T12:29:50.292Z</time></trkpt><trkpt lat="41.0697583" lon="14.3388967"><ele>70.57142857142857</ele><time>2026-03-30T12:29:51.292Z</time></trkpt><trkpt lat="41.0697633" lon="14.338985"><ele>70.28571428571429</ele><time>2026-03-30T12:29:52.292Z</time></trkpt><trkpt lat="41.06977" lon="14.339075"><ele>70.0</ele><time>2026-03-30T12:29:53.292Z</time></trkpt><trkpt lat="41.06977" lon="14.3391667"><ele>70.0</ele><time>2026-03-30T12:29:54.292Z</time></trkpt><trkpt lat="41.069765" lon="14.33926"><ele>70.0</ele><time>2026-03-30T12:29:55.292Z</time></trkpt><trkpt lat="41.0697617" lon="14.3393483"><ele>70.0</ele><time>2026-03-30T12:29:56.292Z</time></trkpt><trkpt lat="41.0697567" lon="14.3394317"><ele>70.0</ele><time>2026-03-30T12:29:57.292Z</time></trkpt><trkpt lat="41.0697467" lon="14.33959"><ele>70.0</ele><time>2026-03-30T12:29:59.292Z</time></trkpt><trkpt lat="41.0697333" lon="14.3397367"><ele>70.0</ele><time>2026-03-30T12:30:01.292Z</time></trkpt><trkpt lat="41.069715" lon="14.3398833"><ele>70.33333333333333</ele><time>2026-03-30T12:30:03.295Z</time></trkpt><trkpt lat="41.0697033" lon="14.34003"><ele>70.66666666666666</ele><time>2026-03-30T12:30:05.293Z</time></trkpt><trkpt lat="41.0697" lon="14.34016"><ele>71.0</ele><time>2026-03-30T12:30:07.292Z</time></trkpt><trkpt lat="41.0696983" lon="14.340275"><ele>71.33333333333333</ele><time>2026-03-30T12:30:09.292Z</time></trkpt><trkpt lat="41.0697017" lon="14.3403817"><ele>71.66666666666667</ele><time>2026-03-30T12:30:11.292Z</time></trkpt><trkpt lat="41.0697133" lon="14.340475"><ele>72.0</ele><time>2026-03-30T12:30:13.292Z</time></trkpt><trkpt lat="41.0697167" lon="14.3405817"><ele>72.0</ele><time>2026-03-30T12:30:15.292Z</time></trkpt><trkpt lat="41.0697133" lon="14.34071"><ele>72.0</ele><time>2026-03-30T12:30:17.292Z</time></trkpt><trkpt lat="41.0697033" lon="14.34085"><ele>72.0</ele><time>2026-03-30T12:30:19.292Z</time></trkpt><trkpt lat="41.069685" lon="14.34099"><ele>72.0</ele><time>2026-03-30T12:30:21.293Z</time></trkpt><trkpt lat="41.0696817" lon="14.3411233"><ele>72.0</ele><time>2026-03-30T12:30:23.292Z</time></trkpt><trkpt lat="41.0696733" lon="14.3412333"><ele>72.0</ele><time>2026-03-30T12:30:25.292Z</time></trkpt><trkpt lat="41.06969" lon="14.3413167"><ele>72.0</ele><time>2026-03-30T12:30:27.292Z</time></trkpt><trkpt lat="41.0697733" lon="14.34137"><ele>72.0</ele><time>2026-03-30T12:30:30.292Z</time></trkpt><trkpt lat="41.069865" lon="14.34139"><ele>72.0</ele><time>2026-03-30T12:30:32.292Z</time></trkpt><trkpt lat="41.0699583" lon="14.3414033"><ele>72.0</ele><time>2026-03-30T12:30:34.294Z</time></trkpt><trkpt lat="41.07005" lon="14.3414033"><ele>72.0</ele><time>2026-03-30T12:30:36.294Z</time></trkpt><trkpt lat="41.07015" lon="14.341395"><ele>71.4</ele><time>2026-03-30T12:30:38.294Z</time></trkpt><trkpt lat="41.0702567" lon="14.3413967"><ele>70.80000000000001</ele><time>2026-03-30T12:30:40.292Z</time></trkpt><trkpt lat="41.0703683" lon="14.34141"><ele>70.2</ele><time>2026-03-30T12:30:42.292Z</time></trkpt><trkpt lat="41.0704817" lon="14.34142"><ele>69.60000000000001</ele><time>2026-03-30T12:30:44.292Z</time></trkpt><trkpt lat="41.070595" lon="14.3414083"><ele>69.0</ele><time>2026-03-30T12:30:46.293Z</time></trkpt><trkpt lat="41.0707017" lon="14.34142"><ele>69.2</ele><time>2026-03-30T12:30:48.291Z</time></trkpt><trkpt lat="41.07081" lon="14.3414233"><ele>69.4</ele><time>2026-03-30T12:30:50.292Z</time></trkpt><trkpt lat="41.070915" lon="14.3414333"><ele>69.6</ele><time>2026-03-30T12:30:52.291Z</time></trkpt><trkpt lat="41.0710167" lon="14.341445"><ele>69.8</ele><time>2026-03-30T12:30:54.292Z</time></trkpt><trkpt lat="41.0710933" lon="14.3414467"><ele>70.0</ele><time>2026-03-30T12:30:56.291Z</time></trkpt><trkpt lat="41.071165" lon="14.3414533"><ele>70.0</ele><time>2026-03-30T12:30:58.291Z</time></trkpt><trkpt lat="41.0712367" lon="14.341455"><ele>70.0</ele><time>2026-03-30T12:31:00.291Z</time></trkpt><trkpt lat="41.0713167" lon="14.341445"><ele>70.0</ele><time>2026-03-30T12:31:02.292Z</time></trkpt><trkpt lat="41.0714033" lon="14.3414433"><ele>70.0</ele><time>2026-03-30T12:31:04.291Z</time></trkpt><trkpt lat="41.0714967" lon="14.3414467"><ele>70.0</ele><time>2026-03-30T12:31:06.291Z</time></trkpt><trkpt lat="41.071585" lon="14.3414433"><ele>70.0</ele><time>2026-03-30T12:31:08.291Z</time></trkpt><trkpt lat="41.071675" lon="14.3414433"><ele>70.2</ele><time>2026-03-30T12:31:10.292Z</time></trkpt><trkpt lat="41.0717717" lon="14.3414467"><ele>70.4</ele><time>2026-03-30T12:31:12.292Z</time></trkpt><trkpt lat="41.07188" lon="14.34145"><ele>70.6</ele><time>2026-03-30T12:31:14.291Z</time></trkpt><trkpt lat="41.0719833" lon="14.34146"><ele>70.8</ele><time>2026-03-30T12:31:16.291Z</time></trkpt><trkpt lat="41.072095" lon="14.3414667"><ele>71.0</ele><time>2026-03-30T12:31:18.292Z</time></trkpt><trkpt lat="41.07221" lon="14.3414683"><ele>71.0</ele><time>2026-03-30T12:31:20.292Z</time></trkpt><trkpt lat="41.07232" lon="14.341475"><ele>71.0</ele><time>2026-03-30T12:31:22.291Z</time></trkpt><trkpt lat="41.072425" lon="14.3414833"><ele>71.0</ele><time>2026-03-30T12:31:24.292Z</time></trkpt><trkpt lat="41.072525" lon="14.34149"><ele>71.0</ele><time>2026-03-30T12:31:26.292Z</time></trkpt><trkpt lat="41.0726367" lon="14.34149"><ele>71.0</ele><time>2026-03-30T12:31:28.291Z</time></trkpt><trkpt lat="41.072745" lon="14.3414933"><ele>71.2</ele><time>2026-03-30T12:31:30.292Z</time></trkpt><trkpt lat="41.07285" lon="14.3415083"><ele>71.39999999999999</ele><time>2026-03-30T12:31:32.291Z</time></trkpt><trkpt lat="41.072955" lon="14.3415367"><ele>71.6</ele><time>2026-03-30T12:31:34.293Z</time></trkpt><trkpt lat="41.07305" lon="14.3415917"><ele>71.8</ele><time>2026-03-30T12:31:36.292Z</time></trkpt><trkpt lat="41.0731367" lon="14.3416767"><ele>72.0</ele><time>2026-03-30T12:31:38.291Z</time></trkpt><trkpt lat="41.073205" lon="14.3417483"><ele>72.0</ele><time>2026-03-30T12:31:40.291Z</time></trkpt><trkpt lat="41.0732567" lon="14.3418417"><ele>72.0</ele><time>2026-03-30T12:31:42.292Z</time></trkpt><trkpt lat="41.073305" lon="14.34196"><ele>72.0</ele><time>2026-03-30T12:31:44.292Z</time></trkpt><trkpt lat="41.0733383" lon="14.3420917"><ele>72.0</ele><time>2026-03-30T12:31:46.291Z</time></trkpt><trkpt lat="41.0733467" lon="14.342235"><ele>72.0</ele><time>2026-03-30T12:31:48.3Z</time></trkpt><trkpt lat="41.0733467" lon="14.3423217"><ele>72.0</ele><time>2026-03-30T12:31:49.292Z</time></trkpt><trkpt lat="41.07335" lon="14.3424683"><ele>72.0</ele><time>2026-03-30T12:31:51.292Z</time></trkpt><trkpt lat="41.07334" lon="14.3425983"><ele>72.0</ele><time>2026-03-30T12:31:53.291Z</time></trkpt><trkpt lat="41.0733233" lon="14.3427167"><ele>72.0</ele><time>2026-03-30T12:31:55.297Z</time></trkpt><trkpt lat="41.07333" lon="14.34283"><ele>72.0</ele><time>2026-03-30T12:31:57.292Z</time></trkpt><trkpt lat="41.07333" lon="14.34295"><ele>72.2</ele><time>2026-03-30T12:31:59.292Z</time></trkpt><trkpt lat="41.0733283" lon="14.34306"><ele>72.4</ele><time>2026-03-30T12:32:01.292Z</time></trkpt><trkpt lat="41.0733483" lon="14.3431933"><ele>72.6</ele><time>2026-03-30T12:32:03.292Z</time></trkpt><trkpt lat="41.07335" lon="14.3433383"><ele>72.8</ele><time>2026-03-30T12:32:05.292Z</time></trkpt><trkpt lat="41.07335" lon="14.3434783"><ele>73.0</ele><time>2026-03-30T12:32:07.294Z</time></trkpt><trkpt lat="41.0733517" lon="14.3436183"><ele>73.0</ele><time>2026-03-30T12:32:09.292Z</time></trkpt><trkpt lat="41.07336" lon="14.34376"><ele>73.0</ele><time>2026-03-30T12:32:11.292Z</time></trkpt><trkpt lat="41.07338" lon="14.34389"><ele>73.0</ele><time>2026-03-30T12:32:13.292Z</time></trkpt><trkpt lat="41.0733833" lon="14.3440133"><ele>73.0</ele><time>2026-03-30T12:32:15.293Z</time></trkpt><trkpt lat="41.073385" lon="14.3441383"><ele>73.0</ele><time>2026-03-30T12:32:17.292Z</time></trkpt><trkpt lat="41.07338" lon="14.344275"><ele>73.0</ele><time>2026-03-30T12:32:19.292Z</time></trkpt><trkpt lat="41.0733867" lon="14.3444217"><ele>73.0</ele><time>2026-03-30T12:32:21.293Z</time></trkpt><trkpt lat="41.0733917" lon="14.344535"><ele>73.0</ele><time>2026-03-30T12:32:23.292Z</time></trkpt><trkpt lat="41.0733883" lon="14.3446633"><ele>73.0</ele><time>2026-03-30T12:32:25.293Z</time></trkpt><trkpt lat="41.0733933" lon="14.3447867"><ele>73.0</ele><time>2026-03-30T12:32:27.292Z</time></trkpt><trkpt lat="41.0734183" lon="14.3449117"><ele>73.0</ele><time>2026-03-30T12:32:29.292Z</time></trkpt><trkpt lat="41.0734333" lon="14.34504"><ele>73.0</ele><time>2026-03-30T12:32:31.293Z</time></trkpt><trkpt lat="41.0734183" lon="14.345165"><ele>73.0</ele><time>2026-03-30T12:32:33.292Z</time></trkpt><trkpt lat="41.07342" lon="14.3452933"><ele>73.0</ele><time>2026-03-30T12:32:35.293Z</time></trkpt><trkpt lat="41.0734167" lon="14.3454267"><ele>73.0</ele><time>2026-03-30T12:32:37.292Z</time></trkpt><trkpt lat="41.0734183" lon="14.3455617"><ele>73.25</ele><time>2026-03-30T12:32:39.292Z</time></trkpt><trkpt lat="41.073405" lon="14.3457083"><ele>73.5</ele><time>2026-03-30T12:32:41.292Z</time></trkpt><trkpt lat="41.0734017" lon="14.3458533"><ele>73.75</ele><time>2026-03-30T12:32:43.293Z</time></trkpt><trkpt lat="41.0734017" lon="14.346005"><ele>74.0</ele><time>2026-03-30T12:32:45.293Z</time></trkpt><trkpt lat="41.07338" lon="14.34616"><ele>74.0</ele><time>2026-03-30T12:32:47.293Z</time></trkpt><trkpt lat="41.0733933" lon="14.3463033"><ele>74.0</ele><time>2026-03-30T12:32:49.293Z</time></trkpt><trkpt lat="41.0734233" lon="14.3464233"><ele>74.0</ele><time>2026-03-30T12:32:51.293Z</time></trkpt><trkpt lat="41.0734317" lon="14.3465467"><ele>74.0</ele><time>2026-03-30T12:32:53.293Z</time></trkpt><trkpt lat="41.073415" lon="14.3466833"><ele>74.0</ele><time>2026-03-30T12:32:55.293Z</time></trkpt><trkpt lat="41.07339" lon="14.346825"><ele>74.0</ele><time>2026-03-30T12:32:57.293Z</time></trkpt><trkpt lat="41.073375" lon="14.3469867"><ele>74.0</ele><time>2026-03-30T12:32:59.293Z</time></trkpt><trkpt lat="41.07336" lon="14.3471233"><ele>74.0</ele><time>2026-03-30T12:33:01.293Z</time></trkpt><trkpt lat="41.0733667" lon="14.3472633"><ele>74.0</ele><time>2026-03-30T12:33:03.293Z</time></trkpt><trkpt lat="41.0733867" lon="14.34738"><ele>74.0</ele><time>2026-03-30T12:33:05.293Z</time></trkpt><trkpt lat="41.0734033" lon="14.347495"><ele>74.0</ele><time>2026-03-30T12:33:07.294Z</time></trkpt><trkpt lat="41.0734183" lon="14.3476333"><ele>74.0</ele><time>2026-03-30T12:33:09.293Z</time></trkpt><trkpt lat="41.073425" lon="14.3477833"><ele>74.0</ele><time>2026-03-30T12:33:11.292Z</time></trkpt><trkpt lat="41.0734467" lon="14.3479283"><ele>74.0</ele><time>2026-03-30T12:33:13.294Z</time></trkpt><trkpt lat="41.07345" lon="14.34808"><ele>74.0</ele><time>2026-03-30T12:33:15.293Z</time></trkpt><trkpt lat="41.0734583" lon="14.34822"><ele>74.0</ele><time>2026-03-30T12:33:17.294Z</time></trkpt><trkpt lat="41.0734517" lon="14.3483617"><ele>74.0</ele><time>2026-03-30T12:33:19.292Z</time></trkpt><trkpt lat="41.0734517" lon="14.3485283"><ele>74.0</ele><time>2026-03-30T12:33:21.292Z</time></trkpt><trkpt lat="41.07346" lon="14.3486217"><ele>74.0</ele><time>2026-03-30T12:33:22.292Z</time></trkpt><trkpt lat="41.07346" lon="14.34877"><ele>74.0</ele><time>2026-03-30T12:33:24.292Z</time></trkpt><trkpt lat="41.0734483" lon="14.3489217"><ele>74.75</ele><time>2026-03-30T12:33:26.292Z</time></trkpt><trkpt lat="41.0734433" lon="14.34907"><ele>75.5</ele><time>2026-03-30T12:33:28.292Z</time></trkpt><trkpt lat="41.07345" lon="14.3492183"><ele>76.25</ele><time>2026-03-30T12:33:30.291Z</time></trkpt><trkpt lat="41.0734417" lon="14.3493767"><ele>77.0</ele><time>2026-03-30T12:33:32.292Z</time></trkpt><trkpt lat="41.0734333" lon="14.349545"><ele>77.0</ele><time>2026-03-30T12:33:34.292Z</time></trkpt><trkpt lat="41.0734317" lon="14.3497033"><ele>77.0</ele><time>2026-03-30T12:33:36.292Z</time></trkpt><trkpt lat="41.0734433" lon="14.3498583"><ele>77.0</ele><time>2026-03-30T12:33:38.291Z</time></trkpt><trkpt lat="41.073445" lon="14.35001"><ele>77.0</ele><time>2026-03-30T12:33:40.292Z</time></trkpt><trkpt lat="41.0734483" lon="14.3501683"><ele>77.4</ele><time>2026-03-30T12:33:42.292Z</time></trkpt><trkpt lat="41.07345" lon="14.3503283"><ele>77.80000000000001</ele><time>2026-03-30T12:33:44.291Z</time></trkpt><trkpt lat="41.0734533" lon="14.3504833"><ele>78.2</ele><time>2026-03-30T12:33:46.292Z</time></trkpt><trkpt lat="41.0734483" lon="14.3505683"><ele>78.60000000000001</ele><time>2026-03-30T12:33:47.292Z</time></trkpt><trkpt lat="41.07345" lon="14.350735"><ele>79.0</ele><time>2026-03-30T12:33:49.292Z</time></trkpt><trkpt lat="41.0734383" lon="14.3508983"><ele>79.0</ele><time>2026-03-30T12:33:51.291Z</time></trkpt><trkpt lat="41.073435" lon="14.3509833"><ele>79.0</ele><time>2026-03-30T12:33:52.292Z</time></trkpt><trkpt lat="41.0734367" lon="14.3510683"><ele>79.0</ele><time>2026-03-30T12:33:53.292Z</time></trkpt><trkpt lat="41.0734333" lon="14.351235"><ele>79.0</ele><time>2026-03-30T12:33:55.292Z</time></trkpt><trkpt lat="41.0734267" lon="14.3513983"><ele>79.0</ele><time>2026-03-30T12:33:57.291Z</time></trkpt><trkpt lat="41.0734267" lon="14.3514833"><ele>79.0</ele><time>2026-03-30T12:33:58.292Z</time></trkpt><trkpt lat="41.0734317" lon="14.3515683"><ele>79.0</ele><time>2026-03-30T12:33:59.292Z</time></trkpt><trkpt lat="41.0734333" lon="14.3516533"><ele>79.0</ele><time>2026-03-30T12:34:00.291Z</time></trkpt><trkpt lat="41.0734283" lon="14.3518183"><ele>79.0</ele><time>2026-03-30T12:34:02.292Z</time></trkpt><trkpt lat="41.0734317" lon="14.3519833"><ele>79.0</ele><time>2026-03-30T12:34:04.292Z</time></trkpt><trkpt lat="41.07343" lon="14.35215"><ele>79.0</ele><time>2026-03-30T12:34:06.292Z</time></trkpt><trkpt lat="41.0734367" lon="14.3523167"><ele>79.0</ele><time>2026-03-30T12:34:08.293Z</time></trkpt><trkpt lat="41.0734517" lon="14.3524833"><ele>79.0</ele><time>2026-03-30T12:34:10.292Z</time></trkpt><trkpt lat="41.0734733" lon="14.35264"><ele>79.0</ele><time>2026-03-30T12:34:12.292Z</time></trkpt><trkpt lat="41.07352" lon="14.3527783"><ele>79.0</ele><time>2026-03-30T12:34:14.292Z</time></trkpt><trkpt lat="41.0735967" lon="14.3528967"><ele>79.0</ele><time>2026-03-30T12:34:16.292Z</time></trkpt><trkpt lat="41.0737" lon="14.35299"><ele>79.0</ele><time>2026-03-30T12:34:18.292Z</time></trkpt><trkpt lat="41.0737933" lon="14.3530967"><ele>79.0</ele><time>2026-03-30T12:34:20.292Z</time></trkpt><trkpt lat="41.07384" lon="14.3531533"><ele>79.0</ele><time>2026-03-30T12:34:21.292Z</time></trkpt><trkpt lat="41.07393" lon="14.353265"><ele>79.0</ele><time>2026-03-30T12:34:23.292Z</time></trkpt><trkpt lat="41.074015" lon="14.3533717"><ele>79.0</ele><time>2026-03-30T12:34:25.292Z</time></trkpt><trkpt lat="41.0741033" lon="14.3534733"><ele>79.0</ele><time>2026-03-30T12:34:27.292Z</time></trkpt><trkpt lat="41.0742" lon="14.3535683"><ele>79.0</ele><time>2026-03-30T12:34:29.292Z</time></trkpt><trkpt lat="41.07428" lon="14.3536817"><ele>79.0</ele><time>2026-03-30T12:34:31.292Z</time></trkpt><trkpt lat="41.0743567" lon="14.3537917"><ele>80.0</ele><time>2026-03-30T12:34:33.292Z</time></trkpt><trkpt lat="41.074435" lon="14.3538967"><ele>81.0</ele><time>2026-03-30T12:34:35.293Z</time></trkpt><trkpt lat="41.0745183" lon="14.3540033"><ele>82.0</ele><time>2026-03-30T12:34:37.292Z</time></trkpt><trkpt lat="41.0745933" lon="14.3541083"><ele>83.0</ele><time>2026-03-30T12:34:39.292Z</time></trkpt><trkpt lat="41.07467" lon="14.3542117"><ele>84.0</ele><time>2026-03-30T12:34:41.292Z</time></trkpt><trkpt lat="41.0747567" lon="14.35431"><ele>84.0</ele><time>2026-03-30T12:34:43.292Z</time></trkpt><trkpt lat="41.0748417" lon="14.3544183"><ele>84.0</ele><time>2026-03-30T12:34:45.292Z</time></trkpt><trkpt lat="41.074925" lon="14.3545217"><ele>84.0</ele><time>2026-03-30T12:34:47.292Z</time></trkpt><trkpt lat="41.07501" lon="14.3546233"><ele>84.0</ele><time>2026-03-30T12:34:49.292Z</time></trkpt><trkpt lat="41.0750983" lon="14.3547183"><ele>84.0</ele><time>2026-03-30T12:34:51.292Z</time></trkpt><trkpt lat="41.075185" lon="14.3548217"><ele>84.0</ele><time>2026-03-30T12:34:53.292Z</time></trkpt><trkpt lat="41.075265" lon="14.35493"><ele>84.0</ele><time>2026-03-30T12:34:55.293Z</time></trkpt><trkpt lat="41.0753083" lon="14.3549983"><ele>84.0</ele><time>2026-03-30T12:34:56.292Z</time></trkpt><trkpt lat="41.0753517" lon="14.3550617"><ele>84.0</ele><time>2026-03-30T12:34:57.292Z</time></trkpt><trkpt lat="41.0754367" lon="14.3551733"><ele>84.0</ele><time>2026-03-30T12:34:59.292Z</time></trkpt><trkpt lat="41.07552" lon="14.355275"><ele>84.0</ele><time>2026-03-30T12:35:01.292Z</time></trkpt><trkpt lat="41.0755967" lon="14.35536"><ele>84.0</ele><time>2026-03-30T12:35:03.292Z</time></trkpt><trkpt lat="41.0756767" lon="14.355465"><ele>84.0</ele><time>2026-03-30T12:35:05.292Z</time></trkpt><trkpt lat="41.0757583" lon="14.3555567"><ele>84.0</ele><time>2026-03-30T12:35:07.293Z</time></trkpt><trkpt lat="41.0758317" lon="14.3556617"><ele>84.0</ele><time>2026-03-30T12:35:09.293Z</time></trkpt><trkpt lat="41.0759183" lon="14.35577"><ele>84.0</ele><time>2026-03-30T12:35:11.293Z</time></trkpt><trkpt lat="41.0759667" lon="14.3558267"><ele>84.0</ele><time>2026-03-30T12:35:12.292Z</time></trkpt><trkpt lat="41.0760583" lon="14.3559333"><ele>84.0</ele><time>2026-03-30T12:35:14.292Z</time></trkpt><trkpt lat="41.0761483" lon="14.3560333"><ele>84.0</ele><time>2026-03-30T12:35:16.292Z</time></trkpt><trkpt lat="41.0762367" lon="14.3561317"><ele>84.0</ele><time>2026-03-30T12:35:18.292Z</time></trkpt><trkpt lat="41.0763167" lon="14.3562167"><ele>84.0</ele><time>2026-03-30T12:35:20.292Z</time></trkpt><trkpt lat="41.0764017" lon="14.3563017"><ele>84.0</ele><time>2026-03-30T12:35:22.292Z</time></trkpt><trkpt lat="41.0764883" lon="14.356385"><ele>84.0</ele><time>2026-03-30T12:35:24.292Z</time></trkpt><trkpt lat="41.0765717" lon="14.3564567"><ele>84.0</ele><time>2026-03-30T12:35:26.292Z</time></trkpt><trkpt lat="41.0766617" lon="14.3565267"><ele>84.4</ele><time>2026-03-30T12:35:28.292Z</time></trkpt><trkpt lat="41.0767583" lon="14.3566067"><ele>84.80000000000001</ele><time>2026-03-30T12:35:30.293Z</time></trkpt><trkpt lat="41.07686" lon="14.3566983"><ele>85.19999999999999</ele><time>2026-03-30T12:35:32.293Z</time></trkpt><trkpt lat="41.0769117" lon="14.3567483"><ele>85.6</ele><time>2026-03-30T12:35:33.293Z</time></trkpt><trkpt lat="41.076965" lon="14.3568"><ele>86.0</ele><time>2026-03-30T12:35:34.292Z</time></trkpt><trkpt lat="41.077065" lon="14.3568817"><ele>86.0</ele><time>2026-03-30T12:35:36.292Z</time></trkpt><trkpt lat="41.0771583" lon="14.3569717"><ele>86.0</ele><time>2026-03-30T12:35:38.292Z</time></trkpt><trkpt lat="41.07725" lon="14.3570667"><ele>86.0</ele><time>2026-03-30T12:35:40.292Z</time></trkpt><trkpt lat="41.0773533" lon="14.3571483"><ele>86.0</ele><time>2026-03-30T12:35:42.293Z</time></trkpt><trkpt lat="41.0774567" lon="14.3572083"><ele>86.6</ele><time>2026-03-30T12:35:44.293Z</time></trkpt><trkpt lat="41.0775583" lon="14.3572583"><ele>87.19999999999999</ele><time>2026-03-30T12:35:46.292Z</time></trkpt><trkpt lat="41.0776533" lon="14.3573067"><ele>87.80000000000001</ele><time>2026-03-30T12:35:48.292Z</time></trkpt><trkpt lat="41.077745" lon="14.35735"><ele>88.4</ele><time>2026-03-30T12:35:50.292Z</time></trkpt><trkpt lat="41.0778383" lon="14.3573833"><ele>89.0</ele><time>2026-03-30T12:35:52.292Z</time></trkpt><trkpt lat="41.0779367" lon="14.3574167"><ele>89.0</ele><time>2026-03-30T12:35:54.292Z</time></trkpt><trkpt lat="41.0780317" lon="14.3574867"><ele>89.0</ele><time>2026-03-30T12:35:56.292Z</time></trkpt><trkpt lat="41.0781267" lon="14.3575517"><ele>89.0</ele><time>2026-03-30T12:35:58.292Z</time></trkpt><trkpt lat="41.0782317" lon="14.3576183"><ele>89.0</ele><time>2026-03-30T12:36:00.292Z</time></trkpt><trkpt lat="41.07833" lon="14.35768"><ele>89.0</ele><time>2026-03-30T12:36:02.292Z</time></trkpt><trkpt lat="41.0784333" lon="14.3577417"><ele>89.0</ele><time>2026-03-30T12:36:04.292Z</time></trkpt><trkpt lat="41.0785317" lon="14.3577917"><ele>89.0</ele><time>2026-03-30T12:36:06.292Z</time></trkpt><trkpt lat="41.0786183" lon="14.3578333"><ele>89.0</ele><time>2026-03-30T12:36:08.292Z</time></trkpt><trkpt lat="41.0786967" lon="14.3578683"><ele>89.0</ele><time>2026-03-30T12:36:10.292Z</time></trkpt><trkpt lat="41.0787833" lon="14.3578933"><ele>89.0</ele><time>2026-03-30T12:36:12.292Z</time></trkpt><trkpt lat="41.0788767" lon="14.3579267"><ele>89.0</ele><time>2026-03-30T12:36:14.292Z</time></trkpt><trkpt lat="41.078975" lon="14.357965"><ele>89.0</ele><time>2026-03-30T12:36:16.292Z</time></trkpt><trkpt lat="41.079075" lon="14.35801"><ele>89.0</ele><time>2026-03-30T12:36:18.292Z</time></trkpt><trkpt lat="41.0791733" lon="14.3580633"><ele>89.0</ele><time>2026-03-30T12:36:20.292Z</time></trkpt><trkpt lat="41.0792533" lon="14.3581217"><ele>89.0</ele><time>2026-03-30T12:36:22.292Z</time></trkpt><trkpt lat="41.0793183" lon="14.358175"><ele>89.5</ele><time>2026-03-30T12:36:24.292Z</time></trkpt><trkpt lat="41.0793833" lon="14.3582267"><ele>90.0</ele><time>2026-03-30T12:36:26.291Z</time></trkpt><trkpt lat="41.0794483" lon="14.3582717"><ele>90.5</ele><time>2026-03-30T12:36:28.292Z</time></trkpt><trkpt lat="41.079525" lon="14.358315"><ele>91.0</ele><time>2026-03-30T12:36:31.292Z</time></trkpt><trkpt lat="41.0795967" lon="14.3583567"><ele>91.5</ele><time>2026-03-30T12:36:34.292Z</time></trkpt><trkpt lat="41.079655" lon="14.3584083"><ele>92.0</ele><time>2026-03-30T12:36:36.293Z</time></trkpt><trkpt lat="41.0797117" lon="14.3585233"><ele>92.0</ele><time>2026-03-30T12:36:39.293Z</time></trkpt><trkpt lat="41.0797583" lon="14.3586017"><ele>92.0</ele><time>2026-03-30T12:36:41.298Z</time></trkpt><trkpt lat="41.0798167" lon="14.35867"><ele>92.0</ele><time>2026-03-30T12:36:43.292Z</time></trkpt><trkpt lat="41.0798767" lon="14.3587233"><ele>92.0</ele><time>2026-03-30T12:36:45.292Z</time></trkpt><trkpt lat="41.0799483" lon="14.35878"><ele>92.0</ele><time>2026-03-30T12:36:47.292Z</time></trkpt><trkpt lat="41.0800067" lon="14.3588333"><ele>92.0</ele><time>2026-03-30T12:36:49.293Z</time></trkpt><trkpt lat="41.0800617" lon="14.3589"><ele>92.28571428571429</ele><time>2026-03-30T12:36:51.293Z</time></trkpt><trkpt lat="41.0801067" lon="14.3589733"><ele>92.57142857142857</ele><time>2026-03-30T12:36:53.297Z</time></trkpt><trkpt lat="41.080145" lon="14.35905"><ele>92.85714285714286</ele><time>2026-03-30T12:36:55.293Z</time></trkpt><trkpt lat="41.0801817" lon="14.3591267"><ele>93.14285714285714</ele><time>2026-03-30T12:36:57.292Z</time></trkpt><trkpt lat="41.0802233" lon="14.3592017"><ele>93.42857142857142</ele><time>2026-03-30T12:36:59.292Z</time></trkpt><trkpt lat="41.08029" lon="14.3592517"><ele>93.71428571428571</ele><time>2026-03-30T12:37:01.292Z</time></trkpt><trkpt lat="41.08036" lon="14.359255"><ele>94.0</ele><time>2026-03-30T12:37:03.292Z</time></trkpt><trkpt lat="41.0804317" lon="14.3592317"><ele>94.0</ele><time>2026-03-30T12:37:05.294Z</time></trkpt><trkpt lat="41.080515" lon="14.359215"><ele>94.0</ele><time>2026-03-30T12:37:07.297Z</time></trkpt><trkpt lat="41.0805967" lon="14.359235"><ele>94.0</ele><time>2026-03-30T12:37:09.297Z</time></trkpt><trkpt lat="41.080675" lon="14.35927"><ele>94.0</ele><time>2026-03-30T12:37:11.297Z</time></trkpt><trkpt lat="41.0807517" lon="14.3592933"><ele>94.0</ele><time>2026-03-30T12:37:13.295Z</time></trkpt><trkpt lat="41.08084" lon="14.35933"><ele>94.0</ele><time>2026-03-30T12:37:15.294Z</time></trkpt><trkpt lat="41.0809183" lon="14.3593783"><ele>94.66666666666666</ele><time>2026-03-30T12:37:17.294Z</time></trkpt><trkpt lat="41.080995" lon="14.35943"><ele>95.33333333333333</ele><time>2026-03-30T12:37:19.293Z</time></trkpt><trkpt lat="41.0810633" lon="14.35948"><ele>96.0</ele><time>2026-03-30T12:37:21.295Z</time></trkpt><trkpt lat="41.0811317" lon="14.3595283"><ele>96.66666666666666</ele><time>2026-03-30T12:37:23.292Z</time></trkpt><trkpt lat="41.08118" lon="14.359585"><ele>97.33333333333333</ele><time>2026-03-30T12:37:25.293Z</time></trkpt><trkpt lat="41.081235" lon="14.35964"><ele>98.0</ele><time>2026-03-30T12:37:27.292Z</time></trkpt><trkpt lat="41.0812833" lon="14.3597467"><ele>98.49999999999999</ele><time>2026-03-30T12:37:30.293Z</time></trkpt><trkpt lat="41.0813317" lon="14.3598467"><ele>99.0</ele><time>2026-03-30T12:37:33.292Z</time></trkpt><trkpt lat="41.0814033" lon="14.3599067"><ele>99.5</ele><time>2026-03-30T12:37:35.292Z</time></trkpt><trkpt lat="41.081475" lon="14.3599517"><ele>100.0</ele><time>2026-03-30T12:37:37.292Z</time></trkpt><trkpt lat="41.0815417" lon="14.3599933"><ele>100.49999999999999</ele><time>2026-03-30T12:37:39.291Z</time></trkpt><trkpt lat="41.0816" lon="14.36004"><ele>101.0</ele><time>2026-03-30T12:37:41.292Z</time></trkpt><trkpt lat="41.08168" lon="14.360105"><ele>101.49999999999999</ele><time>2026-03-30T12:37:44.292Z</time></trkpt><trkpt lat="41.081735" lon="14.3601533"><ele>102.0</ele><time>2026-03-30T12:37:46.292Z</time></trkpt><trkpt lat="41.0818017" lon="14.3601867"><ele>102.5</ele><time>2026-03-30T12:37:49.292Z</time></trkpt><trkpt lat="41.0818567" lon="14.36027"><ele>103.0</ele><time>2026-03-30T12:37:53.292Z</time></trkpt><trkpt lat="41.08189" lon="14.3603883"><ele>103.49999999999999</ele><time>2026-03-30T12:37:57.292Z</time></trkpt><trkpt lat="41.0819533" lon="14.360475"><ele>104.0</ele><time>2026-03-30T12:38:00.292Z</time></trkpt><trkpt lat="41.0820117" lon="14.3605633"><ele>104.16666666666666</ele><time>2026-03-30T12:38:03.292Z</time></trkpt><trkpt lat="41.08207" lon="14.3606283"><ele>104.33333333333333</ele><time>2026-03-30T12:38:05.292Z</time></trkpt><trkpt lat="41.0821367" lon="14.36069"><ele>104.5</ele><time>2026-03-30T12:38:07.292Z</time></trkpt><trkpt lat="41.082195" lon="14.360765"><ele>104.66666666666666</ele><time>2026-03-30T12:38:09.292Z</time></trkpt><trkpt lat="41.0822567" lon="14.3608267"><ele>104.83333333333333</ele><time>2026-03-30T12:38:11.292Z</time></trkpt><trkpt lat="41.0823167" lon="14.36089"><ele>105.0</ele><time>2026-03-30T12:38:13.292Z</time></trkpt><trkpt lat="41.0823733" lon="14.3609467"><ele>105.33333333333333</ele><time>2026-03-30T12:38:15.292Z</time></trkpt><trkpt lat="41.0824333" lon="14.3610083"><ele>105.66666666666666</ele><time>2026-03-30T12:38:17.292Z</time></trkpt><trkpt lat="41.0824817" lon="14.36108"><ele>106.0</ele><time>2026-03-30T12:38:19.292Z</time></trkpt><trkpt lat="41.082525" lon="14.3611483"><ele>106.33333333333333</ele><time>2026-03-30T12:38:21.292Z</time></trkpt><trkpt lat="41.0825867" lon="14.3612417"><ele>106.66666666666666</ele><time>2026-03-30T12:38:24.292Z</time></trkpt><trkpt lat="41.0826517" lon="14.361305"><ele>107.0</ele><time>2026-03-30T12:38:27.292Z</time></trkpt><trkpt lat="41.082705" lon="14.3613967"><ele>107.49999999999999</ele><time>2026-03-30T12:38:31.292Z</time></trkpt><trkpt lat="41.0827483" lon="14.3614767"><ele>108.0</ele><time>2026-03-30T12:38:33.292Z</time></trkpt><trkpt lat="41.0827917" lon="14.3615533"><ele>108.5</ele><time>2026-03-30T12:38:35.292Z</time></trkpt><trkpt lat="41.082825" lon="14.3616667"><ele>109.0</ele><time>2026-03-30T12:38:38.292Z</time></trkpt><trkpt lat="41.0828633" lon="14.36174"><ele>109.49999999999999</ele><time>2026-03-30T12:38:40.292Z</time></trkpt><trkpt lat="41.0829133" lon="14.361845"><ele>110.0</ele><time>2026-03-30T12:38:43.292Z</time></trkpt><trkpt lat="41.08294" lon="14.3619283"><ele>109.99999999999999</ele><time>2026-03-30T12:38:45.292Z</time></trkpt><trkpt lat="41.0829683" lon="14.3620117"><ele>110.0</ele><time>2026-03-30T12:38:47.292Z</time></trkpt><trkpt lat="41.083005" lon="14.3621183"><ele>110.0</ele><time>2026-03-30T12:38:50.292Z</time></trkpt><trkpt lat="41.083045" lon="14.3622183"><ele>110.0</ele><time>2026-03-30T12:38:53.292Z</time></trkpt><trkpt lat="41.083075" lon="14.3622933"><ele>109.99999999999999</ele><time>2026-03-30T12:38:55.292Z</time></trkpt><trkpt lat="41.083115" lon="14.3624"><ele>110.0</ele><time>2026-03-30T12:38:58.292Z</time></trkpt><trkpt lat="41.0831567" lon="14.3625167"><ele>110.57142857142856</ele><time>2026-03-30T12:39:01.292Z</time></trkpt><trkpt lat="41.0831817" lon="14.362605"><ele>111.14285714285714</ele><time>2026-03-30T12:39:03.292Z</time></trkpt><trkpt lat="41.0832117" lon="14.36269"><ele>111.71428571428571</ele><time>2026-03-30T12:39:05.293Z</time></trkpt><trkpt lat="41.0832617" lon="14.362795"><ele>112.28571428571428</ele><time>2026-03-30T12:39:08.292Z</time></trkpt><trkpt lat="41.0832983" lon="14.3628683"><ele>112.85714285714285</ele><time>2026-03-30T12:39:10.292Z</time></trkpt><trkpt lat="41.0833433" lon="14.3629383"><ele>113.42857142857142</ele><time>2026-03-30T12:39:12.292Z</time></trkpt><trkpt lat="41.083385" lon="14.3630083"><ele>114.0</ele><time>2026-03-30T12:39:14.292Z</time></trkpt><trkpt lat="41.0834083" lon="14.3630917"><ele>114.71428571428571</ele><time>2026-03-30T12:39:16.292Z</time></trkpt><trkpt lat="41.0834317" lon="14.3631767"><ele>115.42857142857142</ele><time>2026-03-30T12:39:18.292Z</time></trkpt><trkpt lat="41.0834483" lon="14.36326"><ele>116.14285714285714</ele><time>2026-03-30T12:39:20.292Z</time></trkpt><trkpt lat="41.083475" lon="14.3633467"><ele>116.85714285714286</ele><time>2026-03-30T12:39:22.292Z</time></trkpt><trkpt lat="41.0835033" lon="14.36343"><ele>117.57142857142857</ele><time>2026-03-30T12:39:24.293Z</time></trkpt><trkpt lat="41.083535" lon="14.3635433"><ele>118.28571428571428</ele><time>2026-03-30T12:39:27.293Z</time></trkpt><trkpt lat="41.0835467" lon="14.36363"><ele>119.0</ele><time>2026-03-30T12:39:29.293Z</time></trkpt><trkpt lat="41.08357" lon="14.36374"><ele>119.0</ele><time>2026-03-30T12:39:32.293Z</time></trkpt><trkpt lat="41.083585" lon="14.3638467"><ele>119.0</ele><time>2026-03-30T12:39:35.292Z</time></trkpt><trkpt lat="41.0836" lon="14.363935"><ele>119.0</ele><time>2026-03-30T12:39:37.292Z</time></trkpt><trkpt lat="41.0836" lon="14.364025"><ele>119.0</ele><time>2026-03-30T12:39:39.292Z</time></trkpt><trkpt lat="41.0835917" lon="14.36411"><ele>119.0</ele><time>2026-03-30T12:39:41.292Z</time></trkpt><trkpt lat="41.08361" lon="14.364195"><ele>119.0</ele><time>2026-03-30T12:39:43.292Z</time></trkpt><trkpt lat="41.0835867" lon="14.3642783"><ele>119.0</ele><time>2026-03-30T12:39:45.292Z</time></trkpt><trkpt lat="41.0835767" lon="14.3643883"><ele>119.83333333333333</ele><time>2026-03-30T12:39:48.292Z</time></trkpt><trkpt lat="41.0835633" lon="14.364495"><ele>120.66666666666666</ele><time>2026-03-30T12:39:51.292Z</time></trkpt><trkpt lat="41.08355" lon="14.3645967"><ele>121.5</ele><time>2026-03-30T12:39:54.292Z</time></trkpt><trkpt lat="41.0835333" lon="14.36469"><ele>122.33333333333334</ele><time>2026-03-30T12:39:57.293Z</time></trkpt><trkpt lat="41.0835417" lon="14.3648033"><ele>123.16666666666667</ele><time>2026-03-30T12:40:00.292Z</time></trkpt><trkpt lat="41.0835617" lon="14.3648833"><ele>124.0</ele><time>2026-03-30T12:40:02.292Z</time></trkpt><trkpt lat="41.0835533" lon="14.3649983"><ele>124.16666666666667</ele><time>2026-03-30T12:40:05.292Z</time></trkpt><trkpt lat="41.0835533" lon="14.365085"><ele>124.33333333333334</ele><time>2026-03-30T12:40:07.292Z</time></trkpt><trkpt lat="41.0835567" lon="14.365205"><ele>124.5</ele><time>2026-03-30T12:40:10.292Z</time></trkpt><trkpt lat="41.0835683" lon="14.3653183"><ele>124.66666666666666</ele><time>2026-03-30T12:40:13.293Z</time></trkpt><trkpt lat="41.08357" lon="14.365405"><ele>124.83333333333333</ele><time>2026-03-30T12:40:15.292Z</time></trkpt><trkpt lat="41.0835833" lon="14.3655167"><ele>125.0</ele><time>2026-03-30T12:40:17.292Z</time></trkpt><trkpt lat="41.0836333" lon="14.3656283"><ele>124.99999999999999</ele><time>2026-03-30T12:40:19.292Z</time></trkpt><trkpt lat="41.0836633" lon="14.3657283"><ele>125.0</ele><time>2026-03-30T12:40:21.292Z</time></trkpt><trkpt lat="41.083735" lon="14.365755"><ele>125.0</ele><time>2026-03-30T12:40:24.292Z</time></trkpt><trkpt lat="41.0837983" lon="14.365705"><ele>125.0</ele><time>2026-03-30T12:40:27.292Z</time></trkpt><trkpt lat="41.08388" lon="14.3656483"><ele>124.99999999999999</ele><time>2026-03-30T12:40:30.294Z</time></trkpt><trkpt lat="41.0839317" lon="14.365575"><ele>125.0</ele><time>2026-03-30T12:40:32.293Z</time></trkpt><trkpt lat="41.0839833" lon="14.3655183"><ele>124.99999999999999</ele><time>2026-03-30T12:40:34.292Z</time></trkpt><trkpt lat="41.084045" lon="14.3654517"><ele>125.0</ele><time>2026-03-30T12:40:36.292Z</time></trkpt><trkpt lat="41.0841017" lon="14.3653933"><ele>125.0</ele><time>2026-03-30T12:40:38.292Z</time></trkpt><trkpt lat="41.0841583" lon="14.365325"><ele>125.0</ele><time>2026-03-30T12:40:40.292Z</time></trkpt><trkpt lat="41.08421" lon="14.36525"><ele>124.99999999999999</ele><time>2026-03-30T12:40:42.292Z</time></trkpt><trkpt lat="41.0842517" lon="14.36518"><ele>125.0</ele><time>2026-03-30T12:40:44.292Z</time></trkpt><trkpt lat="41.084335" lon="14.3651317"><ele>126.49999999999999</ele><time>2026-03-30T12:40:47.292Z</time></trkpt><trkpt lat="41.0844183" lon="14.3651933"><ele>128.0</ele><time>2026-03-30T12:40:50.292Z</time></trkpt><trkpt lat="41.084475" lon="14.3652533"><ele>129.5</ele><time>2026-03-30T12:40:52.292Z</time></trkpt><trkpt lat="41.08453" lon="14.3653167"><ele>131.0</ele><time>2026-03-30T12:40:54.293Z</time></trkpt><trkpt lat="41.0845733" lon="14.3653967"><ele>132.5</ele><time>2026-03-30T12:40:56.292Z</time></trkpt><trkpt lat="41.084615" lon="14.3654833"><ele>134.0</ele><time>2026-03-30T12:40:58.292Z</time></trkpt><trkpt lat="41.084665" lon="14.365575"><ele>134.0</ele><time>2026-03-30T12:41:00.292Z</time></trkpt><trkpt lat="41.0847317" lon="14.365655"><ele>134.0</ele><time>2026-03-30T12:41:03.292Z</time></trkpt><trkpt lat="41.0848233" lon="14.36561"><ele>134.0</ele><time>2026-03-30T12:41:06.292Z</time></trkpt><trkpt lat="41.0849017" lon="14.3655533"><ele>134.0</ele><time>2026-03-30T12:41:09.292Z</time></trkpt><trkpt lat="41.0849733" lon="14.3654933"><ele>134.0</ele><time>2026-03-30T12:41:12.292Z</time></trkpt><trkpt lat="41.0850467" lon="14.3654117"><ele>135.0</ele><time>2026-03-30T12:41:15.292Z</time></trkpt><trkpt lat="41.0851067" lon="14.36534"><ele>136.0</ele><time>2026-03-30T12:41:17.292Z</time></trkpt><trkpt lat="41.0852083" lon="14.3652533"><ele>137.0</ele><time>2026-03-30T12:41:20.292Z</time></trkpt><trkpt lat="41.0852717" lon="14.3652033"><ele>138.0</ele><time>2026-03-30T12:41:22.292Z</time></trkpt><trkpt lat="41.0853333" lon="14.3651733"><ele>139.0</ele><time>2026-03-30T12:41:24.292Z</time></trkpt><trkpt lat="41.08538" lon="14.3651167"><ele>140.0</ele><time>2026-03-30T12:41:26.292Z</time></trkpt><trkpt lat="41.085435" lon="14.3650517"><ele>140.0</ele><time>2026-03-30T12:41:28.292Z</time></trkpt><trkpt lat="41.08549" lon="14.3649933"><ele>140.0</ele><time>2026-03-30T12:41:30.292Z</time></trkpt><trkpt lat="41.0855683" lon="14.3649167"><ele>140.0</ele><time>2026-03-30T12:41:33.292Z</time></trkpt><trkpt lat="41.0856283" lon="14.364855"><ele>140.0</ele><time>2026-03-30T12:41:35.292Z</time></trkpt><trkpt lat="41.0856667" lon="14.3647517"><ele>140.0</ele><time>2026-03-30T12:41:37.293Z</time></trkpt><trkpt lat="41.085725" lon="14.364695"><ele>140.0</ele><time>2026-03-30T12:41:39.292Z</time></trkpt><trkpt lat="41.0857917" lon="14.3646467"><ele>140.4</ele><time>2026-03-30T12:41:41.293Z</time></trkpt><trkpt lat="41.0858433" lon="14.3645567"><ele>140.8</ele><time>2026-03-30T12:41:44.292Z</time></trkpt><trkpt lat="41.0859133" lon="14.3644917"><ele>141.2</ele><time>2026-03-30T12:41:46.292Z</time></trkpt><trkpt lat="41.08599" lon="14.3644017"><ele>141.6</ele><time>2026-03-30T12:41:48.292Z</time></trkpt><trkpt lat="41.0860867" lon="14.36432"><ele>142.0</ele><time>2026-03-30T12:41:50.293Z</time></trkpt><trkpt lat="41.08616" lon="14.3641933"><ele>142.0</ele><time>2026-03-30T12:41:52.293Z</time></trkpt><trkpt lat="41.086225" lon="14.36409"><ele>142.0</ele><time>2026-03-30T12:41:54.293Z</time></trkpt><trkpt lat="41.0862933" lon="14.3639883"><ele>142.0</ele><time>2026-03-30T12:41:56.293Z</time></trkpt><trkpt lat="41.086365" lon="14.363935"><ele>142.0</ele><time>2026-03-30T12:41:58.293Z</time></trkpt><trkpt lat="41.08647" lon="14.3638867"><ele>142.0</ele><time>2026-03-30T12:42:00.294Z</time></trkpt><trkpt lat="41.0865617" lon="14.3638467"><ele>142.0</ele><time>2026-03-30T12:42:02.292Z</time></trkpt><trkpt lat="41.0866517" lon="14.3638167"><ele>142.0</ele><time>2026-03-30T12:42:04.292Z</time></trkpt><trkpt lat="41.0867283" lon="14.36379"><ele>142.0</ele><time>2026-03-30T12:42:06.292Z</time></trkpt><trkpt lat="41.0868033" lon="14.3637667"><ele>142.0</ele><time>2026-03-30T12:42:08.292Z</time></trkpt><trkpt lat="41.0868767" lon="14.363735"><ele>142.0</ele><time>2026-03-30T12:42:10.292Z</time></trkpt><trkpt lat="41.0869433" lon="14.363695"><ele>142.0</ele><time>2026-03-30T12:42:12.292Z</time></trkpt><trkpt lat="41.0870067" lon="14.3636467"><ele>142.0</ele><time>2026-03-30T12:42:14.292Z</time></trkpt><trkpt lat="41.08709" lon="14.363595"><ele>142.0</ele><time>2026-03-30T12:42:16.292Z</time></trkpt><trkpt lat="41.08719" lon="14.3635283"><ele>142.0</ele><time>2026-03-30T12:42:18.292Z</time></trkpt><trkpt lat="41.087295" lon="14.3634467"><ele>142.0</ele><time>2026-03-30T12:42:20.292Z</time></trkpt><trkpt lat="41.08735" lon="14.3633967"><ele>142.0</ele><time>2026-03-30T12:42:21.292Z</time></trkpt><trkpt lat="41.0874017" lon="14.363325"><ele>142.33333333333334</ele><time>2026-03-30T12:42:22.292Z</time></trkpt><trkpt lat="41.0874433" lon="14.3632433"><ele>142.66666666666669</ele><time>2026-03-30T12:42:23.293Z</time></trkpt><trkpt lat="41.087485" lon="14.3631683"><ele>143.0</ele><time>2026-03-30T12:42:24.292Z</time></trkpt><trkpt lat="41.087525" lon="14.3630967"><ele>143.33333333333334</ele><time>2026-03-30T12:42:25.293Z</time></trkpt><trkpt lat="41.0876017" lon="14.362985"><ele>143.66666666666666</ele><time>2026-03-30T12:42:27.292Z</time></trkpt><trkpt lat="41.0876767" lon="14.3628833"><ele>144.0</ele><time>2026-03-30T12:42:29.293Z</time></trkpt><trkpt lat="41.0877483" lon="14.3627967"><ele>144.0</ele><time>2026-03-30T12:42:31.293Z</time></trkpt><trkpt lat="41.0878183" lon="14.3627233"><ele>144.0</ele><time>2026-03-30T12:42:33.292Z</time></trkpt><trkpt lat="41.0878983" lon="14.3626517"><ele>144.0</ele><time>2026-03-30T12:42:35.292Z</time></trkpt><trkpt lat="41.0879817" lon="14.36257"><ele>144.0</ele><time>2026-03-30T12:42:37.292Z</time></trkpt><trkpt lat="41.0880783" lon="14.3624767"><ele>144.0</ele><time>2026-03-30T12:42:39.292Z</time></trkpt><trkpt lat="41.08818" lon="14.3623817"><ele>144.0</ele><time>2026-03-30T12:42:41.292Z</time></trkpt><trkpt lat="41.0882383" lon="14.3623383"><ele>144.0</ele><time>2026-03-30T12:42:42.292Z</time></trkpt><trkpt lat="41.0882983" lon="14.3623"><ele>144.0</ele><time>2026-03-30T12:42:43.293Z</time></trkpt><trkpt lat="41.0884067" lon="14.3622217"><ele>144.0</ele><time>2026-03-30T12:42:45.292Z</time></trkpt><trkpt lat="41.088465" lon="14.3621883"><ele>144.0</ele><time>2026-03-30T12:42:46.292Z</time></trkpt><trkpt lat="41.08853" lon="14.3621517"><ele>144.0</ele><time>2026-03-30T12:42:47.293Z</time></trkpt><trkpt lat="41.08863" lon="14.3620833"><ele>144.6</ele><time>2026-03-30T12:42:49.293Z</time></trkpt><trkpt lat="41.088745" lon="14.3620383"><ele>145.2</ele><time>2026-03-30T12:42:51.292Z</time></trkpt><trkpt lat="41.08886" lon="14.3619867"><ele>145.79999999999998</ele><time>2026-03-30T12:42:53.292Z</time></trkpt><trkpt lat="41.0889533" lon="14.3619367"><ele>146.4</ele><time>2026-03-30T12:42:55.292Z</time></trkpt><trkpt lat="41.089035" lon="14.3618983"><ele>147.0</ele><time>2026-03-30T12:42:57.292Z</time></trkpt><trkpt lat="41.089115" lon="14.3618733"><ele>148.4</ele><time>2026-03-30T12:42:59.293Z</time></trkpt><trkpt lat="41.0891867" lon="14.3618067"><ele>149.79999999999998</ele><time>2026-03-30T12:43:01.293Z</time></trkpt><trkpt lat="41.0892617" lon="14.3617483"><ele>151.2</ele><time>2026-03-30T12:43:03.292Z</time></trkpt><trkpt lat="41.0893367" lon="14.3616883"><ele>152.6</ele><time>2026-03-30T12:43:05.293Z</time></trkpt><trkpt lat="41.0894417" lon="14.3615833"><ele>154.0</ele><time>2026-03-30T12:43:08.293Z</time></trkpt><trkpt lat="41.0895183" lon="14.36151"><ele>154.0</ele><time>2026-03-30T12:43:10.292Z</time></trkpt><trkpt lat="41.089595" lon="14.3614517"><ele>154.0</ele><time>2026-03-30T12:43:12.292Z</time></trkpt><trkpt lat="41.0896683" lon="14.3613817"><ele>154.0</ele><time>2026-03-30T12:43:14.292Z</time></trkpt><trkpt lat="41.0897333" lon="14.3613433"><ele>154.0</ele><time>2026-03-30T12:43:16.292Z</time></trkpt><trkpt lat="41.0898083" lon="14.3613033"><ele>154.0</ele><time>2026-03-30T12:43:18.293Z</time></trkpt><trkpt lat="41.0898733" lon="14.36125"><ele>154.0</ele><time>2026-03-30T12:43:20.292Z</time></trkpt><trkpt lat="41.0899283" lon="14.3611683"><ele>153.8</ele><time>2026-03-30T12:43:22.292Z</time></trkpt><trkpt lat="41.0899667" lon="14.3610817"><ele>153.60000000000002</ele><time>2026-03-30T12:43:24.292Z</time></trkpt><trkpt lat="41.0900167" lon="14.3609783"><ele>153.4</ele><time>2026-03-30T12:43:26.292Z</time></trkpt><trkpt lat="41.090085" lon="14.360875"><ele>153.20000000000002</ele><time>2026-03-30T12:43:28.292Z</time></trkpt><trkpt lat="41.0901367" lon="14.3607867"><ele>153.0</ele><time>2026-03-30T12:43:30.293Z</time></trkpt><trkpt lat="41.09019" lon="14.360675"><ele>153.0</ele><time>2026-03-30T12:43:32.292Z</time></trkpt><trkpt lat="41.090215" lon="14.3605967"><ele>153.0</ele><time>2026-03-30T12:43:33.293Z</time></trkpt><trkpt lat="41.0902717" lon="14.3604517"><ele>153.0</ele><time>2026-03-30T12:43:35.293Z</time></trkpt><trkpt lat="41.0903067" lon="14.3603817"><ele>153.0</ele><time>2026-03-30T12:43:36.292Z</time></trkpt><trkpt lat="41.0903633" lon="14.3602533"><ele>153.0</ele><time>2026-03-30T12:43:38.292Z</time></trkpt><trkpt lat="41.0904083" lon="14.36014"><ele>152.20000000000002</ele><time>2026-03-30T12:43:40.292Z</time></trkpt><trkpt lat="41.0904767" lon="14.3600417"><ele>151.4</ele><time>2026-03-30T12:43:42.293Z</time></trkpt><trkpt lat="41.0905233" lon="14.3599183"><ele>150.60000000000002</ele><time>2026-03-30T12:43:44.294Z</time></trkpt><trkpt lat="41.09057" lon="14.3597933"><ele>149.8</ele><time>2026-03-30T12:43:46.293Z</time></trkpt><trkpt lat="41.0906217" lon="14.3596617"><ele>149.0</ele><time>2026-03-30T12:43:48.292Z</time></trkpt><trkpt lat="41.0906667" lon="14.3595967"><ele>149.0</ele><time>2026-03-30T12:43:49.293Z</time></trkpt><trkpt lat="41.0907517" lon="14.35948"><ele>149.0</ele><time>2026-03-30T12:43:51.292Z</time></trkpt><trkpt lat="41.090825" lon="14.3593517"><ele>149.0</ele><time>2026-03-30T12:43:53.293Z</time></trkpt><trkpt lat="41.0908817" lon="14.3591933"><ele>149.0</ele><time>2026-03-30T12:43:55.293Z</time></trkpt><trkpt lat="41.0909" lon="14.35911"><ele>149.0</ele><time>2026-03-30T12:43:56.293Z</time></trkpt><trkpt lat="41.0909133" lon="14.3590233"><ele>149.0</ele><time>2026-03-30T12:43:57.292Z</time></trkpt><trkpt lat="41.09092" lon="14.3589383"><ele>149.0</ele><time>2026-03-30T12:43:58.293Z</time></trkpt><trkpt lat="41.09092" lon="14.3588433"><ele>149.0</ele><time>2026-03-30T12:43:59.292Z</time></trkpt><trkpt lat="41.0909167" lon="14.3587583"><ele>149.0</ele><time>2026-03-30T12:44:00.292Z</time></trkpt><trkpt lat="41.0909067" lon="14.3586033"><ele>149.0</ele><time>2026-03-30T12:44:02.293Z</time></trkpt><trkpt lat="41.090905" lon="14.3584467"><ele>149.0</ele><time>2026-03-30T12:44:04.293Z</time></trkpt><trkpt lat="41.090935" lon="14.3582817"><ele>148.6</ele><time>2026-03-30T12:44:06.294Z</time></trkpt><trkpt lat="41.090955" lon="14.3581967"><ele>148.2</ele><time>2026-03-30T12:44:07.293Z</time></trkpt><trkpt lat="41.09099" lon="14.3580483"><ele>147.79999999999998</ele><time>2026-03-30T12:44:09.293Z</time></trkpt><trkpt lat="41.0910233" lon="14.3578933"><ele>147.4</ele><time>2026-03-30T12:44:11.293Z</time></trkpt><trkpt lat="41.0910733" lon="14.3577567"><ele>147.0</ele><time>2026-03-30T12:44:13.293Z</time></trkpt><trkpt lat="41.0911383" lon="14.3576067"><ele>146.66666666666666</ele><time>2026-03-30T12:44:15.296Z</time></trkpt><trkpt lat="41.0911817" lon="14.3575333"><ele>146.33333333333334</ele><time>2026-03-30T12:44:16.294Z</time></trkpt><trkpt lat="41.0912233" lon="14.3574583"><ele>146.0</ele><time>2026-03-30T12:44:17.293Z</time></trkpt><trkpt lat="41.09129" lon="14.3573183"><ele>145.66666666666669</ele><time>2026-03-30T12:44:19.293Z</time></trkpt><trkpt lat="41.0913217" lon="14.3572433"><ele>145.33333333333334</ele><time>2026-03-30T12:44:20.293Z</time></trkpt><trkpt lat="41.0913583" lon="14.3571733"><ele>145.0</ele><time>2026-03-30T12:44:21.293Z</time></trkpt><trkpt lat="41.0913917" lon="14.357085"><ele>145.4</ele><time>2026-03-30T12:44:22.293Z</time></trkpt><trkpt lat="41.0914133" lon="14.357005"><ele>145.8</ele><time>2026-03-30T12:44:23.293Z</time></trkpt><trkpt lat="41.091435" lon="14.3568767"><ele>146.2</ele><time>2026-03-30T12:44:25.293Z</time></trkpt><trkpt lat="41.0914617" lon="14.3567333"><ele>146.6</ele><time>2026-03-30T12:44:27.293Z</time></trkpt><trkpt lat="41.091535" lon="14.3566"><ele>147.0</ele><time>2026-03-30T12:44:29.293Z</time></trkpt><trkpt lat="41.091605" lon="14.3564767"><ele>147.0</ele><time>2026-03-30T12:44:31.293Z</time></trkpt><trkpt lat="41.0916633" lon="14.356375"><ele>147.0</ele><time>2026-03-30T12:44:33.292Z</time></trkpt><trkpt lat="41.09173" lon="14.3563033"><ele>147.0</ele><time>2026-03-30T12:44:35.293Z</time></trkpt><trkpt lat="41.0917967" lon="14.35624"><ele>147.0</ele><time>2026-03-30T12:44:37.293Z</time></trkpt><trkpt lat="41.0918567" lon="14.3561633"><ele>147.0</ele><time>2026-03-30T12:44:39.293Z</time></trkpt><trkpt lat="41.0919133" lon="14.3560833"><ele>147.0</ele><time>2026-03-30T12:44:41.293Z</time></trkpt><trkpt lat="41.0919667" lon="14.355985"><ele>146.6</ele><time>2026-03-30T12:44:43.294Z</time></trkpt><trkpt lat="41.0920283" lon="14.3558867"><ele>146.2</ele><time>2026-03-30T12:44:45.293Z</time></trkpt><trkpt lat="41.0920883" lon="14.3557883"><ele>145.8</ele><time>2026-03-30T12:44:47.293Z</time></trkpt><trkpt lat="41.092125" lon="14.3556783"><ele>145.4</ele><time>2026-03-30T12:44:49.293Z</time></trkpt><trkpt lat="41.092145" lon="14.3555283"><ele>145.0</ele><time>2026-03-30T12:44:51.293Z</time></trkpt><trkpt lat="41.0921717" lon="14.3553817"><ele>144.0</ele><time>2026-03-30T12:44:53.293Z</time></trkpt><trkpt lat="41.0922167" lon="14.355245"><ele>143.0</ele><time>2026-03-30T12:44:55.293Z</time></trkpt><trkpt lat="41.092255" lon="14.3551233"><ele>142.0</ele><time>2026-03-30T12:44:57.293Z</time></trkpt><trkpt lat="41.092295" lon="14.3550167"><ele>141.0</ele><time>2026-03-30T12:44:59.294Z</time></trkpt><trkpt lat="41.0923433" lon="14.3549117"><ele>140.0</ele><time>2026-03-30T12:45:01.293Z</time></trkpt><trkpt lat="41.09241" lon="14.3548483"><ele>140.66666666666666</ele><time>2026-03-30T12:45:03.293Z</time></trkpt><trkpt lat="41.0924933" lon="14.35481"><ele>141.33333333333331</ele><time>2026-03-30T12:45:05.293Z</time></trkpt><trkpt lat="41.0925683" lon="14.3547483"><ele>142.0</ele><time>2026-03-30T12:45:07.293Z</time></trkpt><trkpt lat="41.0926333" lon="14.3546683"><ele>142.66666666666666</ele><time>2026-03-30T12:45:09.293Z</time></trkpt><trkpt lat="41.0926783" lon="14.3545717"><ele>143.33333333333334</ele><time>2026-03-30T12:45:11.293Z</time></trkpt><trkpt lat="41.0927283" lon="14.354465"><ele>144.0</ele><time>2026-03-30T12:45:13.293Z</time></trkpt><trkpt lat="41.09278" lon="14.3543783"><ele>144.0</ele><time>2026-03-30T12:45:15.293Z</time></trkpt><trkpt lat="41.0928083" lon="14.3542633"><ele>144.0</ele><time>2026-03-30T12:45:17.293Z</time></trkpt><trkpt lat="41.0928333" lon="14.3541517"><ele>144.0</ele><time>2026-03-30T12:45:19.294Z</time></trkpt><trkpt lat="41.0928417" lon="14.3540317"><ele>144.0</ele><time>2026-03-30T12:45:21.293Z</time></trkpt><trkpt lat="41.0928583" lon="14.3539083"><ele>144.0</ele><time>2026-03-30T12:45:23.293Z</time></trkpt><trkpt lat="41.0928833" lon="14.3538217"><ele>144.0</ele><time>2026-03-30T12:45:26.293Z</time></trkpt><trkpt lat="41.09296" lon="14.3538433"><ele>144.33333333333334</ele><time>2026-03-30T12:45:34.293Z</time></trkpt><trkpt lat="41.0930633" lon="14.3538317"><ele>144.66666666666666</ele><time>2026-03-30T12:45:37.293Z</time></trkpt><trkpt lat="41.093155" lon="14.3538317"><ele>145.0</ele><time>2026-03-30T12:45:39.293Z</time></trkpt><trkpt lat="41.0932367" lon="14.353845"><ele>145.33333333333331</ele><time>2026-03-30T12:45:41.293Z</time></trkpt><trkpt lat="41.09331" lon="14.35386"><ele>145.66666666666666</ele><time>2026-03-30T12:45:43.293Z</time></trkpt><trkpt lat="41.0933783" lon="14.3538367"><ele>146.0</ele><time>2026-03-30T12:45:45.293Z</time></trkpt><trkpt lat="41.0934683" lon="14.3538517"><ele>146.0</ele><time>2026-03-30T12:45:47.293Z</time></trkpt><trkpt lat="41.093565" lon="14.3538583"><ele>146.0</ele><time>2026-03-30T12:45:49.293Z</time></trkpt><trkpt lat="41.0936667" lon="14.3538533"><ele>146.0</ele><time>2026-03-30T12:45:51.293Z</time></trkpt><trkpt lat="41.0937633" lon="14.3538933"><ele>146.0</ele><time>2026-03-30T12:45:53.293Z</time></trkpt><trkpt lat="41.0938433" lon="14.35394"><ele>146.0</ele><time>2026-03-30T12:45:55.293Z</time></trkpt><trkpt lat="41.0939383" lon="14.3539733"><ele>146.4</ele><time>2026-03-30T12:45:57.293Z</time></trkpt><trkpt lat="41.0940317" lon="14.3540117"><ele>146.8</ele><time>2026-03-30T12:45:59.293Z</time></trkpt><trkpt lat="41.0941067" lon="14.3540817"><ele>147.20000000000002</ele><time>2026-03-30T12:46:01.293Z</time></trkpt><trkpt lat="41.0941833" lon="14.35416"><ele>147.6</ele><time>2026-03-30T12:46:03.293Z</time></trkpt><trkpt lat="41.09425" lon="14.3542433"><ele>148.0</ele><time>2026-03-30T12:46:05.293Z</time></trkpt><trkpt lat="41.094315" lon="14.3543067"><ele>148.83333333333334</ele><time>2026-03-30T12:46:07.293Z</time></trkpt><trkpt lat="41.09437" lon="14.3543617"><ele>149.66666666666669</ele><time>2026-03-30T12:46:09.293Z</time></trkpt><trkpt lat="41.094445" lon="14.3544233"><ele>150.5</ele><time>2026-03-30T12:46:12.293Z</time></trkpt><trkpt lat="41.09451" lon="14.3544267"><ele>151.33333333333334</ele><time>2026-03-30T12:46:14.293Z</time></trkpt><trkpt lat="41.0945633" lon="14.354355"><ele>152.16666666666666</ele><time>2026-03-30T12:46:17.293Z</time></trkpt><trkpt lat="41.09459" lon="14.3542567"><ele>153.0</ele><time>2026-03-30T12:46:20.293Z</time></trkpt><trkpt lat="41.0946117" lon="14.3541567"><ele>153.0</ele><time>2026-03-30T12:46:23.293Z</time></trkpt><trkpt lat="41.09461" lon="14.3540583"><ele>153.0</ele><time>2026-03-30T12:46:25.293Z</time></trkpt><trkpt lat="41.0946283" lon="14.35395"><ele>153.0</ele><time>2026-03-30T12:46:27.292Z</time></trkpt><trkpt lat="41.0946467" lon="14.3538433"><ele>153.0</ele><time>2026-03-30T12:46:29.292Z</time></trkpt><trkpt lat="41.0946683" lon="14.3537417"><ele>153.0</ele><time>2026-03-30T12:46:31.292Z</time></trkpt><trkpt lat="41.0946733" lon="14.353645"><ele>153.0</ele><time>2026-03-30T12:46:33.292Z</time></trkpt><trkpt lat="41.0946733" lon="14.3535233"><ele>152.4</ele><time>2026-03-30T12:46:36.292Z</time></trkpt><trkpt lat="41.094655" lon="14.3533967"><ele>151.8</ele><time>2026-03-30T12:46:38.292Z</time></trkpt><trkpt lat="41.0946583" lon="14.3532767"><ele>151.2</ele><time>2026-03-30T12:46:40.292Z</time></trkpt><trkpt lat="41.0946633" lon="14.353165"><ele>150.6</ele><time>2026-03-30T12:46:42.292Z</time></trkpt><trkpt lat="41.0946617" lon="14.353045"><ele>150.0</ele><time>2026-03-30T12:46:44.292Z</time></trkpt><trkpt lat="41.0946833" lon="14.352905"><ele>149.6</ele><time>2026-03-30T12:46:46.293Z</time></trkpt><trkpt lat="41.0947217" lon="14.35278"><ele>149.2</ele><time>2026-03-30T12:46:48.292Z</time></trkpt><trkpt lat="41.0947233" lon="14.35266"><ele>148.8</ele><time>2026-03-30T12:46:50.292Z</time></trkpt><trkpt lat="41.0947333" lon="14.3525233"><ele>148.4</ele><time>2026-03-30T12:46:52.293Z</time></trkpt><trkpt lat="41.0947233" lon="14.3523717"><ele>148.0</ele><time>2026-03-30T12:46:54.292Z</time></trkpt><trkpt lat="41.0947283" lon="14.35228"><ele>147.4</ele><time>2026-03-30T12:46:55.292Z</time></trkpt><trkpt lat="41.0947367" lon="14.35211"><ele>146.8</ele><time>2026-03-30T12:46:57.292Z</time></trkpt><trkpt lat="41.0947383" lon="14.3519533"><ele>146.2</ele><time>2026-03-30T12:46:59.293Z</time></trkpt><trkpt lat="41.0947383" lon="14.3518583"><ele>145.6</ele><time>2026-03-30T12:47:00.292Z</time></trkpt><trkpt lat="41.0947317" lon="14.351765"><ele>145.0</ele><time>2026-03-30T12:47:01.292Z</time></trkpt><trkpt lat="41.0947283" lon="14.351665"><ele>145.0</ele><time>2026-03-30T12:47:02.292Z</time></trkpt><trkpt lat="41.094725" lon="14.35158"><ele>145.0</ele><time>2026-03-30T12:47:03.292Z</time></trkpt><trkpt lat="41.0947083" lon="14.3514433"><ele>145.0</ele><time>2026-03-30T12:47:05.293Z</time></trkpt><trkpt lat="41.0947233" lon="14.351315"><ele>145.0</ele><time>2026-03-30T12:47:07.292Z</time></trkpt><trkpt lat="41.0947217" lon="14.3511783"><ele>145.0</ele><time>2026-03-30T12:47:09.292Z</time></trkpt><trkpt lat="41.0946933" lon="14.3510383"><ele>144.8</ele><time>2026-03-30T12:47:11.292Z</time></trkpt><trkpt lat="41.0946817" lon="14.3509133"><ele>144.6</ele><time>2026-03-30T12:47:13.292Z</time></trkpt><trkpt lat="41.0946983" lon="14.3507933"><ele>144.4</ele><time>2026-03-30T12:47:15.292Z</time></trkpt><trkpt lat="41.0947133" lon="14.35066"><ele>144.2</ele><time>2026-03-30T12:47:17.292Z</time></trkpt><trkpt lat="41.094725" lon="14.350545"><ele>144.0</ele><time>2026-03-30T12:47:19.292Z</time></trkpt><trkpt lat="41.0947333" lon="14.35042"><ele>143.2</ele><time>2026-03-30T12:47:21.291Z</time></trkpt><trkpt lat="41.0947533" lon="14.35029"><ele>142.4</ele><time>2026-03-30T12:47:23.292Z</time></trkpt><trkpt lat="41.09477" lon="14.3501583"><ele>141.6</ele><time>2026-03-30T12:47:25.293Z</time></trkpt><trkpt lat="41.0947933" lon="14.35004"><ele>140.8</ele><time>2026-03-30T12:47:27.292Z</time></trkpt><trkpt lat="41.0948383" lon="14.34993"><ele>140.0</ele><time>2026-03-30T12:47:29.292Z</time></trkpt><trkpt lat="41.09489" lon="14.349835"><ele>141.0</ele><time>2026-03-30T12:47:31.292Z</time></trkpt><trkpt lat="41.0949383" lon="14.3497317"><ele>142.0</ele><time>2026-03-30T12:47:33.292Z</time></trkpt><trkpt lat="41.095" lon="14.3496383"><ele>143.0</ele><time>2026-03-30T12:47:35.292Z</time></trkpt><trkpt lat="41.0950617" lon="14.3495583"><ele>144.0</ele><time>2026-03-30T12:47:37.292Z</time></trkpt><trkpt lat="41.0951133" lon="14.3494817"><ele>145.0</ele><time>2026-03-30T12:47:39.292Z</time></trkpt><trkpt lat="41.0951633" lon="14.3494183"><ele>146.0</ele><time>2026-03-30T12:47:41.292Z</time></trkpt><trkpt lat="41.0952217" lon="14.3493683"><ele>146.0</ele><time>2026-03-30T12:47:43.292Z</time></trkpt><trkpt lat="41.0952767" lon="14.3493033"><ele>146.0</ele><time>2026-03-30T12:47:45.292Z</time></trkpt><trkpt lat="41.0953233" lon="14.3492133"><ele>146.0</ele><time>2026-03-30T12:47:47.292Z</time></trkpt><trkpt lat="41.0953717" lon="14.34913"><ele>146.0</ele><time>2026-03-30T12:47:49.293Z</time></trkpt><trkpt lat="41.095415" lon="14.34904"><ele>146.0</ele><time>2026-03-30T12:47:51.292Z</time></trkpt><trkpt lat="41.0954517" lon="14.3489533"><ele>146.0</ele><time>2026-03-30T12:47:53.292Z</time></trkpt><trkpt lat="41.0955017" lon="14.3488667"><ele>145.5</ele><time>2026-03-30T12:47:55.292Z</time></trkpt><trkpt lat="41.09554" lon="14.3487717"><ele>145.0</ele><time>2026-03-30T12:47:57.292Z</time></trkpt><trkpt lat="41.0955917" lon="14.3486917"><ele>144.5</ele><time>2026-03-30T12:47:59.292Z</time></trkpt><trkpt lat="41.09564" lon="14.34861"><ele>144.0</ele><time>2026-03-30T12:48:01.292Z</time></trkpt><trkpt lat="41.0956933" lon="14.3485367"><ele>143.5</ele><time>2026-03-30T12:48:03.292Z</time></trkpt><trkpt lat="41.09574" lon="14.3484717"><ele>143.0</ele><time>2026-03-30T12:48:05.292Z</time></trkpt><trkpt lat="41.095785" lon="14.3483917"><ele>144.6</ele><time>2026-03-30T12:48:07.293Z</time></trkpt><trkpt lat="41.0958433" lon="14.3482917"><ele>146.20000000000002</ele><time>2026-03-30T12:48:09.292Z</time></trkpt><trkpt lat="41.0958967" lon="14.348195"><ele>147.8</ele><time>2026-03-30T12:48:11.293Z</time></trkpt><trkpt lat="41.0959517" lon="14.3481083"><ele>149.4</ele><time>2026-03-30T12:48:13.292Z</time></trkpt><trkpt lat="41.0959967" lon="14.3480067"><ele>151.0</ele><time>2026-03-30T12:48:15.291Z</time></trkpt><trkpt lat="41.0960417" lon="14.3479033"><ele>151.0</ele><time>2026-03-30T12:48:17.292Z</time></trkpt><trkpt lat="41.09609" lon="14.34782"><ele>151.0</ele><time>2026-03-30T12:48:19.292Z</time></trkpt><trkpt lat="41.0961483" lon="14.3477433"><ele>151.0</ele><time>2026-03-30T12:48:21.292Z</time></trkpt><trkpt lat="41.0962067" lon="14.3476683"><ele>151.0</ele><time>2026-03-30T12:48:23.292Z</time></trkpt><trkpt lat="41.0962633" lon="14.3475817"><ele>151.0</ele><time>2026-03-30T12:48:25.292Z</time></trkpt><trkpt lat="41.096315" lon="14.3474983"><ele>151.0</ele><time>2026-03-30T12:48:27.294Z</time></trkpt><trkpt lat="41.0963667" lon="14.3474217"><ele>151.0</ele><time>2026-03-30T12:48:29.293Z</time></trkpt><trkpt lat="41.0964217" lon="14.347345"><ele>151.0</ele><time>2026-03-30T12:48:31.292Z</time></trkpt><trkpt lat="41.0964783" lon="14.34726"><ele>151.0</ele><time>2026-03-30T12:48:33.292Z</time></trkpt><trkpt lat="41.0965283" lon="14.347165"><ele>151.0</ele><time>2026-03-30T12:48:35.293Z</time></trkpt><trkpt lat="41.0965817" lon="14.34706"><ele>151.0</ele><time>2026-03-30T12:48:37.293Z</time></trkpt><trkpt lat="41.096645" lon="14.3469667"><ele>151.0</ele><time>2026-03-30T12:48:39.292Z</time></trkpt><trkpt lat="41.0967067" lon="14.3468733"><ele>151.5</ele><time>2026-03-30T12:48:41.292Z</time></trkpt><trkpt lat="41.0967683" lon="14.34679"><ele>152.0</ele><time>2026-03-30T12:48:43.292Z</time></trkpt><trkpt lat="41.09683" lon="14.3467033"><ele>152.5</ele><time>2026-03-30T12:48:45.292Z</time></trkpt><trkpt lat="41.0968783" lon="14.34661"><ele>153.0</ele><time>2026-03-30T12:48:47.293Z</time></trkpt><trkpt lat="41.09694" lon="14.3465233"><ele>153.5</ele><time>2026-03-30T12:48:49.292Z</time></trkpt><trkpt lat="41.096985" lon="14.3464333"><ele>154.0</ele><time>2026-03-30T12:48:51.292Z</time></trkpt><trkpt lat="41.0970367" lon="14.34635"><ele>154.16666666666669</ele><time>2026-03-30T12:48:53.292Z</time></trkpt><trkpt lat="41.0970933" lon="14.34627"><ele>154.33333333333334</ele><time>2026-03-30T12:48:55.292Z</time></trkpt><trkpt lat="41.0971517" lon="14.3461867"><ele>154.5</ele><time>2026-03-30T12:48:57.292Z</time></trkpt><trkpt lat="41.0972017" lon="14.3461017"><ele>154.66666666666666</ele><time>2026-03-30T12:48:59.292Z</time></trkpt><trkpt lat="41.097245" lon="14.3460233"><ele>154.83333333333331</ele><time>2026-03-30T12:49:01.292Z</time></trkpt><trkpt lat="41.097295" lon="14.34595"><ele>155.0</ele><time>2026-03-30T12:49:03.292Z</time></trkpt><trkpt lat="41.0973267" lon="14.3458733"><ele>155.0</ele><time>2026-03-30T12:49:05.292Z</time></trkpt><trkpt lat="41.0973583" lon="14.3457967"><ele>155.0</ele><time>2026-03-30T12:49:07.292Z</time></trkpt><trkpt lat="41.0973983" lon="14.34572"><ele>155.0</ele><time>2026-03-30T12:49:09.292Z</time></trkpt><trkpt lat="41.09744" lon="14.3456517"><ele>155.0</ele><time>2026-03-30T12:49:11.293Z</time></trkpt><trkpt lat="41.0974833" lon="14.3455717"><ele>155.0</ele><time>2026-03-30T12:49:13.293Z</time></trkpt><trkpt lat="41.0975283" lon="14.3455017"><ele>155.0</ele><time>2026-03-30T12:49:15.292Z</time></trkpt><trkpt lat="41.0975783" lon="14.3454333"><ele>155.0</ele><time>2026-03-30T12:49:17.293Z</time></trkpt><trkpt lat="41.0976417" lon="14.3453733"><ele>155.66666666666666</ele><time>2026-03-30T12:49:19.292Z</time></trkpt><trkpt lat="41.09769" lon="14.3453167"><ele>156.33333333333331</ele><time>2026-03-30T12:49:21.291Z</time></trkpt><trkpt lat="41.0977533" lon="14.3452533"><ele>157.0</ele><time>2026-03-30T12:49:23.291Z</time></trkpt><trkpt lat="41.0977983" lon="14.345185"><ele>157.66666666666666</ele><time>2026-03-30T12:49:25.292Z</time></trkpt><trkpt lat="41.097845" lon="14.3451183"><ele>158.33333333333334</ele><time>2026-03-30T12:49:27.291Z</time></trkpt><trkpt lat="41.0978933" lon="14.3450383"><ele>159.0</ele><time>2026-03-30T12:49:29.291Z</time></trkpt><trkpt lat="41.0979533" lon="14.3449383"><ele>159.0</ele><time>2026-03-30T12:49:31.291Z</time></trkpt><trkpt lat="41.0980017" lon="14.34486"><ele>159.0</ele><time>2026-03-30T12:49:33.291Z</time></trkpt><trkpt lat="41.0980433" lon="14.3447833"><ele>159.0</ele><time>2026-03-30T12:49:35.291Z</time></trkpt><trkpt lat="41.098105" lon="14.3447217"><ele>159.0</ele><time>2026-03-30T12:49:37.292Z</time></trkpt><trkpt lat="41.0981783" lon="14.3446517"><ele>159.0</ele><time>2026-03-30T12:49:40.291Z</time></trkpt><trkpt lat="41.09823" lon="14.3445917"><ele>159.0</ele><time>2026-03-30T12:49:42.291Z</time></trkpt><trkpt lat="41.0982833" lon="14.3445283"><ele>160.33333333333334</ele><time>2026-03-30T12:49:44.292Z</time></trkpt><trkpt lat="41.09836" lon="14.3444833"><ele>161.66666666666666</ele><time>2026-03-30T12:49:47.292Z</time></trkpt><trkpt lat="41.0984417" lon="14.3444333"><ele>163.0</ele><time>2026-03-30T12:49:50.291Z</time></trkpt><trkpt lat="41.098505" lon="14.3443467"><ele>164.33333333333331</ele><time>2026-03-30T12:49:53.292Z</time></trkpt><trkpt lat="41.098555" lon="14.344275"><ele>165.66666666666666</ele><time>2026-03-30T12:49:57.291Z</time></trkpt><trkpt lat="41.0986233" lon="14.3442317"><ele>167.0</ele><time>2026-03-30T12:52:25.292Z</time></trkpt><trkpt lat="41.0986817" lon="14.3441833"><ele>167.0</ele><time>2026-03-30T12:52:28.292Z</time></trkpt><trkpt lat="41.0987367" lon="14.34411"><ele>167.0</ele><time>2026-03-30T12:52:31.291Z</time></trkpt><trkpt lat="41.0987683" lon="14.3440317"><ele>167.0</ele><time>2026-03-30T12:52:33.291Z</time></trkpt><trkpt lat="41.0988033" lon="14.34394"><ele>167.0</ele><time>2026-03-30T12:52:35.292Z</time></trkpt><trkpt lat="41.0988383" lon="14.3438467"><ele>167.0</ele><time>2026-03-30T12:52:37.292Z</time></trkpt><trkpt lat="41.098865" lon="14.343725"><ele>167.0</ele><time>2026-03-30T12:52:39.291Z</time></trkpt><trkpt lat="41.0988833" lon="14.34359"><ele>166.5</ele><time>2026-03-30T12:52:41.291Z</time></trkpt><trkpt lat="41.0989033" lon="14.3434433"><ele>166.0</ele><time>2026-03-30T12:52:43.293Z</time></trkpt><trkpt lat="41.0989117" lon="14.343275"><ele>165.5</ele><time>2026-03-30T12:52:45.292Z</time></trkpt><trkpt lat="41.0989283" lon="14.34319"><ele>165.0</ele><time>2026-03-30T12:52:46.292Z</time></trkpt><trkpt lat="41.0989467" lon="14.3431033"><ele>164.5</ele><time>2026-03-30T12:52:47.292Z</time></trkpt><trkpt lat="41.09896" lon="14.3430183"><ele>164.0</ele><time>2026-03-30T12:52:48.292Z</time></trkpt><trkpt lat="41.0989683" lon="14.3429267"><ele>163.83333333333331</ele><time>2026-03-30T12:52:49.292Z</time></trkpt><trkpt lat="41.0989717" lon="14.34276"><ele>163.66666666666666</ele><time>2026-03-30T12:52:51.291Z</time></trkpt><trkpt lat="41.0989683" lon="14.3426733"><ele>163.5</ele><time>2026-03-30T12:52:52.292Z</time></trkpt><trkpt lat="41.098965" lon="14.3425817"><ele>163.33333333333334</ele><time>2026-03-30T12:52:53.293Z</time></trkpt><trkpt lat="41.0989583" lon="14.3424933"><ele>163.16666666666669</ele><time>2026-03-30T12:52:54.291Z</time></trkpt><trkpt lat="41.0989383" lon="14.3424"><ele>163.0</ele><time>2026-03-30T12:52:55.292Z</time></trkpt><trkpt lat="41.098925" lon="14.3423067"><ele>163.0</ele><time>2026-03-30T12:52:56.292Z</time></trkpt><trkpt lat="41.0989117" lon="14.3422167"><ele>163.0</ele><time>2026-03-30T12:52:57.291Z</time></trkpt><trkpt lat="41.0989083" lon="14.3421217"><ele>163.0</ele><time>2026-03-30T12:52:58.291Z</time></trkpt><trkpt lat="41.0989033" lon="14.34203"><ele>163.0</ele><time>2026-03-30T12:52:59.292Z</time></trkpt><trkpt lat="41.0988767" lon="14.3419183"><ele>163.0</ele><time>2026-03-30T12:53:00.292Z</time></trkpt><trkpt lat="41.098855" lon="14.3417983"><ele>163.0</ele><time>2026-03-30T12:53:01.292Z</time></trkpt><trkpt lat="41.09884" lon="14.3416883"><ele>162.83333333333334</ele><time>2026-03-30T12:53:02.291Z</time></trkpt><trkpt lat="41.0988283" lon="14.3415783"><ele>162.66666666666669</ele><time>2026-03-30T12:53:03.291Z</time></trkpt><trkpt lat="41.098825" lon="14.34147"><ele>162.5</ele><time>2026-03-30T12:53:04.292Z</time></trkpt><trkpt lat="41.0988217" lon="14.34137"><ele>162.33333333333334</ele><time>2026-03-30T12:53:05.292Z</time></trkpt><trkpt lat="41.0988267" lon="14.3412617"><ele>162.16666666666666</ele><time>2026-03-30T12:53:06.292Z</time></trkpt><trkpt lat="41.0988233" lon="14.3411567"><ele>162.0</ele><time>2026-03-30T12:53:07.292Z</time></trkpt><trkpt lat="41.0988167" lon="14.3410583"><ele>162.0</ele><time>2026-03-30T12:53:08.291Z</time></trkpt><trkpt lat="41.098795" lon="14.34097"><ele>162.0</ele><time>2026-03-30T12:53:09.292Z</time></trkpt><trkpt lat="41.0987783" lon="14.34088"><ele>162.0</ele><time>2026-03-30T12:53:10.291Z</time></trkpt><trkpt lat="41.0987667" lon="14.3407867"><ele>162.0</ele><time>2026-03-30T12:53:11.292Z</time></trkpt><trkpt lat="41.0987633" lon="14.3406933"><ele>162.0</ele><time>2026-03-30T12:53:12.292Z</time></trkpt><trkpt lat="41.09876" lon="14.3405967"><ele>162.0</ele><time>2026-03-30T12:53:13.292Z</time></trkpt><trkpt lat="41.098755" lon="14.3405017"><ele>162.0</ele><time>2026-03-30T12:53:14.291Z</time></trkpt><trkpt lat="41.09875" lon="14.3404067"><ele>162.42857142857144</ele><time>2026-03-30T12:53:15.291Z</time></trkpt><trkpt lat="41.09875" lon="14.34032"><ele>162.85714285714286</ele><time>2026-03-30T12:53:16.292Z</time></trkpt><trkpt lat="41.09875" lon="14.3402333"><ele>163.28571428571428</ele><time>2026-03-30T12:53:17.292Z</time></trkpt><trkpt lat="41.0987483" lon="14.3401467"><ele>163.71428571428572</ele><time>2026-03-30T12:53:18.292Z</time></trkpt><trkpt lat="41.09875" lon="14.3400583"><ele>164.14285714285714</ele><time>2026-03-30T12:53:19.292Z</time></trkpt><trkpt lat="41.0987583" lon="14.3399733"><ele>164.57142857142858</ele><time>2026-03-30T12:53:20.292Z</time></trkpt><trkpt lat="41.0987617" lon="14.3398133"><ele>165.0</ele><time>2026-03-30T12:53:22.291Z</time></trkpt><trkpt lat="41.0987633" lon="14.3396583"><ele>166.2</ele><time>2026-03-30T12:53:24.292Z</time></trkpt><trkpt lat="41.0987667" lon="14.3395017"><ele>167.4</ele><time>2026-03-30T12:53:26.292Z</time></trkpt><trkpt lat="41.0987667" lon="14.339415"><ele>168.60000000000002</ele><time>2026-03-30T12:53:27.291Z</time></trkpt><trkpt lat="41.09877" lon="14.339255"><ele>169.8</ele><time>2026-03-30T12:53:29.292Z</time></trkpt><trkpt lat="41.0987683" lon="14.33917"><ele>171.0</ele><time>2026-03-30T12:53:30.292Z</time></trkpt><trkpt lat="41.098765" lon="14.339015"><ele>171.60000000000002</ele><time>2026-03-30T12:53:32.292Z</time></trkpt><trkpt lat="41.0987617" lon="14.338865"><ele>172.2</ele><time>2026-03-30T12:53:34.291Z</time></trkpt><trkpt lat="41.0987583" lon="14.3387233"><ele>172.8</ele><time>2026-03-30T12:53:36.292Z</time></trkpt><trkpt lat="41.0987483" lon="14.3385767"><ele>173.39999999999998</ele><time>2026-03-30T12:53:38.292Z</time></trkpt><trkpt lat="41.0987533" lon="14.338445"><ele>174.0</ele><time>2026-03-30T12:53:40.292Z</time></trkpt><trkpt lat="41.0987567" lon="14.3383117"><ele>174.0</ele><time>2026-03-30T12:53:42.293Z</time></trkpt><trkpt lat="41.09876" lon="14.3381883"><ele>174.0</ele><time>2026-03-30T12:53:44.292Z</time></trkpt><trkpt lat="41.098765" lon="14.3380683"><ele>174.0</ele><time>2026-03-30T12:53:46.291Z</time></trkpt><trkpt lat="41.0987717" lon="14.3379533"><ele>174.0</ele><time>2026-03-30T12:53:48.291Z</time></trkpt><trkpt lat="41.0987717" lon="14.3378467"><ele>174.0</ele><time>2026-03-30T12:53:50.292Z</time></trkpt><trkpt lat="41.098765" lon="14.3377617"><ele>174.0</ele><time>2026-03-30T12:53:52.293Z</time></trkpt><trkpt lat="41.0987433" lon="14.3376517"><ele>173.33333333333334</ele><time>2026-03-30T12:53:55.292Z</time></trkpt><trkpt lat="41.0986983" lon="14.3375717"><ele>172.66666666666666</ele><time>2026-03-30T12:53:58.292Z</time></trkpt><trkpt lat="41.0986333" lon="14.337505"><ele>172.0</ele><time>2026-03-30T12:54:01.292Z</time></trkpt><trkpt lat="41.0985467" lon="14.3374617"><ele>171.33333333333331</ele><time>2026-03-30T12:54:04.292Z</time></trkpt><trkpt lat="41.0984683" lon="14.3374417"><ele>170.66666666666666</ele><time>2026-03-30T12:54:06.292Z</time></trkpt><trkpt lat="41.098375" lon="14.3374333"><ele>170.0</ele><time>2026-03-30T12:54:08.292Z</time></trkpt><trkpt lat="41.0982683" lon="14.33743"><ele>167.66666666666666</ele><time>2026-03-30T12:54:10.292Z</time></trkpt><trkpt lat="41.0981733" lon="14.3374283"><ele>165.33333333333331</ele><time>2026-03-30T12:54:12.292Z</time></trkpt><trkpt lat="41.0980833" lon="14.337405"><ele>163.0</ele><time>2026-03-30T12:54:14.292Z</time></trkpt><trkpt lat="41.0979667" lon="14.3373733"><ele>160.66666666666666</ele><time>2026-03-30T12:54:16.292Z</time></trkpt><trkpt lat="41.0979033" lon="14.3373517"><ele>158.33333333333334</ele><time>2026-03-30T12:54:17.293Z</time></trkpt><trkpt lat="41.097835" lon="14.33733"><ele>156.0</ele><time>2026-03-30T12:54:18.292Z</time></trkpt><trkpt lat="41.0977617" lon="14.3373033"><ele>156.0</ele><time>2026-03-30T12:54:19.293Z</time></trkpt><trkpt lat="41.0976833" lon="14.33727"><ele>156.0</ele><time>2026-03-30T12:54:20.292Z</time></trkpt><trkpt lat="41.0976" lon="14.337235"><ele>156.0</ele><time>2026-03-30T12:54:21.292Z</time></trkpt><trkpt lat="41.0975167" lon="14.3372067"><ele>156.0</ele><time>2026-03-30T12:54:22.292Z</time></trkpt><trkpt lat="41.097425" lon="14.3371983"><ele>156.0</ele><time>2026-03-30T12:54:23.292Z</time></trkpt><trkpt lat="41.0973283" lon="14.3372033"><ele>156.0</ele><time>2026-03-30T12:54:24.292Z</time></trkpt><trkpt lat="41.0972267" lon="14.337215"><ele>153.0</ele><time>2026-03-30T12:54:25.294Z</time></trkpt><trkpt lat="41.09712" lon="14.3372367"><ele>150.0</ele><time>2026-03-30T12:54:26.292Z</time></trkpt><trkpt lat="41.097015" lon="14.3372567"><ele>147.0</ele><time>2026-03-30T12:54:27.292Z</time></trkpt><trkpt lat="41.0969117" lon="14.3372817"><ele>144.0</ele><time>2026-03-30T12:54:28.292Z</time></trkpt><trkpt lat="41.09681" lon="14.33732"><ele>141.0</ele><time>2026-03-30T12:54:29.292Z</time></trkpt><trkpt lat="41.0967133" lon="14.3373717"><ele>141.0</ele><time>2026-03-30T12:54:30.292Z</time></trkpt><trkpt lat="41.0966233" lon="14.337435"><ele>141.0</ele><time>2026-03-30T12:54:31.292Z</time></trkpt><trkpt lat="41.0965433" lon="14.3375033"><ele>141.0</ele><time>2026-03-30T12:54:32.292Z</time></trkpt><trkpt lat="41.0964717" lon="14.33757"><ele>141.0</ele><time>2026-03-30T12:54:33.292Z</time></trkpt><trkpt lat="41.0964033" lon="14.3376367"><ele>141.0</ele><time>2026-03-30T12:54:34.291Z</time></trkpt><trkpt lat="41.096345" lon="14.3376933"><ele>141.0</ele><time>2026-03-30T12:54:35.292Z</time></trkpt><trkpt lat="41.0962567" lon="14.337785"><ele>139.33333333333334</ele><time>2026-03-30T12:54:37.292Z</time></trkpt><trkpt lat="41.096185" lon="14.337845"><ele>137.66666666666666</ele><time>2026-03-30T12:54:39.292Z</time></trkpt><trkpt lat="41.0961167" lon="14.33782"><ele>136.0</ele><time>2026-03-30T12:54:41.292Z</time></trkpt><trkpt lat="41.0961217" lon="14.337725"><ele>134.33333333333331</ele><time>2026-03-30T12:54:43.292Z</time></trkpt><trkpt lat="41.0962067" lon="14.3376233"><ele>132.66666666666666</ele><time>2026-03-30T12:54:45.292Z</time></trkpt><trkpt lat="41.0962617" lon="14.3375717"><ele>131.0</ele><time>2026-03-30T12:54:46.292Z</time></trkpt><trkpt lat="41.09631" lon="14.3375083"><ele>131.0</ele><time>2026-03-30T12:54:47.292Z</time></trkpt><trkpt lat="41.0963667" lon="14.33744"><ele>131.0</ele><time>2026-03-30T12:54:48.292Z</time></trkpt><trkpt lat="41.0964283" lon="14.3373717"><ele>131.0</ele><time>2026-03-30T12:54:49.292Z</time></trkpt><trkpt lat="41.096485" lon="14.3373067"><ele>131.0</ele><time>2026-03-30T12:54:50.292Z</time></trkpt><trkpt lat="41.0965483" lon="14.3372417"><ele>131.0</ele><time>2026-03-30T12:54:51.292Z</time></trkpt><trkpt lat="41.0966133" lon="14.3371783"><ele>131.0</ele><time>2026-03-30T12:54:52.292Z</time></trkpt><trkpt lat="41.0966867" lon="14.337115"><ele>131.83333333333331</ele><time>2026-03-30T12:54:53.293Z</time></trkpt><trkpt lat="41.09677" lon="14.337055"><ele>132.66666666666666</ele><time>2026-03-30T12:54:54.292Z</time></trkpt><trkpt lat="41.0968517" lon="14.3370017"><ele>133.5</ele><time>2026-03-30T12:54:55.292Z</time></trkpt><trkpt lat="41.0969267" lon="14.336945"><ele>134.33333333333334</ele><time>2026-03-30T12:54:56.292Z</time></trkpt><trkpt lat="41.0969967" lon="14.3368883"><ele>135.16666666666669</ele><time>2026-03-30T12:54:57.292Z</time></trkpt><trkpt lat="41.09706" lon="14.3368233"><ele>136.0</ele><time>2026-03-30T12:54:58.292Z</time></trkpt><trkpt lat="41.097115" lon="14.33675"><ele>136.0</ele><time>2026-03-30T12:54:59.292Z</time></trkpt><trkpt lat="41.0971617" lon="14.33667"><ele>136.0</ele><time>2026-03-30T12:55:00.292Z</time></trkpt><trkpt lat="41.097195" lon="14.336575"><ele>136.0</ele><time>2026-03-30T12:55:01.292Z</time></trkpt><trkpt lat="41.0972317" lon="14.33648"><ele>136.0</ele><time>2026-03-30T12:55:02.292Z</time></trkpt><trkpt lat="41.0972717" lon="14.3363817"><ele>136.0</ele><time>2026-03-30T12:55:03.292Z</time></trkpt><trkpt lat="41.0973117" lon="14.33628"><ele>136.0</ele><time>2026-03-30T12:55:04.292Z</time></trkpt><trkpt lat="41.0973517" lon="14.3361833"><ele>137.0</ele><time>2026-03-30T12:55:05.292Z</time></trkpt><trkpt lat="41.097385" lon="14.3360917"><ele>138.0</ele><time>2026-03-30T12:55:06.292Z</time></trkpt><trkpt lat="41.0974133" lon="14.3360067"><ele>139.0</ele><time>2026-03-30T12:55:07.292Z</time></trkpt><trkpt lat="41.09744" lon="14.33593"><ele>140.0</ele><time>2026-03-30T12:55:08.292Z</time></trkpt><trkpt lat="41.0974633" lon="14.3357717"><ele>141.0</ele><time>2026-03-30T12:55:10.292Z</time></trkpt><trkpt lat="41.0974267" lon="14.3356317"><ele>142.0</ele><time>2026-03-30T12:55:12.294Z</time></trkpt><trkpt lat="41.0973633" lon="14.3355617"><ele>139.2</ele><time>2026-03-30T12:55:13.292Z</time></trkpt><trkpt lat="41.0972567" lon="14.3355133"><ele>136.39999999999998</ele><time>2026-03-30T12:55:14.292Z</time></trkpt><trkpt lat="41.0971767" lon="14.3354683"><ele>133.60000000000002</ele><time>2026-03-30T12:55:15.292Z</time></trkpt><trkpt lat="41.0970917" lon="14.3354083"><ele>130.8</ele><time>2026-03-30T12:55:16.292Z</time></trkpt><trkpt lat="41.0970083" lon="14.3353417"><ele>128.0</ele><time>2026-03-30T12:55:17.292Z</time></trkpt><trkpt lat="41.0969283" lon="14.3352767"><ele>128.0</ele><time>2026-03-30T12:55:18.292Z</time></trkpt><trkpt lat="41.0968633" lon="14.3352233"><ele>127.99999999999999</ele><time>2026-03-30T12:55:19.292Z</time></trkpt><trkpt lat="41.0968083" lon="14.335175"><ele>128.0</ele><time>2026-03-30T12:55:20.293Z</time></trkpt><trkpt lat="41.0967583" lon="14.3351233"><ele>128.0</ele><time>2026-03-30T12:55:21.292Z</time></trkpt><trkpt lat="41.0967067" lon="14.3350667"><ele>127.99999999999999</ele><time>2026-03-30T12:55:22.292Z</time></trkpt><trkpt lat="41.0966433" lon="14.33503"><ele>128.0</ele><time>2026-03-30T12:55:23.292Z</time></trkpt><trkpt lat="41.0965817" lon="14.3350017"><ele>128.0</ele><time>2026-03-30T12:55:24.292Z</time></trkpt><trkpt lat="41.0964717" lon="14.3349517"><ele>126.83333333333333</ele><time>2026-03-30T12:55:26.292Z</time></trkpt><trkpt lat="41.0963483" lon="14.3349333"><ele>125.66666666666666</ele><time>2026-03-30T12:55:28.293Z</time></trkpt><trkpt lat="41.09628" lon="14.3349517"><ele>124.5</ele><time>2026-03-30T12:55:29.292Z</time></trkpt><trkpt lat="41.0962117" lon="14.33498"><ele>123.33333333333334</ele><time>2026-03-30T12:55:30.292Z</time></trkpt><trkpt lat="41.096165" lon="14.335045"><ele>122.16666666666667</ele><time>2026-03-30T12:55:31.292Z</time></trkpt><trkpt lat="41.0961267" lon="14.335125"><ele>121.0</ele><time>2026-03-30T12:55:32.292Z</time></trkpt><trkpt lat="41.0960817" lon="14.3352017"><ele>121.0</ele><time>2026-03-30T12:55:33.293Z</time></trkpt><trkpt lat="41.0960417" lon="14.3352867"><ele>120.99999999999999</ele><time>2026-03-30T12:55:34.292Z</time></trkpt><trkpt lat="41.09601" lon="14.3353733"><ele>121.0</ele><time>2026-03-30T12:55:35.292Z</time></trkpt><trkpt lat="41.0959867" lon="14.3354683"><ele>121.0</ele><time>2026-03-30T12:55:36.292Z</time></trkpt><trkpt lat="41.0959783" lon="14.3355683"><ele>120.99999999999999</ele><time>2026-03-30T12:55:37.293Z</time></trkpt><trkpt lat="41.095965" lon="14.3356583"><ele>121.0</ele><time>2026-03-30T12:55:38.292Z</time></trkpt><trkpt lat="41.09595" lon="14.3357467"><ele>121.0</ele><time>2026-03-30T12:55:39.292Z</time></trkpt><trkpt lat="41.09594" lon="14.3358433"><ele>121.16666666666667</ele><time>2026-03-30T12:55:40.292Z</time></trkpt><trkpt lat="41.0959333" lon="14.335945"><ele>121.33333333333334</ele><time>2026-03-30T12:55:41.292Z</time></trkpt><trkpt lat="41.0959217" lon="14.3360433"><ele>121.5</ele><time>2026-03-30T12:55:42.292Z</time></trkpt><trkpt lat="41.09591" lon="14.3361533"><ele>121.66666666666666</ele><time>2026-03-30T12:55:43.292Z</time></trkpt><trkpt lat="41.0959" lon="14.3362533"><ele>121.83333333333333</ele><time>2026-03-30T12:55:44.292Z</time></trkpt><trkpt lat="41.0958933" lon="14.3363517"><ele>122.0</ele><time>2026-03-30T12:55:45.292Z</time></trkpt><trkpt lat="41.095885" lon="14.3364517"><ele>122.42857142857142</ele><time>2026-03-30T12:55:46.294Z</time></trkpt><trkpt lat="41.0958717" lon="14.336545"><ele>122.85714285714286</ele><time>2026-03-30T12:55:47.292Z</time></trkpt><trkpt lat="41.095855" lon="14.3366417"><ele>123.28571428571428</ele><time>2026-03-30T12:55:48.292Z</time></trkpt><trkpt lat="41.095835" lon="14.3367367"><ele>123.71428571428571</ele><time>2026-03-30T12:55:49.292Z</time></trkpt><trkpt lat="41.0958" lon="14.3368233"><ele>124.14285714285714</ele><time>2026-03-30T12:55:50.292Z</time></trkpt><trkpt lat="41.0957533" lon="14.3369033"><ele>124.57142857142857</ele><time>2026-03-30T12:55:51.291Z</time></trkpt><trkpt lat="41.0956883" lon="14.336955"><ele>125.0</ele><time>2026-03-30T12:55:52.292Z</time></trkpt><trkpt lat="41.0956117" lon="14.3369983"><ele>123.6</ele><time>2026-03-30T12:55:53.292Z</time></trkpt><trkpt lat="41.095535" lon="14.3370483"><ele>122.2</ele><time>2026-03-30T12:55:54.292Z</time></trkpt><trkpt lat="41.0954483" lon="14.3371"><ele>120.80000000000001</ele><time>2026-03-30T12:55:55.292Z</time></trkpt><trkpt lat="41.09536" lon="14.3371583"><ele>119.4</ele><time>2026-03-30T12:55:56.292Z</time></trkpt><trkpt lat="41.0952733" lon="14.3372117"><ele>118.0</ele><time>2026-03-30T12:55:57.292Z</time></trkpt><trkpt lat="41.0951933" lon="14.3372667"><ele>118.00000000000001</ele><time>2026-03-30T12:55:58.292Z</time></trkpt><trkpt lat="41.0951117" lon="14.3373117"><ele>118.0</ele><time>2026-03-30T12:55:59.292Z</time></trkpt><trkpt lat="41.0950267" lon="14.3373417"><ele>118.0</ele><time>2026-03-30T12:56:00.292Z</time></trkpt><trkpt lat="41.094945" lon="14.3373633"><ele>118.0</ele><time>2026-03-30T12:56:01.292Z</time></trkpt><trkpt lat="41.0948633" lon="14.337375"><ele>118.00000000000001</ele><time>2026-03-30T12:56:02.292Z</time></trkpt><trkpt lat="41.0947783" lon="14.3373917"><ele>118.0</ele><time>2026-03-30T12:56:03.292Z</time></trkpt><trkpt lat="41.0946883" lon="14.3374067"><ele>117.16666666666667</ele><time>2026-03-30T12:56:04.292Z</time></trkpt><trkpt lat="41.0945917" lon="14.3374167"><ele>116.33333333333334</ele><time>2026-03-30T12:56:05.292Z</time></trkpt><trkpt lat="41.0945033" lon="14.3374317"><ele>115.5</ele><time>2026-03-30T12:56:06.292Z</time></trkpt><trkpt lat="41.09442" lon="14.3374433"><ele>114.66666666666666</ele><time>2026-03-30T12:56:07.292Z</time></trkpt><trkpt lat="41.09434" lon="14.3374517"><ele>113.83333333333333</ele><time>2026-03-30T12:56:08.292Z</time></trkpt><trkpt lat="41.0942633" lon="14.3374567"><ele>113.0</ele><time>2026-03-30T12:56:09.292Z</time></trkpt><trkpt lat="41.0941867" lon="14.3374483"><ele>112.99999999999999</ele><time>2026-03-30T12:56:10.293Z</time></trkpt><trkpt lat="41.0941167" lon="14.3374367"><ele>113.0</ele><time>2026-03-30T12:56:11.292Z</time></trkpt><trkpt lat="41.09405" lon="14.3374133"><ele>113.0</ele><time>2026-03-30T12:56:12.292Z</time></trkpt><trkpt lat="41.0939833" lon="14.3373767"><ele>113.0</ele><time>2026-03-30T12:56:13.292Z</time></trkpt><trkpt lat="41.09391" lon="14.3373367"><ele>112.99999999999999</ele><time>2026-03-30T12:56:14.293Z</time></trkpt><trkpt lat="41.09383" lon="14.3372883"><ele>113.0</ele><time>2026-03-30T12:56:15.292Z</time></trkpt><trkpt lat="41.0937517" lon="14.33725"><ele>111.99999999999999</ele><time>2026-03-30T12:56:16.292Z</time></trkpt><trkpt lat="41.09367" lon="14.3372033"><ele>111.0</ele><time>2026-03-30T12:56:17.293Z</time></trkpt><trkpt lat="41.0935917" lon="14.3371633"><ele>110.0</ele><time>2026-03-30T12:56:18.292Z</time></trkpt><trkpt lat="41.0935167" lon="14.3371283"><ele>109.0</ele><time>2026-03-30T12:56:19.292Z</time></trkpt><trkpt lat="41.0934483" lon="14.337105"><ele>107.99999999999999</ele><time>2026-03-30T12:56:20.292Z</time></trkpt><trkpt lat="41.0933867" lon="14.337075"><ele>107.0</ele><time>2026-03-30T12:56:21.292Z</time></trkpt><trkpt lat="41.0933217" lon="14.3370417"><ele>106.42857142857143</ele><time>2026-03-30T12:56:22.292Z</time></trkpt><trkpt lat="41.093255" lon="14.3370067"><ele>105.85714285714286</ele><time>2026-03-30T12:56:23.292Z</time></trkpt><trkpt lat="41.0931917" lon="14.3369817"><ele>105.28571428571428</ele><time>2026-03-30T12:56:24.293Z</time></trkpt><trkpt lat="41.0931267" lon="14.3369533"><ele>104.71428571428572</ele><time>2026-03-30T12:56:25.292Z</time></trkpt><trkpt lat="41.09306" lon="14.3369183"><ele>104.14285714285714</ele><time>2026-03-30T12:56:26.292Z</time></trkpt><trkpt lat="41.0929933" lon="14.3368833"><ele>103.57142857142857</ele><time>2026-03-30T12:56:27.291Z</time></trkpt><trkpt lat="41.092925" lon="14.33684"><ele>103.0</ele><time>2026-03-30T12:56:28.292Z</time></trkpt><trkpt lat="41.0928517" lon="14.336785"><ele>103.00000000000001</ele><time>2026-03-30T12:56:29.292Z</time></trkpt><trkpt lat="41.0927833" lon="14.3367233"><ele>103.0</ele><time>2026-03-30T12:56:30.292Z</time></trkpt><trkpt lat="41.092715" lon="14.33665"><ele>103.0</ele><time>2026-03-30T12:56:31.292Z</time></trkpt><trkpt lat="41.0926467" lon="14.336575"><ele>103.0</ele><time>2026-03-30T12:56:32.292Z</time></trkpt><trkpt lat="41.092575" lon="14.3365083"><ele>103.00000000000001</ele><time>2026-03-30T12:56:33.292Z</time></trkpt><trkpt lat="41.092505" lon="14.33644"><ele>103.0</ele><time>2026-03-30T12:56:34.292Z</time></trkpt><trkpt lat="41.0924367" lon="14.336375"><ele>102.50000000000001</ele><time>2026-03-30T12:56:35.293Z</time></trkpt><trkpt lat="41.09236" lon="14.336315"><ele>102.0</ele><time>2026-03-30T12:56:36.292Z</time></trkpt><trkpt lat="41.0922917" lon="14.3362417"><ele>101.5</ele><time>2026-03-30T12:56:37.292Z</time></trkpt><trkpt lat="41.0922317" lon="14.3361683"><ele>101.0</ele><time>2026-03-30T12:56:38.292Z</time></trkpt><trkpt lat="41.0921717" lon="14.33611"><ele>100.50000000000001</ele><time>2026-03-30T12:56:39.292Z</time></trkpt><trkpt lat="41.0921183" lon="14.3360517"><ele>100.0</ele><time>2026-03-30T12:56:40.292Z</time></trkpt><trkpt lat="41.09206" lon="14.336"><ele>100.00000000000001</ele><time>2026-03-30T12:56:41.292Z</time></trkpt><trkpt lat="41.0920017" lon="14.3359367"><ele>100.0</ele><time>2026-03-30T12:56:42.292Z</time></trkpt><trkpt lat="41.09194" lon="14.335875"><ele>100.0</ele><time>2026-03-30T12:56:43.292Z</time></trkpt><trkpt lat="41.0918683" lon="14.33582"><ele>100.0</ele><time>2026-03-30T12:56:44.292Z</time></trkpt><trkpt lat="41.0918067" lon="14.3357483"><ele>100.00000000000001</ele><time>2026-03-30T12:56:45.292Z</time></trkpt><trkpt lat="41.0917383" lon="14.33568"><ele>100.0</ele><time>2026-03-30T12:56:46.292Z</time></trkpt><trkpt lat="41.0916733" lon="14.3356133"><ele>100.00000000000001</ele><time>2026-03-30T12:56:47.292Z</time></trkpt><trkpt lat="41.09161" lon="14.3355533"><ele>100.0</ele><time>2026-03-30T12:56:48.292Z</time></trkpt><trkpt lat="41.09154" lon="14.3355017"><ele>100.0</ele><time>2026-03-30T12:56:49.292Z</time></trkpt><trkpt lat="41.091475" lon="14.3354483"><ele>100.0</ele><time>2026-03-30T12:56:50.292Z</time></trkpt><trkpt lat="41.0914133" lon="14.335405"><ele>100.00000000000001</ele><time>2026-03-30T12:56:51.292Z</time></trkpt><trkpt lat="41.091355" lon="14.3353633"><ele>100.0</ele><time>2026-03-30T12:56:52.292Z</time></trkpt><trkpt lat="41.09127" lon="14.3352633"><ele>99.4</ele><time>2026-03-30T12:56:54.293Z</time></trkpt><trkpt lat="41.0912083" lon="14.3351483"><ele>98.8</ele><time>2026-03-30T12:56:56.292Z</time></trkpt><trkpt lat="41.09117" lon="14.335025"><ele>98.19999999999999</ele><time>2026-03-30T12:56:58.292Z</time></trkpt><trkpt lat="41.0911867" lon="14.33485"><ele>97.6</ele><time>2026-03-30T12:57:00.292Z</time></trkpt><trkpt lat="41.0912067" lon="14.3347483"><ele>97.0</ele><time>2026-03-30T12:57:01.292Z</time></trkpt><trkpt lat="41.0912183" lon="14.33465"><ele>97.00000000000001</ele><time>2026-03-30T12:57:02.293Z</time></trkpt><trkpt lat="41.0912467" lon="14.3345467"><ele>97.0</ele><time>2026-03-30T12:57:03.292Z</time></trkpt><trkpt lat="41.09127" lon="14.334445"><ele>97.0</ele><time>2026-03-30T12:57:04.294Z</time></trkpt><trkpt lat="41.0912933" lon="14.3343417"><ele>97.0</ele><time>2026-03-30T12:57:05.292Z</time></trkpt><trkpt lat="41.0913117" lon="14.3342333"><ele>97.00000000000001</ele><time>2026-03-30T12:57:06.292Z</time></trkpt><trkpt lat="41.0913267" lon="14.33412"><ele>97.0</ele><time>2026-03-30T12:57:07.292Z</time></trkpt><trkpt lat="41.09135" lon="14.334015"><ele>97.00000000000001</ele><time>2026-03-30T12:57:08.292Z</time></trkpt><trkpt lat="41.091365" lon="14.33391"><ele>97.0</ele><time>2026-03-30T12:57:09.293Z</time></trkpt><trkpt lat="41.0913783" lon="14.3337967"><ele>97.0</ele><time>2026-03-30T12:57:10.293Z</time></trkpt><trkpt lat="41.0913817" lon="14.3336883"><ele>97.0</ele><time>2026-03-30T12:57:11.293Z</time></trkpt><trkpt lat="41.0913833" lon="14.3335783"><ele>97.00000000000001</ele><time>2026-03-30T12:57:12.292Z</time></trkpt><trkpt lat="41.09138" lon="14.333465"><ele>97.0</ele><time>2026-03-30T12:57:13.292Z</time></trkpt><trkpt lat="41.0913867" lon="14.3333583"><ele>96.85714285714285</ele><time>2026-03-30T12:57:14.292Z</time></trkpt><trkpt lat="41.0913833" lon="14.3332567"><ele>96.71428571428572</ele><time>2026-03-30T12:57:15.292Z</time></trkpt><trkpt lat="41.0913767" lon="14.3331617"><ele>96.57142857142857</ele><time>2026-03-30T12:57:16.292Z</time></trkpt><trkpt lat="41.0913733" lon="14.3330667"><ele>96.42857142857142</ele><time>2026-03-30T12:57:17.293Z</time></trkpt><trkpt lat="41.0913683" lon="14.332975"><ele>96.28571428571428</ele><time>2026-03-30T12:57:18.292Z</time></trkpt><trkpt lat="41.0913567" lon="14.3328833"><ele>96.14285714285714</ele><time>2026-03-30T12:57:19.293Z</time></trkpt><trkpt lat="41.0913433" lon="14.3327967"><ele>96.0</ele><time>2026-03-30T12:57:20.292Z</time></trkpt><trkpt lat="41.0912733" lon="14.3326583"><ele>95.83333333333333</ele><time>2026-03-30T12:57:22.293Z</time></trkpt><trkpt lat="41.0912233" lon="14.3325833"><ele>95.66666666666667</ele><time>2026-03-30T12:57:23.292Z</time></trkpt><trkpt lat="41.091175" lon="14.3325033"><ele>95.5</ele><time>2026-03-30T12:57:24.292Z</time></trkpt><trkpt lat="41.091125" lon="14.33242"><ele>95.33333333333334</ele><time>2026-03-30T12:57:25.293Z</time></trkpt><trkpt lat="41.0910767" lon="14.332335"><ele>95.16666666666667</ele><time>2026-03-30T12:57:26.292Z</time></trkpt><trkpt lat="41.0910367" lon="14.3322483"><ele>95.0</ele><time>2026-03-30T12:57:27.292Z</time></trkpt><trkpt lat="41.0909933" lon="14.332165"><ele>95.0</ele><time>2026-03-30T12:57:28.292Z</time></trkpt><trkpt lat="41.09094" lon="14.3320883"><ele>95.0</ele><time>2026-03-30T12:57:29.292Z</time></trkpt><trkpt lat="41.0908967" lon="14.3320067"><ele>95.0</ele><time>2026-03-30T12:57:30.293Z</time></trkpt><trkpt lat="41.090855" lon="14.3319233"><ele>95.0</ele><time>2026-03-30T12:57:31.293Z</time></trkpt><trkpt lat="41.0908017" lon="14.3318467"><ele>95.0</ele><time>2026-03-30T12:57:32.292Z</time></trkpt><trkpt lat="41.0907517" lon="14.3317667"><ele>95.0</ele><time>2026-03-30T12:57:33.292Z</time></trkpt><trkpt lat="41.0907033" lon="14.3316867"><ele>95.0</ele><time>2026-03-30T12:57:34.292Z</time></trkpt><trkpt lat="41.0906517" lon="14.331615"><ele>95.0</ele><time>2026-03-30T12:57:35.292Z</time></trkpt><trkpt lat="41.0906067" lon="14.33154"><ele>95.0</ele><time>2026-03-30T12:57:36.293Z</time></trkpt><trkpt lat="41.0905583" lon="14.3314617"><ele>95.0</ele><time>2026-03-30T12:57:37.292Z</time></trkpt><trkpt lat="41.090515" lon="14.331385"><ele>95.0</ele><time>2026-03-30T12:57:38.292Z</time></trkpt><trkpt lat="41.0904783" lon="14.3313167"><ele>95.0</ele><time>2026-03-30T12:57:39.292Z</time></trkpt><trkpt lat="41.0904133" lon="14.331225"><ele>94.8</ele><time>2026-03-30T12:57:41.292Z</time></trkpt><trkpt lat="41.090315" lon="14.3312"><ele>94.6</ele><time>2026-03-30T12:57:43.292Z</time></trkpt><trkpt lat="41.0902" lon="14.3312117"><ele>94.4</ele><time>2026-03-30T12:57:45.292Z</time></trkpt><trkpt lat="41.090075" lon="14.3312067"><ele>94.2</ele><time>2026-03-30T12:57:47.292Z</time></trkpt><trkpt lat="41.0900083" lon="14.331195"><ele>94.0</ele><time>2026-03-30T12:57:48.292Z</time></trkpt><trkpt lat="41.0899417" lon="14.3311933"><ele>93.42857142857143</ele><time>2026-03-30T12:57:49.292Z</time></trkpt><trkpt lat="41.0898733" lon="14.3311933"><ele>92.85714285714286</ele><time>2026-03-30T12:57:50.292Z</time></trkpt><trkpt lat="41.089805" lon="14.331195"><ele>92.28571428571428</ele><time>2026-03-30T12:57:51.292Z</time></trkpt><trkpt lat="41.0897317" lon="14.3311983"><ele>91.71428571428572</ele><time>2026-03-30T12:57:52.292Z</time></trkpt><trkpt lat="41.08966" lon="14.3312"><ele>91.14285714285715</ele><time>2026-03-30T12:57:53.292Z</time></trkpt><trkpt lat="41.08959" lon="14.331205"><ele>90.57142857142857</ele><time>2026-03-30T12:57:54.292Z</time></trkpt><trkpt lat="41.0895217" lon="14.3312017"><ele>90.0</ele><time>2026-03-30T12:57:55.292Z</time></trkpt><trkpt lat="41.089455" lon="14.3312033"><ele>90.0</ele><time>2026-03-30T12:57:56.292Z</time></trkpt><trkpt lat="41.0893867" lon="14.3312067"><ele>90.0</ele><time>2026-03-30T12:57:57.292Z</time></trkpt><trkpt lat="41.0893183" lon="14.3312067"><ele>90.0</ele><time>2026-03-30T12:57:58.292Z</time></trkpt><trkpt lat="41.0892467" lon="14.331215"><ele>90.0</ele><time>2026-03-30T12:57:59.292Z</time></trkpt><trkpt lat="41.08917" lon="14.3312167"><ele>90.0</ele><time>2026-03-30T12:58:00.292Z</time></trkpt><trkpt lat="41.089095" lon="14.3312183"><ele>90.0</ele><time>2026-03-30T12:58:01.293Z</time></trkpt><trkpt lat="41.0890217" lon="14.331225"><ele>90.0</ele><time>2026-03-30T12:58:02.292Z</time></trkpt><trkpt lat="41.0889433" lon="14.3312183"><ele>89.5</ele><time>2026-03-30T12:58:03.292Z</time></trkpt><trkpt lat="41.0888667" lon="14.3312283"><ele>89.0</ele><time>2026-03-30T12:58:04.292Z</time></trkpt><trkpt lat="41.0887917" lon="14.331235"><ele>88.5</ele><time>2026-03-30T12:58:05.292Z</time></trkpt><trkpt lat="41.0887117" lon="14.3312383"><ele>88.0</ele><time>2026-03-30T12:58:06.292Z</time></trkpt><trkpt lat="41.0886283" lon="14.3312383"><ele>87.5</ele><time>2026-03-30T12:58:07.292Z</time></trkpt><trkpt lat="41.0885483" lon="14.33124"><ele>87.0</ele><time>2026-03-30T12:58:08.292Z</time></trkpt><trkpt lat="41.0884633" lon="14.3312417"><ele>87.0</ele><time>2026-03-30T12:58:09.292Z</time></trkpt><trkpt lat="41.0883833" lon="14.3312383"><ele>87.0</ele><time>2026-03-30T12:58:10.292Z</time></trkpt><trkpt lat="41.0883017" lon="14.3312433"><ele>87.0</ele><time>2026-03-30T12:58:11.292Z</time></trkpt><trkpt lat="41.0882233" lon="14.33124"><ele>87.0</ele><time>2026-03-30T12:58:12.292Z</time></trkpt><trkpt lat="41.0881467" lon="14.33124"><ele>87.0</ele><time>2026-03-30T12:58:13.292Z</time></trkpt><trkpt lat="41.08807" lon="14.3312433"><ele>87.0</ele><time>2026-03-30T12:58:14.292Z</time></trkpt><trkpt lat="41.0879917" lon="14.331245"><ele>86.83333333333333</ele><time>2026-03-30T12:58:15.292Z</time></trkpt><trkpt lat="41.0879117" lon="14.33125"><ele>86.66666666666667</ele><time>2026-03-30T12:58:16.292Z</time></trkpt><trkpt lat="41.0878283" lon="14.3312533"><ele>86.5</ele><time>2026-03-30T12:58:17.293Z</time></trkpt><trkpt lat="41.0877467" lon="14.331255"><ele>86.33333333333334</ele><time>2026-03-30T12:58:18.292Z</time></trkpt><trkpt lat="41.0876683" lon="14.3312567"><ele>86.16666666666667</ele><time>2026-03-30T12:58:19.292Z</time></trkpt><trkpt lat="41.0875933" lon="14.3312617"><ele>86.0</ele><time>2026-03-30T12:58:20.292Z</time></trkpt><trkpt lat="41.0875183" lon="14.3312717"><ele>86.0</ele><time>2026-03-30T12:58:21.292Z</time></trkpt><trkpt lat="41.08745" lon="14.3312817"><ele>86.0</ele><time>2026-03-30T12:58:22.292Z</time></trkpt><trkpt lat="41.087385" lon="14.3312867"><ele>86.0</ele><time>2026-03-30T12:58:23.292Z</time></trkpt><trkpt lat="41.0872633" lon="14.3312883"><ele>86.0</ele><time>2026-03-30T12:58:25.292Z</time></trkpt><trkpt lat="41.0871383" lon="14.331295"><ele>86.0</ele><time>2026-03-30T12:58:27.292Z</time></trkpt><trkpt lat="41.0870733" lon="14.3312933"><ele>86.0</ele><time>2026-03-30T12:58:28.292Z</time></trkpt><trkpt lat="41.087005" lon="14.3312867"><ele>86.00000000000001</ele><time>2026-03-30T12:58:29.293Z</time></trkpt><trkpt lat="41.0869383" lon="14.3312817"><ele>86.0</ele><time>2026-03-30T12:58:30.292Z</time></trkpt><trkpt lat="41.086865" lon="14.33128"><ele>86.0</ele><time>2026-03-30T12:58:31.292Z</time></trkpt><trkpt lat="41.0867917" lon="14.3312767"><ele>86.0</ele><time>2026-03-30T12:58:32.292Z</time></trkpt><trkpt lat="41.0867167" lon="14.33127"><ele>86.0</ele><time>2026-03-30T12:58:33.292Z</time></trkpt><trkpt lat="41.0866417" lon="14.3312683"><ele>86.00000000000001</ele><time>2026-03-30T12:58:34.292Z</time></trkpt><trkpt lat="41.0865717" lon="14.331265"><ele>86.0</ele><time>2026-03-30T12:58:35.292Z</time></trkpt><trkpt lat="41.0865067" lon="14.33126"><ele>85.57142857142858</ele><time>2026-03-30T12:58:36.292Z</time></trkpt><trkpt lat="41.0864383" lon="14.3312617"><ele>85.14285714285714</ele><time>2026-03-30T12:58:37.293Z</time></trkpt><trkpt lat="41.08637" lon="14.33126"><ele>84.71428571428572</ele><time>2026-03-30T12:58:38.293Z</time></trkpt><trkpt lat="41.0863033" lon="14.33126"><ele>84.28571428571429</ele><time>2026-03-30T12:58:39.292Z</time></trkpt><trkpt lat="41.08624" lon="14.3312567"><ele>83.85714285714286</ele><time>2026-03-30T12:58:40.292Z</time></trkpt><trkpt lat="41.0861767" lon="14.3312567"><ele>83.42857142857143</ele><time>2026-03-30T12:58:41.292Z</time></trkpt><trkpt lat="41.0861083" lon="14.331255"><ele>83.0</ele><time>2026-03-30T12:58:42.293Z</time></trkpt><trkpt lat="41.0860383" lon="14.3312533"><ele>83.0</ele><time>2026-03-30T12:58:43.292Z</time></trkpt><trkpt lat="41.0859683" lon="14.331255"><ele>83.0</ele><time>2026-03-30T12:58:44.292Z</time></trkpt><trkpt lat="41.085895" lon="14.33125"><ele>83.0</ele><time>2026-03-30T12:58:45.291Z</time></trkpt><trkpt lat="41.08582" lon="14.3312433"><ele>83.0</ele><time>2026-03-30T12:58:46.291Z</time></trkpt><trkpt lat="41.0857517" lon="14.33125"><ele>83.0</ele><time>2026-03-30T12:58:47.291Z</time></trkpt><trkpt lat="41.0856833" lon="14.3312617"><ele>83.0</ele><time>2026-03-30T12:58:48.292Z</time></trkpt><trkpt lat="41.0856167" lon="14.3312783"><ele>83.0</ele><time>2026-03-30T12:58:49.291Z</time></trkpt><trkpt lat="41.08555" lon="14.3312883"><ele>82.57142857142857</ele><time>2026-03-30T12:58:50.291Z</time></trkpt><trkpt lat="41.0854817" lon="14.3312917"><ele>82.14285714285715</ele><time>2026-03-30T12:58:51.292Z</time></trkpt><trkpt lat="41.08541" lon="14.3312867"><ele>81.71428571428572</ele><time>2026-03-30T12:58:52.292Z</time></trkpt><trkpt lat="41.08534" lon="14.331285"><ele>81.28571428571428</ele><time>2026-03-30T12:58:53.291Z</time></trkpt><trkpt lat="41.0852683" lon="14.3312883"><ele>80.85714285714286</ele><time>2026-03-30T12:58:54.292Z</time></trkpt><trkpt lat="41.085195" lon="14.3312933"><ele>80.42857142857143</ele><time>2026-03-30T12:58:55.291Z</time></trkpt><trkpt lat="41.0851217" lon="14.3312967"><ele>80.0</ele><time>2026-03-30T12:58:56.291Z</time></trkpt><trkpt lat="41.0850467" lon="14.3312983"><ele>80.0</ele><time>2026-03-30T12:58:57.291Z</time></trkpt><trkpt lat="41.08497" lon="14.3312933"><ele>80.0</ele><time>2026-03-30T12:58:58.291Z</time></trkpt><trkpt lat="41.0848933" lon="14.3312867"><ele>80.0</ele><time>2026-03-30T12:58:59.291Z</time></trkpt><trkpt lat="41.08482" lon="14.3312833"><ele>80.0</ele><time>2026-03-30T12:59:00.291Z</time></trkpt><trkpt lat="41.084745" lon="14.331285"><ele>80.0</ele><time>2026-03-30T12:59:01.291Z</time></trkpt><trkpt lat="41.0846683" lon="14.3312817"><ele>80.0</ele><time>2026-03-30T12:59:02.291Z</time></trkpt><trkpt lat="41.084585" lon="14.331275"><ele>79.83333333333334</ele><time>2026-03-30T12:59:03.292Z</time></trkpt><trkpt lat="41.084505" lon="14.33127"><ele>79.66666666666667</ele><time>2026-03-30T12:59:04.291Z</time></trkpt><trkpt lat="41.0844233" lon="14.3312683"><ele>79.5</ele><time>2026-03-30T12:59:05.291Z</time></trkpt><trkpt lat="41.08434" lon="14.3312717"><ele>79.33333333333333</ele><time>2026-03-30T12:59:06.291Z</time></trkpt><trkpt lat="41.0842567" lon="14.3312733"><ele>79.16666666666666</ele><time>2026-03-30T12:59:07.291Z</time></trkpt><trkpt lat="41.08417" lon="14.331275"><ele>79.0</ele><time>2026-03-30T12:59:08.292Z</time></trkpt><trkpt lat="41.0840883" lon="14.33127"><ele>78.66666666666666</ele><time>2026-03-30T12:59:09.291Z</time></trkpt><trkpt lat="41.08401" lon="14.331275"><ele>78.33333333333333</ele><time>2026-03-30T12:59:10.291Z</time></trkpt><trkpt lat="41.0839283" lon="14.331285"><ele>78.0</ele><time>2026-03-30T12:59:11.292Z</time></trkpt><trkpt lat="41.0838517" lon="14.3312917"><ele>77.66666666666667</ele><time>2026-03-30T12:59:12.292Z</time></trkpt><trkpt lat="41.0837717" lon="14.3312933"><ele>77.33333333333334</ele><time>2026-03-30T12:59:13.292Z</time></trkpt><trkpt lat="41.083695" lon="14.3312933"><ele>77.0</ele><time>2026-03-30T12:59:14.291Z</time></trkpt><trkpt lat="41.08362" lon="14.3312917"><ele>77.0</ele><time>2026-03-30T12:59:15.291Z</time></trkpt><trkpt lat="41.0835433" lon="14.3312933"><ele>77.0</ele><time>2026-03-30T12:59:16.292Z</time></trkpt><trkpt lat="41.0834733" lon="14.3312933"><ele>77.0</ele><time>2026-03-30T12:59:17.291Z</time></trkpt><trkpt lat="41.0834083" lon="14.331295"><ele>77.0</ele><time>2026-03-30T12:59:18.291Z</time></trkpt><trkpt lat="41.0833417" lon="14.3312983"><ele>77.0</ele><time>2026-03-30T12:59:19.291Z</time></trkpt><trkpt lat="41.0832783" lon="14.3313017"><ele>77.0</ele><time>2026-03-30T12:59:20.292Z</time></trkpt><trkpt lat="41.0831567" lon="14.3313017"><ele>77.0</ele><time>2026-03-30T12:59:22.291Z</time></trkpt><trkpt lat="41.08309" lon="14.3312933"><ele>77.0</ele><time>2026-03-30T12:59:23.291Z</time></trkpt><trkpt lat="41.0830217" lon="14.3312833"><ele>77.0</ele><time>2026-03-30T12:59:24.291Z</time></trkpt><trkpt lat="41.08295" lon="14.3312833"><ele>77.0</ele><time>2026-03-30T12:59:25.291Z</time></trkpt><trkpt lat="41.08288" lon="14.3312817"><ele>77.0</ele><time>2026-03-30T12:59:26.291Z</time></trkpt><trkpt lat="41.0828067" lon="14.3312883"><ele>77.0</ele><time>2026-03-30T12:59:27.291Z</time></trkpt><trkpt lat="41.0827317" lon="14.3312917"><ele>77.0</ele><time>2026-03-30T12:59:28.291Z</time></trkpt><trkpt lat="41.08266" lon="14.3312917"><ele>77.0</ele><time>2026-03-30T12:59:29.291Z</time></trkpt><trkpt lat="41.0825883" lon="14.33129"><ele>77.0</ele><time>2026-03-30T12:59:30.291Z</time></trkpt><trkpt lat="41.082515" lon="14.3312883"><ele>77.0</ele><time>2026-03-30T12:59:31.292Z</time></trkpt><trkpt lat="41.0824383" lon="14.331285"><ele>77.0</ele><time>2026-03-30T12:59:32.292Z</time></trkpt><trkpt lat="41.082365" lon="14.331285"><ele>77.0</ele><time>2026-03-30T12:59:33.291Z</time></trkpt><trkpt lat="41.0822967" lon="14.3312833"><ele>77.0</ele><time>2026-03-30T12:59:34.291Z</time></trkpt><trkpt lat="41.082225" lon="14.331285"><ele>77.0</ele><time>2026-03-30T12:59:35.291Z</time></trkpt><trkpt lat="41.08216" lon="14.3312883"><ele>77.66666666666667</ele><time>2026-03-30T12:59:36.291Z</time></trkpt><trkpt lat="41.0820917" lon="14.3312933"><ele>78.33333333333334</ele><time>2026-03-30T12:59:37.292Z</time></trkpt><trkpt lat="41.082025" lon="14.3312933"><ele>79.0</ele><time>2026-03-30T12:59:38.291Z</time></trkpt><trkpt lat="41.0819567" lon="14.3312917"><ele>79.66666666666667</ele><time>2026-03-30T12:59:39.291Z</time></trkpt><trkpt lat="41.0818867" lon="14.33129"><ele>80.33333333333333</ele><time>2026-03-30T12:59:40.292Z</time></trkpt><trkpt lat="41.0818217" lon="14.3312917"><ele>81.0</ele><time>2026-03-30T12:59:41.292Z</time></trkpt><trkpt lat="41.0817083" lon="14.3312933"><ele>81.0</ele><time>2026-03-30T12:59:43.291Z</time></trkpt><trkpt lat="41.081615" lon="14.3312767"><ele>81.0</ele><time>2026-03-30T12:59:45.291Z</time></trkpt><trkpt lat="41.081545" lon="14.33126"><ele>81.0</ele><time>2026-03-30T12:59:47.291Z</time></trkpt><trkpt lat="41.081465" lon="14.331265"><ele>81.0</ele><time>2026-03-30T12:59:49.291Z</time></trkpt><trkpt lat="41.0813833" lon="14.3312767"><ele>81.0</ele><time>2026-03-30T12:59:51.292Z</time></trkpt><trkpt lat="41.0813017" lon="14.3312667"><ele>81.0</ele><time>2026-03-30T12:59:53.291Z</time></trkpt><trkpt lat="41.0812133" lon="14.331265"><ele>81.0</ele><time>2026-03-30T12:59:55.292Z</time></trkpt><trkpt lat="41.0811067" lon="14.3312667"><ele>81.0</ele><time>2026-03-30T12:59:57.291Z</time></trkpt><trkpt lat="41.0809917" lon="14.3312783"><ele>81.0</ele><time>2026-03-30T12:59:59.291Z</time></trkpt><trkpt lat="41.0808767" lon="14.3312883"><ele>81.0</ele><time>2026-03-30T13:00:01.291Z</time></trkpt><trkpt lat="41.080805" lon="14.3312983"><ele>81.0</ele><time>2026-03-30T13:00:02.291Z</time></trkpt><trkpt lat="41.08073" lon="14.3313"><ele>80.85714285714286</ele><time>2026-03-30T13:00:03.291Z</time></trkpt><trkpt lat="41.0806567" lon="14.3313033"><ele>80.71428571428571</ele><time>2026-03-30T13:00:04.292Z</time></trkpt><trkpt lat="41.0805783" lon="14.3313"><ele>80.57142857142857</ele><time>2026-03-30T13:00:05.291Z</time></trkpt><trkpt lat="41.0805017" lon="14.3312983"><ele>80.42857142857143</ele><time>2026-03-30T13:00:06.292Z</time></trkpt><trkpt lat="41.0804333" lon="14.3312983"><ele>80.28571428571429</ele><time>2026-03-30T13:00:07.292Z</time></trkpt><trkpt lat="41.080355" lon="14.3312967"><ele>80.14285714285714</ele><time>2026-03-30T13:00:08.291Z</time></trkpt><trkpt lat="41.0802833" lon="14.331295"><ele>80.0</ele><time>2026-03-30T13:00:09.291Z</time></trkpt><trkpt lat="41.08021" lon="14.3312933"><ele>80.0</ele><time>2026-03-30T13:00:10.292Z</time></trkpt><trkpt lat="41.0801433" lon="14.3312967"><ele>80.0</ele><time>2026-03-30T13:00:11.292Z</time></trkpt><trkpt lat="41.080075" lon="14.3312967"><ele>80.0</ele><time>2026-03-30T13:00:12.292Z</time></trkpt><trkpt lat="41.080005" lon="14.3312967"><ele>80.0</ele><time>2026-03-30T13:00:13.291Z</time></trkpt><trkpt lat="41.07992" lon="14.33129"><ele>80.0</ele><time>2026-03-30T13:00:14.292Z</time></trkpt><trkpt lat="41.0798467" lon="14.331285"><ele>80.0</ele><time>2026-03-30T13:00:15.292Z</time></trkpt><trkpt lat="41.079775" lon="14.3312817"><ele>80.0</ele><time>2026-03-30T13:00:16.291Z</time></trkpt><trkpt lat="41.0797117" lon="14.3312867"><ele>80.5</ele><time>2026-03-30T13:00:17.291Z</time></trkpt><trkpt lat="41.0795933" lon="14.3312983"><ele>81.0</ele><time>2026-03-30T13:00:19.291Z</time></trkpt><trkpt lat="41.0794733" lon="14.331315"><ele>81.5</ele><time>2026-03-30T13:00:21.292Z</time></trkpt><trkpt lat="41.0794067" lon="14.331315"><ele>82.0</ele><time>2026-03-30T13:00:22.291Z</time></trkpt><trkpt lat="41.0793367" lon="14.3313167"><ele>82.5</ele><time>2026-03-30T13:00:23.292Z</time></trkpt><trkpt lat="41.079265" lon="14.3313083"><ele>83.0</ele><time>2026-03-30T13:00:24.291Z</time></trkpt><trkpt lat="41.079195" lon="14.3313067"><ele>83.0</ele><time>2026-03-30T13:00:25.292Z</time></trkpt><trkpt lat="41.0791233" lon="14.3313033"><ele>83.0</ele><time>2026-03-30T13:00:26.292Z</time></trkpt><trkpt lat="41.0790567" lon="14.3313"><ele>83.0</ele><time>2026-03-30T13:00:27.292Z</time></trkpt><trkpt lat="41.0789367" lon="14.3313017"><ele>83.0</ele><time>2026-03-30T13:00:29.291Z</time></trkpt><trkpt lat="41.0788717" lon="14.3313017"><ele>83.0</ele><time>2026-03-30T13:00:30.292Z</time></trkpt><trkpt lat="41.0788067" lon="14.331305"><ele>83.0</ele><time>2026-03-30T13:00:31.292Z</time></trkpt><trkpt lat="41.0786867" lon="14.3313"><ele>82.66666666666667</ele><time>2026-03-30T13:00:33.292Z</time></trkpt><trkpt lat="41.0785883" lon="14.3313083"><ele>82.33333333333334</ele><time>2026-03-30T13:00:35.292Z</time></trkpt><trkpt lat="41.0785217" lon="14.3313083"><ele>82.0</ele><time>2026-03-30T13:00:36.292Z</time></trkpt><trkpt lat="41.0783867" lon="14.3312983"><ele>81.66666666666667</ele><time>2026-03-30T13:00:38.292Z</time></trkpt><trkpt lat="41.0783167" lon="14.3313017"><ele>81.33333333333333</ele><time>2026-03-30T13:00:39.291Z</time></trkpt><trkpt lat="41.07825" lon="14.3313"><ele>81.0</ele><time>2026-03-30T13:00:40.292Z</time></trkpt><trkpt lat="41.07818" lon="14.3313033"><ele>80.85714285714286</ele><time>2026-03-30T13:00:41.292Z</time></trkpt><trkpt lat="41.0781067" lon="14.331305"><ele>80.71428571428571</ele><time>2026-03-30T13:00:42.292Z</time></trkpt><trkpt lat="41.0780233" lon="14.3313033"><ele>80.57142857142857</ele><time>2026-03-30T13:00:43.292Z</time></trkpt><trkpt lat="41.077955" lon="14.3313033"><ele>80.42857142857143</ele><time>2026-03-30T13:00:44.292Z</time></trkpt><trkpt lat="41.077885" lon="14.3313017"><ele>80.28571428571429</ele><time>2026-03-30T13:00:45.291Z</time></trkpt><trkpt lat="41.077815" lon="14.3313033"><ele>80.14285714285714</ele><time>2026-03-30T13:00:46.292Z</time></trkpt><trkpt lat="41.0777417" lon="14.3313083"><ele>80.0</ele><time>2026-03-30T13:00:47.292Z</time></trkpt><trkpt lat="41.0776733" lon="14.33131"><ele>80.0</ele><time>2026-03-30T13:00:48.291Z</time></trkpt><trkpt lat="41.0776033" lon="14.331315"><ele>80.0</ele><time>2026-03-30T13:00:49.292Z</time></trkpt><trkpt lat="41.0775333" lon="14.3313133"><ele>80.0</ele><time>2026-03-30T13:00:50.291Z</time></trkpt><trkpt lat="41.0774567" lon="14.3313167"><ele>80.0</ele><time>2026-03-30T13:00:51.292Z</time></trkpt><trkpt lat="41.0773833" lon="14.3313167"><ele>80.0</ele><time>2026-03-30T13:00:52.291Z</time></trkpt><trkpt lat="41.07731" lon="14.3313183"><ele>80.0</ele><time>2026-03-30T13:00:53.292Z</time></trkpt><trkpt lat="41.077235" lon="14.3313167"><ele>80.0</ele><time>2026-03-30T13:00:54.292Z</time></trkpt><trkpt lat="41.0771617" lon="14.3313183"><ele>78.85714285714286</ele><time>2026-03-30T13:00:55.292Z</time></trkpt><trkpt lat="41.0770867" lon="14.33132"><ele>77.71428571428572</ele><time>2026-03-30T13:00:56.292Z</time></trkpt><trkpt lat="41.0770133" lon="14.33132"><ele>76.57142857142858</ele><time>2026-03-30T13:00:57.292Z</time></trkpt><trkpt lat="41.0769383" lon="14.33132"><ele>75.42857142857143</ele><time>2026-03-30T13:00:58.293Z</time></trkpt><trkpt lat="41.076865" lon="14.3313217"><ele>74.28571428571429</ele><time>2026-03-30T13:00:59.292Z</time></trkpt><trkpt lat="41.0767967" lon="14.3313217"><ele>73.14285714285715</ele><time>2026-03-30T13:01:00.291Z</time></trkpt><trkpt lat="41.0767233" lon="14.3313233"><ele>72.0</ele><time>2026-03-30T13:01:01.292Z</time></trkpt><trkpt lat="41.0766533" lon="14.3313317"><ele>72.16666666666667</ele><time>2026-03-30T13:01:02.291Z</time></trkpt><trkpt lat="41.07658" lon="14.33134"><ele>72.33333333333333</ele><time>2026-03-30T13:01:03.293Z</time></trkpt><trkpt lat="41.0764983" lon="14.3313383"><ele>72.5</ele><time>2026-03-30T13:01:04.292Z</time></trkpt><trkpt lat="41.07642" lon="14.3313333"><ele>72.66666666666666</ele><time>2026-03-30T13:01:05.292Z</time></trkpt><trkpt lat="41.0763433" lon="14.33133"><ele>72.83333333333333</ele><time>2026-03-30T13:01:06.291Z</time></trkpt><trkpt lat="41.0762583" lon="14.33133"><ele>73.0</ele><time>2026-03-30T13:01:07.292Z</time></trkpt><trkpt lat="41.0761733" lon="14.3313267"><ele>73.0</ele><time>2026-03-30T13:01:08.291Z</time></trkpt><trkpt lat="41.07609" lon="14.33132"><ele>73.0</ele><time>2026-03-30T13:01:09.291Z</time></trkpt><trkpt lat="41.07601" lon="14.3313183"><ele>73.0</ele><time>2026-03-30T13:01:10.292Z</time></trkpt><trkpt lat="41.0759383" lon="14.3313283"><ele>73.0</ele><time>2026-03-30T13:01:11.293Z</time></trkpt><trkpt lat="41.075855" lon="14.3313317"><ele>73.0</ele><time>2026-03-30T13:01:12.292Z</time></trkpt><trkpt lat="41.0757783" lon="14.3313317"><ele>73.0</ele><time>2026-03-30T13:01:13.292Z</time></trkpt><trkpt lat="41.075695" lon="14.3313367"><ele>73.33333333333333</ele><time>2026-03-30T13:01:14.291Z</time></trkpt><trkpt lat="41.0756233" lon="14.3313467"><ele>73.66666666666666</ele><time>2026-03-30T13:01:15.292Z</time></trkpt><trkpt lat="41.0755583" lon="14.33135"><ele>74.0</ele><time>2026-03-30T13:01:16.292Z</time></trkpt><trkpt lat="41.0754933" lon="14.3313567"><ele>74.33333333333333</ele><time>2026-03-30T13:01:17.292Z</time></trkpt><trkpt lat="41.0753717" lon="14.3313667"><ele>74.66666666666667</ele><time>2026-03-30T13:01:19.292Z</time></trkpt><trkpt lat="41.07525" lon="14.331375"><ele>75.0</ele><time>2026-03-30T13:01:21.291Z</time></trkpt><trkpt lat="41.0751317" lon="14.3313683"><ele>75.0</ele><time>2026-03-30T13:01:23.292Z</time></trkpt><trkpt lat="41.0750183" lon="14.3313733"><ele>75.0</ele><time>2026-03-30T13:01:25.292Z</time></trkpt><trkpt lat="41.0749117" lon="14.3313917"><ele>75.0</ele><time>2026-03-30T13:01:27.291Z</time></trkpt><trkpt lat="41.0747983" lon="14.331385"><ele>75.0</ele><time>2026-03-30T13:01:29.292Z</time></trkpt><trkpt lat="41.0746867" lon="14.3313767"><ele>75.0</ele><time>2026-03-30T13:01:31.292Z</time></trkpt><trkpt lat="41.0746233" lon="14.3313667"><ele>74.8</ele><time>2026-03-30T13:01:32.292Z</time></trkpt><trkpt lat="41.0745017" lon="14.3313533"><ele>74.6</ele><time>2026-03-30T13:01:34.292Z</time></trkpt><trkpt lat="41.0743733" lon="14.3313417"><ele>74.4</ele><time>2026-03-30T13:01:36.292Z</time></trkpt><trkpt lat="41.0742433" lon="14.331325"><ele>74.2</ele><time>2026-03-30T13:01:38.292Z</time></trkpt><trkpt lat="41.0741783" lon="14.3313233"><ele>74.0</ele><time>2026-03-30T13:01:39.291Z</time></trkpt><trkpt lat="41.074115" lon="14.331315"><ele>74.0</ele><time>2026-03-30T13:01:40.291Z</time></trkpt><trkpt lat="41.0740017" lon="14.3312983"><ele>74.0</ele><time>2026-03-30T13:01:42.291Z</time></trkpt><trkpt lat="41.07391" lon="14.3313017"><ele>74.0</ele><time>2026-03-30T13:01:44.291Z</time></trkpt><trkpt lat="41.0737983" lon="14.331295"><ele>74.0</ele><time>2026-03-30T13:01:46.292Z</time></trkpt><trkpt lat="41.073685" lon="14.33129"><ele>74.0</ele><time>2026-03-30T13:01:48.292Z</time></trkpt><trkpt lat="41.073565" lon="14.3312783"><ele>74.0</ele><time>2026-03-30T13:01:50.292Z</time></trkpt><trkpt lat="41.0734467" lon="14.3312883"><ele>74.0</ele><time>2026-03-30T13:01:52.292Z</time></trkpt><trkpt lat="41.073335" lon="14.3312767"><ele>74.0</ele><time>2026-03-30T13:01:54.292Z</time></trkpt><trkpt lat="41.0732167" lon="14.33127"><ele>74.0</ele><time>2026-03-30T13:01:56.291Z</time></trkpt><trkpt lat="41.0731533" lon="14.331265"><ele>74.0</ele><time>2026-03-30T13:01:57.292Z</time></trkpt><trkpt lat="41.0730283" lon="14.3312567"><ele>73.60000000000001</ele><time>2026-03-30T13:01:59.292Z</time></trkpt><trkpt lat="41.0729183" lon="14.33126"><ele>73.2</ele><time>2026-03-30T13:02:01.292Z</time></trkpt><trkpt lat="41.0728033" lon="14.331265"><ele>72.80000000000001</ele><time>2026-03-30T13:02:03.291Z</time></trkpt><trkpt lat="41.0726917" lon="14.3312767"><ele>72.4</ele><time>2026-03-30T13:02:05.292Z</time></trkpt><trkpt lat="41.07259" lon="14.3312733"><ele>72.0</ele><time>2026-03-30T13:02:07.292Z</time></trkpt><trkpt lat="41.0724733" lon="14.3312717"><ele>71.83333333333333</ele><time>2026-03-30T13:02:09.291Z</time></trkpt><trkpt lat="41.0724067" lon="14.3312717"><ele>71.66666666666667</ele><time>2026-03-30T13:02:10.292Z</time></trkpt><trkpt lat="41.0723417" lon="14.33127"><ele>71.5</ele><time>2026-03-30T13:02:11.292Z</time></trkpt><trkpt lat="41.0722767" lon="14.3312533"><ele>71.33333333333334</ele><time>2026-03-30T13:02:12.293Z</time></trkpt><trkpt lat="41.0721617" lon="14.3312633"><ele>71.16666666666667</ele><time>2026-03-30T13:02:14.293Z</time></trkpt><trkpt lat="41.0720583" lon="14.3312717"><ele>71.0</ele><time>2026-03-30T13:02:16.293Z</time></trkpt><trkpt lat="41.07197" lon="14.3312683"><ele>71.0</ele><time>2026-03-30T13:02:18.294Z</time></trkpt><trkpt lat="41.0718833" lon="14.331275"><ele>71.0</ele><time>2026-03-30T13:02:20.293Z</time></trkpt><trkpt lat="41.071805" lon="14.3312717"><ele>71.0</ele><time>2026-03-30T13:02:22.293Z</time></trkpt><trkpt lat="41.0717333" lon="14.3312683"><ele>71.0</ele><time>2026-03-30T13:02:24.293Z</time></trkpt><trkpt lat="41.0716617" lon="14.3312583"><ele>71.0</ele><time>2026-03-30T13:02:26.293Z</time></trkpt><trkpt lat="41.071585" lon="14.33127"><ele>71.0</ele><time>2026-03-30T13:02:28.293Z</time></trkpt><trkpt lat="41.0715117" lon="14.3312817"><ele>70.33333333333334</ele><time>2026-03-30T13:02:30.294Z</time></trkpt><trkpt lat="41.071435" lon="14.33127"><ele>69.66666666666667</ele><time>2026-03-30T13:02:32.292Z</time></trkpt><trkpt lat="41.0713533" lon="14.3312733"><ele>69.0</ele><time>2026-03-30T13:02:34.293Z</time></trkpt><trkpt lat="41.0712767" lon="14.3312583"><ele>68.33333333333333</ele><time>2026-03-30T13:02:36.293Z</time></trkpt><trkpt lat="41.0711667" lon="14.331255"><ele>67.66666666666666</ele><time>2026-03-30T13:02:38.292Z</time></trkpt><trkpt lat="41.071075" lon="14.331255"><ele>67.0</ele><time>2026-03-30T13:02:40.293Z</time></trkpt><trkpt lat="41.070965" lon="14.33126"><ele>67.0</ele><time>2026-03-30T13:02:42.294Z</time></trkpt><trkpt lat="41.0708733" lon="14.3312417"><ele>67.0</ele><time>2026-03-30T13:02:44.293Z</time></trkpt><trkpt lat="41.0707767" lon="14.3312417"><ele>67.0</ele><time>2026-03-30T13:02:46.293Z</time></trkpt><trkpt lat="41.070675" lon="14.3312167"><ele>67.0</ele><time>2026-03-30T13:02:48.293Z</time></trkpt><trkpt lat="41.0705817" lon="14.3312133"><ele>67.0</ele><time>2026-03-30T13:02:50.293Z</time></trkpt><trkpt lat="41.070505" lon="14.3312167"><ele>67.16666666666666</ele><time>2026-03-30T13:02:52.293Z</time></trkpt><trkpt lat="41.0704383" lon="14.3311883"><ele>67.33333333333333</ele><time>2026-03-30T13:02:55.293Z</time></trkpt><trkpt lat="41.0703567" lon="14.331185"><ele>67.5</ele><time>2026-03-30T13:02:57.293Z</time></trkpt><trkpt lat="41.0702717" lon="14.3311867"><ele>67.66666666666667</ele><time>2026-03-30T13:02:59.293Z</time></trkpt><trkpt lat="41.0701833" lon="14.331175"><ele>67.83333333333334</ele><time>2026-03-30T13:03:01.293Z</time></trkpt><trkpt lat="41.0701183" lon="14.331205"><ele>68.0</ele><time>2026-03-30T13:03:03.293Z</time></trkpt><trkpt lat="41.0700633" lon="14.33125"><ele>67.99999999999999</ele><time>2026-03-30T13:03:06.293Z</time></trkpt><trkpt lat="41.0699933" lon="14.3312217"><ele>68.0</ele><time>2026-03-30T13:03:22.293Z</time></trkpt><trkpt lat="41.07002" lon="14.331145"><ele>68.0</ele><time>2026-03-30T13:03:28.292Z</time></trkpt><trkpt lat="41.0700583" lon="14.3310617"><ele>68.0</ele><time>2026-03-30T13:03:31.293Z</time></trkpt><trkpt lat="41.0700467" lon="14.3309783"><ele>68.0</ele><time>2026-03-30T13:03:33.293Z</time></trkpt><trkpt lat="41.070005" lon="14.3309117"><ele>67.99999999999999</ele><time>2026-03-30T13:03:35.293Z</time></trkpt><trkpt lat="41.0699567" lon="14.3308383"><ele>68.0</ele><time>2026-03-30T13:03:37.293Z</time></trkpt><trkpt lat="41.0699" lon="14.330775"><ele>68.5</ele><time>2026-03-30T13:03:39.297Z</time></trkpt><trkpt lat="41.06985" lon="14.33072"><ele>69.0</ele><time>2026-03-30T13:03:41.293Z</time></trkpt><trkpt lat="41.06978" lon="14.3306817"><ele>69.5</ele><time>2026-03-30T13:03:43.293Z</time></trkpt><trkpt lat="41.0697017" lon="14.3306667"><ele>70.0</ele><time>2026-03-30T13:03:45.292Z</time></trkpt><trkpt lat="41.069625" lon="14.3306517"><ele>70.5</ele><time>2026-03-30T13:03:47.293Z</time></trkpt><trkpt lat="41.06955" lon="14.3306317"><ele>71.0</ele><time>2026-03-30T13:03:49.293Z</time></trkpt><trkpt lat="41.0694717" lon="14.3306283"><ele>71.0</ele><time>2026-03-30T13:03:51.292Z</time></trkpt><trkpt lat="41.0693867" lon="14.3306233"><ele>71.0</ele><time>2026-03-30T13:03:53.293Z</time></trkpt><trkpt lat="41.0692967" lon="14.3306317"><ele>71.0</ele><time>2026-03-30T13:03:55.293Z</time></trkpt><trkpt lat="41.069215" lon="14.3306417"><ele>71.0</ele><time>2026-03-30T13:03:57.292Z</time></trkpt><trkpt lat="41.069125" lon="14.3306367"><ele>71.0</ele><time>2026-03-30T13:03:59.293Z</time></trkpt><trkpt lat="41.0690317" lon="14.3306283"><ele>71.0</ele><time>2026-03-30T13:04:01.293Z</time></trkpt><trkpt lat="41.0689333" lon="14.3306083"><ele>70.16666666666667</ele><time>2026-03-30T13:04:03.292Z</time></trkpt><trkpt lat="41.0688467" lon="14.3305867"><ele>69.33333333333334</ele><time>2026-03-30T13:04:05.293Z</time></trkpt><trkpt lat="41.068755" lon="14.3305717"><ele>68.5</ele><time>2026-03-30T13:04:07.293Z</time></trkpt><trkpt lat="41.0686733" lon="14.3305617"><ele>67.66666666666667</ele><time>2026-03-30T13:04:09.293Z</time></trkpt><trkpt lat="41.0685933" lon="14.330555"><ele>66.83333333333333</ele><time>2026-03-30T13:04:11.293Z</time></trkpt><trkpt lat="41.0685133" lon="14.33055"><ele>66.0</ele><time>2026-03-30T13:04:13.294Z</time></trkpt><trkpt lat="41.0684333" lon="14.3305467"><ele>66.0</ele><time>2026-03-30T13:04:15.293Z</time></trkpt><trkpt lat="41.0683483" lon="14.3305383"><ele>66.0</ele><time>2026-03-30T13:04:17.294Z</time></trkpt><trkpt lat="41.068255" lon="14.3305267"><ele>66.0</ele><time>2026-03-30T13:04:19.293Z</time></trkpt><trkpt lat="41.068175" lon="14.330515"><ele>66.0</ele><time>2026-03-30T13:04:21.293Z</time></trkpt><trkpt lat="41.0680933" lon="14.33051"><ele>66.0</ele><time>2026-03-30T13:04:23.293Z</time></trkpt><trkpt lat="41.068015" lon="14.3305033"><ele>66.0</ele><time>2026-03-30T13:04:25.293Z</time></trkpt><trkpt lat="41.067935" lon="14.3305017"><ele>65.6</ele><time>2026-03-30T13:04:27.294Z</time></trkpt><trkpt lat="41.0678467" lon="14.33048"><ele>65.19999999999999</ele><time>2026-03-30T13:04:29.293Z</time></trkpt><trkpt lat="41.0677583" lon="14.3304467"><ele>64.80000000000001</ele><time>2026-03-30T13:04:31.294Z</time></trkpt><trkpt lat="41.0676833" lon="14.330405"><ele>64.4</ele><time>2026-03-30T13:04:33.294Z</time></trkpt><trkpt lat="41.0676" lon="14.3303417"><ele>64.0</ele><time>2026-03-30T13:04:35.293Z</time></trkpt><trkpt lat="41.06752" lon="14.330265"><ele>64.0</ele><time>2026-03-30T13:04:37.293Z</time></trkpt><trkpt lat="41.0674483" lon="14.3301717"><ele>64.0</ele><time>2026-03-30T13:04:39.294Z</time></trkpt><trkpt lat="41.067385" lon="14.3300583"><ele>64.0</ele><time>2026-03-30T13:04:41.293Z</time></trkpt><trkpt lat="41.0673283" lon="14.3299317"><ele>64.0</ele><time>2026-03-30T13:04:43.294Z</time></trkpt><trkpt lat="41.0672733" lon="14.3298"><ele>64.0</ele><time>2026-03-30T13:04:45.294Z</time></trkpt><trkpt lat="41.067215" lon="14.329655"><ele>63.400000000000006</ele><time>2026-03-30T13:04:47.294Z</time></trkpt><trkpt lat="41.0671517" lon="14.3295133"><ele>62.800000000000004</ele><time>2026-03-30T13:04:49.294Z</time></trkpt><trkpt lat="41.0671217" lon="14.329435"><ele>62.199999999999996</ele><time>2026-03-30T13:04:50.294Z</time></trkpt><trkpt lat="41.0670667" lon="14.32929"><ele>61.599999999999994</ele><time>2026-03-30T13:04:52.294Z</time></trkpt><trkpt lat="41.0670283" lon="14.3291633"><ele>61.0</ele><time>2026-03-30T13:04:54.294Z</time></trkpt><trkpt lat="41.066995" lon="14.32908"><ele>60.99999999999999</ele><time>2026-03-30T13:04:56.294Z</time></trkpt><trkpt lat="41.0669817" lon="14.32899"><ele>61.0</ele><time>2026-03-30T13:05:22.294Z</time></trkpt><trkpt lat="41.0669867" lon="14.3288783"><ele>61.0</ele><time>2026-03-30T13:05:25.294Z</time></trkpt><trkpt lat="41.066975" lon="14.3287817"><ele>61.0</ele><time>2026-03-30T13:05:27.293Z</time></trkpt><trkpt lat="41.066935" lon="14.328675"><ele>60.99999999999999</ele><time>2026-03-30T13:05:29.293Z</time></trkpt><trkpt lat="41.0668933" lon="14.3285517"><ele>61.0</ele><time>2026-03-30T13:05:31.293Z</time></trkpt><trkpt lat="41.066845" lon="14.32843"><ele>61.0</ele><time>2026-03-30T13:05:33.293Z</time></trkpt><trkpt lat="41.0667883" lon="14.3282967"><ele>60.99999999999999</ele><time>2026-03-30T13:05:35.294Z</time></trkpt><trkpt lat="41.06673" lon="14.3281583"><ele>60.99999999999999</ele><time>2026-03-30T13:05:37.293Z</time></trkpt><trkpt lat="41.0666983" lon="14.3280833"><ele>61.0</ele><time>2026-03-30T13:05:38.293Z</time></trkpt><trkpt lat="41.0666367" lon="14.3279417"><ele>61.0</ele><time>2026-03-30T13:05:40.293Z</time></trkpt><trkpt lat="41.0665783" lon="14.3278017"><ele>60.8</ele><time>2026-03-30T13:05:42.293Z</time></trkpt><trkpt lat="41.06652" lon="14.327665"><ele>60.599999999999994</ele><time>2026-03-30T13:05:44.293Z</time></trkpt><trkpt lat="41.0664567" lon="14.327525"><ele>60.4</ele><time>2026-03-30T13:05:46.293Z</time></trkpt><trkpt lat="41.066425" lon="14.3274517"><ele>60.2</ele><time>2026-03-30T13:05:47.294Z</time></trkpt><trkpt lat="41.0663683" lon="14.32731"><ele>60.0</ele><time>2026-03-30T13:05:49.293Z</time></trkpt><trkpt lat="41.066305" lon="14.32717"><ele>60.0</ele><time>2026-03-30T13:05:51.293Z</time></trkpt><trkpt lat="41.0662467" lon="14.3270367"><ele>60.0</ele><time>2026-03-30T13:05:53.295Z</time></trkpt><trkpt lat="41.0661933" lon="14.3269033"><ele>60.0</ele><time>2026-03-30T13:05:55.293Z</time></trkpt><trkpt lat="41.0661467" lon="14.3267583"><ele>60.0</ele><time>2026-03-30T13:05:57.293Z</time></trkpt><trkpt lat="41.066095" lon="14.3266133"><ele>60.0</ele><time>2026-03-30T13:05:59.293Z</time></trkpt><trkpt lat="41.0660133" lon="14.3265117"><ele>60.0</ele><time>2026-03-30T13:06:01.293Z</time></trkpt><trkpt lat="41.0659017" lon="14.3264667"><ele>60.0</ele><time>2026-03-30T13:06:03.293Z</time></trkpt><trkpt lat="41.0658367" lon="14.3264483"><ele>60.0</ele><time>2026-03-30T13:06:04.293Z</time></trkpt><trkpt lat="41.0657717" lon="14.32644"><ele>60.0</ele><time>2026-03-30T13:06:05.293Z</time></trkpt><trkpt lat="41.0657067" lon="14.3264333"><ele>60.0</ele><time>2026-03-30T13:06:06.294Z</time></trkpt><trkpt lat="41.06564" lon="14.3264267"><ele>59.714285714285715</ele><time>2026-03-30T13:06:07.294Z</time></trkpt><trkpt lat="41.0655683" lon="14.3264217"><ele>59.42857142857143</ele><time>2026-03-30T13:06:08.294Z</time></trkpt><trkpt lat="41.0654983" lon="14.32642"><ele>59.142857142857146</ele><time>2026-03-30T13:06:09.294Z</time></trkpt><trkpt lat="41.0654267" lon="14.3264133"><ele>58.85714285714286</ele><time>2026-03-30T13:06:10.294Z</time></trkpt><trkpt lat="41.0653533" lon="14.3264083"><ele>58.57142857142857</ele><time>2026-03-30T13:06:11.293Z</time></trkpt><trkpt lat="41.0652817" lon="14.3264067"><ele>58.28571428571429</ele><time>2026-03-30T13:06:12.293Z</time></trkpt><trkpt lat="41.0652067" lon="14.3264067"><ele>58.00000000000001</ele><time>2026-03-30T13:06:13.296Z</time></trkpt><trkpt lat="41.0651333" lon="14.3264017"><ele>58.00000000000001</ele><time>2026-03-30T13:06:14.294Z</time></trkpt><trkpt lat="41.0650617" lon="14.3263917"><ele>58.0</ele><time>2026-03-30T13:06:15.293Z</time></trkpt><trkpt lat="41.0649883" lon="14.326385"><ele>58.00000000000001</ele><time>2026-03-30T13:06:16.293Z</time></trkpt><trkpt lat="41.0649167" lon="14.3263783"><ele>58.00000000000001</ele><time>2026-03-30T13:06:17.293Z</time></trkpt><trkpt lat="41.064845" lon="14.3263733"><ele>58.0</ele><time>2026-03-30T13:06:18.293Z</time></trkpt><trkpt lat="41.0647717" lon="14.32637"><ele>58.00000000000001</ele><time>2026-03-30T13:06:19.295Z</time></trkpt><trkpt lat="41.064695" lon="14.3263633"><ele>58.00000000000001</ele><time>2026-03-30T13:06:20.294Z</time></trkpt><trkpt lat="41.0646183" lon="14.3263533"><ele>57.99999999999999</ele><time>2026-03-30T13:06:21.294Z</time></trkpt><trkpt lat="41.0645433" lon="14.326345"><ele>58.0</ele><time>2026-03-30T13:06:22.294Z</time></trkpt><trkpt lat="41.0644683" lon="14.32634"><ele>58.0</ele><time>2026-03-30T13:06:23.294Z</time></trkpt><trkpt lat="41.0643933" lon="14.3263333"><ele>58.0</ele><time>2026-03-30T13:06:24.293Z</time></trkpt><trkpt lat="41.0643167" lon="14.3263267"><ele>57.99999999999999</ele><time>2026-03-30T13:06:25.294Z</time></trkpt><trkpt lat="41.0642367" lon="14.32632"><ele>58.0</ele><time>2026-03-30T13:06:26.296Z</time></trkpt><trkpt lat="41.0641583" lon="14.326315"><ele>58.166666666666664</ele><time>2026-03-30T13:06:27.293Z</time></trkpt><trkpt lat="41.06408" lon="14.3263117"><ele>58.33333333333333</ele><time>2026-03-30T13:06:28.293Z</time></trkpt><trkpt lat="41.064" lon="14.3263067"><ele>58.5</ele><time>2026-03-30T13:06:29.294Z</time></trkpt><trkpt lat="41.0639217" lon="14.3263067"><ele>58.66666666666667</ele><time>2026-03-30T13:06:30.293Z</time></trkpt><trkpt lat="41.063845" lon="14.326305"><ele>58.833333333333336</ele><time>2026-03-30T13:06:31.294Z</time></trkpt><trkpt lat="41.0637683" lon="14.3263017"><ele>59.0</ele><time>2026-03-30T13:06:32.294Z</time></trkpt><trkpt lat="41.06369" lon="14.3262967"><ele>59.00000000000001</ele><time>2026-03-30T13:06:33.294Z</time></trkpt><trkpt lat="41.0636083" lon="14.3262917"><ele>59.0</ele><time>2026-03-30T13:06:34.294Z</time></trkpt><trkpt lat="41.0635283" lon="14.326285"><ele>59.0</ele><time>2026-03-30T13:06:35.295Z</time></trkpt><trkpt lat="41.06345" lon="14.3262767"><ele>59.0</ele><time>2026-03-30T13:06:36.293Z</time></trkpt><trkpt lat="41.0633683" lon="14.32627"><ele>59.00000000000001</ele><time>2026-03-30T13:06:37.294Z</time></trkpt><trkpt lat="41.0632867" lon="14.3262617"><ele>59.0</ele><time>2026-03-30T13:06:38.293Z</time></trkpt><trkpt lat="41.063205" lon="14.3262517"><ele>59.00000000000001</ele><time>2026-03-30T13:06:39.293Z</time></trkpt><trkpt lat="41.063125" lon="14.3262433"><ele>59.0</ele><time>2026-03-30T13:06:40.293Z</time></trkpt><trkpt lat="41.0630467" lon="14.3262333"><ele>59.0</ele><time>2026-03-30T13:06:41.293Z</time></trkpt><trkpt lat="41.0629667" lon="14.3262267"><ele>59.0</ele><time>2026-03-30T13:06:42.292Z</time></trkpt><trkpt lat="41.0628833" lon="14.32622"><ele>59.00000000000001</ele><time>2026-03-30T13:06:43.294Z</time></trkpt><trkpt lat="41.0628" lon="14.326215"><ele>59.0</ele><time>2026-03-30T13:06:44.292Z</time></trkpt><trkpt lat="41.06272" lon="14.326205"><ele>59.00000000000001</ele><time>2026-03-30T13:06:45.292Z</time></trkpt><trkpt lat="41.0626383" lon="14.326195"><ele>59.0</ele><time>2026-03-30T13:06:46.292Z</time></trkpt><trkpt lat="41.0625583" lon="14.3261867"><ele>59.0</ele><time>2026-03-30T13:06:47.292Z</time></trkpt><trkpt lat="41.06248" lon="14.3261817"><ele>59.0</ele><time>2026-03-30T13:06:48.293Z</time></trkpt><trkpt lat="41.0623983" lon="14.3261783"><ele>59.00000000000001</ele><time>2026-03-30T13:06:49.292Z</time></trkpt><trkpt lat="41.0623167" lon="14.3261717"><ele>59.0</ele><time>2026-03-30T13:06:50.293Z</time></trkpt><trkpt lat="41.06224" lon="14.3261667"><ele>58.833333333333336</ele><time>2026-03-30T13:06:51.292Z</time></trkpt><trkpt lat="41.0621633" lon="14.32616"><ele>58.66666666666667</ele><time>2026-03-30T13:06:52.293Z</time></trkpt><trkpt lat="41.0620833" lon="14.3261483"><ele>58.5</ele><time>2026-03-30T13:06:53.293Z</time></trkpt><trkpt lat="41.0620017" lon="14.32614"><ele>58.33333333333333</ele><time>2026-03-30T13:06:54.292Z</time></trkpt><trkpt lat="41.0619217" lon="14.3261333"><ele>58.166666666666664</ele><time>2026-03-30T13:06:55.292Z</time></trkpt><trkpt lat="41.0618383" lon="14.32613"><ele>58.0</ele><time>2026-03-30T13:06:56.292Z</time></trkpt><trkpt lat="41.0617567" lon="14.32613"><ele>57.99999999999999</ele><time>2026-03-30T13:06:57.292Z</time></trkpt><trkpt lat="41.061675" lon="14.3261267"><ele>58.0</ele><time>2026-03-30T13:06:58.294Z</time></trkpt><trkpt lat="41.061595" lon="14.32612"><ele>58.0</ele><time>2026-03-30T13:06:59.292Z</time></trkpt><trkpt lat="41.0615167" lon="14.326115"><ele>58.0</ele><time>2026-03-30T13:07:00.294Z</time></trkpt><trkpt lat="41.0614367" lon="14.3261117"><ele>57.99999999999999</ele><time>2026-03-30T13:07:01.292Z</time></trkpt><trkpt lat="41.0613567" lon="14.3261017"><ele>58.0</ele><time>2026-03-30T13:07:02.292Z</time></trkpt><trkpt lat="41.0612783" lon="14.3260933"><ele>57.666666666666664</ele><time>2026-03-30T13:07:03.292Z</time></trkpt><trkpt lat="41.0612017" lon="14.3260867"><ele>57.33333333333333</ele><time>2026-03-30T13:07:04.292Z</time></trkpt><trkpt lat="41.0611233" lon="14.3260783"><ele>57.0</ele><time>2026-03-30T13:07:05.292Z</time></trkpt><trkpt lat="41.0610483" lon="14.326075"><ele>56.66666666666667</ele><time>2026-03-30T13:07:06.292Z</time></trkpt><trkpt lat="41.06097" lon="14.32607"><ele>56.333333333333336</ele><time>2026-03-30T13:07:07.292Z</time></trkpt><trkpt lat="41.0608883" lon="14.326065"><ele>56.0</ele><time>2026-03-30T13:07:08.292Z</time></trkpt><trkpt lat="41.0608067" lon="14.3260617"><ele>55.833333333333336</ele><time>2026-03-30T13:07:09.293Z</time></trkpt><trkpt lat="41.0607283" lon="14.3260583"><ele>55.66666666666667</ele><time>2026-03-30T13:07:10.292Z</time></trkpt><trkpt lat="41.0606483" lon="14.3260533"><ele>55.5</ele><time>2026-03-30T13:07:11.292Z</time></trkpt><trkpt lat="41.06057" lon="14.326045"><ele>55.33333333333333</ele><time>2026-03-30T13:07:12.293Z</time></trkpt><trkpt lat="41.0604917" lon="14.3260367"><ele>55.166666666666664</ele><time>2026-03-30T13:07:13.292Z</time></trkpt><trkpt lat="41.0604133" lon="14.3260267"><ele>55.0</ele><time>2026-03-30T13:07:14.292Z</time></trkpt><trkpt lat="41.060335" lon="14.3260167"><ele>54.99999999999999</ele><time>2026-03-30T13:07:15.293Z</time></trkpt><trkpt lat="41.0602583" lon="14.3260117"><ele>55.0</ele><time>2026-03-30T13:07:16.292Z</time></trkpt><trkpt lat="41.0601833" lon="14.32601"><ele>55.0</ele><time>2026-03-30T13:07:17.293Z</time></trkpt><trkpt lat="41.0601067" lon="14.3260067"><ele>55.0</ele><time>2026-03-30T13:07:18.293Z</time></trkpt><trkpt lat="41.0600267" lon="14.3260017"><ele>54.99999999999999</ele><time>2026-03-30T13:07:19.292Z</time></trkpt><trkpt lat="41.05995" lon="14.325995"><ele>55.0</ele><time>2026-03-30T13:07:20.292Z</time></trkpt><trkpt lat="41.0598717" lon="14.3259867"><ele>54.99999999999999</ele><time>2026-03-30T13:07:21.292Z</time></trkpt><trkpt lat="41.0597967" lon="14.3259767"><ele>55.0</ele><time>2026-03-30T13:07:22.292Z</time></trkpt><trkpt lat="41.0597183" lon="14.325965"><ele>55.0</ele><time>2026-03-30T13:07:23.294Z</time></trkpt><trkpt lat="41.0596383" lon="14.3259617"><ele>55.0</ele><time>2026-03-30T13:07:24.292Z</time></trkpt><trkpt lat="41.059555" lon="14.3259617"><ele>54.99999999999999</ele><time>2026-03-30T13:07:25.293Z</time></trkpt><trkpt lat="41.0594733" lon="14.3259633"><ele>55.0</ele><time>2026-03-30T13:07:26.293Z</time></trkpt><trkpt lat="41.0593933" lon="14.3259617"><ele>54.99999999999999</ele><time>2026-03-30T13:07:27.293Z</time></trkpt><trkpt lat="41.0593133" lon="14.3259583"><ele>55.0</ele><time>2026-03-30T13:07:28.294Z</time></trkpt><trkpt lat="41.0592317" lon="14.3259517"><ele>55.0</ele><time>2026-03-30T13:07:29.293Z</time></trkpt><trkpt lat="41.0591517" lon="14.325945"><ele>55.0</ele><time>2026-03-30T13:07:30.293Z</time></trkpt><trkpt lat="41.05907" lon="14.3259383"><ele>54.99999999999999</ele><time>2026-03-30T13:07:31.293Z</time></trkpt><trkpt lat="41.05899" lon="14.3259317"><ele>55.0</ele><time>2026-03-30T13:07:32.292Z</time></trkpt><trkpt lat="41.05891" lon="14.325925"><ele>54.83333333333333</ele><time>2026-03-30T13:07:33.293Z</time></trkpt><trkpt lat="41.0588283" lon="14.3259183"><ele>54.666666666666664</ele><time>2026-03-30T13:07:34.292Z</time></trkpt><trkpt lat="41.0587433" lon="14.3259133"><ele>54.5</ele><time>2026-03-30T13:07:35.293Z</time></trkpt><trkpt lat="41.0586583" lon="14.3259083"><ele>54.33333333333333</ele><time>2026-03-30T13:07:36.292Z</time></trkpt><trkpt lat="41.0585733" lon="14.3259017"><ele>54.166666666666664</ele><time>2026-03-30T13:07:37.293Z</time></trkpt><trkpt lat="41.0584933" lon="14.325895"><ele>54.0</ele><time>2026-03-30T13:07:38.294Z</time></trkpt><trkpt lat="41.0584133" lon="14.3258867"><ele>54.0</ele><time>2026-03-30T13:07:39.292Z</time></trkpt><trkpt lat="41.05833" lon="14.3258783"><ele>54.0</ele><time>2026-03-30T13:07:40.293Z</time></trkpt><trkpt lat="41.0582467" lon="14.3258717"><ele>54.0</ele><time>2026-03-30T13:07:41.293Z</time></trkpt><trkpt lat="41.0581617" lon="14.325865"><ele>54.0</ele><time>2026-03-30T13:07:42.293Z</time></trkpt><trkpt lat="41.0580817" lon="14.3258567"><ele>54.0</ele><time>2026-03-30T13:07:43.294Z</time></trkpt><trkpt lat="41.058" lon="14.3258467"><ele>54.0</ele><time>2026-03-30T13:07:44.294Z</time></trkpt><trkpt lat="41.05792" lon="14.3258383"><ele>54.0</ele><time>2026-03-30T13:07:45.293Z</time></trkpt><trkpt lat="41.0578367" lon="14.3258333"><ele>54.0</ele><time>2026-03-30T13:07:46.293Z</time></trkpt><trkpt lat="41.0577533" lon="14.3258283"><ele>54.0</ele><time>2026-03-30T13:07:47.293Z</time></trkpt><trkpt lat="41.0576683" lon="14.3258233"><ele>54.0</ele><time>2026-03-30T13:07:48.292Z</time></trkpt><trkpt lat="41.0575817" lon="14.3258167"><ele>54.0</ele><time>2026-03-30T13:07:49.293Z</time></trkpt><trkpt lat="41.057495" lon="14.3258117"><ele>54.0</ele><time>2026-03-30T13:07:50.293Z</time></trkpt><trkpt lat="41.05741" lon="14.3258033"><ele>54.0</ele><time>2026-03-30T13:07:51.293Z</time></trkpt><trkpt lat="41.0573233" lon="14.3257983"><ele>54.0</ele><time>2026-03-30T13:07:52.292Z</time></trkpt><trkpt lat="41.05724" lon="14.325795"><ele>54.0</ele><time>2026-03-30T13:07:53.293Z</time></trkpt><trkpt lat="41.0571517" lon="14.3257917"><ele>54.0</ele><time>2026-03-30T13:07:54.294Z</time></trkpt><trkpt lat="41.0570767" lon="14.3257883"><ele>54.0</ele><time>2026-03-30T13:07:55.294Z</time></trkpt><trkpt lat="41.056975" lon="14.3257567"><ele>54.0</ele><time>2026-03-30T13:07:57.292Z</time></trkpt><trkpt lat="41.0568767" lon="14.32568"><ele>54.0</ele><time>2026-03-30T13:07:59.295Z</time></trkpt><trkpt lat="41.05678" lon="14.3256133"><ele>54.0</ele><time>2026-03-30T13:08:01.293Z</time></trkpt><trkpt lat="41.0566683" lon="14.3256283"><ele>54.0</ele><time>2026-03-30T13:08:03.293Z</time></trkpt><trkpt lat="41.0566083" lon="14.3256667"><ele>54.0</ele><time>2026-03-30T13:08:04.293Z</time></trkpt><trkpt lat="41.0565483" lon="14.3257"><ele>54.0</ele><time>2026-03-30T13:08:05.292Z</time></trkpt><trkpt lat="41.056485" lon="14.3257233"><ele>54.0</ele><time>2026-03-30T13:08:06.292Z</time></trkpt><trkpt lat="41.0564217" lon="14.325725"><ele>53.857142857142854</ele><time>2026-03-30T13:08:07.295Z</time></trkpt><trkpt lat="41.0563583" lon="14.3257167"><ele>53.71428571428571</ele><time>2026-03-30T13:08:08.293Z</time></trkpt><trkpt lat="41.056295" lon="14.3257067"><ele>53.57142857142857</ele><time>2026-03-30T13:08:09.293Z</time></trkpt><trkpt lat="41.0562283" lon="14.3256983"><ele>53.42857142857143</ele><time>2026-03-30T13:08:10.293Z</time></trkpt><trkpt lat="41.05616" lon="14.3256967"><ele>53.285714285714285</ele><time>2026-03-30T13:08:11.292Z</time></trkpt><trkpt lat="41.0560917" lon="14.3256933"><ele>53.142857142857146</ele><time>2026-03-30T13:08:12.293Z</time></trkpt><trkpt lat="41.0560233" lon="14.3256883"><ele>53.0</ele><time>2026-03-30T13:08:13.294Z</time></trkpt><trkpt lat="41.0559533" lon="14.325685"><ele>53.0</ele><time>2026-03-30T13:08:14.293Z</time></trkpt><trkpt lat="41.0558867" lon="14.32568"><ele>53.0</ele><time>2026-03-30T13:08:15.293Z</time></trkpt><trkpt lat="41.0558183" lon="14.3256767"><ele>53.0</ele><time>2026-03-30T13:08:16.293Z</time></trkpt><trkpt lat="41.0557533" lon="14.3256717"><ele>53.0</ele><time>2026-03-30T13:08:17.293Z</time></trkpt><trkpt lat="41.055685" lon="14.3256633"><ele>53.0</ele><time>2026-03-30T13:08:18.293Z</time></trkpt><trkpt lat="41.0556133" lon="14.325655"><ele>53.0</ele><time>2026-03-30T13:08:19.292Z</time></trkpt><trkpt lat="41.0555433" lon="14.3256483"><ele>53.0</ele><time>2026-03-30T13:08:20.292Z</time></trkpt><trkpt lat="41.0554717" lon="14.3256433"><ele>52.57142857142858</ele><time>2026-03-30T13:08:21.292Z</time></trkpt><trkpt lat="41.0554" lon="14.3256367"><ele>52.14285714285714</ele><time>2026-03-30T13:08:22.293Z</time></trkpt><trkpt lat="41.0553283" lon="14.32563"><ele>51.714285714285715</ele><time>2026-03-30T13:08:23.292Z</time></trkpt><trkpt lat="41.0552567" lon="14.325625"><ele>51.28571428571429</ele><time>2026-03-30T13:08:24.292Z</time></trkpt><trkpt lat="41.0551867" lon="14.3256233"><ele>50.85714285714286</ele><time>2026-03-30T13:08:25.292Z</time></trkpt><trkpt lat="41.0551167" lon="14.3256183"><ele>50.42857142857143</ele><time>2026-03-30T13:08:26.292Z</time></trkpt><trkpt lat="41.055045" lon="14.32561"><ele>50.0</ele><time>2026-03-30T13:08:27.292Z</time></trkpt><trkpt lat="41.0549717" lon="14.3256033"><ele>50.50000000000001</ele><time>2026-03-30T13:08:28.294Z</time></trkpt><trkpt lat="41.0549" lon="14.3255967"><ele>51.0</ele><time>2026-03-30T13:08:29.292Z</time></trkpt><trkpt lat="41.0548283" lon="14.32559"><ele>51.5</ele><time>2026-03-30T13:08:30.293Z</time></trkpt><trkpt lat="41.0547533" lon="14.32558"><ele>52.0</ele><time>2026-03-30T13:08:31.293Z</time></trkpt><trkpt lat="41.0546733" lon="14.3255733"><ele>52.50000000000001</ele><time>2026-03-30T13:08:32.293Z</time></trkpt><trkpt lat="41.054595" lon="14.3255667"><ele>53.0</ele><time>2026-03-30T13:08:33.293Z</time></trkpt><trkpt lat="41.0545167" lon="14.32556"><ele>53.00000000000001</ele><time>2026-03-30T13:08:34.292Z</time></trkpt><trkpt lat="41.0544433" lon="14.3255517"><ele>53.0</ele><time>2026-03-30T13:08:35.293Z</time></trkpt><trkpt lat="41.0543667" lon="14.3255467"><ele>53.0</ele><time>2026-03-30T13:08:36.293Z</time></trkpt><trkpt lat="41.0542833" lon="14.325545"><ele>53.0</ele><time>2026-03-30T13:08:37.293Z</time></trkpt><trkpt lat="41.054205" lon="14.3255417"><ele>53.00000000000001</ele><time>2026-03-30T13:08:38.293Z</time></trkpt><trkpt lat="41.0541267" lon="14.325535"><ele>53.0</ele><time>2026-03-30T13:08:39.292Z</time></trkpt><trkpt lat="41.05405" lon="14.3255267"><ele>53.0</ele><time>2026-03-30T13:08:40.295Z</time></trkpt><trkpt lat="41.0539767" lon="14.3255233"><ele>53.0</ele><time>2026-03-30T13:08:41.293Z</time></trkpt><trkpt lat="41.0539" lon="14.3255183"><ele>53.0</ele><time>2026-03-30T13:08:42.293Z</time></trkpt><trkpt lat="41.05382" lon="14.3255083"><ele>53.0</ele><time>2026-03-30T13:08:43.293Z</time></trkpt><trkpt lat="41.0537467" lon="14.3254983"><ele>53.0</ele><time>2026-03-30T13:08:44.293Z</time></trkpt><trkpt lat="41.053675" lon="14.3254917"><ele>53.0</ele><time>2026-03-30T13:08:45.293Z</time></trkpt><trkpt lat="41.0536017" lon="14.3254867"><ele>53.0</ele><time>2026-03-30T13:08:46.293Z</time></trkpt><trkpt lat="41.0535283" lon="14.3254817"><ele>53.0</ele><time>2026-03-30T13:08:47.293Z</time></trkpt><trkpt lat="41.0534517" lon="14.325475"><ele>53.0</ele><time>2026-03-30T13:08:48.293Z</time></trkpt><trkpt lat="41.0533783" lon="14.3254717"><ele>53.0</ele><time>2026-03-30T13:08:49.294Z</time></trkpt><trkpt lat="41.0533067" lon="14.3254683"><ele>53.0</ele><time>2026-03-30T13:08:50.294Z</time></trkpt><trkpt lat="41.0532417" lon="14.3254667"><ele>53.0</ele><time>2026-03-30T13:08:51.293Z</time></trkpt><trkpt lat="41.0531767" lon="14.3254617"><ele>53.0</ele><time>2026-03-30T13:08:52.294Z</time></trkpt><trkpt lat="41.0531133" lon="14.3254533"><ele>53.0</ele><time>2026-03-30T13:08:53.294Z</time></trkpt><trkpt lat="41.05305" lon="14.325445"><ele>53.0</ele><time>2026-03-30T13:08:54.293Z</time></trkpt><trkpt lat="41.0529333" lon="14.32543"><ele>53.0</ele><time>2026-03-30T13:08:56.293Z</time></trkpt><trkpt lat="41.052815" lon="14.3254317"><ele>53.0</ele><time>2026-03-30T13:08:58.292Z</time></trkpt><trkpt lat="41.05269" lon="14.3254167"><ele>53.0</ele><time>2026-03-30T13:09:00.293Z</time></trkpt><trkpt lat="41.0525267" lon="14.3254083"><ele>52.599999999999994</ele><time>2026-03-30T13:09:03.297Z</time></trkpt><trkpt lat="41.05243" lon="14.3254017"><ele>52.199999999999996</ele><time>2026-03-30T13:09:05.293Z</time></trkpt><trkpt lat="41.0523333" lon="14.3254017"><ele>51.8</ele><time>2026-03-30T13:09:07.293Z</time></trkpt><trkpt lat="41.0522383" lon="14.325395"><ele>51.4</ele><time>2026-03-30T13:09:09.293Z</time></trkpt><trkpt lat="41.052145" lon="14.3253933"><ele>51.0</ele><time>2026-03-30T13:09:11.293Z</time></trkpt><trkpt lat="41.0520517" lon="14.3253817"><ele>51.0</ele><time>2026-03-30T13:09:13.295Z</time></trkpt><trkpt lat="41.0519483" lon="14.3253883"><ele>51.0</ele><time>2026-03-30T13:09:15.294Z</time></trkpt><trkpt lat="41.051845" lon="14.3253883"><ele>51.0</ele><time>2026-03-30T13:09:17.294Z</time></trkpt><trkpt lat="41.0517433" lon="14.32537"><ele>51.0</ele><time>2026-03-30T13:09:19.294Z</time></trkpt><trkpt lat="41.05164" lon="14.3253483"><ele>51.0</ele><time>2026-03-30T13:09:21.293Z</time></trkpt><trkpt lat="41.05154" lon="14.325335"><ele>51.0</ele><time>2026-03-30T13:09:23.293Z</time></trkpt><trkpt lat="41.05142" lon="14.325335"><ele>51.0</ele><time>2026-03-30T13:09:25.293Z</time></trkpt><trkpt lat="41.0513033" lon="14.325325"><ele>51.0</ele><time>2026-03-30T13:09:27.293Z</time></trkpt><trkpt lat="41.0511917" lon="14.3253217"><ele>51.0</ele><time>2026-03-30T13:09:29.294Z</time></trkpt><trkpt lat="41.0510867" lon="14.3253133"><ele>51.0</ele><time>2026-03-30T13:09:31.293Z</time></trkpt><trkpt lat="41.050965" lon="14.325315"><ele>51.0</ele><time>2026-03-30T13:09:33.293Z</time></trkpt><trkpt lat="41.0508517" lon="14.3253183"><ele>51.0</ele><time>2026-03-30T13:09:35.293Z</time></trkpt><trkpt lat="41.0507483" lon="14.3253167"><ele>51.0</ele><time>2026-03-30T13:09:37.293Z</time></trkpt><trkpt lat="41.05064" lon="14.3253083"><ele>51.0</ele><time>2026-03-30T13:09:39.292Z</time></trkpt><trkpt lat="41.05052" lon="14.3253017"><ele>51.199999999999996</ele><time>2026-03-30T13:09:41.293Z</time></trkpt><trkpt lat="41.0504017" lon="14.325295"><ele>51.4</ele><time>2026-03-30T13:09:43.293Z</time></trkpt><trkpt lat="41.0502783" lon="14.3252883"><ele>51.6</ele><time>2026-03-30T13:09:45.293Z</time></trkpt><trkpt lat="41.0502117" lon="14.3252833"><ele>51.8</ele><time>2026-03-30T13:09:46.292Z</time></trkpt><trkpt lat="41.05008" lon="14.32528"><ele>52.0</ele><time>2026-03-30T13:09:48.292Z</time></trkpt><trkpt lat="41.05001" lon="14.3252733"><ele>51.857142857142854</ele><time>2026-03-30T13:09:49.292Z</time></trkpt><trkpt lat="41.0499383" lon="14.3252617"><ele>51.714285714285715</ele><time>2026-03-30T13:09:50.294Z</time></trkpt><trkpt lat="41.0498667" lon="14.3252567"><ele>51.57142857142857</ele><time>2026-03-30T13:09:51.293Z</time></trkpt><trkpt lat="41.0497967" lon="14.3252483"><ele>51.42857142857143</ele><time>2026-03-30T13:09:52.294Z</time></trkpt><trkpt lat="41.04973" lon="14.3252367"><ele>51.28571428571429</ele><time>2026-03-30T13:09:53.293Z</time></trkpt><trkpt lat="41.0496583" lon="14.3252267"><ele>51.142857142857146</ele><time>2026-03-30T13:09:54.293Z</time></trkpt><trkpt lat="41.0495917" lon="14.3252167"><ele>51.0</ele><time>2026-03-30T13:09:55.293Z</time></trkpt><trkpt lat="41.049525" lon="14.3252083"><ele>51.0</ele><time>2026-03-30T13:09:56.292Z</time></trkpt><trkpt lat="41.0494583" lon="14.3252033"><ele>51.0</ele><time>2026-03-30T13:09:57.293Z</time></trkpt><trkpt lat="41.049395" lon="14.3251983"><ele>51.0</ele><time>2026-03-30T13:09:58.294Z</time></trkpt><trkpt lat="41.0492767" lon="14.325185"><ele>51.0</ele><time>2026-03-30T13:10:00.292Z</time></trkpt><trkpt lat="41.0492133" lon="14.3251783"><ele>51.0</ele><time>2026-03-30T13:10:01.293Z</time></trkpt><trkpt lat="41.0491483" lon="14.3251717"><ele>51.0</ele><time>2026-03-30T13:10:02.293Z</time></trkpt><trkpt lat="41.0490817" lon="14.325165"><ele>51.0</ele><time>2026-03-30T13:10:03.293Z</time></trkpt><trkpt lat="41.0490133" lon="14.3251583"><ele>50.85714285714286</ele><time>2026-03-30T13:10:04.293Z</time></trkpt><trkpt lat="41.0489433" lon="14.3251533"><ele>50.714285714285715</ele><time>2026-03-30T13:10:05.293Z</time></trkpt><trkpt lat="41.0488767" lon="14.325155"><ele>50.57142857142857</ele><time>2026-03-30T13:10:06.293Z</time></trkpt><trkpt lat="41.0488083" lon="14.3251533"><ele>50.42857142857143</ele><time>2026-03-30T13:10:07.293Z</time></trkpt><trkpt lat="41.0487417" lon="14.32515"><ele>50.285714285714285</ele><time>2026-03-30T13:10:08.293Z</time></trkpt><trkpt lat="41.04867" lon="14.325145"><ele>50.142857142857146</ele><time>2026-03-30T13:10:09.293Z</time></trkpt><trkpt lat="41.048605" lon="14.3251383"><ele>50.0</ele><time>2026-03-30T13:10:10.293Z</time></trkpt><trkpt lat="41.048535" lon="14.32513"><ele>50.00000000000001</ele><time>2026-03-30T13:10:11.293Z</time></trkpt><trkpt lat="41.048465" lon="14.3251233"><ele>50.0</ele><time>2026-03-30T13:10:12.293Z</time></trkpt><trkpt lat="41.0483933" lon="14.325125"><ele>50.0</ele><time>2026-03-30T13:10:13.293Z</time></trkpt><trkpt lat="41.0483183" lon="14.3251267"><ele>50.0</ele><time>2026-03-30T13:10:14.293Z</time></trkpt><trkpt lat="41.04825" lon="14.32513"><ele>50.0</ele><time>2026-03-30T13:10:15.293Z</time></trkpt><trkpt lat="41.0481833" lon="14.325135"><ele>50.00000000000001</ele><time>2026-03-30T13:10:16.293Z</time></trkpt><trkpt lat="41.0481133" lon="14.3251383"><ele>50.0</ele><time>2026-03-30T13:10:17.293Z</time></trkpt><trkpt lat="41.0480433" lon="14.3251383"><ele>49.714285714285715</ele><time>2026-03-30T13:10:18.293Z</time></trkpt><trkpt lat="41.0479717" lon="14.3251333"><ele>49.42857142857143</ele><time>2026-03-30T13:10:19.293Z</time></trkpt><trkpt lat="41.0478967" lon="14.3251333"><ele>49.14285714285714</ele><time>2026-03-30T13:10:20.293Z</time></trkpt><trkpt lat="41.0478267" lon="14.3251367"><ele>48.85714285714286</ele><time>2026-03-30T13:10:21.293Z</time></trkpt><trkpt lat="41.0477533" lon="14.32513"><ele>48.57142857142857</ele><time>2026-03-30T13:10:22.293Z</time></trkpt><trkpt lat="41.047675" lon="14.3251233"><ele>48.285714285714285</ele><time>2026-03-30T13:10:23.293Z</time></trkpt><trkpt lat="41.047595" lon="14.32511"><ele>48.0</ele><time>2026-03-30T13:10:24.293Z</time></trkpt><trkpt lat="41.0475183" lon="14.3250983"><ele>48.166666666666664</ele><time>2026-03-30T13:10:25.293Z</time></trkpt><trkpt lat="41.0474367" lon="14.325085"><ele>48.33333333333333</ele><time>2026-03-30T13:10:26.293Z</time></trkpt><trkpt lat="41.0473517" lon="14.3250733"><ele>48.5</ele><time>2026-03-30T13:10:27.293Z</time></trkpt><trkpt lat="41.047265" lon="14.3250633"><ele>48.666666666666664</ele><time>2026-03-30T13:10:28.293Z</time></trkpt><trkpt lat="41.0471767" lon="14.3250567"><ele>48.83333333333333</ele><time>2026-03-30T13:10:29.293Z</time></trkpt><trkpt lat="41.04709" lon="14.325045"><ele>49.0</ele><time>2026-03-30T13:10:30.293Z</time></trkpt><trkpt lat="41.0470033" lon="14.3250333"><ele>48.99999999999999</ele><time>2026-03-30T13:10:31.294Z</time></trkpt><trkpt lat="41.0469183" lon="14.3250217"><ele>49.0</ele><time>2026-03-30T13:10:32.293Z</time></trkpt><trkpt lat="41.0468283" lon="14.32501"><ele>49.0</ele><time>2026-03-30T13:10:33.292Z</time></trkpt><trkpt lat="41.04674" lon="14.3250017"><ele>49.0</ele><time>2026-03-30T13:10:34.293Z</time></trkpt><trkpt lat="41.046655" lon="14.324995"><ele>48.99999999999999</ele><time>2026-03-30T13:10:35.294Z</time></trkpt><trkpt lat="41.0465683" lon="14.324985"><ele>49.0</ele><time>2026-03-30T13:10:36.293Z</time></trkpt><trkpt lat="41.0464833" lon="14.3249767"><ele>48.49999999999999</ele><time>2026-03-30T13:10:37.293Z</time></trkpt><trkpt lat="41.0463967" lon="14.3249683"><ele>48.0</ele><time>2026-03-30T13:10:38.293Z</time></trkpt><trkpt lat="41.04631" lon="14.3249583"><ele>47.5</ele><time>2026-03-30T13:10:39.292Z</time></trkpt><trkpt lat="41.0462267" lon="14.3249517"><ele>47.0</ele><time>2026-03-30T13:10:40.293Z</time></trkpt><trkpt lat="41.0461417" lon="14.3249433"><ele>46.5</ele><time>2026-03-30T13:10:41.293Z</time></trkpt><trkpt lat="41.0460633" lon="14.32493"><ele>46.0</ele><time>2026-03-30T13:10:42.293Z</time></trkpt><trkpt lat="41.0459883" lon="14.3249217"><ele>46.0</ele><time>2026-03-30T13:10:43.293Z</time></trkpt><trkpt lat="41.0459167" lon="14.324915"><ele>46.0</ele><time>2026-03-30T13:10:44.293Z</time></trkpt><trkpt lat="41.0458467" lon="14.32491"><ele>46.0</ele><time>2026-03-30T13:10:45.292Z</time></trkpt><trkpt lat="41.0457717" lon="14.3249067"><ele>46.0</ele><time>2026-03-30T13:10:46.293Z</time></trkpt><trkpt lat="41.045695" lon="14.3248983"><ele>46.0</ele><time>2026-03-30T13:10:47.293Z</time></trkpt><trkpt lat="41.0456167" lon="14.3248917"><ele>46.0</ele><time>2026-03-30T13:10:48.292Z</time></trkpt><trkpt lat="41.0455383" lon="14.3248833"><ele>45.833333333333336</ele><time>2026-03-30T13:10:49.293Z</time></trkpt><trkpt lat="41.0454567" lon="14.32487"><ele>45.66666666666667</ele><time>2026-03-30T13:10:50.293Z</time></trkpt><trkpt lat="41.0453783" lon="14.32486"><ele>45.5</ele><time>2026-03-30T13:10:51.293Z</time></trkpt><trkpt lat="41.0452933" lon="14.3248483"><ele>45.333333333333336</ele><time>2026-03-30T13:10:52.293Z</time></trkpt><trkpt lat="41.0452067" lon="14.3248417"><ele>45.166666666666664</ele><time>2026-03-30T13:10:53.293Z</time></trkpt><trkpt lat="41.0451167" lon="14.324835"><ele>45.0</ele><time>2026-03-30T13:10:54.293Z</time></trkpt><trkpt lat="41.0450283" lon="14.3248267"><ele>44.6</ele><time>2026-03-30T13:10:55.293Z</time></trkpt><trkpt lat="41.0449367" lon="14.32482"><ele>44.2</ele><time>2026-03-30T13:10:56.293Z</time></trkpt><trkpt lat="41.0448467" lon="14.3248117"><ele>43.8</ele><time>2026-03-30T13:10:57.293Z</time></trkpt><trkpt lat="41.044755" lon="14.3248017"><ele>43.4</ele><time>2026-03-30T13:10:58.293Z</time></trkpt><trkpt lat="41.0446667" lon="14.3247917"><ele>43.0</ele><time>2026-03-30T13:10:59.294Z</time></trkpt><trkpt lat="41.0445767" lon="14.3247817"><ele>43.0</ele><time>2026-03-30T13:11:00.293Z</time></trkpt><trkpt lat="41.0444917" lon="14.324775"><ele>43.0</ele><time>2026-03-30T13:11:01.293Z</time></trkpt><trkpt lat="41.0444067" lon="14.32477"><ele>43.0</ele><time>2026-03-30T13:11:02.294Z</time></trkpt><trkpt lat="41.04432" lon="14.3247667"><ele>43.0</ele><time>2026-03-30T13:11:03.293Z</time></trkpt><trkpt lat="41.0442333" lon="14.32476"><ele>43.0</ele><time>2026-03-30T13:11:04.293Z</time></trkpt><trkpt lat="41.044145" lon="14.324755"><ele>43.0</ele><time>2026-03-30T13:11:05.294Z</time></trkpt><trkpt lat="41.044055" lon="14.3247517"><ele>42.833333333333336</ele><time>2026-03-30T13:11:06.293Z</time></trkpt><trkpt lat="41.04397" lon="14.3247483"><ele>42.66666666666667</ele><time>2026-03-30T13:11:07.294Z</time></trkpt><trkpt lat="41.0438833" lon="14.3247433"><ele>42.5</ele><time>2026-03-30T13:11:08.293Z</time></trkpt><trkpt lat="41.0437983" lon="14.324735"><ele>42.333333333333336</ele><time>2026-03-30T13:11:09.293Z</time></trkpt><trkpt lat="41.04372" lon="14.324725"><ele>42.166666666666664</ele><time>2026-03-30T13:11:10.293Z</time></trkpt><trkpt lat="41.0436467" lon="14.3247267"><ele>42.0</ele><time>2026-03-30T13:11:11.293Z</time></trkpt><trkpt lat="41.0435767" lon="14.3247333"><ele>42.0</ele><time>2026-03-30T13:11:12.293Z</time></trkpt><trkpt lat="41.0434983" lon="14.3247417"><ele>42.0</ele><time>2026-03-30T13:11:13.293Z</time></trkpt><trkpt lat="41.04342" lon="14.3247383"><ele>42.0</ele><time>2026-03-30T13:11:14.293Z</time></trkpt><trkpt lat="41.04334" lon="14.3247317"><ele>42.0</ele><time>2026-03-30T13:11:15.293Z</time></trkpt><trkpt lat="41.04326" lon="14.3247233"><ele>42.0</ele><time>2026-03-30T13:11:16.293Z</time></trkpt><trkpt lat="41.0431817" lon="14.3247133"><ele>42.0</ele><time>2026-03-30T13:11:17.293Z</time></trkpt><trkpt lat="41.0431017" lon="14.324695"><ele>41.833333333333336</ele><time>2026-03-30T13:11:18.293Z</time></trkpt><trkpt lat="41.0430217" lon="14.3246733"><ele>41.666666666666664</ele><time>2026-03-30T13:11:19.293Z</time></trkpt><trkpt lat="41.0429383" lon="14.3246617"><ele>41.5</ele><time>2026-03-30T13:11:20.293Z</time></trkpt><trkpt lat="41.0428567" lon="14.3246583"><ele>41.33333333333333</ele><time>2026-03-30T13:11:21.293Z</time></trkpt><trkpt lat="41.0427717" lon="14.3246533"><ele>41.166666666666664</ele><time>2026-03-30T13:11:22.293Z</time></trkpt><trkpt lat="41.042685" lon="14.32465"><ele>41.0</ele><time>2026-03-30T13:11:23.293Z</time></trkpt><trkpt lat="41.0426" lon="14.32465"><ele>41.0</ele><time>2026-03-30T13:11:24.293Z</time></trkpt><trkpt lat="41.042515" lon="14.3246483"><ele>41.0</ele><time>2026-03-30T13:11:25.293Z</time></trkpt><trkpt lat="41.04243" lon="14.3246483"><ele>41.0</ele><time>2026-03-30T13:11:26.293Z</time></trkpt><trkpt lat="41.0423467" lon="14.3246483"><ele>41.0</ele><time>2026-03-30T13:11:27.293Z</time></trkpt><trkpt lat="41.0422633" lon="14.3246483"><ele>41.0</ele><time>2026-03-30T13:11:28.293Z</time></trkpt><trkpt lat="41.04218" lon="14.32465"><ele>41.0</ele><time>2026-03-30T13:11:29.293Z</time></trkpt><trkpt lat="41.0420983" lon="14.3246567"><ele>41.33333333333333</ele><time>2026-03-30T13:11:30.293Z</time></trkpt><trkpt lat="41.0420167" lon="14.3246633"><ele>41.666666666666664</ele><time>2026-03-30T13:11:31.294Z</time></trkpt><trkpt lat="41.0419383" lon="14.3246683"><ele>42.0</ele><time>2026-03-30T13:11:32.293Z</time></trkpt><trkpt lat="41.0418617" lon="14.3246717"><ele>42.333333333333336</ele><time>2026-03-30T13:11:33.293Z</time></trkpt><trkpt lat="41.0417833" lon="14.3246733"><ele>42.66666666666667</ele><time>2026-03-30T13:11:34.293Z</time></trkpt><trkpt lat="41.0417033" lon="14.3246783"><ele>43.0</ele><time>2026-03-30T13:11:35.293Z</time></trkpt><trkpt lat="41.041625" lon="14.3246783"><ele>42.333333333333336</ele><time>2026-03-30T13:11:36.293Z</time></trkpt><trkpt lat="41.0415417" lon="14.3246783"><ele>41.66666666666667</ele><time>2026-03-30T13:11:37.293Z</time></trkpt><trkpt lat="41.0414567" lon="14.324685"><ele>41.0</ele><time>2026-03-30T13:11:38.293Z</time></trkpt><trkpt lat="41.0413717" lon="14.32469"><ele>40.333333333333336</ele><time>2026-03-30T13:11:39.294Z</time></trkpt><trkpt lat="41.0412883" lon="14.3246933"><ele>39.666666666666664</ele><time>2026-03-30T13:11:40.293Z</time></trkpt><trkpt lat="41.0412033" lon="14.3246983"><ele>39.0</ele><time>2026-03-30T13:11:41.293Z</time></trkpt><trkpt lat="41.0411217" lon="14.3247033"><ele>39.0</ele><time>2026-03-30T13:11:42.293Z</time></trkpt><trkpt lat="41.04104" lon="14.3247067"><ele>39.0</ele><time>2026-03-30T13:11:43.294Z</time></trkpt><trkpt lat="41.0409617" lon="14.3247033"><ele>39.0</ele><time>2026-03-30T13:11:44.293Z</time></trkpt><trkpt lat="41.0408817" lon="14.3246983"><ele>39.0</ele><time>2026-03-30T13:11:45.294Z</time></trkpt><trkpt lat="41.0408017" lon="14.3246867"><ele>39.0</ele><time>2026-03-30T13:11:46.293Z</time></trkpt><trkpt lat="41.0407183" lon="14.3246783"><ele>39.0</ele><time>2026-03-30T13:11:47.294Z</time></trkpt><trkpt lat="41.0406383" lon="14.3246717"><ele>39.166666666666664</ele><time>2026-03-30T13:11:48.294Z</time></trkpt><trkpt lat="41.0405583" lon="14.3246733"><ele>39.333333333333336</ele><time>2026-03-30T13:11:49.295Z</time></trkpt><trkpt lat="41.0404783" lon="14.3246767"><ele>39.5</ele><time>2026-03-30T13:11:50.293Z</time></trkpt><trkpt lat="41.0403983" lon="14.32468"><ele>39.66666666666667</ele><time>2026-03-30T13:11:51.292Z</time></trkpt><trkpt lat="41.0403183" lon="14.32468"><ele>39.833333333333336</ele><time>2026-03-30T13:11:52.293Z</time></trkpt><trkpt lat="41.0402383" lon="14.3246817"><ele>40.0</ele><time>2026-03-30T13:11:53.293Z</time></trkpt><trkpt lat="41.0401617" lon="14.324685"><ele>40.0</ele><time>2026-03-30T13:11:54.293Z</time></trkpt><trkpt lat="41.0400833" lon="14.32469"><ele>40.0</ele><time>2026-03-30T13:11:55.293Z</time></trkpt><trkpt lat="41.04001" lon="14.3246933"><ele>40.0</ele><time>2026-03-30T13:11:56.293Z</time></trkpt><trkpt lat="41.0399317" lon="14.3247033"><ele>40.0</ele><time>2026-03-30T13:11:57.293Z</time></trkpt><trkpt lat="41.0398517" lon="14.3247083"><ele>40.0</ele><time>2026-03-30T13:11:58.293Z</time></trkpt><trkpt lat="41.039775" lon="14.3247067"><ele>40.0</ele><time>2026-03-30T13:11:59.293Z</time></trkpt><trkpt lat="41.0397" lon="14.324705"><ele>39.857142857142854</ele><time>2026-03-30T13:12:00.293Z</time></trkpt><trkpt lat="41.0396233" lon="14.324705"><ele>39.714285714285715</ele><time>2026-03-30T13:12:01.294Z</time></trkpt><trkpt lat="41.0395467" lon="14.3247017"><ele>39.57142857142857</ele><time>2026-03-30T13:12:02.295Z</time></trkpt><trkpt lat="41.0394733" lon="14.3247017"><ele>39.42857142857143</ele><time>2026-03-30T13:12:03.293Z</time></trkpt><trkpt lat="41.0394033" lon="14.3247017"><ele>39.285714285714285</ele><time>2026-03-30T13:12:04.293Z</time></trkpt><trkpt lat="41.0393317" lon="14.3247033"><ele>39.142857142857146</ele><time>2026-03-30T13:12:05.293Z</time></trkpt><trkpt lat="41.03926" lon="14.3247067"><ele>39.0</ele><time>2026-03-30T13:12:06.293Z</time></trkpt><trkpt lat="41.0391867" lon="14.3247067"><ele>38.833333333333336</ele><time>2026-03-30T13:12:07.293Z</time></trkpt><trkpt lat="41.0391117" lon="14.324705"><ele>38.666666666666664</ele><time>2026-03-30T13:12:08.293Z</time></trkpt><trkpt lat="41.0390317" lon="14.324705"><ele>38.5</ele><time>2026-03-30T13:12:09.294Z</time></trkpt><trkpt lat="41.0389583" lon="14.3247033"><ele>38.33333333333333</ele><time>2026-03-30T13:12:10.293Z</time></trkpt><trkpt lat="41.038885" lon="14.3247017"><ele>38.166666666666664</ele><time>2026-03-30T13:12:11.293Z</time></trkpt><trkpt lat="41.0388083" lon="14.3247017"><ele>38.0</ele><time>2026-03-30T13:12:12.293Z</time></trkpt><trkpt lat="41.038735" lon="14.3247017"><ele>38.0</ele><time>2026-03-30T13:12:13.293Z</time></trkpt><trkpt lat="41.0386583" lon="14.3247033"><ele>38.0</ele><time>2026-03-30T13:12:14.294Z</time></trkpt><trkpt lat="41.0385817" lon="14.3247033"><ele>38.0</ele><time>2026-03-30T13:12:15.294Z</time></trkpt><trkpt lat="41.0385033" lon="14.3247083"><ele>38.0</ele><time>2026-03-30T13:12:16.293Z</time></trkpt><trkpt lat="41.0384233" lon="14.324715"><ele>38.0</ele><time>2026-03-30T13:12:17.293Z</time></trkpt><trkpt lat="41.0383433" lon="14.3247183"><ele>38.0</ele><time>2026-03-30T13:12:18.293Z</time></trkpt><trkpt lat="41.0382617" lon="14.3247233"><ele>38.14285714285714</ele><time>2026-03-30T13:12:19.293Z</time></trkpt><trkpt lat="41.0381883" lon="14.324725"><ele>38.28571428571429</ele><time>2026-03-30T13:12:20.293Z</time></trkpt><trkpt lat="41.0381167" lon="14.3247267"><ele>38.42857142857143</ele><time>2026-03-30T13:12:21.293Z</time></trkpt><trkpt lat="41.0380417" lon="14.324725"><ele>38.57142857142857</ele><time>2026-03-30T13:12:22.293Z</time></trkpt><trkpt lat="41.0379667" lon="14.32472"><ele>38.71428571428571</ele><time>2026-03-30T13:12:23.293Z</time></trkpt><trkpt lat="41.0378933" lon="14.32472"><ele>38.85714285714286</ele><time>2026-03-30T13:12:24.293Z</time></trkpt><trkpt lat="41.03782" lon="14.3247167"><ele>39.0</ele><time>2026-03-30T13:12:25.294Z</time></trkpt><trkpt lat="41.03775" lon="14.3247183"><ele>39.0</ele><time>2026-03-30T13:12:26.293Z</time></trkpt><trkpt lat="41.037675" lon="14.3247167"><ele>39.0</ele><time>2026-03-30T13:12:27.293Z</time></trkpt><trkpt lat="41.0375933" lon="14.3247217"><ele>39.0</ele><time>2026-03-30T13:12:28.293Z</time></trkpt><trkpt lat="41.037525" lon="14.3247233"><ele>39.0</ele><time>2026-03-30T13:12:29.295Z</time></trkpt><trkpt lat="41.037455" lon="14.3247183"><ele>39.0</ele><time>2026-03-30T13:12:30.293Z</time></trkpt><trkpt lat="41.037385" lon="14.324715"><ele>39.0</ele><time>2026-03-30T13:12:31.294Z</time></trkpt><trkpt lat="41.0373183" lon="14.324715"><ele>39.0</ele><time>2026-03-30T13:12:32.293Z</time></trkpt><trkpt lat="41.03725" lon="14.3247133"><ele>39.142857142857146</ele><time>2026-03-30T13:12:33.293Z</time></trkpt><trkpt lat="41.037185" lon="14.3247133"><ele>39.285714285714285</ele><time>2026-03-30T13:12:34.293Z</time></trkpt><trkpt lat="41.0371133" lon="14.3247217"><ele>39.42857142857143</ele><time>2026-03-30T13:12:35.294Z</time></trkpt><trkpt lat="41.03704" lon="14.3247233"><ele>39.57142857142857</ele><time>2026-03-30T13:12:36.293Z</time></trkpt><trkpt lat="41.0369683" lon="14.324725"><ele>39.714285714285715</ele><time>2026-03-30T13:12:37.295Z</time></trkpt><trkpt lat="41.0368867" lon="14.3247217"><ele>39.857142857142854</ele><time>2026-03-30T13:12:38.293Z</time></trkpt><trkpt lat="41.0368083" lon="14.3247167"><ele>40.0</ele><time>2026-03-30T13:12:39.293Z</time></trkpt><trkpt lat="41.0367217" lon="14.324705"><ele>39.5</ele><time>2026-03-30T13:12:40.293Z</time></trkpt><trkpt lat="41.0366317" lon="14.3246983"><ele>39.0</ele><time>2026-03-30T13:12:41.293Z</time></trkpt><trkpt lat="41.0365467" lon="14.3246967"><ele>38.5</ele><time>2026-03-30T13:12:42.294Z</time></trkpt><trkpt lat="41.0364633" lon="14.3246967"><ele>38.0</ele><time>2026-03-30T13:12:43.293Z</time></trkpt><trkpt lat="41.0363833" lon="14.3246967"><ele>37.5</ele><time>2026-03-30T13:12:44.293Z</time></trkpt><trkpt lat="41.0363067" lon="14.324695"><ele>37.0</ele><time>2026-03-30T13:12:45.293Z</time></trkpt><trkpt lat="41.03623" lon="14.32469"><ele>37.0</ele><time>2026-03-30T13:12:46.293Z</time></trkpt><trkpt lat="41.03615" lon="14.324685"><ele>37.0</ele><time>2026-03-30T13:12:47.293Z</time></trkpt><trkpt lat="41.0360633" lon="14.3246867"><ele>37.0</ele><time>2026-03-30T13:12:48.293Z</time></trkpt><trkpt lat="41.0359767" lon="14.3246883"><ele>37.0</ele><time>2026-03-30T13:12:49.293Z</time></trkpt><trkpt lat="41.0358933" lon="14.3246833"><ele>37.0</ele><time>2026-03-30T13:12:50.293Z</time></trkpt><trkpt lat="41.0358117" lon="14.3246817"><ele>37.0</ele><time>2026-03-30T13:12:51.293Z</time></trkpt><trkpt lat="41.0357317" lon="14.32469"><ele>36.66666666666667</ele><time>2026-03-30T13:12:52.293Z</time></trkpt><trkpt lat="41.035645" lon="14.3246983"><ele>36.333333333333336</ele><time>2026-03-30T13:12:53.293Z</time></trkpt><trkpt lat="41.03556" lon="14.324705"><ele>36.0</ele><time>2026-03-30T13:12:54.294Z</time></trkpt><trkpt lat="41.0354733" lon="14.3247083"><ele>35.666666666666664</ele><time>2026-03-30T13:12:55.293Z</time></trkpt><trkpt lat="41.035395" lon="14.32471"><ele>35.33333333333333</ele><time>2026-03-30T13:12:56.293Z</time></trkpt><trkpt lat="41.0353167" lon="14.3247133"><ele>35.0</ele><time>2026-03-30T13:12:57.293Z</time></trkpt><trkpt lat="41.03524" lon="14.3247133"><ele>35.0</ele><time>2026-03-30T13:12:58.293Z</time></trkpt><trkpt lat="41.0351617" lon="14.3247133"><ele>35.0</ele><time>2026-03-30T13:12:59.293Z</time></trkpt><trkpt lat="41.0350833" lon="14.3247117"><ele>35.0</ele><time>2026-03-30T13:13:00.294Z</time></trkpt><trkpt lat="41.0350017" lon="14.32471"><ele>35.0</ele><time>2026-03-30T13:13:01.293Z</time></trkpt><trkpt lat="41.03491" lon="14.3247133"><ele>35.0</ele><time>2026-03-30T13:13:02.293Z</time></trkpt><trkpt lat="41.0348283" lon="14.3247133"><ele>35.0</ele><time>2026-03-30T13:13:03.293Z</time></trkpt><trkpt lat="41.0347483" lon="14.3247117"><ele>35.0</ele><time>2026-03-30T13:13:04.295Z</time></trkpt><trkpt lat="41.0346667" lon="14.3247133"><ele>35.0</ele><time>2026-03-30T13:13:05.293Z</time></trkpt><trkpt lat="41.034585" lon="14.3247167"><ele>35.0</ele><time>2026-03-30T13:13:06.293Z</time></trkpt><trkpt lat="41.0344983" lon="14.324715"><ele>35.0</ele><time>2026-03-30T13:13:07.293Z</time></trkpt><trkpt lat="41.0344133" lon="14.3247167"><ele>35.0</ele><time>2026-03-30T13:13:08.293Z</time></trkpt><trkpt lat="41.0343267" lon="14.32472"><ele>35.0</ele><time>2026-03-30T13:13:09.293Z</time></trkpt><trkpt lat="41.0342317" lon="14.32472"><ele>35.0</ele><time>2026-03-30T13:13:10.293Z</time></trkpt><trkpt lat="41.0341433" lon="14.3247233"><ele>35.0</ele><time>2026-03-30T13:13:11.293Z</time></trkpt><trkpt lat="41.0340583" lon="14.32472"><ele>35.0</ele><time>2026-03-30T13:13:12.293Z</time></trkpt><trkpt lat="41.0339733" lon="14.3247183"><ele>35.0</ele><time>2026-03-30T13:13:13.293Z</time></trkpt><trkpt lat="41.0338933" lon="14.3247167"><ele>35.0</ele><time>2026-03-30T13:13:14.293Z</time></trkpt><trkpt lat="41.033815" lon="14.3247183"><ele>35.0</ele><time>2026-03-30T13:13:15.293Z</time></trkpt><trkpt lat="41.0337333" lon="14.3247217"><ele>35.0</ele><time>2026-03-30T13:13:16.293Z</time></trkpt><trkpt lat="41.033655" lon="14.324725"><ele>35.0</ele><time>2026-03-30T13:13:17.294Z</time></trkpt><trkpt lat="41.0335733" lon="14.3247283"><ele>35.0</ele><time>2026-03-30T13:13:18.293Z</time></trkpt><trkpt lat="41.0334933" lon="14.3247283"><ele>35.0</ele><time>2026-03-30T13:13:19.294Z</time></trkpt><trkpt lat="41.0334117" lon="14.3247333"><ele>35.0</ele><time>2026-03-30T13:13:20.293Z</time></trkpt><trkpt lat="41.0333283" lon="14.3247367"><ele>35.0</ele><time>2026-03-30T13:13:21.293Z</time></trkpt><trkpt lat="41.0332467" lon="14.3247367"><ele>34.83333333333333</ele><time>2026-03-30T13:13:22.293Z</time></trkpt><trkpt lat="41.0331633" lon="14.3247333"><ele>34.666666666666664</ele><time>2026-03-30T13:13:23.294Z</time></trkpt><trkpt lat="41.033075" lon="14.3247317"><ele>34.5</ele><time>2026-03-30T13:13:24.293Z</time></trkpt><trkpt lat="41.03299" lon="14.3247283"><ele>34.333333333333336</ele><time>2026-03-30T13:13:25.293Z</time></trkpt><trkpt lat="41.032905" lon="14.3247233"><ele>34.16666666666667</ele><time>2026-03-30T13:13:26.293Z</time></trkpt><trkpt lat="41.0328217" lon="14.324725"><ele>34.0</ele><time>2026-03-30T13:13:27.293Z</time></trkpt><trkpt lat="41.032735" lon="14.3247283"><ele>34.0</ele><time>2026-03-30T13:13:28.293Z</time></trkpt><trkpt lat="41.03265" lon="14.324735"><ele>34.0</ele><time>2026-03-30T13:13:29.294Z</time></trkpt><trkpt lat="41.032565" lon="14.3247433"><ele>34.0</ele><time>2026-03-30T13:13:30.294Z</time></trkpt><trkpt lat="41.03248" lon="14.3247517"><ele>34.0</ele><time>2026-03-30T13:13:31.294Z</time></trkpt><trkpt lat="41.032395" lon="14.3247533"><ele>34.0</ele><time>2026-03-30T13:13:32.293Z</time></trkpt><trkpt lat="41.0323133" lon="14.3247517"><ele>34.0</ele><time>2026-03-30T13:13:33.293Z</time></trkpt><trkpt lat="41.0322333" lon="14.3247533"><ele>33.66666666666667</ele><time>2026-03-30T13:13:34.293Z</time></trkpt><trkpt lat="41.0321483" lon="14.3247567"><ele>33.333333333333336</ele><time>2026-03-30T13:13:35.293Z</time></trkpt><trkpt lat="41.0320667" lon="14.3247583"><ele>33.0</ele><time>2026-03-30T13:13:36.294Z</time></trkpt><trkpt lat="41.0319883" lon="14.3247583"><ele>32.666666666666664</ele><time>2026-03-30T13:13:37.293Z</time></trkpt><trkpt lat="41.0319033" lon="14.3247617"><ele>32.33333333333333</ele><time>2026-03-30T13:13:38.293Z</time></trkpt><trkpt lat="41.0318183" lon="14.3247633"><ele>32.0</ele><time>2026-03-30T13:13:39.294Z</time></trkpt><trkpt lat="41.03173" lon="14.324765"><ele>31.999999999999996</ele><time>2026-03-30T13:13:40.293Z</time></trkpt><trkpt lat="41.0316433" lon="14.3247683"><ele>32.0</ele><time>2026-03-30T13:13:41.294Z</time></trkpt><trkpt lat="41.0315583" lon="14.32477"><ele>32.0</ele><time>2026-03-30T13:13:42.293Z</time></trkpt><trkpt lat="41.0314717" lon="14.3247733"><ele>32.0</ele><time>2026-03-30T13:13:43.294Z</time></trkpt><trkpt lat="41.0313867" lon="14.3247717"><ele>31.999999999999996</ele><time>2026-03-30T13:13:44.293Z</time></trkpt><trkpt lat="41.0313017" lon="14.32477"><ele>32.0</ele><time>2026-03-30T13:13:45.293Z</time></trkpt><trkpt lat="41.0312133" lon="14.3247733"><ele>31.999999999999996</ele><time>2026-03-30T13:13:46.293Z</time></trkpt><trkpt lat="41.031125" lon="14.3247717"><ele>32.0</ele><time>2026-03-30T13:13:47.293Z</time></trkpt><trkpt lat="41.0310367" lon="14.32477"><ele>32.0</ele><time>2026-03-30T13:13:48.295Z</time></trkpt><trkpt lat="41.030945" lon="14.3247683"><ele>32.0</ele><time>2026-03-30T13:13:49.293Z</time></trkpt><trkpt lat="41.030855" lon="14.32477"><ele>31.999999999999996</ele><time>2026-03-30T13:13:50.293Z</time></trkpt><trkpt lat="41.030765" lon="14.3247683"><ele>32.0</ele><time>2026-03-30T13:13:51.294Z</time></trkpt><trkpt lat="41.03068" lon="14.3247667"><ele>31.833333333333332</ele><time>2026-03-30T13:13:52.293Z</time></trkpt><trkpt lat="41.030595" lon="14.3247667"><ele>31.666666666666664</ele><time>2026-03-30T13:13:53.293Z</time></trkpt><trkpt lat="41.0305083" lon="14.3247667"><ele>31.5</ele><time>2026-03-30T13:13:54.294Z</time></trkpt><trkpt lat="41.0304233" lon="14.32477"><ele>31.333333333333336</ele><time>2026-03-30T13:13:55.293Z</time></trkpt><trkpt lat="41.0303383" lon="14.3247733"><ele>31.166666666666668</ele><time>2026-03-30T13:13:56.293Z</time></trkpt><trkpt lat="41.0302483" lon="14.324775"><ele>31.0</ele><time>2026-03-30T13:13:57.294Z</time></trkpt><trkpt lat="41.0301583" lon="14.324775"><ele>31.0</ele><time>2026-03-30T13:13:58.293Z</time></trkpt><trkpt lat="41.0300667" lon="14.324775"><ele>31.0</ele><time>2026-03-30T13:13:59.293Z</time></trkpt><trkpt lat="41.0299783" lon="14.3247733"><ele>31.0</ele><time>2026-03-30T13:14:00.293Z</time></trkpt><trkpt lat="41.0298867" lon="14.32477"><ele>31.0</ele><time>2026-03-30T13:14:01.294Z</time></trkpt><trkpt lat="41.029795" lon="14.3247683"><ele>31.0</ele><time>2026-03-30T13:14:02.294Z</time></trkpt><trkpt lat="41.029705" lon="14.3247767"><ele>31.166666666666668</ele><time>2026-03-30T13:14:03.293Z</time></trkpt><trkpt lat="41.0296167" lon="14.3247833"><ele>31.333333333333336</ele><time>2026-03-30T13:14:04.293Z</time></trkpt><trkpt lat="41.0295267" lon="14.3247867"><ele>31.5</ele><time>2026-03-30T13:14:05.293Z</time></trkpt><trkpt lat="41.0294383" lon="14.32479"><ele>31.666666666666664</ele><time>2026-03-30T13:14:06.293Z</time></trkpt><trkpt lat="41.02935" lon="14.32479"><ele>31.833333333333332</ele><time>2026-03-30T13:14:07.294Z</time></trkpt><trkpt lat="41.02926" lon="14.3247883"><ele>32.0</ele><time>2026-03-30T13:14:08.293Z</time></trkpt><trkpt lat="41.0291683" lon="14.324785"><ele>31.999999999999996</ele><time>2026-03-30T13:14:09.295Z</time></trkpt><trkpt lat="41.0290783" lon="14.3247883"><ele>32.0</ele><time>2026-03-30T13:14:10.293Z</time></trkpt><trkpt lat="41.02899" lon="14.32479"><ele>32.0</ele><time>2026-03-30T13:14:11.294Z</time></trkpt><trkpt lat="41.028905" lon="14.324795"><ele>32.0</ele><time>2026-03-30T13:14:12.292Z</time></trkpt><trkpt lat="41.0288183" lon="14.324795"><ele>31.999999999999996</ele><time>2026-03-30T13:14:13.292Z</time></trkpt><trkpt lat="41.02873" lon="14.3247933"><ele>32.0</ele><time>2026-03-30T13:14:14.292Z</time></trkpt><trkpt lat="41.0286433" lon="14.324795"><ele>31.999999999999996</ele><time>2026-03-30T13:14:15.294Z</time></trkpt><trkpt lat="41.0285583" lon="14.3247967"><ele>32.0</ele><time>2026-03-30T13:14:16.291Z</time></trkpt><trkpt lat="41.0284767" lon="14.3248"><ele>32.0</ele><time>2026-03-30T13:14:17.292Z</time></trkpt><trkpt lat="41.0283933" lon="14.3248017"><ele>32.0</ele><time>2026-03-30T13:14:18.291Z</time></trkpt><trkpt lat="41.0283067" lon="14.3248"><ele>31.999999999999996</ele><time>2026-03-30T13:14:19.292Z</time></trkpt><trkpt lat="41.028215" lon="14.3248017"><ele>32.0</ele><time>2026-03-30T13:14:20.291Z</time></trkpt><trkpt lat="41.0281217" lon="14.3248033"><ele>32.166666666666664</ele><time>2026-03-30T13:14:21.291Z</time></trkpt><trkpt lat="41.0280283" lon="14.324805"><ele>32.33333333333333</ele><time>2026-03-30T13:14:22.292Z</time></trkpt><trkpt lat="41.0279383" lon="14.3248033"><ele>32.5</ele><time>2026-03-30T13:14:23.292Z</time></trkpt><trkpt lat="41.02785" lon="14.3248017"><ele>32.666666666666664</ele><time>2026-03-30T13:14:24.292Z</time></trkpt><trkpt lat="41.0277683" lon="14.3248017"><ele>32.833333333333336</ele><time>2026-03-30T13:14:25.292Z</time></trkpt><trkpt lat="41.0276833" lon="14.3248017"><ele>33.0</ele><time>2026-03-30T13:14:26.291Z</time></trkpt><trkpt lat="41.0275983" lon="14.324805"><ele>33.0</ele><time>2026-03-30T13:14:27.291Z</time></trkpt><trkpt lat="41.02751" lon="14.324805"><ele>33.0</ele><time>2026-03-30T13:14:28.292Z</time></trkpt><trkpt lat="41.0274283" lon="14.324805"><ele>33.0</ele><time>2026-03-30T13:14:29.293Z</time></trkpt><trkpt lat="41.0273467" lon="14.324805"><ele>33.0</ele><time>2026-03-30T13:14:30.291Z</time></trkpt><trkpt lat="41.0272633" lon="14.3248017"><ele>33.0</ele><time>2026-03-30T13:14:31.292Z</time></trkpt><trkpt lat="41.02718" lon="14.3248"><ele>33.0</ele><time>2026-03-30T13:14:32.291Z</time></trkpt><trkpt lat="41.0270917" lon="14.3248017"><ele>32.5</ele><time>2026-03-30T13:14:33.291Z</time></trkpt><trkpt lat="41.0270033" lon="14.324805"><ele>32.0</ele><time>2026-03-30T13:14:34.291Z</time></trkpt><trkpt lat="41.0269167" lon="14.3248067"><ele>31.5</ele><time>2026-03-30T13:14:35.292Z</time></trkpt><trkpt lat="41.0268317" lon="14.3248067"><ele>31.0</ele><time>2026-03-30T13:14:36.291Z</time></trkpt><trkpt lat="41.0267433" lon="14.3248067"><ele>30.5</ele><time>2026-03-30T13:14:37.292Z</time></trkpt><trkpt lat="41.0266483" lon="14.3248067"><ele>30.0</ele><time>2026-03-30T13:14:38.292Z</time></trkpt><trkpt lat="41.0265517" lon="14.3248067"><ele>29.8</ele><time>2026-03-30T13:14:39.291Z</time></trkpt><trkpt lat="41.0264567" lon="14.3248067"><ele>29.6</ele><time>2026-03-30T13:14:40.292Z</time></trkpt><trkpt lat="41.0263583" lon="14.324805"><ele>29.4</ele><time>2026-03-30T13:14:41.292Z</time></trkpt><trkpt lat="41.0262667" lon="14.324805"><ele>29.2</ele><time>2026-03-30T13:14:42.291Z</time></trkpt><trkpt lat="41.0261767" lon="14.3248117"><ele>29.0</ele><time>2026-03-30T13:14:43.292Z</time></trkpt><trkpt lat="41.0260867" lon="14.32481"><ele>29.0</ele><time>2026-03-30T13:14:44.292Z</time></trkpt><trkpt lat="41.025995" lon="14.32481"><ele>29.0</ele><time>2026-03-30T13:14:45.291Z</time></trkpt><trkpt lat="41.0259033" lon="14.3248117"><ele>29.0</ele><time>2026-03-30T13:14:46.291Z</time></trkpt><trkpt lat="41.0258117" lon="14.3248133"><ele>29.0</ele><time>2026-03-30T13:14:47.292Z</time></trkpt><trkpt lat="41.0257217" lon="14.3248183"><ele>29.0</ele><time>2026-03-30T13:14:48.292Z</time></trkpt><trkpt lat="41.0256317" lon="14.3248267"><ele>28.799999999999997</ele><time>2026-03-30T13:14:49.292Z</time></trkpt><trkpt lat="41.02554" lon="14.3248333"><ele>28.599999999999998</ele><time>2026-03-30T13:14:50.291Z</time></trkpt><trkpt lat="41.0254483" lon="14.32484"><ele>28.4</ele><time>2026-03-30T13:14:51.291Z</time></trkpt><trkpt lat="41.0253567" lon="14.324845"><ele>28.2</ele><time>2026-03-30T13:14:52.291Z</time></trkpt><trkpt lat="41.025265" lon="14.3248467"><ele>28.0</ele><time>2026-03-30T13:14:53.293Z</time></trkpt><trkpt lat="41.0251767" lon="14.3248467"><ele>28.000000000000004</ele><time>2026-03-30T13:14:54.293Z</time></trkpt><trkpt lat="41.0250883" lon="14.324845"><ele>28.0</ele><time>2026-03-30T13:14:55.292Z</time></trkpt><trkpt lat="41.0250033" lon="14.324845"><ele>28.0</ele><time>2026-03-30T13:14:56.292Z</time></trkpt><trkpt lat="41.02492" lon="14.3248467"><ele>28.0</ele><time>2026-03-30T13:14:57.291Z</time></trkpt><trkpt lat="41.0248417" lon="14.3248467"><ele>28.000000000000004</ele><time>2026-03-30T13:14:58.292Z</time></trkpt><trkpt lat="41.0247667" lon="14.324845"><ele>28.0</ele><time>2026-03-30T13:14:59.294Z</time></trkpt><trkpt lat="41.0247017" lon="14.3248383"><ele>27.799999999999997</ele><time>2026-03-30T13:15:00.292Z</time></trkpt><trkpt lat="41.024595" lon="14.324805"><ele>27.599999999999998</ele><time>2026-03-30T13:15:02.292Z</time></trkpt><trkpt lat="41.024525" lon="14.3247533"><ele>27.400000000000002</ele><time>2026-03-30T13:15:04.292Z</time></trkpt><trkpt lat="41.02445" lon="14.324705"><ele>27.200000000000003</ele><time>2026-03-30T13:15:06.292Z</time></trkpt><trkpt lat="41.02436" lon="14.3247117"><ele>27.0</ele><time>2026-03-30T13:15:08.292Z</time></trkpt><trkpt lat="41.0242583" lon="14.3247567"><ele>27.0</ele><time>2026-03-30T13:15:10.292Z</time></trkpt><trkpt lat="41.0241433" lon="14.3247983"><ele>27.000000000000004</ele><time>2026-03-30T13:15:12.292Z</time></trkpt><trkpt lat="41.0240133" lon="14.324815"><ele>27.000000000000004</ele><time>2026-03-30T13:15:14.292Z</time></trkpt><trkpt lat="41.023945" lon="14.3248133"><ele>27.0</ele><time>2026-03-30T13:15:15.291Z</time></trkpt><trkpt lat="41.0238733" lon="14.3248133"><ele>27.0</ele><time>2026-03-30T13:15:16.292Z</time></trkpt><trkpt lat="41.0238017" lon="14.324815"><ele>27.0</ele><time>2026-03-30T13:15:17.292Z</time></trkpt><trkpt lat="41.02373" lon="14.32482"><ele>27.0</ele><time>2026-03-30T13:15:18.292Z</time></trkpt><trkpt lat="41.0236583" lon="14.324825"><ele>27.0</ele><time>2026-03-30T13:15:19.292Z</time></trkpt><trkpt lat="41.023585" lon="14.324825"><ele>27.0</ele><time>2026-03-30T13:15:20.292Z</time></trkpt><trkpt lat="41.0235117" lon="14.3248267"><ele>27.0</ele><time>2026-03-30T13:15:21.291Z</time></trkpt><trkpt lat="41.023435" lon="14.3248267"><ele>27.0</ele><time>2026-03-30T13:15:22.292Z</time></trkpt><trkpt lat="41.02336" lon="14.3248233"><ele>27.0</ele><time>2026-03-30T13:15:23.292Z</time></trkpt><trkpt lat="41.023285" lon="14.3248217"><ele>27.0</ele><time>2026-03-30T13:15:24.292Z</time></trkpt><trkpt lat="41.0232117" lon="14.3248217"><ele>27.0</ele><time>2026-03-30T13:15:25.292Z</time></trkpt><trkpt lat="41.02314" lon="14.3248233"><ele>27.0</ele><time>2026-03-30T13:15:26.292Z</time></trkpt><trkpt lat="41.0230667" lon="14.3248217"><ele>27.0</ele><time>2026-03-30T13:15:27.292Z</time></trkpt><trkpt lat="41.02299" lon="14.3248233"><ele>27.0</ele><time>2026-03-30T13:15:28.292Z</time></trkpt><trkpt lat="41.0229133" lon="14.3248233"><ele>27.0</ele><time>2026-03-30T13:15:29.293Z</time></trkpt><trkpt lat="41.0228317" lon="14.3248267"><ele>27.0</ele><time>2026-03-30T13:15:30.293Z</time></trkpt><trkpt lat="41.02275" lon="14.32483"><ele>27.0</ele><time>2026-03-30T13:15:31.294Z</time></trkpt><trkpt lat="41.0226683" lon="14.3248317"><ele>27.0</ele><time>2026-03-30T13:15:32.292Z</time></trkpt><trkpt lat="41.0225867" lon="14.3248333"><ele>27.0</ele><time>2026-03-30T13:15:33.293Z</time></trkpt><trkpt lat="41.0225033" lon="14.3248333"><ele>27.0</ele><time>2026-03-30T13:15:34.293Z</time></trkpt><trkpt lat="41.0224217" lon="14.3248333"><ele>27.0</ele><time>2026-03-30T13:15:35.292Z</time></trkpt><trkpt lat="41.02234" lon="14.3248333"><ele>27.0</ele><time>2026-03-30T13:15:36.293Z</time></trkpt><trkpt lat="41.0222567" lon="14.32483"><ele>27.0</ele><time>2026-03-30T13:15:37.293Z</time></trkpt><trkpt lat="41.0221767" lon="14.3248283"><ele>27.0</ele><time>2026-03-30T13:15:38.292Z</time></trkpt><trkpt lat="41.0220933" lon="14.3248317"><ele>27.0</ele><time>2026-03-30T13:15:39.293Z</time></trkpt><trkpt lat="41.0220117" lon="14.324835"><ele>27.0</ele><time>2026-03-30T13:15:40.293Z</time></trkpt><trkpt lat="41.02193" lon="14.3248417"><ele>27.0</ele><time>2026-03-30T13:15:41.294Z</time></trkpt><trkpt lat="41.0218483" lon="14.3248433"><ele>27.0</ele><time>2026-03-30T13:15:42.292Z</time></trkpt><trkpt lat="41.0217683" lon="14.324845"><ele>27.0</ele><time>2026-03-30T13:15:43.292Z</time></trkpt><trkpt lat="41.0216867" lon="14.3248467"><ele>27.0</ele><time>2026-03-30T13:15:44.292Z</time></trkpt><trkpt lat="41.021605" lon="14.324845"><ele>27.0</ele><time>2026-03-30T13:15:45.291Z</time></trkpt><trkpt lat="41.0215183" lon="14.32484"><ele>27.0</ele><time>2026-03-30T13:15:46.292Z</time></trkpt><trkpt lat="41.02143" lon="14.3248433"><ele>27.0</ele><time>2026-03-30T13:15:47.293Z</time></trkpt><trkpt lat="41.0213433" lon="14.324845"><ele>26.833333333333332</ele><time>2026-03-30T13:15:48.292Z</time></trkpt><trkpt lat="41.0212583" lon="14.32484"><ele>26.666666666666664</ele><time>2026-03-30T13:15:49.295Z</time></trkpt><trkpt lat="41.0211717" lon="14.3248367"><ele>26.5</ele><time>2026-03-30T13:15:50.293Z</time></trkpt><trkpt lat="41.0210867" lon="14.324835"><ele>26.333333333333332</ele><time>2026-03-30T13:15:51.291Z</time></trkpt><trkpt lat="41.0209983" lon="14.3248383"><ele>26.166666666666664</ele><time>2026-03-30T13:15:52.292Z</time></trkpt><trkpt lat="41.02091" lon="14.3248433"><ele>26.0</ele><time>2026-03-30T13:15:53.292Z</time></trkpt><trkpt lat="41.0208217" lon="14.324845"><ele>25.833333333333332</ele><time>2026-03-30T13:15:54.292Z</time></trkpt><trkpt lat="41.0207333" lon="14.324845"><ele>25.666666666666664</ele><time>2026-03-30T13:15:55.292Z</time></trkpt><trkpt lat="41.020645" lon="14.324845"><ele>25.5</ele><time>2026-03-30T13:15:56.292Z</time></trkpt><trkpt lat="41.0205533" lon="14.3248483"><ele>25.333333333333336</ele><time>2026-03-30T13:15:57.291Z</time></trkpt><trkpt lat="41.0204667" lon="14.3248533"><ele>25.166666666666668</ele><time>2026-03-30T13:15:58.292Z</time></trkpt><trkpt lat="41.020375" lon="14.3248567"><ele>25.0</ele><time>2026-03-30T13:15:59.292Z</time></trkpt><trkpt lat="41.02028" lon="14.3248567"><ele>25.0</ele><time>2026-03-30T13:16:00.292Z</time></trkpt><trkpt lat="41.02019" lon="14.3248567"><ele>25.0</ele><time>2026-03-30T13:16:01.292Z</time></trkpt><trkpt lat="41.0200983" lon="14.3248583"><ele>25.0</ele><time>2026-03-30T13:16:02.292Z</time></trkpt><trkpt lat="41.0200117" lon="14.3248617"><ele>25.0</ele><time>2026-03-30T13:16:03.293Z</time></trkpt><trkpt lat="41.01992" lon="14.324865"><ele>25.0</ele><time>2026-03-30T13:16:04.292Z</time></trkpt><trkpt lat="41.0198283" lon="14.3248667"><ele>24.6</ele><time>2026-03-30T13:16:05.293Z</time></trkpt><trkpt lat="41.0197383" lon="14.32487"><ele>24.2</ele><time>2026-03-30T13:16:06.294Z</time></trkpt><trkpt lat="41.0196467" lon="14.32487"><ele>23.799999999999997</ele><time>2026-03-30T13:16:07.292Z</time></trkpt><trkpt lat="41.019555" lon="14.3248683"><ele>23.4</ele><time>2026-03-30T13:16:08.292Z</time></trkpt><trkpt lat="41.019465" lon="14.3248683"><ele>23.0</ele><time>2026-03-30T13:16:09.293Z</time></trkpt><trkpt lat="41.019375" lon="14.3248667"><ele>23.0</ele><time>2026-03-30T13:16:10.292Z</time></trkpt><trkpt lat="41.0192833" lon="14.324865"><ele>23.0</ele><time>2026-03-30T13:16:11.292Z</time></trkpt><trkpt lat="41.0191933" lon="14.3248617"><ele>23.0</ele><time>2026-03-30T13:16:12.293Z</time></trkpt><trkpt lat="41.0191017" lon="14.3248567"><ele>23.0</ele><time>2026-03-30T13:16:13.293Z</time></trkpt><trkpt lat="41.01901" lon="14.3248567"><ele>23.0</ele><time>2026-03-30T13:16:14.293Z</time></trkpt><trkpt lat="41.0189117" lon="14.3248533"><ele>23.2</ele><time>2026-03-30T13:16:15.294Z</time></trkpt><trkpt lat="41.0188133" lon="14.3248583"><ele>23.4</ele><time>2026-03-30T13:16:16.292Z</time></trkpt><trkpt lat="41.0187133" lon="14.32486"><ele>23.599999999999998</ele><time>2026-03-30T13:16:17.292Z</time></trkpt><trkpt lat="41.0186167" lon="14.324865"><ele>23.799999999999997</ele><time>2026-03-30T13:16:18.292Z</time></trkpt><trkpt lat="41.0185217" lon="14.3248683"><ele>24.0</ele><time>2026-03-30T13:16:19.292Z</time></trkpt><trkpt lat="41.0184267" lon="14.3248717"><ele>24.0</ele><time>2026-03-30T13:16:20.292Z</time></trkpt><trkpt lat="41.01833" lon="14.3248733"><ele>24.0</ele><time>2026-03-30T13:16:21.291Z</time></trkpt><trkpt lat="41.01823" lon="14.3248733"><ele>24.0</ele><time>2026-03-30T13:16:22.293Z</time></trkpt><trkpt lat="41.018125" lon="14.324875"><ele>24.0</ele><time>2026-03-30T13:16:23.293Z</time></trkpt><trkpt lat="41.018025" lon="14.32488"><ele>24.0</ele><time>2026-03-30T13:16:24.292Z</time></trkpt><trkpt lat="41.0179267" lon="14.3248867"><ele>23.799999999999997</ele><time>2026-03-30T13:16:25.293Z</time></trkpt><trkpt lat="41.0178267" lon="14.3248917"><ele>23.599999999999998</ele><time>2026-03-30T13:16:26.292Z</time></trkpt><trkpt lat="41.0177317" lon="14.3248967"><ele>23.4</ele><time>2026-03-30T13:16:27.291Z</time></trkpt><trkpt lat="41.0176417" lon="14.3248983"><ele>23.2</ele><time>2026-03-30T13:16:28.292Z</time></trkpt><trkpt lat="41.0175517" lon="14.3248933"><ele>23.0</ele><time>2026-03-30T13:16:29.294Z</time></trkpt><trkpt lat="41.01746" lon="14.3248883"><ele>23.599999999999998</ele><time>2026-03-30T13:16:30.293Z</time></trkpt><trkpt lat="41.01737" lon="14.32489"><ele>24.2</ele><time>2026-03-30T13:16:31.293Z</time></trkpt><trkpt lat="41.0172767" lon="14.3248917"><ele>24.8</ele><time>2026-03-30T13:16:32.293Z</time></trkpt><trkpt lat="41.0171817" lon="14.324895"><ele>25.4</ele><time>2026-03-30T13:16:33.291Z</time></trkpt><trkpt lat="41.01709" lon="14.324895"><ele>26.0</ele><time>2026-03-30T13:16:34.292Z</time></trkpt><trkpt lat="41.0170017" lon="14.3248983"><ele>25.999999999999996</ele><time>2026-03-30T13:16:35.293Z</time></trkpt><trkpt lat="41.0169183" lon="14.3249083"><ele>26.0</ele><time>2026-03-30T13:16:36.293Z</time></trkpt><trkpt lat="41.016835" lon="14.32492"><ele>26.0</ele><time>2026-03-30T13:16:37.292Z</time></trkpt><trkpt lat="41.01675" lon="14.3249267"><ele>26.0</ele><time>2026-03-30T13:16:38.292Z</time></trkpt><trkpt lat="41.0166617" lon="14.32493"><ele>25.999999999999996</ele><time>2026-03-30T13:16:39.291Z</time></trkpt><trkpt lat="41.0165717" lon="14.3249333"><ele>26.0</ele><time>2026-03-30T13:16:40.292Z</time></trkpt><trkpt lat="41.0164817" lon="14.3249317"><ele>25.6</ele><time>2026-03-30T13:16:41.293Z</time></trkpt><trkpt lat="41.0163933" lon="14.3249283"><ele>25.200000000000003</ele><time>2026-03-30T13:16:42.293Z</time></trkpt><trkpt lat="41.0163" lon="14.3249267"><ele>24.799999999999997</ele><time>2026-03-30T13:16:43.293Z</time></trkpt><trkpt lat="41.016205" lon="14.3249233"><ele>24.4</ele><time>2026-03-30T13:16:44.292Z</time></trkpt><trkpt lat="41.0161117" lon="14.32492"><ele>24.0</ele><time>2026-03-30T13:16:45.291Z</time></trkpt><trkpt lat="41.01602" lon="14.3249167"><ele>24.0</ele><time>2026-03-30T13:16:46.293Z</time></trkpt><trkpt lat="41.0159283" lon="14.3249133"><ele>24.0</ele><time>2026-03-30T13:16:47.293Z</time></trkpt><trkpt lat="41.0158367" lon="14.32491"><ele>24.0</ele><time>2026-03-30T13:16:48.293Z</time></trkpt><trkpt lat="41.0157483" lon="14.32491"><ele>24.0</ele><time>2026-03-30T13:16:49.293Z</time></trkpt><trkpt lat="41.0156633" lon="14.3249083"><ele>24.0</ele><time>2026-03-30T13:16:50.292Z</time></trkpt><trkpt lat="41.0155817" lon="14.3249033"><ele>24.0</ele><time>2026-03-30T13:16:51.291Z</time></trkpt><trkpt lat="41.0155017" lon="14.3248983"><ele>24.0</ele><time>2026-03-30T13:16:52.292Z</time></trkpt><trkpt lat="41.0154217" lon="14.3248883"><ele>24.0</ele><time>2026-03-30T13:16:53.293Z</time></trkpt><trkpt lat="41.0153417" lon="14.32488"><ele>24.0</ele><time>2026-03-30T13:16:54.293Z</time></trkpt><trkpt lat="41.015265" lon="14.32487"><ele>24.0</ele><time>2026-03-30T13:16:55.293Z</time></trkpt><trkpt lat="41.0151867" lon="14.32486"><ele>24.0</ele><time>2026-03-30T13:16:56.292Z</time></trkpt><trkpt lat="41.0151017" lon="14.3248467"><ele>24.0</ele><time>2026-03-30T13:16:57.291Z</time></trkpt><trkpt lat="41.0150217" lon="14.3248267"><ele>24.166666666666668</ele><time>2026-03-30T13:16:58.293Z</time></trkpt><trkpt lat="41.01494" lon="14.3248067"><ele>24.333333333333336</ele><time>2026-03-30T13:16:59.293Z</time></trkpt><trkpt lat="41.014855" lon="14.3247817"><ele>24.5</ele><time>2026-03-30T13:17:00.292Z</time></trkpt><trkpt lat="41.0147733" lon="14.3247467"><ele>24.666666666666668</ele><time>2026-03-30T13:17:01.294Z</time></trkpt><trkpt lat="41.0146917" lon="14.3247133"><ele>24.833333333333336</ele><time>2026-03-30T13:17:02.293Z</time></trkpt><trkpt lat="41.01461" lon="14.32468"><ele>25.0</ele><time>2026-03-30T13:17:03.292Z</time></trkpt><trkpt lat="41.0145333" lon="14.3246417"><ele>25.000000000000004</ele><time>2026-03-30T13:17:04.293Z</time></trkpt><trkpt lat="41.0144617" lon="14.3245983"><ele>25.0</ele><time>2026-03-30T13:17:05.293Z</time></trkpt><trkpt lat="41.01439" lon="14.3245567"><ele>25.0</ele><time>2026-03-30T13:17:06.293Z</time></trkpt><trkpt lat="41.014305" lon="14.3245117"><ele>25.0</ele><time>2026-03-30T13:17:07.294Z</time></trkpt><trkpt lat="41.0142333" lon="14.3244633"><ele>25.000000000000004</ele><time>2026-03-30T13:17:08.293Z</time></trkpt><trkpt lat="41.0141633" lon="14.3244167"><ele>25.0</ele><time>2026-03-30T13:17:09.292Z</time></trkpt><trkpt lat="41.014085" lon="14.32437"><ele>25.000000000000004</ele><time>2026-03-30T13:17:10.293Z</time></trkpt><trkpt lat="41.0140083" lon="14.3243283"><ele>25.0</ele><time>2026-03-30T13:17:11.295Z</time></trkpt><trkpt lat="41.0139383" lon="14.32428"><ele>25.0</ele><time>2026-03-30T13:17:12.293Z</time></trkpt><trkpt lat="41.0138733" lon="14.3242317"><ele>25.0</ele><time>2026-03-30T13:17:13.294Z</time></trkpt><trkpt lat="41.0138083" lon="14.3241817"><ele>25.000000000000004</ele><time>2026-03-30T13:17:14.292Z</time></trkpt><trkpt lat="41.0137433" lon="14.3241383"><ele>25.0</ele><time>2026-03-30T13:17:15.291Z</time></trkpt><trkpt lat="41.0136783" lon="14.324095"><ele>25.000000000000004</ele><time>2026-03-30T13:17:16.292Z</time></trkpt><trkpt lat="41.01362" lon="14.324045"><ele>25.0</ele><time>2026-03-30T13:17:17.293Z</time></trkpt><trkpt lat="41.013565" lon="14.3239967"><ele>25.0</ele><time>2026-03-30T13:17:18.293Z</time></trkpt><trkpt lat="41.01351" lon="14.32395"><ele>25.0</ele><time>2026-03-30T13:17:19.293Z</time></trkpt><trkpt lat="41.0134533" lon="14.3239"><ele>25.000000000000004</ele><time>2026-03-30T13:17:20.292Z</time></trkpt><trkpt lat="41.0133967" lon="14.32385"><ele>25.0</ele><time>2026-03-30T13:17:21.291Z</time></trkpt><trkpt lat="41.0132917" lon="14.323755"><ele>25.166666666666668</ele><time>2026-03-30T13:17:23.293Z</time></trkpt><trkpt lat="41.01324" lon="14.3237017"><ele>25.333333333333336</ele><time>2026-03-30T13:17:24.293Z</time></trkpt><trkpt lat="41.0131867" lon="14.3236517"><ele>25.5</ele><time>2026-03-30T13:17:25.293Z</time></trkpt><trkpt lat="41.0131317" lon="14.3236"><ele>25.666666666666664</ele><time>2026-03-30T13:17:26.292Z</time></trkpt><trkpt lat="41.0130783" lon="14.3235467"><ele>25.833333333333332</ele><time>2026-03-30T13:17:27.293Z</time></trkpt><trkpt lat="41.0130267" lon="14.323495"><ele>26.0</ele><time>2026-03-30T13:17:28.292Z</time></trkpt><trkpt lat="41.0129233" lon="14.3233817"><ele>26.0</ele><time>2026-03-30T13:17:30.293Z</time></trkpt><trkpt lat="41.0128683" lon="14.3233317"><ele>26.0</ele><time>2026-03-30T13:17:31.293Z</time></trkpt><trkpt lat="41.0127767" lon="14.3232483"><ele>26.0</ele><time>2026-03-30T13:17:33.292Z</time></trkpt><trkpt lat="41.0126833" lon="14.3231383"><ele>26.0</ele><time>2026-03-30T13:17:35.293Z</time></trkpt><trkpt lat="41.0125917" lon="14.3230217"><ele>26.0</ele><time>2026-03-30T13:17:37.292Z</time></trkpt><trkpt lat="41.012545" lon="14.3229617"><ele>25.833333333333332</ele><time>2026-03-30T13:17:38.292Z</time></trkpt><trkpt lat="41.01245" lon="14.3228517"><ele>25.666666666666664</ele><time>2026-03-30T13:17:40.292Z</time></trkpt><trkpt lat="41.0124" lon="14.3227933"><ele>25.5</ele><time>2026-03-30T13:17:41.292Z</time></trkpt><trkpt lat="41.01235" lon="14.322735"><ele>25.333333333333336</ele><time>2026-03-30T13:17:42.292Z</time></trkpt><trkpt lat="41.0123" lon="14.322675"><ele>25.166666666666668</ele><time>2026-03-30T13:17:43.292Z</time></trkpt><trkpt lat="41.0122517" lon="14.3226183"><ele>25.0</ele><time>2026-03-30T13:17:44.292Z</time></trkpt><trkpt lat="41.0121983" lon="14.3225583"><ele>25.000000000000004</ele><time>2026-03-30T13:17:45.292Z</time></trkpt><trkpt lat="41.0121467" lon="14.3224967"><ele>25.0</ele><time>2026-03-30T13:17:46.292Z</time></trkpt><trkpt lat="41.012095" lon="14.322435"><ele>25.0</ele><time>2026-03-30T13:17:47.292Z</time></trkpt><trkpt lat="41.0120433" lon="14.3223733"><ele>25.0</ele><time>2026-03-30T13:17:48.292Z</time></trkpt><trkpt lat="41.0119917" lon="14.3223133"><ele>25.0</ele><time>2026-03-30T13:17:49.292Z</time></trkpt><trkpt lat="41.0119433" lon="14.3222517"><ele>25.000000000000004</ele><time>2026-03-30T13:17:50.292Z</time></trkpt><trkpt lat="41.0118917" lon="14.32219"><ele>25.0</ele><time>2026-03-30T13:17:51.292Z</time></trkpt><trkpt lat="41.01184" lon="14.3221317"><ele>24.714285714285715</ele><time>2026-03-30T13:17:52.292Z</time></trkpt><trkpt lat="41.0117883" lon="14.32207"><ele>24.42857142857143</ele><time>2026-03-30T13:17:53.293Z</time></trkpt><trkpt lat="41.011735" lon="14.3220067"><ele>24.142857142857146</ele><time>2026-03-30T13:17:54.292Z</time></trkpt><trkpt lat="41.0116783" lon="14.3219417"><ele>23.857142857142858</ele><time>2026-03-30T13:17:55.293Z</time></trkpt><trkpt lat="41.0116217" lon="14.321875"><ele>23.57142857142857</ele><time>2026-03-30T13:17:56.292Z</time></trkpt><trkpt lat="41.011565" lon="14.3218067"><ele>23.28571428571429</ele><time>2026-03-30T13:17:57.292Z</time></trkpt><trkpt lat="41.011505" lon="14.321735"><ele>23.0</ele><time>2026-03-30T13:17:58.292Z</time></trkpt><trkpt lat="41.0114383" lon="14.3216617"><ele>23.0</ele><time>2026-03-30T13:17:59.293Z</time></trkpt><trkpt lat="41.0113717" lon="14.3215883"><ele>23.0</ele><time>2026-03-30T13:18:00.292Z</time></trkpt><trkpt lat="41.01131" lon="14.3215083"><ele>23.0</ele><time>2026-03-30T13:18:01.292Z</time></trkpt><trkpt lat="41.0112483" lon="14.3214333"><ele>23.0</ele><time>2026-03-30T13:18:02.292Z</time></trkpt><trkpt lat="41.01119" lon="14.3213567"><ele>23.0</ele><time>2026-03-30T13:18:03.291Z</time></trkpt><trkpt lat="41.0111367" lon="14.321285"><ele>23.0</ele><time>2026-03-30T13:18:04.292Z</time></trkpt><trkpt lat="41.01108" lon="14.321215"><ele>22.833333333333336</ele><time>2026-03-30T13:18:05.292Z</time></trkpt><trkpt lat="41.01102" lon="14.3211467"><ele>22.666666666666668</ele><time>2026-03-30T13:18:06.292Z</time></trkpt><trkpt lat="41.01096" lon="14.321075"><ele>22.5</ele><time>2026-03-30T13:18:07.292Z</time></trkpt><trkpt lat="41.0109" lon="14.321"><ele>22.333333333333332</ele><time>2026-03-30T13:18:08.292Z</time></trkpt><trkpt lat="41.0108383" lon="14.3209217"><ele>22.166666666666664</ele><time>2026-03-30T13:18:09.291Z</time></trkpt><trkpt lat="41.0107733" lon="14.3208467"><ele>22.0</ele><time>2026-03-30T13:18:10.292Z</time></trkpt><trkpt lat="41.0107033" lon="14.3207733"><ele>22.0</ele><time>2026-03-30T13:18:11.292Z</time></trkpt><trkpt lat="41.01063" lon="14.3207017"><ele>22.0</ele><time>2026-03-30T13:18:12.292Z</time></trkpt><trkpt lat="41.0105533" lon="14.3206333"><ele>22.0</ele><time>2026-03-30T13:18:13.292Z</time></trkpt><trkpt lat="41.010475" lon="14.320575"><ele>22.0</ele><time>2026-03-30T13:18:14.292Z</time></trkpt><trkpt lat="41.0103983" lon="14.3205283"><ele>22.0</ele><time>2026-03-30T13:18:15.292Z</time></trkpt><trkpt lat="41.010325" lon="14.320485"><ele>22.0</ele><time>2026-03-30T13:18:16.292Z</time></trkpt><trkpt lat="41.010255" lon="14.32045"><ele>22.166666666666664</ele><time>2026-03-30T13:18:17.292Z</time></trkpt><trkpt lat="41.010185" lon="14.320415"><ele>22.333333333333332</ele><time>2026-03-30T13:18:18.293Z</time></trkpt><trkpt lat="41.01011" lon="14.320385"><ele>22.5</ele><time>2026-03-30T13:18:19.292Z</time></trkpt><trkpt lat="41.01003" lon="14.3203567"><ele>22.666666666666668</ele><time>2026-03-30T13:18:20.292Z</time></trkpt><trkpt lat="41.0099533" lon="14.320325"><ele>22.833333333333336</ele><time>2026-03-30T13:18:21.292Z</time></trkpt><trkpt lat="41.0098767" lon="14.3202917"><ele>23.0</ele><time>2026-03-30T13:18:22.292Z</time></trkpt><trkpt lat="41.0097983" lon="14.320255"><ele>22.5</ele><time>2026-03-30T13:18:23.292Z</time></trkpt><trkpt lat="41.0097167" lon="14.32022"><ele>22.0</ele><time>2026-03-30T13:18:24.292Z</time></trkpt><trkpt lat="41.0096383" lon="14.3201883"><ele>21.5</ele><time>2026-03-30T13:18:25.292Z</time></trkpt><trkpt lat="41.0095567" lon="14.3201583"><ele>21.0</ele><time>2026-03-30T13:18:26.292Z</time></trkpt><trkpt lat="41.0094733" lon="14.3201283"><ele>20.5</ele><time>2026-03-30T13:18:27.292Z</time></trkpt><trkpt lat="41.0093883" lon="14.3200983"><ele>20.0</ele><time>2026-03-30T13:18:28.292Z</time></trkpt><trkpt lat="41.0093017" lon="14.3200683"><ele>20.0</ele><time>2026-03-30T13:18:29.291Z</time></trkpt><trkpt lat="41.009215" lon="14.32004"><ele>20.0</ele><time>2026-03-30T13:18:30.292Z</time></trkpt><trkpt lat="41.00913" lon="14.3200117"><ele>20.0</ele><time>2026-03-30T13:18:31.292Z</time></trkpt><trkpt lat="41.0090417" lon="14.3199833"><ele>20.0</ele><time>2026-03-30T13:18:32.293Z</time></trkpt><trkpt lat="41.008955" lon="14.31995"><ele>20.0</ele><time>2026-03-30T13:18:33.291Z</time></trkpt><trkpt lat="41.0088633" lon="14.319915"><ele>20.0</ele><time>2026-03-30T13:18:34.292Z</time></trkpt><trkpt lat="41.0087717" lon="14.319885"><ele>20.0</ele><time>2026-03-30T13:18:35.292Z</time></trkpt><trkpt lat="41.0086817" lon="14.3198517"><ele>20.0</ele><time>2026-03-30T13:18:36.292Z</time></trkpt><trkpt lat="41.0085967" lon="14.31982"><ele>20.0</ele><time>2026-03-30T13:18:37.292Z</time></trkpt><trkpt lat="41.0085133" lon="14.319785"><ele>20.0</ele><time>2026-03-30T13:18:38.292Z</time></trkpt><trkpt lat="41.0084233" lon="14.3197533"><ele>20.0</ele><time>2026-03-30T13:18:39.292Z</time></trkpt><trkpt lat="41.0083367" lon="14.319725"><ele>20.0</ele><time>2026-03-30T13:18:40.292Z</time></trkpt><trkpt lat="41.00825" lon="14.3196983"><ele>20.0</ele><time>2026-03-30T13:18:41.292Z</time></trkpt><trkpt lat="41.00816" lon="14.3196683"><ele>20.0</ele><time>2026-03-30T13:18:42.292Z</time></trkpt><trkpt lat="41.0080717" lon="14.3196367"><ele>20.0</ele><time>2026-03-30T13:18:43.292Z</time></trkpt><trkpt lat="41.0079767" lon="14.3196067"><ele>20.0</ele><time>2026-03-30T13:18:44.292Z</time></trkpt><trkpt lat="41.0078817" lon="14.3195817"><ele>20.0</ele><time>2026-03-30T13:18:45.291Z</time></trkpt><trkpt lat="41.007795" lon="14.3195583"><ele>20.0</ele><time>2026-03-30T13:18:46.292Z</time></trkpt><trkpt lat="41.0077067" lon="14.319525"><ele>20.0</ele><time>2026-03-30T13:18:47.292Z</time></trkpt><trkpt lat="41.0076183" lon="14.3194933"><ele>20.0</ele><time>2026-03-30T13:18:48.292Z</time></trkpt><trkpt lat="41.0075283" lon="14.3194617"><ele>20.333333333333336</ele><time>2026-03-30T13:18:49.292Z</time></trkpt><trkpt lat="41.00744" lon="14.3194317"><ele>20.666666666666668</ele><time>2026-03-30T13:18:50.292Z</time></trkpt><trkpt lat="41.007355" lon="14.3194033"><ele>21.0</ele><time>2026-03-30T13:18:51.292Z</time></trkpt><trkpt lat="41.0072667" lon="14.3193783"><ele>21.333333333333332</ele><time>2026-03-30T13:18:52.292Z</time></trkpt><trkpt lat="41.0071817" lon="14.31935"><ele>21.666666666666664</ele><time>2026-03-30T13:18:53.292Z</time></trkpt><trkpt lat="41.0070983" lon="14.3193217"><ele>22.0</ele><time>2026-03-30T13:18:54.292Z</time></trkpt><trkpt lat="41.007015" lon="14.319295"><ele>22.0</ele><time>2026-03-30T13:18:55.292Z</time></trkpt><trkpt lat="41.0069317" lon="14.319265"><ele>22.0</ele><time>2026-03-30T13:18:56.292Z</time></trkpt><trkpt lat="41.0068517" lon="14.319235"><ele>22.0</ele><time>2026-03-30T13:18:57.292Z</time></trkpt><trkpt lat="41.0067667" lon="14.319205"><ele>22.0</ele><time>2026-03-30T13:18:58.292Z</time></trkpt><trkpt lat="41.0066833" lon="14.3191783"><ele>22.0</ele><time>2026-03-30T13:18:59.293Z</time></trkpt><trkpt lat="41.0066017" lon="14.3191517"><ele>22.0</ele><time>2026-03-30T13:19:00.292Z</time></trkpt><trkpt lat="41.00652" lon="14.319125"><ele>21.833333333333332</ele><time>2026-03-30T13:19:01.292Z</time></trkpt><trkpt lat="41.0064383" lon="14.3190933"><ele>21.666666666666664</ele><time>2026-03-30T13:19:02.293Z</time></trkpt><trkpt lat="41.006365" lon="14.31906"><ele>21.5</ele><time>2026-03-30T13:19:03.292Z</time></trkpt><trkpt lat="41.0062917" lon="14.3190167"><ele>21.333333333333332</ele><time>2026-03-30T13:19:04.292Z</time></trkpt><trkpt lat="41.0062233" lon="14.318955"><ele>21.166666666666668</ele><time>2026-03-30T13:19:05.292Z</time></trkpt><trkpt lat="41.00616" lon="14.3188867"><ele>21.0</ele><time>2026-03-30T13:19:06.292Z</time></trkpt><trkpt lat="41.0061067" lon="14.3188033"><ele>21.0</ele><time>2026-03-30T13:19:07.293Z</time></trkpt><trkpt lat="41.0060517" lon="14.3187283"><ele>21.0</ele><time>2026-03-30T13:19:08.293Z</time></trkpt><trkpt lat="41.006005" lon="14.3186533"><ele>21.0</ele><time>2026-03-30T13:19:09.292Z</time></trkpt><trkpt lat="41.005945" lon="14.3185867"><ele>21.0</ele><time>2026-03-30T13:19:10.292Z</time></trkpt><trkpt lat="41.0058733" lon="14.3185467"><ele>21.0</ele><time>2026-03-30T13:19:11.293Z</time></trkpt><trkpt lat="41.0058033" lon="14.3185233"><ele>21.0</ele><time>2026-03-30T13:19:12.292Z</time></trkpt><trkpt lat="41.0057367" lon="14.3185233"><ele>21.0</ele><time>2026-03-30T13:19:13.292Z</time></trkpt><trkpt lat="41.0056733" lon="14.3185417"><ele>20.833333333333332</ele><time>2026-03-30T13:19:14.292Z</time></trkpt><trkpt lat="41.005605" lon="14.3185933"><ele>20.666666666666668</ele><time>2026-03-30T13:19:15.293Z</time></trkpt><trkpt lat="41.00554" lon="14.318665"><ele>20.5</ele><time>2026-03-30T13:19:16.292Z</time></trkpt><trkpt lat="41.0054733" lon="14.31875"><ele>20.333333333333336</ele><time>2026-03-30T13:19:17.294Z</time></trkpt><trkpt lat="41.005415" lon="14.31883"><ele>20.166666666666668</ele><time>2026-03-30T13:19:18.292Z</time></trkpt><trkpt lat="41.005355" lon="14.3189133"><ele>20.0</ele><time>2026-03-30T13:19:19.293Z</time></trkpt><trkpt lat="41.0052867" lon="14.3189983"><ele>20.333333333333336</ele><time>2026-03-30T13:19:20.292Z</time></trkpt><trkpt lat="41.0052167" lon="14.3190783"><ele>20.666666666666668</ele><time>2026-03-30T13:19:21.292Z</time></trkpt><trkpt lat="41.0051367" lon="14.3191217"><ele>21.0</ele><time>2026-03-30T13:19:22.293Z</time></trkpt><trkpt lat="41.0050583" lon="14.3191383"><ele>21.333333333333332</ele><time>2026-03-30T13:19:23.293Z</time></trkpt><trkpt lat="41.00498" lon="14.3191433"><ele>21.666666666666664</ele><time>2026-03-30T13:19:24.293Z</time></trkpt><trkpt lat="41.0048983" lon="14.3191317"><ele>22.0</ele><time>2026-03-30T13:19:25.292Z</time></trkpt><trkpt lat="41.004815" lon="14.31911"><ele>22.166666666666664</ele><time>2026-03-30T13:19:26.293Z</time></trkpt><trkpt lat="41.0047283" lon="14.3190933"><ele>22.333333333333332</ele><time>2026-03-30T13:19:27.293Z</time></trkpt><trkpt lat="41.0046517" lon="14.319065"><ele>22.5</ele><time>2026-03-30T13:19:28.293Z</time></trkpt><trkpt lat="41.0045733" lon="14.3190333"><ele>22.666666666666668</ele><time>2026-03-30T13:19:29.292Z</time></trkpt><trkpt lat="41.0044917" lon="14.3190033"><ele>22.833333333333336</ele><time>2026-03-30T13:19:30.293Z</time></trkpt><trkpt lat="41.0044133" lon="14.318975"><ele>23.0</ele><time>2026-03-30T13:19:31.294Z</time></trkpt><trkpt lat="41.004335" lon="14.3189467"><ele>23.0</ele><time>2026-03-30T13:19:32.294Z</time></trkpt><trkpt lat="41.0042517" lon="14.3189183"><ele>23.0</ele><time>2026-03-30T13:19:33.294Z</time></trkpt><trkpt lat="41.0041633" lon="14.3188933"><ele>23.0</ele><time>2026-03-30T13:19:34.294Z</time></trkpt><trkpt lat="41.0040767" lon="14.3188733"><ele>23.0</ele><time>2026-03-30T13:19:35.292Z</time></trkpt><trkpt lat="41.00399" lon="14.31886"><ele>23.0</ele><time>2026-03-30T13:19:36.294Z</time></trkpt><trkpt lat="41.003905" lon="14.31884"><ele>23.0</ele><time>2026-03-30T13:19:37.295Z</time></trkpt><trkpt lat="41.0038217" lon="14.3188217"><ele>22.833333333333336</ele><time>2026-03-30T13:19:38.294Z</time></trkpt><trkpt lat="41.0037367" lon="14.3188083"><ele>22.666666666666668</ele><time>2026-03-30T13:19:39.292Z</time></trkpt><trkpt lat="41.0036517" lon="14.318795"><ele>22.5</ele><time>2026-03-30T13:19:40.298Z</time></trkpt><trkpt lat="41.0035667" lon="14.3187817"><ele>22.333333333333332</ele><time>2026-03-30T13:19:41.294Z</time></trkpt><trkpt lat="41.0034867" lon="14.318765"><ele>22.166666666666664</ele><time>2026-03-30T13:19:42.293Z</time></trkpt><trkpt lat="41.003405" lon="14.31875"><ele>22.0</ele><time>2026-03-30T13:19:43.295Z</time></trkpt><trkpt lat="41.003325" lon="14.3187367"><ele>22.0</ele><time>2026-03-30T13:19:44.293Z</time></trkpt><trkpt lat="41.0032467" lon="14.3187233"><ele>22.0</ele><time>2026-03-30T13:19:45.294Z</time></trkpt><trkpt lat="41.003165" lon="14.3187117"><ele>22.0</ele><time>2026-03-30T13:19:46.298Z</time></trkpt><trkpt lat="41.00308" lon="14.3187033"><ele>22.0</ele><time>2026-03-30T13:19:47.295Z</time></trkpt><trkpt lat="41.0029983" lon="14.3186967"><ele>22.0</ele><time>2026-03-30T13:19:48.293Z</time></trkpt><trkpt lat="41.00292" lon="14.31869"><ele>22.0</ele><time>2026-03-30T13:19:49.293Z</time></trkpt><trkpt lat="41.002845" lon="14.3186833"><ele>22.0</ele><time>2026-03-30T13:19:50.295Z</time></trkpt><trkpt lat="41.0027667" lon="14.3186767"><ele>22.0</ele><time>2026-03-30T13:19:51.296Z</time></trkpt><trkpt lat="41.0026933" lon="14.3186717"><ele>22.0</ele><time>2026-03-30T13:19:52.296Z</time></trkpt><trkpt lat="41.002615" lon="14.3186667"><ele>22.0</ele><time>2026-03-30T13:19:53.296Z</time></trkpt><trkpt lat="41.0025367" lon="14.3186633"><ele>22.0</ele><time>2026-03-30T13:19:54.294Z</time></trkpt><trkpt lat="41.0024583" lon="14.3186633"><ele>22.0</ele><time>2026-03-30T13:19:55.294Z</time></trkpt><trkpt lat="41.002385" lon="14.3186667"><ele>21.857142857142858</ele><time>2026-03-30T13:19:56.295Z</time></trkpt><trkpt lat="41.002315" lon="14.3186767"><ele>21.714285714285715</ele><time>2026-03-30T13:19:57.293Z</time></trkpt><trkpt lat="41.0022517" lon="14.3186917"><ele>21.57142857142857</ele><time>2026-03-30T13:19:58.294Z</time></trkpt><trkpt lat="41.0021883" lon="14.3187167"><ele>21.42857142857143</ele><time>2026-03-30T13:19:59.296Z</time></trkpt><trkpt lat="41.0021217" lon="14.318745"><ele>21.285714285714285</ele><time>2026-03-30T13:20:00.295Z</time></trkpt><trkpt lat="41.002055" lon="14.31877"><ele>21.142857142857142</ele><time>2026-03-30T13:20:01.296Z</time></trkpt><trkpt lat="41.001985" lon="14.318775"><ele>21.0</ele><time>2026-03-30T13:20:02.295Z</time></trkpt><trkpt lat="41.0019183" lon="14.3187567"><ele>21.0</ele><time>2026-03-30T13:20:03.293Z</time></trkpt><trkpt lat="41.001855" lon="14.31872"><ele>21.0</ele><time>2026-03-30T13:20:04.295Z</time></trkpt><trkpt lat="41.00179" lon="14.3186833"><ele>21.0</ele><time>2026-03-30T13:20:05.295Z</time></trkpt><trkpt lat="41.00172" lon="14.3186583"><ele>21.0</ele><time>2026-03-30T13:20:06.295Z</time></trkpt><trkpt lat="41.001645" lon="14.3186583"><ele>21.0</ele><time>2026-03-30T13:20:07.295Z</time></trkpt><trkpt lat="41.0015683" lon="14.3186617"><ele>21.0</ele><time>2026-03-30T13:20:08.296Z</time></trkpt><trkpt lat="41.0014967" lon="14.3186583"><ele>21.0</ele><time>2026-03-30T13:20:09.294Z</time></trkpt><trkpt lat="41.00143" lon="14.318635"><ele>21.0</ele><time>2026-03-30T13:20:10.294Z</time></trkpt><trkpt lat="41.001365" lon="14.3186017"><ele>21.0</ele><time>2026-03-30T13:20:11.295Z</time></trkpt><trkpt lat="41.0013083" lon="14.31856"><ele>21.0</ele><time>2026-03-30T13:20:12.294Z</time></trkpt><trkpt lat="41.0012417" lon="14.3185267"><ele>21.0</ele><time>2026-03-30T13:20:13.295Z</time></trkpt><trkpt lat="41.0011717" lon="14.3185067"><ele>21.0</ele><time>2026-03-30T13:20:14.294Z</time></trkpt><trkpt lat="41.0011" lon="14.318495"><ele>21.0</ele><time>2026-03-30T13:20:15.295Z</time></trkpt><trkpt lat="41.0010283" lon="14.3184867"><ele>21.0</ele><time>2026-03-30T13:20:16.296Z</time></trkpt><trkpt lat="41.00096" lon="14.318475"><ele>21.0</ele><time>2026-03-30T13:20:17.295Z</time></trkpt><trkpt lat="41.00089" lon="14.3184667"><ele>21.0</ele><time>2026-03-30T13:20:18.294Z</time></trkpt><trkpt lat="41.00082" lon="14.31846"><ele>21.0</ele><time>2026-03-30T13:20:19.295Z</time></trkpt><trkpt lat="41.000755" lon="14.3184533"><ele>21.0</ele><time>2026-03-30T13:20:20.295Z</time></trkpt><trkpt lat="41.00063" lon="14.3184317"><ele>21.0</ele><time>2026-03-30T13:20:22.295Z</time></trkpt><trkpt lat="41.0005633" lon="14.3184217"><ele>21.0</ele><time>2026-03-30T13:20:23.295Z</time></trkpt><trkpt lat="41.000495" lon="14.3184167"><ele>21.0</ele><time>2026-03-30T13:20:24.295Z</time></trkpt><trkpt lat="41.0004267" lon="14.3184117"><ele>21.0</ele><time>2026-03-30T13:20:25.296Z</time></trkpt><trkpt lat="41.0003583" lon="14.318405"><ele>21.0</ele><time>2026-03-30T13:20:26.293Z</time></trkpt><trkpt lat="41.0002883" lon="14.3184017"><ele>21.0</ele><time>2026-03-30T13:20:27.294Z</time></trkpt><trkpt lat="41.0002167" lon="14.3183967"><ele>21.0</ele><time>2026-03-30T13:20:28.294Z</time></trkpt><trkpt lat="41.000145" lon="14.31839"><ele>21.0</ele><time>2026-03-30T13:20:29.295Z</time></trkpt><trkpt lat="41.0000717" lon="14.318385"><ele>21.0</ele><time>2026-03-30T13:20:30.295Z</time></trkpt><trkpt lat="40.9999983" lon="14.3183783"><ele>21.0</ele><time>2026-03-30T13:20:31.295Z</time></trkpt><trkpt lat="40.9999233" lon="14.3183683"><ele>21.0</ele><time>2026-03-30T13:20:32.295Z</time></trkpt><trkpt lat="40.99985" lon="14.3183617"><ele>21.0</ele><time>2026-03-30T13:20:33.297Z</time></trkpt><trkpt lat="40.999775" lon="14.3183517"><ele>21.0</ele><time>2026-03-30T13:20:34.295Z</time></trkpt><trkpt lat="40.9997" lon="14.318345"><ele>21.0</ele><time>2026-03-30T13:20:35.297Z</time></trkpt><trkpt lat="40.9996233" lon="14.318335"><ele>21.0</ele><time>2026-03-30T13:20:36.294Z</time></trkpt><trkpt lat="40.99955" lon="14.318325"><ele>21.0</ele><time>2026-03-30T13:20:37.294Z</time></trkpt><trkpt lat="40.9994767" lon="14.3183167"><ele>21.0</ele><time>2026-03-30T13:20:38.295Z</time></trkpt><trkpt lat="40.999405" lon="14.3183083"><ele>21.0</ele><time>2026-03-30T13:20:39.294Z</time></trkpt><trkpt lat="40.9993283" lon="14.3183"><ele>21.0</ele><time>2026-03-30T13:20:40.297Z</time></trkpt><trkpt lat="40.999255" lon="14.318295"><ele>21.0</ele><time>2026-03-30T13:20:41.295Z</time></trkpt><trkpt lat="40.9991817" lon="14.3182917"><ele>21.0</ele><time>2026-03-30T13:20:42.294Z</time></trkpt><trkpt lat="40.999105" lon="14.3182833"><ele>21.0</ele><time>2026-03-30T13:20:43.295Z</time></trkpt><trkpt lat="40.99903" lon="14.3182767"><ele>21.0</ele><time>2026-03-30T13:20:44.295Z</time></trkpt><trkpt lat="40.9989567" lon="14.3182667"><ele>21.0</ele><time>2026-03-30T13:20:45.295Z</time></trkpt><trkpt lat="40.998885" lon="14.318255"><ele>21.0</ele><time>2026-03-30T13:20:46.295Z</time></trkpt><trkpt lat="40.9988133" lon="14.31824"><ele>21.0</ele><time>2026-03-30T13:20:47.294Z</time></trkpt><trkpt lat="40.99874" lon="14.3182317"><ele>21.0</ele><time>2026-03-30T13:20:48.293Z</time></trkpt><trkpt lat="40.9986683" lon="14.318225"><ele>21.0</ele><time>2026-03-30T13:20:49.295Z</time></trkpt><trkpt lat="40.9985983" lon="14.31822"><ele>21.0</ele><time>2026-03-30T13:20:50.295Z</time></trkpt><trkpt lat="40.99853" lon="14.3182133"><ele>21.0</ele><time>2026-03-30T13:20:51.293Z</time></trkpt><trkpt lat="40.9984583" lon="14.3182033"><ele>21.0</ele><time>2026-03-30T13:20:52.294Z</time></trkpt><trkpt lat="40.9983883" lon="14.3181933"><ele>21.0</ele><time>2026-03-30T13:20:53.296Z</time></trkpt><trkpt lat="40.99832" lon="14.3181867"><ele>21.0</ele><time>2026-03-30T13:20:54.294Z</time></trkpt><trkpt lat="40.9982517" lon="14.3181783"><ele>21.0</ele><time>2026-03-30T13:20:55.296Z</time></trkpt><trkpt lat="40.998185" lon="14.3181717"><ele>21.0</ele><time>2026-03-30T13:20:56.293Z</time></trkpt><trkpt lat="40.99812" lon="14.3181667"><ele>21.0</ele><time>2026-03-30T13:20:57.295Z</time></trkpt><trkpt lat="40.9980517" lon="14.3181617"><ele>20.857142857142858</ele><time>2026-03-30T13:20:58.295Z</time></trkpt><trkpt lat="40.9979833" lon="14.3181583"><ele>20.714285714285715</ele><time>2026-03-30T13:20:59.295Z</time></trkpt><trkpt lat="40.997915" lon="14.318155"><ele>20.57142857142857</ele><time>2026-03-30T13:21:00.295Z</time></trkpt><trkpt lat="40.9978467" lon="14.31815"><ele>20.42857142857143</ele><time>2026-03-30T13:21:01.295Z</time></trkpt><trkpt lat="40.99778" lon="14.31814"><ele>20.285714285714285</ele><time>2026-03-30T13:21:02.297Z</time></trkpt><trkpt lat="40.997715" lon="14.318125"><ele>20.142857142857142</ele><time>2026-03-30T13:21:03.294Z</time></trkpt><trkpt lat="40.9976467" lon="14.31811"><ele>20.0</ele><time>2026-03-30T13:21:04.294Z</time></trkpt><trkpt lat="40.997575" lon="14.3181"><ele>20.142857142857142</ele><time>2026-03-30T13:21:05.295Z</time></trkpt><trkpt lat="40.9975017" lon="14.3180917"><ele>20.285714285714285</ele><time>2026-03-30T13:21:06.295Z</time></trkpt><trkpt lat="40.9974283" lon="14.3180817"><ele>20.42857142857143</ele><time>2026-03-30T13:21:07.296Z</time></trkpt><trkpt lat="40.9973567" lon="14.3180717"><ele>20.57142857142857</ele><time>2026-03-30T13:21:08.295Z</time></trkpt><trkpt lat="40.9972833" lon="14.3180633"><ele>20.714285714285715</ele><time>2026-03-30T13:21:09.294Z</time></trkpt><trkpt lat="40.9972083" lon="14.318055"><ele>20.857142857142858</ele><time>2026-03-30T13:21:10.293Z</time></trkpt><trkpt lat="40.9971333" lon="14.31805"><ele>21.0</ele><time>2026-03-30T13:21:11.295Z</time></trkpt><trkpt lat="40.99706" lon="14.318045"><ele>20.857142857142858</ele><time>2026-03-30T13:21:12.296Z</time></trkpt><trkpt lat="40.9969867" lon="14.3180367"><ele>20.714285714285715</ele><time>2026-03-30T13:21:13.296Z</time></trkpt><trkpt lat="40.9969133" lon="14.31803"><ele>20.57142857142857</ele><time>2026-03-30T13:21:14.295Z</time></trkpt><trkpt lat="40.9968383" lon="14.318025"><ele>20.42857142857143</ele><time>2026-03-30T13:21:15.295Z</time></trkpt><trkpt lat="40.9967683" lon="14.3180183"><ele>20.285714285714285</ele><time>2026-03-30T13:21:16.295Z</time></trkpt><trkpt lat="40.9966933" lon="14.3180167"><ele>20.142857142857142</ele><time>2026-03-30T13:21:17.295Z</time></trkpt><trkpt lat="40.99662" lon="14.318015"><ele>20.0</ele><time>2026-03-30T13:21:18.294Z</time></trkpt><trkpt lat="40.9965467" lon="14.318015"><ele>20.0</ele><time>2026-03-30T13:21:19.296Z</time></trkpt><trkpt lat="40.996475" lon="14.3180133"><ele>20.0</ele><time>2026-03-30T13:21:20.295Z</time></trkpt><trkpt lat="40.9964083" lon="14.3180067"><ele>20.0</ele><time>2026-03-30T13:21:21.294Z</time></trkpt><trkpt lat="40.9963383" lon="14.318"><ele>20.0</ele><time>2026-03-30T13:21:22.296Z</time></trkpt><trkpt lat="40.9962683" lon="14.3179967"><ele>20.0</ele><time>2026-03-30T13:21:23.295Z</time></trkpt><trkpt lat="40.9961967" lon="14.31799"><ele>20.0</ele><time>2026-03-30T13:21:24.296Z</time></trkpt><trkpt lat="40.996125" lon="14.3179833"><ele>20.0</ele><time>2026-03-30T13:21:25.297Z</time></trkpt><trkpt lat="40.9960583" lon="14.3179767"><ele>20.0</ele><time>2026-03-30T13:21:26.295Z</time></trkpt><trkpt lat="40.9959867" lon="14.31797"><ele>20.0</ele><time>2026-03-30T13:21:27.293Z</time></trkpt><trkpt lat="40.9959183" lon="14.3179633"><ele>20.0</ele><time>2026-03-30T13:21:28.294Z</time></trkpt><trkpt lat="40.9958533" lon="14.3179533"><ele>20.0</ele><time>2026-03-30T13:21:29.297Z</time></trkpt><trkpt lat="40.9957883" lon="14.3179417"><ele>20.0</ele><time>2026-03-30T13:21:30.298Z</time></trkpt><trkpt lat="40.9957217" lon="14.317925"><ele>20.0</ele><time>2026-03-30T13:21:31.295Z</time></trkpt><trkpt lat="40.9956567" lon="14.3179167"><ele>20.0</ele><time>2026-03-30T13:21:32.296Z</time></trkpt><trkpt lat="40.9955883" lon="14.31791"><ele>19.857142857142858</ele><time>2026-03-30T13:21:33.296Z</time></trkpt><trkpt lat="40.9955183" lon="14.3179033"><ele>19.714285714285715</ele><time>2026-03-30T13:21:34.295Z</time></trkpt><trkpt lat="40.9954467" lon="14.3178967"><ele>19.57142857142857</ele><time>2026-03-30T13:21:35.296Z</time></trkpt><trkpt lat="40.9953783" lon="14.3178917"><ele>19.42857142857143</ele><time>2026-03-30T13:21:36.294Z</time></trkpt><trkpt lat="40.99531" lon="14.317885"><ele>19.28571428571429</ele><time>2026-03-30T13:21:37.297Z</time></trkpt><trkpt lat="40.9952417" lon="14.3178783"><ele>19.142857142857142</ele><time>2026-03-30T13:21:38.295Z</time></trkpt><trkpt lat="40.9951717" lon="14.31787"><ele>19.0</ele><time>2026-03-30T13:21:39.296Z</time></trkpt><trkpt lat="40.9950983" lon="14.31786"><ele>19.0</ele><time>2026-03-30T13:21:40.295Z</time></trkpt><trkpt lat="40.9950283" lon="14.3178517"><ele>19.0</ele><time>2026-03-30T13:21:41.294Z</time></trkpt><trkpt lat="40.9949567" lon="14.3178433"><ele>19.0</ele><time>2026-03-30T13:21:42.297Z</time></trkpt><trkpt lat="40.994885" lon="14.3178367"><ele>19.0</ele><time>2026-03-30T13:21:43.296Z</time></trkpt><trkpt lat="40.9948117" lon="14.317825"><ele>19.0</ele><time>2026-03-30T13:21:44.293Z</time></trkpt><trkpt lat="40.9947383" lon="14.317815"><ele>19.0</ele><time>2026-03-30T13:21:45.293Z</time></trkpt><trkpt lat="40.9946633" lon="14.3178067"><ele>19.0</ele><time>2026-03-30T13:21:46.294Z</time></trkpt><trkpt lat="40.9945867" lon="14.3177983"><ele>19.0</ele><time>2026-03-30T13:21:47.295Z</time></trkpt><trkpt lat="40.9945117" lon="14.31779"><ele>19.0</ele><time>2026-03-30T13:21:48.296Z</time></trkpt><trkpt lat="40.9944383" lon="14.3177833"><ele>19.0</ele><time>2026-03-30T13:21:49.295Z</time></trkpt><trkpt lat="40.994365" lon="14.31778"><ele>19.0</ele><time>2026-03-30T13:21:50.295Z</time></trkpt><trkpt lat="40.99429" lon="14.3177767"><ele>19.0</ele><time>2026-03-30T13:21:51.294Z</time></trkpt><trkpt lat="40.994215" lon="14.3177733"><ele>19.0</ele><time>2026-03-30T13:21:52.294Z</time></trkpt><trkpt lat="40.9941433" lon="14.3177667"><ele>19.0</ele><time>2026-03-30T13:21:53.294Z</time></trkpt><trkpt lat="40.99407" lon="14.3177567"><ele>19.0</ele><time>2026-03-30T13:21:54.296Z</time></trkpt><trkpt lat="40.9939967" lon="14.3177483"><ele>19.0</ele><time>2026-03-30T13:21:55.295Z</time></trkpt><trkpt lat="40.9939233" lon="14.3177383"><ele>19.0</ele><time>2026-03-30T13:21:56.295Z</time></trkpt><trkpt lat="40.9938483" lon="14.3177283"><ele>19.0</ele><time>2026-03-30T13:21:57.293Z</time></trkpt><trkpt lat="40.993775" lon="14.3177217"><ele>19.0</ele><time>2026-03-30T13:21:58.295Z</time></trkpt><trkpt lat="40.9937" lon="14.317715"><ele>19.0</ele><time>2026-03-30T13:21:59.295Z</time></trkpt><trkpt lat="40.9936267" lon="14.3177067"><ele>19.0</ele><time>2026-03-30T13:22:00.296Z</time></trkpt><trkpt lat="40.993555" lon="14.3176983"><ele>19.0</ele><time>2026-03-30T13:22:01.295Z</time></trkpt><trkpt lat="40.9934817" lon="14.3176917"><ele>19.0</ele><time>2026-03-30T13:22:02.294Z</time></trkpt><trkpt lat="40.99341" lon="14.31768"><ele>19.0</ele><time>2026-03-30T13:22:03.295Z</time></trkpt><trkpt lat="40.9933367" lon="14.3176683"><ele>19.0</ele><time>2026-03-30T13:22:04.294Z</time></trkpt><trkpt lat="40.993265" lon="14.3176567"><ele>19.0</ele><time>2026-03-30T13:22:05.295Z</time></trkpt><trkpt lat="40.9931933" lon="14.3176417"><ele>19.0</ele><time>2026-03-30T13:22:06.292Z</time></trkpt><trkpt lat="40.9931217" lon="14.3176233"><ele>19.0</ele><time>2026-03-30T13:22:07.294Z</time></trkpt><trkpt lat="40.9930517" lon="14.3176033"><ele>19.0</ele><time>2026-03-30T13:22:08.294Z</time></trkpt><trkpt lat="40.9929817" lon="14.31758"><ele>19.0</ele><time>2026-03-30T13:22:09.293Z</time></trkpt><trkpt lat="40.9929133" lon="14.3175517"><ele>19.0</ele><time>2026-03-30T13:22:10.293Z</time></trkpt><trkpt lat="40.992845" lon="14.31752"><ele>19.0</ele><time>2026-03-30T13:22:11.294Z</time></trkpt><trkpt lat="40.9927767" lon="14.31748"><ele>19.0</ele><time>2026-03-30T13:22:12.295Z</time></trkpt><trkpt lat="40.99271" lon="14.3174367"><ele>19.0</ele><time>2026-03-30T13:22:13.293Z</time></trkpt><trkpt lat="40.9926467" lon="14.3173917"><ele>19.0</ele><time>2026-03-30T13:22:14.293Z</time></trkpt><trkpt lat="40.992585" lon="14.317345"><ele>19.0</ele><time>2026-03-30T13:22:15.293Z</time></trkpt><trkpt lat="40.9925233" lon="14.317295"><ele>19.0</ele><time>2026-03-30T13:22:16.293Z</time></trkpt><trkpt lat="40.992465" lon="14.3172433"><ele>19.0</ele><time>2026-03-30T13:22:17.294Z</time></trkpt><trkpt lat="40.992405" lon="14.31719"><ele>19.0</ele><time>2026-03-30T13:22:18.295Z</time></trkpt><trkpt lat="40.9923467" lon="14.317135"><ele>19.0</ele><time>2026-03-30T13:22:19.295Z</time></trkpt><trkpt lat="40.9922917" lon="14.31708"><ele>19.0</ele><time>2026-03-30T13:22:20.294Z</time></trkpt><trkpt lat="40.992235" lon="14.3170233"><ele>19.0</ele><time>2026-03-30T13:22:21.294Z</time></trkpt><trkpt lat="40.9921767" lon="14.316965"><ele>19.142857142857142</ele><time>2026-03-30T13:22:22.294Z</time></trkpt><trkpt lat="40.9921183" lon="14.3169067"><ele>19.28571428571429</ele><time>2026-03-30T13:22:23.293Z</time></trkpt><trkpt lat="40.99206" lon="14.31685"><ele>19.42857142857143</ele><time>2026-03-30T13:22:24.295Z</time></trkpt><trkpt lat="40.9920033" lon="14.3167933"><ele>19.57142857142857</ele><time>2026-03-30T13:22:25.295Z</time></trkpt><trkpt lat="40.9919467" lon="14.3167383"><ele>19.714285714285715</ele><time>2026-03-30T13:22:26.293Z</time></trkpt><trkpt lat="40.9918917" lon="14.31669"><ele>19.857142857142858</ele><time>2026-03-30T13:22:27.292Z</time></trkpt><trkpt lat="40.991835" lon="14.31664"><ele>20.0</ele><time>2026-03-30T13:22:28.295Z</time></trkpt><trkpt lat="40.9917817" lon="14.3165883"><ele>20.0</ele><time>2026-03-30T13:22:29.294Z</time></trkpt><trkpt lat="40.99173" lon="14.316535"><ele>20.0</ele><time>2026-03-30T13:22:30.294Z</time></trkpt><trkpt lat="40.991675" lon="14.3164833"><ele>20.0</ele><time>2026-03-30T13:22:31.294Z</time></trkpt><trkpt lat="40.991615" lon="14.3164317"><ele>20.0</ele><time>2026-03-30T13:22:32.296Z</time></trkpt><trkpt lat="40.9915567" lon="14.3163767"><ele>20.0</ele><time>2026-03-30T13:22:33.293Z</time></trkpt><trkpt lat="40.9915" lon="14.316325"><ele>20.0</ele><time>2026-03-30T13:22:34.292Z</time></trkpt><trkpt lat="40.991445" lon="14.3162733"><ele>20.0</ele><time>2026-03-30T13:22:35.294Z</time></trkpt><trkpt lat="40.99139" lon="14.31622"><ele>19.857142857142858</ele><time>2026-03-30T13:22:36.293Z</time></trkpt><trkpt lat="40.9913383" lon="14.3161667"><ele>19.714285714285715</ele><time>2026-03-30T13:22:37.295Z</time></trkpt><trkpt lat="40.9912833" lon="14.3161117"><ele>19.57142857142857</ele><time>2026-03-30T13:22:38.293Z</time></trkpt><trkpt lat="40.9912283" lon="14.316055"><ele>19.42857142857143</ele><time>2026-03-30T13:22:39.294Z</time></trkpt><trkpt lat="40.9911733" lon="14.3159983"><ele>19.28571428571429</ele><time>2026-03-30T13:22:40.295Z</time></trkpt><trkpt lat="40.9911183" lon="14.3159417"><ele>19.142857142857142</ele><time>2026-03-30T13:22:41.292Z</time></trkpt><trkpt lat="40.991065" lon="14.3158833"><ele>19.0</ele><time>2026-03-30T13:22:42.293Z</time></trkpt><trkpt lat="40.9910117" lon="14.3158267"><ele>19.0</ele><time>2026-03-30T13:22:43.293Z</time></trkpt><trkpt lat="40.9909583" lon="14.3157717"><ele>19.0</ele><time>2026-03-30T13:22:44.295Z</time></trkpt><trkpt lat="40.9909067" lon="14.3157167"><ele>19.0</ele><time>2026-03-30T13:22:45.296Z</time></trkpt><trkpt lat="40.9908567" lon="14.3156583"><ele>19.0</ele><time>2026-03-30T13:22:46.294Z</time></trkpt><trkpt lat="40.9908067" lon="14.3155967"><ele>19.0</ele><time>2026-03-30T13:22:47.294Z</time></trkpt><trkpt lat="40.990755" lon="14.31553"><ele>19.0</ele><time>2026-03-30T13:22:48.293Z</time></trkpt><trkpt lat="40.9907017" lon="14.3154617"><ele>19.0</ele><time>2026-03-30T13:22:49.293Z</time></trkpt><trkpt lat="40.9906467" lon="14.315395"><ele>19.166666666666664</ele><time>2026-03-30T13:22:50.293Z</time></trkpt><trkpt lat="40.990585" lon="14.31533"><ele>19.333333333333332</ele><time>2026-03-30T13:22:51.296Z</time></trkpt><trkpt lat="40.9905233" lon="14.315265"><ele>19.5</ele><time>2026-03-30T13:22:52.295Z</time></trkpt><trkpt lat="40.9904633" lon="14.3152017"><ele>19.666666666666668</ele><time>2026-03-30T13:22:53.295Z</time></trkpt><trkpt lat="40.990405" lon="14.3151383"><ele>19.833333333333336</ele><time>2026-03-30T13:22:54.293Z</time></trkpt><trkpt lat="40.990335" lon="14.315085"><ele>20.0</ele><time>2026-03-30T13:22:55.295Z</time></trkpt><trkpt lat="40.9902633" lon="14.3150267"><ele>20.0</ele><time>2026-03-30T13:22:56.295Z</time></trkpt><trkpt lat="40.9901983" lon="14.314965"><ele>20.0</ele><time>2026-03-30T13:22:57.292Z</time></trkpt><trkpt lat="40.9901317" lon="14.3148983"><ele>20.0</ele><time>2026-03-30T13:22:58.293Z</time></trkpt><trkpt lat="40.9900633" lon="14.3148317"><ele>20.0</ele><time>2026-03-30T13:22:59.294Z</time></trkpt><trkpt lat="40.99" lon="14.3147683"><ele>20.0</ele><time>2026-03-30T13:23:00.293Z</time></trkpt><trkpt lat="40.9899383" lon="14.314705"><ele>20.0</ele><time>2026-03-30T13:23:01.294Z</time></trkpt><trkpt lat="40.9898817" lon="14.314645"><ele>20.2</ele><time>2026-03-30T13:23:02.292Z</time></trkpt><trkpt lat="40.9898317" lon="14.31459"><ele>20.4</ele><time>2026-03-30T13:23:03.296Z</time></trkpt><trkpt lat="40.9897317" lon="14.3144833"><ele>20.6</ele><time>2026-03-30T13:23:05.293Z</time></trkpt><trkpt lat="40.9896833" lon="14.3144283"><ele>20.8</ele><time>2026-03-30T13:23:06.294Z</time></trkpt><trkpt lat="40.9895933" lon="14.31432"><ele>21.0</ele><time>2026-03-30T13:23:08.293Z</time></trkpt><trkpt lat="40.9895" lon="14.3142167"><ele>21.0</ele><time>2026-03-30T13:23:10.293Z</time></trkpt><trkpt lat="40.9894" lon="14.3141167"><ele>21.0</ele><time>2026-03-30T13:23:12.292Z</time></trkpt><trkpt lat="40.9893483" lon="14.3140633"><ele>21.0</ele><time>2026-03-30T13:23:13.296Z</time></trkpt><trkpt lat="40.9892967" lon="14.31401"><ele>21.0</ele><time>2026-03-30T13:23:14.295Z</time></trkpt><trkpt lat="40.9892433" lon="14.3139533"><ele>21.0</ele><time>2026-03-30T13:23:15.293Z</time></trkpt><trkpt lat="40.98919" lon="14.3138967"><ele>21.0</ele><time>2026-03-30T13:23:16.294Z</time></trkpt><trkpt lat="40.9891367" lon="14.31384"><ele>21.0</ele><time>2026-03-30T13:23:17.293Z</time></trkpt><trkpt lat="40.98908" lon="14.3137833"><ele>21.0</ele><time>2026-03-30T13:23:18.292Z</time></trkpt><trkpt lat="40.9890267" lon="14.3137283"><ele>21.0</ele><time>2026-03-30T13:23:19.292Z</time></trkpt><trkpt lat="40.9889733" lon="14.3136717"><ele>21.0</ele><time>2026-03-30T13:23:20.292Z</time></trkpt><trkpt lat="40.9889183" lon="14.3136183"><ele>21.0</ele><time>2026-03-30T13:23:21.292Z</time></trkpt><trkpt lat="40.9888617" lon="14.3135633"><ele>21.0</ele><time>2026-03-30T13:23:22.293Z</time></trkpt><trkpt lat="40.98881" lon="14.3135067"><ele>21.0</ele><time>2026-03-30T13:23:23.293Z</time></trkpt><trkpt lat="40.988755" lon="14.3134483"><ele>21.0</ele><time>2026-03-30T13:23:24.293Z</time></trkpt><trkpt lat="40.9887017" lon="14.31339"><ele>21.0</ele><time>2026-03-30T13:23:25.292Z</time></trkpt><trkpt lat="40.9886483" lon="14.3133317"><ele>21.0</ele><time>2026-03-30T13:23:26.294Z</time></trkpt><trkpt lat="40.9885933" lon="14.3132783"><ele>21.0</ele><time>2026-03-30T13:23:27.292Z</time></trkpt><trkpt lat="40.98854" lon="14.3132267"><ele>21.0</ele><time>2026-03-30T13:23:28.293Z</time></trkpt><trkpt lat="40.988485" lon="14.313175"><ele>21.0</ele><time>2026-03-30T13:23:29.293Z</time></trkpt><trkpt lat="40.98843" lon="14.3131233"><ele>21.0</ele><time>2026-03-30T13:23:30.294Z</time></trkpt><trkpt lat="40.9883767" lon="14.31307"><ele>20.714285714285715</ele><time>2026-03-30T13:23:31.293Z</time></trkpt><trkpt lat="40.9883233" lon="14.3130167"><ele>20.42857142857143</ele><time>2026-03-30T13:23:32.293Z</time></trkpt><trkpt lat="40.9882717" lon="14.3129617"><ele>20.142857142857142</ele><time>2026-03-30T13:23:33.292Z</time></trkpt><trkpt lat="40.98822" lon="14.3129067"><ele>19.857142857142858</ele><time>2026-03-30T13:23:34.293Z</time></trkpt><trkpt lat="40.9881633" lon="14.3128533"><ele>19.571428571428573</ele><time>2026-03-30T13:23:35.293Z</time></trkpt><trkpt lat="40.9881083" lon="14.3128"><ele>19.285714285714285</ele><time>2026-03-30T13:23:36.294Z</time></trkpt><trkpt lat="40.988055" lon="14.312745"><ele>19.0</ele><time>2026-03-30T13:23:37.294Z</time></trkpt><trkpt lat="40.9880017" lon="14.3126883"><ele>19.0</ele><time>2026-03-30T13:23:38.293Z</time></trkpt><trkpt lat="40.9879483" lon="14.31263"><ele>19.0</ele><time>2026-03-30T13:23:39.292Z</time></trkpt><trkpt lat="40.987895" lon="14.312575"><ele>19.0</ele><time>2026-03-30T13:23:40.293Z</time></trkpt><trkpt lat="40.98784" lon="14.312525"><ele>19.0</ele><time>2026-03-30T13:23:41.293Z</time></trkpt><trkpt lat="40.9877867" lon="14.312475"><ele>19.0</ele><time>2026-03-30T13:23:42.294Z</time></trkpt><trkpt lat="40.9877333" lon="14.312425"><ele>19.0</ele><time>2026-03-30T13:23:43.293Z</time></trkpt><trkpt lat="40.98768" lon="14.3123767"><ele>19.0</ele><time>2026-03-30T13:23:44.293Z</time></trkpt><trkpt lat="40.9876283" lon="14.3123267"><ele>19.0</ele><time>2026-03-30T13:23:45.293Z</time></trkpt><trkpt lat="40.9875783" lon="14.3122733"><ele>19.0</ele><time>2026-03-30T13:23:46.293Z</time></trkpt><trkpt lat="40.9875283" lon="14.3122217"><ele>19.0</ele><time>2026-03-30T13:23:47.294Z</time></trkpt><trkpt lat="40.98748" lon="14.3121667"><ele>19.0</ele><time>2026-03-30T13:23:48.296Z</time></trkpt><trkpt lat="40.9874283" lon="14.3121133"><ele>19.0</ele><time>2026-03-30T13:23:49.293Z</time></trkpt><trkpt lat="40.9873783" lon="14.31206"><ele>19.0</ele><time>2026-03-30T13:23:50.293Z</time></trkpt><trkpt lat="40.987325" lon="14.3120067"><ele>19.0</ele><time>2026-03-30T13:23:51.293Z</time></trkpt><trkpt lat="40.9872283" lon="14.3119133"><ele>19.166666666666664</ele><time>2026-03-30T13:23:53.293Z</time></trkpt><trkpt lat="40.9871717" lon="14.311875"><ele>19.333333333333332</ele><time>2026-03-30T13:23:54.294Z</time></trkpt><trkpt lat="40.98706" lon="14.3118083"><ele>19.5</ele><time>2026-03-30T13:23:56.294Z</time></trkpt><trkpt lat="40.9869983" lon="14.3117783"><ele>19.666666666666668</ele><time>2026-03-30T13:23:57.294Z</time></trkpt><trkpt lat="40.986875" lon="14.3117367"><ele>19.833333333333336</ele><time>2026-03-30T13:23:59.294Z</time></trkpt><trkpt lat="40.9868117" lon="14.3117217"><ele>20.0</ele><time>2026-03-30T13:24:00.294Z</time></trkpt><trkpt lat="40.9867483" lon="14.3117117"><ele>20.0</ele><time>2026-03-30T13:24:01.294Z</time></trkpt><trkpt lat="40.9866217" lon="14.3116867"><ele>20.0</ele><time>2026-03-30T13:24:03.292Z</time></trkpt><trkpt lat="40.9865567" lon="14.3116733"><ele>20.0</ele><time>2026-03-30T13:24:04.293Z</time></trkpt><trkpt lat="40.98649" lon="14.3116617"><ele>20.0</ele><time>2026-03-30T13:24:05.294Z</time></trkpt><trkpt lat="40.986425" lon="14.3116483"><ele>20.0</ele><time>2026-03-30T13:24:06.293Z</time></trkpt><trkpt lat="40.9863583" lon="14.3116383"><ele>20.0</ele><time>2026-03-30T13:24:07.295Z</time></trkpt><trkpt lat="40.9862933" lon="14.3116283"><ele>20.0</ele><time>2026-03-30T13:24:08.293Z</time></trkpt><trkpt lat="40.986225" lon="14.3116167"><ele>20.0</ele><time>2026-03-30T13:24:09.296Z</time></trkpt><trkpt lat="40.9861567" lon="14.3116017"><ele>20.0</ele><time>2026-03-30T13:24:10.294Z</time></trkpt><trkpt lat="40.9860867" lon="14.3115883"><ele>20.0</ele><time>2026-03-30T13:24:11.294Z</time></trkpt><trkpt lat="40.9860167" lon="14.3115767"><ele>20.0</ele><time>2026-03-30T13:24:12.295Z</time></trkpt><trkpt lat="40.985945" lon="14.3115633"><ele>20.0</ele><time>2026-03-30T13:24:13.293Z</time></trkpt><trkpt lat="40.9858767" lon="14.31155"><ele>20.0</ele><time>2026-03-30T13:24:14.292Z</time></trkpt><trkpt lat="40.9858067" lon="14.3115367"><ele>20.0</ele><time>2026-03-30T13:24:15.293Z</time></trkpt><trkpt lat="40.985735" lon="14.31152"><ele>20.0</ele><time>2026-03-30T13:24:16.293Z</time></trkpt><trkpt lat="40.9856667" lon="14.3115033"><ele>20.0</ele><time>2026-03-30T13:24:17.294Z</time></trkpt><trkpt lat="40.985595" lon="14.31149"><ele>20.0</ele><time>2026-03-30T13:24:18.293Z</time></trkpt><trkpt lat="40.985525" lon="14.3114783"><ele>20.0</ele><time>2026-03-30T13:24:19.293Z</time></trkpt><trkpt lat="40.9854533" lon="14.3114717"><ele>20.0</ele><time>2026-03-30T13:24:20.293Z</time></trkpt><trkpt lat="40.9853817" lon="14.3114683"><ele>20.0</ele><time>2026-03-30T13:24:21.292Z</time></trkpt><trkpt lat="40.98531" lon="14.31147"><ele>20.0</ele><time>2026-03-30T13:24:22.293Z</time></trkpt><trkpt lat="40.985235" lon="14.311475"><ele>20.0</ele><time>2026-03-30T13:24:23.294Z</time></trkpt><trkpt lat="40.9851667" lon="14.3114833"><ele>20.0</ele><time>2026-03-30T13:24:24.295Z</time></trkpt><trkpt lat="40.9850983" lon="14.3115"><ele>20.0</ele><time>2026-03-30T13:24:25.293Z</time></trkpt><trkpt lat="40.9850317" lon="14.3115233"><ele>20.0</ele><time>2026-03-30T13:24:26.293Z</time></trkpt><trkpt lat="40.9849667" lon="14.31155"><ele>20.0</ele><time>2026-03-30T13:24:27.292Z</time></trkpt><trkpt lat="40.9849017" lon="14.3115783"><ele>20.0</ele><time>2026-03-30T13:24:28.293Z</time></trkpt><trkpt lat="40.9848333" lon="14.3116083"><ele>20.142857142857142</ele><time>2026-03-30T13:24:29.293Z</time></trkpt><trkpt lat="40.98477" lon="14.3116417"><ele>20.285714285714285</ele><time>2026-03-30T13:24:30.293Z</time></trkpt><trkpt lat="40.9847033" lon="14.311675"><ele>20.42857142857143</ele><time>2026-03-30T13:24:31.294Z</time></trkpt><trkpt lat="40.9846383" lon="14.3117067"><ele>20.57142857142857</ele><time>2026-03-30T13:24:32.297Z</time></trkpt><trkpt lat="40.984565" lon="14.3117417"><ele>20.714285714285715</ele><time>2026-03-30T13:24:33.293Z</time></trkpt><trkpt lat="40.984505" lon="14.3117767"><ele>20.857142857142858</ele><time>2026-03-30T13:24:34.293Z</time></trkpt><trkpt lat="40.9844383" lon="14.311815"><ele>21.0</ele><time>2026-03-30T13:24:35.294Z</time></trkpt><trkpt lat="40.98437" lon="14.3118483"><ele>21.0</ele><time>2026-03-30T13:24:36.293Z</time></trkpt><trkpt lat="40.9843017" lon="14.3118833"><ele>21.0</ele><time>2026-03-30T13:24:37.295Z</time></trkpt><trkpt lat="40.9842317" lon="14.31192"><ele>21.0</ele><time>2026-03-30T13:24:38.294Z</time></trkpt><trkpt lat="40.984165" lon="14.3119533"><ele>21.0</ele><time>2026-03-30T13:24:39.292Z</time></trkpt><trkpt lat="40.9840967" lon="14.3119883"><ele>21.0</ele><time>2026-03-30T13:24:40.293Z</time></trkpt><trkpt lat="40.9840283" lon="14.31202"><ele>21.0</ele><time>2026-03-30T13:24:41.294Z</time></trkpt><trkpt lat="40.9839567" lon="14.3120567"><ele>21.0</ele><time>2026-03-30T13:24:42.293Z</time></trkpt><trkpt lat="40.9838867" lon="14.3120917"><ele>20.833333333333332</ele><time>2026-03-30T13:24:43.293Z</time></trkpt><trkpt lat="40.9838133" lon="14.312125"><ele>20.666666666666668</ele><time>2026-03-30T13:24:44.296Z</time></trkpt><trkpt lat="40.98374" lon="14.3121567"><ele>20.5</ele><time>2026-03-30T13:24:45.293Z</time></trkpt><trkpt lat="40.983665" lon="14.3121917"><ele>20.333333333333336</ele><time>2026-03-30T13:24:46.294Z</time></trkpt><trkpt lat="40.9835933" lon="14.3122267"><ele>20.166666666666668</ele><time>2026-03-30T13:24:47.294Z</time></trkpt><trkpt lat="40.9835217" lon="14.312265"><ele>20.0</ele><time>2026-03-30T13:24:48.292Z</time></trkpt><trkpt lat="40.9834517" lon="14.3123017"><ele>20.0</ele><time>2026-03-30T13:24:49.293Z</time></trkpt><trkpt lat="40.9833833" lon="14.3123333"><ele>20.0</ele><time>2026-03-30T13:24:50.294Z</time></trkpt><trkpt lat="40.9833117" lon="14.312365"><ele>20.0</ele><time>2026-03-30T13:24:51.293Z</time></trkpt><trkpt lat="40.9832433" lon="14.3123883"><ele>20.0</ele><time>2026-03-30T13:24:52.293Z</time></trkpt><trkpt lat="40.98317" lon="14.3124067"><ele>20.0</ele><time>2026-03-30T13:24:53.293Z</time></trkpt><trkpt lat="40.983095" lon="14.312425"><ele>20.0</ele><time>2026-03-30T13:24:54.293Z</time></trkpt><trkpt lat="40.9830267" lon="14.31243"><ele>20.0</ele><time>2026-03-30T13:24:55.296Z</time></trkpt><trkpt lat="40.9829517" lon="14.31243"><ele>20.0</ele><time>2026-03-30T13:24:56.296Z</time></trkpt><trkpt lat="40.9828783" lon="14.3124317"><ele>20.0</ele><time>2026-03-30T13:24:57.292Z</time></trkpt><trkpt lat="40.9828083" lon="14.3124333"><ele>20.0</ele><time>2026-03-30T13:24:58.293Z</time></trkpt><trkpt lat="40.9827417" lon="14.3124333"><ele>20.0</ele><time>2026-03-30T13:24:59.296Z</time></trkpt><trkpt lat="40.9826683" lon="14.3124317"><ele>20.0</ele><time>2026-03-30T13:25:00.293Z</time></trkpt><trkpt lat="40.9825933" lon="14.3124333"><ele>20.0</ele><time>2026-03-30T13:25:01.294Z</time></trkpt><trkpt lat="40.9825183" lon="14.312435"><ele>20.0</ele><time>2026-03-30T13:25:02.293Z</time></trkpt><trkpt lat="40.9824433" lon="14.312435"><ele>20.0</ele><time>2026-03-30T13:25:03.293Z</time></trkpt><trkpt lat="40.98237" lon="14.312435"><ele>20.0</ele><time>2026-03-30T13:25:04.293Z</time></trkpt><trkpt lat="40.9822933" lon="14.3124367"><ele>20.0</ele><time>2026-03-30T13:25:05.294Z</time></trkpt><trkpt lat="40.98222" lon="14.3124417"><ele>20.0</ele><time>2026-03-30T13:25:06.296Z</time></trkpt><trkpt lat="40.9821433" lon="14.31244"><ele>20.0</ele><time>2026-03-30T13:25:07.295Z</time></trkpt><trkpt lat="40.98207" lon="14.31244"><ele>20.0</ele><time>2026-03-30T13:25:08.296Z</time></trkpt><trkpt lat="40.9819983" lon="14.31244"><ele>20.0</ele><time>2026-03-30T13:25:09.296Z</time></trkpt><trkpt lat="40.981925" lon="14.3124417"><ele>20.0</ele><time>2026-03-30T13:25:10.296Z</time></trkpt><trkpt lat="40.9818483" lon="14.3124417"><ele>20.0</ele><time>2026-03-30T13:25:11.295Z</time></trkpt><trkpt lat="40.981775" lon="14.3124383"><ele>20.0</ele><time>2026-03-30T13:25:12.297Z</time></trkpt><trkpt lat="40.981705" lon="14.3124333"><ele>20.0</ele><time>2026-03-30T13:25:13.297Z</time></trkpt><trkpt lat="40.981635" lon="14.3124267"><ele>20.0</ele><time>2026-03-30T13:25:14.294Z</time></trkpt><trkpt lat="40.981565" lon="14.3124167"><ele>20.0</ele><time>2026-03-30T13:25:15.296Z</time></trkpt><trkpt lat="40.981495" lon="14.3124"><ele>20.0</ele><time>2026-03-30T13:25:16.294Z</time></trkpt><trkpt lat="40.9814267" lon="14.312375"><ele>20.142857142857142</ele><time>2026-03-30T13:25:17.294Z</time></trkpt><trkpt lat="40.9813617" lon="14.312345"><ele>20.285714285714285</ele><time>2026-03-30T13:25:18.295Z</time></trkpt><trkpt lat="40.981295" lon="14.312315"><ele>20.42857142857143</ele><time>2026-03-30T13:25:19.295Z</time></trkpt><trkpt lat="40.981225" lon="14.312285"><ele>20.57142857142857</ele><time>2026-03-30T13:25:20.295Z</time></trkpt><trkpt lat="40.981155" lon="14.3122517"><ele>20.714285714285715</ele><time>2026-03-30T13:25:21.293Z</time></trkpt><trkpt lat="40.981085" lon="14.3122183"><ele>20.857142857142858</ele><time>2026-03-30T13:25:22.293Z</time></trkpt><trkpt lat="40.98102" lon="14.31218"><ele>21.0</ele><time>2026-03-30T13:25:23.294Z</time></trkpt><trkpt lat="40.9809517" lon="14.3121383"><ele>21.0</ele><time>2026-03-30T13:25:24.295Z</time></trkpt><trkpt lat="40.9808833" lon="14.3121017"><ele>21.0</ele><time>2026-03-30T13:25:25.294Z</time></trkpt><trkpt lat="40.980815" lon="14.3120633"><ele>21.0</ele><time>2026-03-30T13:25:26.295Z</time></trkpt><trkpt lat="40.980745" lon="14.3120267"><ele>21.0</ele><time>2026-03-30T13:25:27.293Z</time></trkpt><trkpt lat="40.9806783" lon="14.3119867"><ele>21.0</ele><time>2026-03-30T13:25:28.293Z</time></trkpt><trkpt lat="40.9806117" lon="14.311945"><ele>21.0</ele><time>2026-03-30T13:25:29.295Z</time></trkpt><trkpt lat="40.980545" lon="14.3119033"><ele>21.0</ele><time>2026-03-30T13:25:30.295Z</time></trkpt><trkpt lat="40.9804783" lon="14.3118617"><ele>21.333333333333332</ele><time>2026-03-30T13:25:31.294Z</time></trkpt><trkpt lat="40.98041" lon="14.3118183"><ele>21.666666666666668</ele><time>2026-03-30T13:25:32.293Z</time></trkpt><trkpt lat="40.9803417" lon="14.3117733"><ele>22.0</ele><time>2026-03-30T13:25:33.292Z</time></trkpt><trkpt lat="40.980275" lon="14.31173"><ele>22.333333333333336</ele><time>2026-03-30T13:25:34.293Z</time></trkpt><trkpt lat="40.9802067" lon="14.3116867"><ele>22.666666666666668</ele><time>2026-03-30T13:25:35.293Z</time></trkpt><trkpt lat="40.9801417" lon="14.31164"><ele>23.0</ele><time>2026-03-30T13:25:36.293Z</time></trkpt><trkpt lat="40.9800767" lon="14.31159"><ele>22.714285714285715</ele><time>2026-03-30T13:25:37.293Z</time></trkpt><trkpt lat="40.9800133" lon="14.3115367"><ele>22.428571428571427</ele><time>2026-03-30T13:25:38.295Z</time></trkpt><trkpt lat="40.97995" lon="14.3114883"><ele>22.142857142857142</ele><time>2026-03-30T13:25:39.293Z</time></trkpt><trkpt lat="40.9798867" lon="14.3114433"><ele>21.857142857142858</ele><time>2026-03-30T13:25:40.294Z</time></trkpt><trkpt lat="40.97982" lon="14.311395"><ele>21.57142857142857</ele><time>2026-03-30T13:25:41.295Z</time></trkpt><trkpt lat="40.9797583" lon="14.311345"><ele>21.285714285714285</ele><time>2026-03-30T13:25:42.293Z</time></trkpt><trkpt lat="40.9796983" lon="14.3112983"><ele>21.0</ele><time>2026-03-30T13:25:43.295Z</time></trkpt><trkpt lat="40.9796383" lon="14.3112483"><ele>21.0</ele><time>2026-03-30T13:25:44.293Z</time></trkpt><trkpt lat="40.9795817" lon="14.3112017"><ele>21.0</ele><time>2026-03-30T13:25:45.294Z</time></trkpt><trkpt lat="40.9795233" lon="14.3111517"><ele>21.0</ele><time>2026-03-30T13:25:46.293Z</time></trkpt><trkpt lat="40.9794633" lon="14.3111"><ele>21.0</ele><time>2026-03-30T13:25:47.295Z</time></trkpt><trkpt lat="40.9794" lon="14.311045"><ele>21.0</ele><time>2026-03-30T13:25:48.294Z</time></trkpt><trkpt lat="40.9793367" lon="14.3109917"><ele>21.0</ele><time>2026-03-30T13:25:49.294Z</time></trkpt><trkpt lat="40.9792733" lon="14.310935"><ele>21.0</ele><time>2026-03-30T13:25:50.293Z</time></trkpt><trkpt lat="40.9792133" lon="14.3108783"><ele>21.0</ele><time>2026-03-30T13:25:51.295Z</time></trkpt><trkpt lat="40.9791533" lon="14.3108233"><ele>21.0</ele><time>2026-03-30T13:25:52.293Z</time></trkpt><trkpt lat="40.9790967" lon="14.3107717"><ele>21.0</ele><time>2026-03-30T13:25:53.295Z</time></trkpt><trkpt lat="40.97904" lon="14.3107217"><ele>21.0</ele><time>2026-03-30T13:25:54.293Z</time></trkpt><trkpt lat="40.97898" lon="14.3106683"><ele>21.0</ele><time>2026-03-30T13:25:55.295Z</time></trkpt><trkpt lat="40.9789217" lon="14.3106167"><ele>21.0</ele><time>2026-03-30T13:25:56.295Z</time></trkpt><trkpt lat="40.9788583" lon="14.3105667"><ele>21.0</ele><time>2026-03-30T13:25:57.293Z</time></trkpt><trkpt lat="40.9788" lon="14.3105133"><ele>20.857142857142858</ele><time>2026-03-30T13:25:58.294Z</time></trkpt><trkpt lat="40.9787417" lon="14.31046"><ele>20.714285714285715</ele><time>2026-03-30T13:25:59.293Z</time></trkpt><trkpt lat="40.9786817" lon="14.3104133"><ele>20.57142857142857</ele><time>2026-03-30T13:26:00.295Z</time></trkpt><trkpt lat="40.9786217" lon="14.310365"><ele>20.42857142857143</ele><time>2026-03-30T13:26:01.293Z</time></trkpt><trkpt lat="40.9785633" lon="14.31031"><ele>20.285714285714285</ele><time>2026-03-30T13:26:02.294Z</time></trkpt><trkpt lat="40.9785067" lon="14.3102533"><ele>20.142857142857142</ele><time>2026-03-30T13:26:03.293Z</time></trkpt><trkpt lat="40.97845" lon="14.310195"><ele>20.0</ele><time>2026-03-30T13:26:04.295Z</time></trkpt><trkpt lat="40.978395" lon="14.3101367"><ele>20.0</ele><time>2026-03-30T13:26:05.293Z</time></trkpt><trkpt lat="40.9783433" lon="14.31008"><ele>20.0</ele><time>2026-03-30T13:26:06.295Z</time></trkpt><trkpt lat="40.9782933" lon="14.31002"><ele>20.0</ele><time>2026-03-30T13:26:07.295Z</time></trkpt><trkpt lat="40.97824" lon="14.3099633"><ele>20.0</ele><time>2026-03-30T13:26:08.296Z</time></trkpt><trkpt lat="40.9781917" lon="14.3099067"><ele>20.0</ele><time>2026-03-30T13:26:09.293Z</time></trkpt><trkpt lat="40.9781417" lon="14.3098517"><ele>20.0</ele><time>2026-03-30T13:26:10.295Z</time></trkpt><trkpt lat="40.9780933" lon="14.3097917"><ele>20.0</ele><time>2026-03-30T13:26:11.295Z</time></trkpt><trkpt lat="40.978045" lon="14.30973"><ele>20.285714285714285</ele><time>2026-03-30T13:26:12.293Z</time></trkpt><trkpt lat="40.9779983" lon="14.3096667"><ele>20.571428571428573</ele><time>2026-03-30T13:26:13.295Z</time></trkpt><trkpt lat="40.9779483" lon="14.3096033"><ele>20.857142857142858</ele><time>2026-03-30T13:26:14.293Z</time></trkpt><trkpt lat="40.9779" lon="14.3095417"><ele>21.142857142857142</ele><time>2026-03-30T13:26:15.293Z</time></trkpt><trkpt lat="40.977855" lon="14.3094833"><ele>21.428571428571427</ele><time>2026-03-30T13:26:16.294Z</time></trkpt><trkpt lat="40.9778083" lon="14.3094217"><ele>21.714285714285715</ele><time>2026-03-30T13:26:17.295Z</time></trkpt><trkpt lat="40.9777617" lon="14.30936"><ele>22.0</ele><time>2026-03-30T13:26:18.293Z</time></trkpt><trkpt lat="40.9777133" lon="14.3092967"><ele>22.0</ele><time>2026-03-30T13:26:19.295Z</time></trkpt><trkpt lat="40.9776617" lon="14.3092367"><ele>22.0</ele><time>2026-03-30T13:26:20.296Z</time></trkpt><trkpt lat="40.9776117" lon="14.3091817"><ele>22.0</ele><time>2026-03-30T13:26:21.295Z</time></trkpt><trkpt lat="40.9775617" lon="14.3091283"><ele>22.0</ele><time>2026-03-30T13:26:22.295Z</time></trkpt><trkpt lat="40.9775083" lon="14.3090783"><ele>22.0</ele><time>2026-03-30T13:26:23.293Z</time></trkpt><trkpt lat="40.9774533" lon="14.309035"><ele>22.0</ele><time>2026-03-30T13:26:24.293Z</time></trkpt><trkpt lat="40.977395" lon="14.308995"><ele>22.0</ele><time>2026-03-30T13:26:25.295Z</time></trkpt><trkpt lat="40.977335" lon="14.3089633"><ele>21.714285714285715</ele><time>2026-03-30T13:26:26.294Z</time></trkpt><trkpt lat="40.97727" lon="14.308945"><ele>21.428571428571427</ele><time>2026-03-30T13:26:27.295Z</time></trkpt><trkpt lat="40.9772067" lon="14.3089317"><ele>21.142857142857142</ele><time>2026-03-30T13:26:28.297Z</time></trkpt><trkpt lat="40.9771417" lon="14.308935"><ele>20.857142857142858</ele><time>2026-03-30T13:26:29.295Z</time></trkpt><trkpt lat="40.9770717" lon="14.308945"><ele>20.571428571428573</ele><time>2026-03-30T13:26:30.297Z</time></trkpt><trkpt lat="40.977005" lon="14.3089617"><ele>20.285714285714285</ele><time>2026-03-30T13:26:31.298Z</time></trkpt><trkpt lat="40.97694" lon="14.3089833"><ele>20.0</ele><time>2026-03-30T13:26:32.295Z</time></trkpt><trkpt lat="40.9768767" lon="14.3090083"><ele>20.0</ele><time>2026-03-30T13:26:33.295Z</time></trkpt><trkpt lat="40.976815" lon="14.3090367"><ele>20.0</ele><time>2026-03-30T13:26:34.295Z</time></trkpt><trkpt lat="40.97675" lon="14.30907"><ele>20.0</ele><time>2026-03-30T13:26:35.295Z</time></trkpt><trkpt lat="40.9766833" lon="14.3091067"><ele>20.0</ele><time>2026-03-30T13:26:36.295Z</time></trkpt><trkpt lat="40.97662" lon="14.3091433"><ele>20.0</ele><time>2026-03-30T13:26:37.295Z</time></trkpt><trkpt lat="40.9765567" lon="14.3091817"><ele>20.0</ele><time>2026-03-30T13:26:38.295Z</time></trkpt><trkpt lat="40.97649" lon="14.3092183"><ele>20.0</ele><time>2026-03-30T13:26:39.295Z</time></trkpt><trkpt lat="40.9764233" lon="14.3092517"><ele>20.285714285714285</ele><time>2026-03-30T13:26:40.294Z</time></trkpt><trkpt lat="40.9763583" lon="14.3092867"><ele>20.571428571428573</ele><time>2026-03-30T13:26:41.295Z</time></trkpt><trkpt lat="40.976295" lon="14.3093183"><ele>20.857142857142858</ele><time>2026-03-30T13:26:42.295Z</time></trkpt><trkpt lat="40.976235" lon="14.3093533"><ele>21.142857142857142</ele><time>2026-03-30T13:26:43.294Z</time></trkpt><trkpt lat="40.9761717" lon="14.3093933"><ele>21.428571428571427</ele><time>2026-03-30T13:26:44.295Z</time></trkpt><trkpt lat="40.9761083" lon="14.3094317"><ele>21.714285714285715</ele><time>2026-03-30T13:26:45.295Z</time></trkpt><trkpt lat="40.97605" lon="14.3094683"><ele>22.0</ele><time>2026-03-30T13:26:46.295Z</time></trkpt><trkpt lat="40.97599" lon="14.3095083"><ele>22.0</ele><time>2026-03-30T13:26:47.293Z</time></trkpt><trkpt lat="40.975925" lon="14.309545"><ele>22.0</ele><time>2026-03-30T13:26:48.294Z</time></trkpt><trkpt lat="40.9758567" lon="14.3095767"><ele>22.0</ele><time>2026-03-30T13:26:49.296Z</time></trkpt><trkpt lat="40.9757917" lon="14.3096083"><ele>22.0</ele><time>2026-03-30T13:26:50.294Z</time></trkpt><trkpt lat="40.9757283" lon="14.3096417"><ele>22.0</ele><time>2026-03-30T13:26:51.294Z</time></trkpt><trkpt lat="40.9756617" lon="14.30967"><ele>22.0</ele><time>2026-03-30T13:26:52.295Z</time></trkpt><trkpt lat="40.9755933" lon="14.3096967"><ele>22.0</ele><time>2026-03-30T13:26:53.296Z</time></trkpt><trkpt lat="40.9755233" lon="14.3097183"><ele>22.0</ele><time>2026-03-30T13:26:54.295Z</time></trkpt><trkpt lat="40.9754517" lon="14.309735"><ele>22.0</ele><time>2026-03-30T13:26:55.295Z</time></trkpt><trkpt lat="40.9753817" lon="14.3097483"><ele>22.0</ele><time>2026-03-30T13:26:56.293Z</time></trkpt><trkpt lat="40.9753067" lon="14.3097633"><ele>22.0</ele><time>2026-03-30T13:26:57.293Z</time></trkpt><trkpt lat="40.97523" lon="14.3097717"><ele>22.0</ele><time>2026-03-30T13:26:58.296Z</time></trkpt><trkpt lat="40.9751517" lon="14.30977"><ele>22.0</ele><time>2026-03-30T13:26:59.296Z</time></trkpt><trkpt lat="40.9750733" lon="14.3097733"><ele>22.0</ele><time>2026-03-30T13:27:00.294Z</time></trkpt><trkpt lat="40.9749983" lon="14.3097767"><ele>22.0</ele><time>2026-03-30T13:27:01.295Z</time></trkpt><trkpt lat="40.97492" lon="14.3097783"><ele>22.0</ele><time>2026-03-30T13:27:02.294Z</time></trkpt><trkpt lat="40.9748417" lon="14.30978"><ele>22.0</ele><time>2026-03-30T13:27:03.295Z</time></trkpt><trkpt lat="40.9747617" lon="14.309785"><ele>22.0</ele><time>2026-03-30T13:27:04.295Z</time></trkpt><trkpt lat="40.9746833" lon="14.3097883"><ele>22.0</ele><time>2026-03-30T13:27:05.293Z</time></trkpt><trkpt lat="40.9746083" lon="14.3097883"><ele>22.0</ele><time>2026-03-30T13:27:06.295Z</time></trkpt><trkpt lat="40.9745317" lon="14.30979"><ele>22.0</ele><time>2026-03-30T13:27:07.294Z</time></trkpt><trkpt lat="40.9744583" lon="14.30979"><ele>22.0</ele><time>2026-03-30T13:27:08.293Z</time></trkpt><trkpt lat="40.9743867" lon="14.3097883"><ele>22.0</ele><time>2026-03-30T13:27:09.293Z</time></trkpt><trkpt lat="40.9743117" lon="14.3097883"><ele>22.0</ele><time>2026-03-30T13:27:10.295Z</time></trkpt><trkpt lat="40.9742433" lon="14.3097917"><ele>22.0</ele><time>2026-03-30T13:27:11.293Z</time></trkpt><trkpt lat="40.9741717" lon="14.309795"><ele>22.0</ele><time>2026-03-30T13:27:12.294Z</time></trkpt><trkpt lat="40.9741" lon="14.309795"><ele>22.0</ele><time>2026-03-30T13:27:13.295Z</time></trkpt><trkpt lat="40.9740283" lon="14.3097967"><ele>22.0</ele><time>2026-03-30T13:27:14.294Z</time></trkpt><trkpt lat="40.9739567" lon="14.3097983"><ele>22.0</ele><time>2026-03-30T13:27:15.292Z</time></trkpt><trkpt lat="40.9738833" lon="14.3097983"><ele>22.0</ele><time>2026-03-30T13:27:16.295Z</time></trkpt><trkpt lat="40.9738117" lon="14.3097967"><ele>22.0</ele><time>2026-03-30T13:27:17.295Z</time></trkpt><trkpt lat="40.97374" lon="14.3097917"><ele>22.0</ele><time>2026-03-30T13:27:18.295Z</time></trkpt><trkpt lat="40.9736683" lon="14.309785"><ele>22.0</ele><time>2026-03-30T13:27:19.295Z</time></trkpt><trkpt lat="40.9735967" lon="14.3097733"><ele>22.0</ele><time>2026-03-30T13:27:20.295Z</time></trkpt><trkpt lat="40.9735233" lon="14.3097567"><ele>22.0</ele><time>2026-03-30T13:27:21.295Z</time></trkpt><trkpt lat="40.973445" lon="14.30974"><ele>22.0</ele><time>2026-03-30T13:27:22.295Z</time></trkpt><trkpt lat="40.973365" lon="14.3097233"><ele>22.0</ele><time>2026-03-30T13:27:23.295Z</time></trkpt><trkpt lat="40.973265" lon="14.3097033"><ele>22.0</ele><time>2026-03-30T13:27:24.295Z</time></trkpt><trkpt lat="40.973145" lon="14.309655"><ele>22.0</ele><time>2026-03-30T13:27:26.294Z</time></trkpt><trkpt lat="40.9730283" lon="14.3095933"><ele>22.0</ele><time>2026-03-30T13:27:28.295Z</time></trkpt><trkpt lat="40.9729633" lon="14.3095667"><ele>22.0</ele><time>2026-03-30T13:27:29.295Z</time></trkpt><trkpt lat="40.9728967" lon="14.309535"><ele>22.0</ele><time>2026-03-30T13:27:30.295Z</time></trkpt><trkpt lat="40.9728317" lon="14.30951"><ele>22.0</ele><time>2026-03-30T13:27:31.295Z</time></trkpt><trkpt lat="40.9727633" lon="14.3094817"><ele>22.0</ele><time>2026-03-30T13:27:32.295Z</time></trkpt><trkpt lat="40.9726983" lon="14.309455"><ele>22.0</ele><time>2026-03-30T13:27:33.293Z</time></trkpt><trkpt lat="40.9726317" lon="14.30943"><ele>22.0</ele><time>2026-03-30T13:27:34.295Z</time></trkpt><trkpt lat="40.9725617" lon="14.309405"><ele>22.0</ele><time>2026-03-30T13:27:35.295Z</time></trkpt><trkpt lat="40.9724933" lon="14.30938"><ele>22.0</ele><time>2026-03-30T13:27:36.295Z</time></trkpt><trkpt lat="40.9724283" lon="14.309355"><ele>22.0</ele><time>2026-03-30T13:27:37.296Z</time></trkpt><trkpt lat="40.972365" lon="14.3093283"><ele>22.0</ele><time>2026-03-30T13:27:38.294Z</time></trkpt><trkpt lat="40.9723017" lon="14.309305"><ele>22.0</ele><time>2026-03-30T13:27:39.293Z</time></trkpt><trkpt lat="40.972235" lon="14.3092833"><ele>22.142857142857142</ele><time>2026-03-30T13:27:40.295Z</time></trkpt><trkpt lat="40.9721667" lon="14.309265"><ele>22.285714285714285</ele><time>2026-03-30T13:27:41.294Z</time></trkpt><trkpt lat="40.9721" lon="14.3092433"><ele>22.42857142857143</ele><time>2026-03-30T13:27:42.295Z</time></trkpt><trkpt lat="40.972035" lon="14.3092167"><ele>22.57142857142857</ele><time>2026-03-30T13:27:43.295Z</time></trkpt><trkpt lat="40.97197" lon="14.3091867"><ele>22.71428571428571</ele><time>2026-03-30T13:27:44.295Z</time></trkpt><trkpt lat="40.9719083" lon="14.309155"><ele>22.857142857142858</ele><time>2026-03-30T13:27:45.296Z</time></trkpt><trkpt lat="40.9718433" lon="14.3091233"><ele>23.0</ele><time>2026-03-30T13:27:46.296Z</time></trkpt><trkpt lat="40.9717833" lon="14.3090883"><ele>23.0</ele><time>2026-03-30T13:27:47.294Z</time></trkpt><trkpt lat="40.971725" lon="14.3090517"><ele>23.0</ele><time>2026-03-30T13:27:48.295Z</time></trkpt><trkpt lat="40.9716683" lon="14.3090133"><ele>23.0</ele><time>2026-03-30T13:27:49.296Z</time></trkpt><trkpt lat="40.97161" lon="14.3089783"><ele>23.0</ele><time>2026-03-30T13:27:50.296Z</time></trkpt><trkpt lat="40.9715133" lon="14.3089"><ele>23.0</ele><time>2026-03-30T13:27:52.295Z</time></trkpt><trkpt lat="40.971415" lon="14.3088467"><ele>23.0</ele><time>2026-03-30T13:27:54.295Z</time></trkpt><trkpt lat="40.9713267" lon="14.30878"><ele>23.25</ele><time>2026-03-30T13:27:56.295Z</time></trkpt><trkpt lat="40.9712283" lon="14.3087167"><ele>23.5</ele><time>2026-03-30T13:27:58.295Z</time></trkpt><trkpt lat="40.971125" lon="14.3086483"><ele>23.75</ele><time>2026-03-30T13:28:00.295Z</time></trkpt><trkpt lat="40.9710133" lon="14.308585"><ele>24.0</ele><time>2026-03-30T13:28:02.296Z</time></trkpt><trkpt lat="40.970905" lon="14.3085183"><ele>23.75</ele><time>2026-03-30T13:28:04.295Z</time></trkpt><trkpt lat="40.9707933" lon="14.3084533"><ele>23.5</ele><time>2026-03-30T13:28:06.293Z</time></trkpt><trkpt lat="40.97068" lon="14.3084"><ele>23.25</ele><time>2026-03-30T13:28:08.295Z</time></trkpt><trkpt lat="40.9705733" lon="14.3083567"><ele>23.0</ele><time>2026-03-30T13:28:10.295Z</time></trkpt><trkpt lat="40.970455" lon="14.3083283"><ele>23.0</ele><time>2026-03-30T13:28:12.295Z</time></trkpt><trkpt lat="40.9703383" lon="14.3083083"><ele>23.0</ele><time>2026-03-30T13:28:14.295Z</time></trkpt><trkpt lat="40.9702717" lon="14.3083"><ele>23.0</ele><time>2026-03-30T13:28:15.293Z</time></trkpt><trkpt lat="40.9702067" lon="14.3082933"><ele>23.0</ele><time>2026-03-30T13:28:16.295Z</time></trkpt><trkpt lat="40.9701417" lon="14.3082867"><ele>23.0</ele><time>2026-03-30T13:28:17.293Z</time></trkpt><trkpt lat="40.9700767" lon="14.30828"><ele>23.0</ele><time>2026-03-30T13:28:18.295Z</time></trkpt><trkpt lat="40.9700117" lon="14.3082767"><ele>23.0</ele><time>2026-03-30T13:28:19.294Z</time></trkpt><trkpt lat="40.9699467" lon="14.3082683"><ele>23.166666666666668</ele><time>2026-03-30T13:28:20.294Z</time></trkpt><trkpt lat="40.9698233" lon="14.3082483"><ele>23.333333333333336</ele><time>2026-03-30T13:28:22.294Z</time></trkpt><trkpt lat="40.96976" lon="14.3082417"><ele>23.5</ele><time>2026-03-30T13:28:23.295Z</time></trkpt><trkpt lat="40.9696367" lon="14.308235"><ele>23.666666666666668</ele><time>2026-03-30T13:28:25.296Z</time></trkpt><trkpt lat="40.9695733" lon="14.308235"><ele>23.833333333333332</ele><time>2026-03-30T13:28:26.295Z</time></trkpt><trkpt lat="40.969505" lon="14.308235"><ele>24.0</ele><time>2026-03-30T13:28:27.293Z</time></trkpt><trkpt lat="40.96944" lon="14.30823"><ele>24.0</ele><time>2026-03-30T13:28:28.295Z</time></trkpt><trkpt lat="40.9693717" lon="14.30822"><ele>24.0</ele><time>2026-03-30T13:28:29.295Z</time></trkpt><trkpt lat="40.9692483" lon="14.3082"><ele>24.0</ele><time>2026-03-30T13:28:31.297Z</time></trkpt><trkpt lat="40.9691233" lon="14.3081817"><ele>24.0</ele><time>2026-03-30T13:28:33.295Z</time></trkpt><trkpt lat="40.9690583" lon="14.3081733"><ele>24.0</ele><time>2026-03-30T13:28:34.294Z</time></trkpt><trkpt lat="40.968995" lon="14.308165"><ele>24.0</ele><time>2026-03-30T13:28:35.296Z</time></trkpt><trkpt lat="40.9688717" lon="14.3081483"><ele>24.25</ele><time>2026-03-30T13:28:37.295Z</time></trkpt><trkpt lat="40.9687467" lon="14.3081283"><ele>24.5</ele><time>2026-03-30T13:28:39.295Z</time></trkpt><trkpt lat="40.9686217" lon="14.3081033"><ele>24.75</ele><time>2026-03-30T13:28:41.295Z</time></trkpt><trkpt lat="40.9685017" lon="14.30807"><ele>25.0</ele><time>2026-03-30T13:28:43.296Z</time></trkpt><trkpt lat="40.968385" lon="14.3080283"><ele>25.25</ele><time>2026-03-30T13:28:45.293Z</time></trkpt><trkpt lat="40.968275" lon="14.3079817"><ele>25.5</ele><time>2026-03-30T13:28:47.294Z</time></trkpt><trkpt lat="40.9681633" lon="14.3079317"><ele>25.75</ele><time>2026-03-30T13:28:49.295Z</time></trkpt><trkpt lat="40.9680533" lon="14.307885"><ele>26.0</ele><time>2026-03-30T13:28:51.295Z</time></trkpt><trkpt lat="40.96794" lon="14.3078433"><ele>26.0</ele><time>2026-03-30T13:28:53.294Z</time></trkpt><trkpt lat="40.967825" lon="14.3077917"><ele>26.0</ele><time>2026-03-30T13:28:55.296Z</time></trkpt><trkpt lat="40.967715" lon="14.3077283"><ele>26.0</ele><time>2026-03-30T13:28:57.293Z</time></trkpt><trkpt lat="40.9676033" lon="14.3076783"><ele>26.0</ele><time>2026-03-30T13:28:59.295Z</time></trkpt><trkpt lat="40.967495" lon="14.3076317"><ele>25.5</ele><time>2026-03-30T13:29:01.295Z</time></trkpt><trkpt lat="40.9673867" lon="14.3075917"><ele>25.0</ele><time>2026-03-30T13:29:03.295Z</time></trkpt><trkpt lat="40.9672733" lon="14.3075533"><ele>24.5</ele><time>2026-03-30T13:29:05.294Z</time></trkpt><trkpt lat="40.96716" lon="14.3075033"><ele>24.0</ele><time>2026-03-30T13:29:07.296Z</time></trkpt><trkpt lat="40.9670467" lon="14.3074483"><ele>24.0</ele><time>2026-03-30T13:29:09.295Z</time></trkpt><trkpt lat="40.9669317" lon="14.307395"><ele>24.0</ele><time>2026-03-30T13:29:11.295Z</time></trkpt><trkpt lat="40.96682" lon="14.3073367"><ele>24.0</ele><time>2026-03-30T13:29:13.295Z</time></trkpt><trkpt lat="40.96676" lon="14.3073083"><ele>24.0</ele><time>2026-03-30T13:29:14.293Z</time></trkpt><trkpt lat="40.9666467" lon="14.3072483"><ele>24.0</ele><time>2026-03-30T13:29:16.296Z</time></trkpt><trkpt lat="40.9665333" lon="14.3071867"><ele>24.142857142857142</ele><time>2026-03-30T13:29:18.295Z</time></trkpt><trkpt lat="40.966475" lon="14.3071483"><ele>24.285714285714285</ele><time>2026-03-30T13:29:19.296Z</time></trkpt><trkpt lat="40.9664167" lon="14.3071117"><ele>24.42857142857143</ele><time>2026-03-30T13:29:20.295Z</time></trkpt><trkpt lat="40.9663567" lon="14.3070733"><ele>24.57142857142857</ele><time>2026-03-30T13:29:21.295Z</time></trkpt><trkpt lat="40.9662967" lon="14.30704"><ele>24.714285714285715</ele><time>2026-03-30T13:29:22.296Z</time></trkpt><trkpt lat="40.966235" lon="14.3070083"><ele>24.857142857142858</ele><time>2026-03-30T13:29:23.296Z</time></trkpt><trkpt lat="40.966175" lon="14.3069767"><ele>25.0</ele><time>2026-03-30T13:29:24.296Z</time></trkpt><trkpt lat="40.966115" lon="14.3069417"><ele>25.0</ele><time>2026-03-30T13:29:25.296Z</time></trkpt><trkpt lat="40.966055" lon="14.30691"><ele>25.0</ele><time>2026-03-30T13:29:26.295Z</time></trkpt><trkpt lat="40.9659367" lon="14.3068617"><ele>25.0</ele><time>2026-03-30T13:29:28.296Z</time></trkpt><trkpt lat="40.9658117" lon="14.30684"><ele>25.0</ele><time>2026-03-30T13:29:30.295Z</time></trkpt><trkpt lat="40.9656917" lon="14.306825"><ele>25.0</ele><time>2026-03-30T13:29:32.295Z</time></trkpt><trkpt lat="40.9656283" lon="14.3068267"><ele>25.000000000000004</ele><time>2026-03-30T13:29:33.296Z</time></trkpt><trkpt lat="40.9655633" lon="14.306835"><ele>25.0</ele><time>2026-03-30T13:29:34.294Z</time></trkpt><trkpt lat="40.965495" lon="14.30685"><ele>25.0</ele><time>2026-03-30T13:29:35.295Z</time></trkpt><trkpt lat="40.9654283" lon="14.3068667"><ele>25.0</ele><time>2026-03-30T13:29:36.294Z</time></trkpt><trkpt lat="40.9653633" lon="14.3068867"><ele>25.0</ele><time>2026-03-30T13:29:37.296Z</time></trkpt><trkpt lat="40.9652967" lon="14.3069083"><ele>25.000000000000004</ele><time>2026-03-30T13:29:38.296Z</time></trkpt><trkpt lat="40.9652317" lon="14.3069267"><ele>25.0</ele><time>2026-03-30T13:29:39.295Z</time></trkpt><trkpt lat="40.965115" lon="14.3069567"><ele>25.0</ele><time>2026-03-30T13:29:41.295Z</time></trkpt><trkpt lat="40.9649983" lon="14.3069833"><ele>25.0</ele><time>2026-03-30T13:29:43.296Z</time></trkpt><trkpt lat="40.9649367" lon="14.3070017"><ele>25.0</ele><time>2026-03-30T13:29:44.294Z</time></trkpt><trkpt lat="40.96482" lon="14.30703"><ele>25.0</ele><time>2026-03-30T13:29:46.296Z</time></trkpt><trkpt lat="40.964755" lon="14.3070417"><ele>25.0</ele><time>2026-03-30T13:29:47.295Z</time></trkpt><trkpt lat="40.9646317" lon="14.3070617"><ele>25.000000000000004</ele><time>2026-03-30T13:29:49.294Z</time></trkpt><trkpt lat="40.9645683" lon="14.3070717"><ele>25.0</ele><time>2026-03-30T13:29:50.295Z</time></trkpt><trkpt lat="40.9645033" lon="14.3070783"><ele>25.0</ele><time>2026-03-30T13:29:51.295Z</time></trkpt><trkpt lat="40.9644367" lon="14.307085"><ele>25.0</ele><time>2026-03-30T13:29:52.295Z</time></trkpt><trkpt lat="40.9643717" lon="14.3070933"><ele>25.000000000000004</ele><time>2026-03-30T13:29:53.296Z</time></trkpt><trkpt lat="40.9643067" lon="14.307095"><ele>25.0</ele><time>2026-03-30T13:29:54.295Z</time></trkpt><trkpt lat="40.9641817" lon="14.30711"><ele>24.714285714285715</ele><time>2026-03-30T13:29:56.295Z</time></trkpt><trkpt lat="40.9641183" lon="14.3071183"><ele>24.42857142857143</ele><time>2026-03-30T13:29:57.295Z</time></trkpt><trkpt lat="40.9640517" lon="14.3071283"><ele>24.142857142857146</ele><time>2026-03-30T13:29:58.295Z</time></trkpt><trkpt lat="40.9639867" lon="14.307135"><ele>23.857142857142858</ele><time>2026-03-30T13:29:59.294Z</time></trkpt><trkpt lat="40.9639217" lon="14.3071417"><ele>23.57142857142857</ele><time>2026-03-30T13:30:00.295Z</time></trkpt><trkpt lat="40.9638567" lon="14.3071483"><ele>23.28571428571429</ele><time>2026-03-30T13:30:01.295Z</time></trkpt><trkpt lat="40.9637883" lon="14.307155"><ele>23.0</ele><time>2026-03-30T13:30:02.295Z</time></trkpt><trkpt lat="40.9637217" lon="14.3071567"><ele>23.0</ele><time>2026-03-30T13:30:03.295Z</time></trkpt><trkpt lat="40.9636567" lon="14.30716"><ele>23.0</ele><time>2026-03-30T13:30:04.295Z</time></trkpt><trkpt lat="40.9635917" lon="14.3071667"><ele>23.0</ele><time>2026-03-30T13:30:05.296Z</time></trkpt><trkpt lat="40.9635233" lon="14.30717"><ele>23.0</ele><time>2026-03-30T13:30:06.295Z</time></trkpt><trkpt lat="40.9634567" lon="14.307175"><ele>23.0</ele><time>2026-03-30T13:30:07.296Z</time></trkpt><trkpt lat="40.9633917" lon="14.3071783"><ele>23.0</ele><time>2026-03-30T13:30:08.293Z</time></trkpt><trkpt lat="40.9633267" lon="14.3071867"><ele>23.0</ele><time>2026-03-30T13:30:09.294Z</time></trkpt><trkpt lat="40.96326" lon="14.3071933"><ele>23.333333333333336</ele><time>2026-03-30T13:30:10.295Z</time></trkpt><trkpt lat="40.9631917" lon="14.3072033"><ele>23.666666666666668</ele><time>2026-03-30T13:30:11.296Z</time></trkpt><trkpt lat="40.9631267" lon="14.3072133"><ele>24.0</ele><time>2026-03-30T13:30:12.295Z</time></trkpt><trkpt lat="40.9630617" lon="14.3072217"><ele>24.333333333333336</ele><time>2026-03-30T13:30:13.296Z</time></trkpt><trkpt lat="40.96294" lon="14.3072467"><ele>24.666666666666668</ele><time>2026-03-30T13:30:15.295Z</time></trkpt><trkpt lat="40.9628167" lon="14.3072533"><ele>25.0</ele><time>2026-03-30T13:30:17.297Z</time></trkpt><trkpt lat="40.9627483" lon="14.3072533"><ele>25.166666666666668</ele><time>2026-03-30T13:30:18.295Z</time></trkpt><trkpt lat="40.96268" lon="14.3072567"><ele>25.333333333333336</ele><time>2026-03-30T13:30:19.295Z</time></trkpt><trkpt lat="40.9626133" lon="14.3072617"><ele>25.5</ele><time>2026-03-30T13:30:20.296Z</time></trkpt><trkpt lat="40.9625467" lon="14.3072683"><ele>25.666666666666664</ele><time>2026-03-30T13:30:21.295Z</time></trkpt><trkpt lat="40.96242" lon="14.307285"><ele>25.833333333333332</ele><time>2026-03-30T13:30:23.297Z</time></trkpt><trkpt lat="40.962355" lon="14.307295"><ele>26.0</ele><time>2026-03-30T13:30:24.296Z</time></trkpt><trkpt lat="40.9622333" lon="14.3073067"><ele>26.142857142857142</ele><time>2026-03-30T13:30:26.294Z</time></trkpt><trkpt lat="40.9621667" lon="14.3073117"><ele>26.28571428571429</ele><time>2026-03-30T13:30:27.295Z</time></trkpt><trkpt lat="40.962095" lon="14.307315"><ele>26.42857142857143</ele><time>2026-03-30T13:30:28.295Z</time></trkpt><trkpt lat="40.9620267" lon="14.3073167"><ele>26.57142857142857</ele><time>2026-03-30T13:30:29.295Z</time></trkpt><trkpt lat="40.9619583" lon="14.30732"><ele>26.714285714285715</ele><time>2026-03-30T13:30:30.294Z</time></trkpt><trkpt lat="40.9618917" lon="14.3073233"><ele>26.857142857142858</ele><time>2026-03-30T13:30:31.296Z</time></trkpt><trkpt lat="40.961825" lon="14.30732"><ele>27.0</ele><time>2026-03-30T13:30:32.293Z</time></trkpt><trkpt lat="40.96176" lon="14.3073183"><ele>27.0</ele><time>2026-03-30T13:30:33.293Z</time></trkpt><trkpt lat="40.9616933" lon="14.3073167"><ele>27.0</ele><time>2026-03-30T13:30:34.296Z</time></trkpt><trkpt lat="40.9616267" lon="14.3073133"><ele>27.0</ele><time>2026-03-30T13:30:35.295Z</time></trkpt><trkpt lat="40.9615617" lon="14.30731"><ele>27.0</ele><time>2026-03-30T13:30:36.293Z</time></trkpt><trkpt lat="40.961495" lon="14.307305"><ele>27.0</ele><time>2026-03-30T13:30:37.296Z</time></trkpt><trkpt lat="40.9613733" lon="14.3072867"><ele>27.0</ele><time>2026-03-30T13:30:39.296Z</time></trkpt><trkpt lat="40.96131" lon="14.3072817"><ele>27.0</ele><time>2026-03-30T13:30:40.296Z</time></trkpt><trkpt lat="40.9611883" lon="14.3072617"><ele>27.000000000000004</ele><time>2026-03-30T13:30:42.296Z</time></trkpt><trkpt lat="40.96108" lon="14.3072417"><ele>27.000000000000004</ele><time>2026-03-30T13:30:44.295Z</time></trkpt><trkpt lat="40.96099" lon="14.3072217"><ele>27.0</ele><time>2026-03-30T13:30:46.296Z</time></trkpt><trkpt lat="40.960895" lon="14.3071917"><ele>27.0</ele><time>2026-03-30T13:30:48.297Z</time></trkpt><trkpt lat="40.9607917" lon="14.3071383"><ele>26.8</ele><time>2026-03-30T13:30:50.296Z</time></trkpt><trkpt lat="40.96069" lon="14.3071317"><ele>26.6</ele><time>2026-03-30T13:30:52.297Z</time></trkpt><trkpt lat="40.9605817" lon="14.3071267"><ele>26.400000000000002</ele><time>2026-03-30T13:30:54.295Z</time></trkpt><trkpt lat="40.9604667" lon="14.3070933"><ele>26.200000000000003</ele><time>2026-03-30T13:30:56.295Z</time></trkpt><trkpt lat="40.9603483" lon="14.3070633"><ele>26.0</ele><time>2026-03-30T13:30:58.293Z</time></trkpt><trkpt lat="40.9602233" lon="14.3070467"><ele>26.0</ele><time>2026-03-30T13:31:00.296Z</time></trkpt><trkpt lat="40.9601017" lon="14.3070233"><ele>26.0</ele><time>2026-03-30T13:31:02.295Z</time></trkpt><trkpt lat="40.95999" lon="14.307"><ele>26.0</ele><time>2026-03-30T13:31:04.293Z</time></trkpt><trkpt lat="40.9598767" lon="14.3069767"><ele>26.0</ele><time>2026-03-30T13:31:06.293Z</time></trkpt><trkpt lat="40.959765" lon="14.30695"><ele>25.6</ele><time>2026-03-30T13:31:08.295Z</time></trkpt><trkpt lat="40.9596483" lon="14.30691"><ele>25.200000000000003</ele><time>2026-03-30T13:31:10.295Z</time></trkpt><trkpt lat="40.959535" lon="14.3068783"><ele>24.799999999999997</ele><time>2026-03-30T13:31:12.294Z</time></trkpt><trkpt lat="40.9594117" lon="14.3068533"><ele>24.4</ele><time>2026-03-30T13:31:14.295Z</time></trkpt><trkpt lat="40.9593467" lon="14.3068333"><ele>24.0</ele><time>2026-03-30T13:31:15.295Z</time></trkpt><trkpt lat="40.9592833" lon="14.3068117"><ele>24.0</ele><time>2026-03-30T13:31:16.294Z</time></trkpt><trkpt lat="40.95922" lon="14.30679"><ele>24.0</ele><time>2026-03-30T13:31:17.295Z</time></trkpt><trkpt lat="40.959095" lon="14.3067633"><ele>24.0</ele><time>2026-03-30T13:31:19.295Z</time></trkpt><trkpt lat="40.9590283" lon="14.3067433"><ele>24.0</ele><time>2026-03-30T13:31:20.295Z</time></trkpt><trkpt lat="40.958905" lon="14.30671"><ele>24.0</ele><time>2026-03-30T13:31:22.293Z</time></trkpt><trkpt lat="40.9587883" lon="14.30667"><ele>25.0</ele><time>2026-03-30T13:31:24.294Z</time></trkpt><trkpt lat="40.9586783" lon="14.30661"><ele>26.0</ele><time>2026-03-30T13:31:26.296Z</time></trkpt><trkpt lat="40.9585683" lon="14.306545"><ele>27.0</ele><time>2026-03-30T13:31:28.296Z</time></trkpt><trkpt lat="40.95846" lon="14.3064817"><ele>28.0</ele><time>2026-03-30T13:31:30.295Z</time></trkpt><trkpt lat="40.9583567" lon="14.3064"><ele>28.166666666666668</ele><time>2026-03-30T13:31:32.295Z</time></trkpt><trkpt lat="40.9582617" lon="14.3063"><ele>28.333333333333336</ele><time>2026-03-30T13:31:34.294Z</time></trkpt><trkpt lat="40.95821" lon="14.3062517"><ele>28.5</ele><time>2026-03-30T13:31:35.295Z</time></trkpt><trkpt lat="40.9581583" lon="14.3062033"><ele>28.666666666666664</ele><time>2026-03-30T13:31:36.295Z</time></trkpt><trkpt lat="40.95811" lon="14.3061483"><ele>28.833333333333332</ele><time>2026-03-30T13:31:37.295Z</time></trkpt><trkpt lat="40.9580117" lon="14.3060483"><ele>29.0</ele><time>2026-03-30T13:31:39.294Z</time></trkpt><trkpt lat="40.95792" lon="14.3059517"><ele>29.000000000000004</ele><time>2026-03-30T13:31:41.295Z</time></trkpt><trkpt lat="40.9578683" lon="14.3059033"><ele>29.0</ele><time>2026-03-30T13:31:42.294Z</time></trkpt><trkpt lat="40.9578167" lon="14.30585"><ele>29.000000000000004</ele><time>2026-03-30T13:31:43.295Z</time></trkpt><trkpt lat="40.95776" lon="14.3058"><ele>29.000000000000004</ele><time>2026-03-30T13:31:44.294Z</time></trkpt><trkpt lat="40.957705" lon="14.3057467"><ele>29.0</ele><time>2026-03-30T13:31:45.294Z</time></trkpt><trkpt lat="40.9576517" lon="14.3056933"><ele>29.000000000000004</ele><time>2026-03-30T13:31:46.296Z</time></trkpt><trkpt lat="40.9575983" lon="14.3056417"><ele>29.000000000000004</ele><time>2026-03-30T13:31:47.295Z</time></trkpt><trkpt lat="40.957545" lon="14.3055917"><ele>29.0</ele><time>2026-03-30T13:31:48.295Z</time></trkpt><trkpt lat="40.9574933" lon="14.3055433"><ele>29.0</ele><time>2026-03-30T13:31:49.296Z</time></trkpt><trkpt lat="40.9574417" lon="14.3054933"><ele>29.0</ele><time>2026-03-30T13:31:50.296Z</time></trkpt><trkpt lat="40.9573433" lon="14.3053967"><ele>29.0</ele><time>2026-03-30T13:31:52.296Z</time></trkpt><trkpt lat="40.957245" lon="14.3053067"><ele>29.0</ele><time>2026-03-30T13:31:54.295Z</time></trkpt><trkpt lat="40.95716" lon="14.3052083"><ele>29.0</ele><time>2026-03-30T13:31:56.295Z</time></trkpt><trkpt lat="40.9570633" lon="14.3051133"><ele>29.0</ele><time>2026-03-30T13:31:58.297Z</time></trkpt><trkpt lat="40.9570117" lon="14.3050633"><ele>29.0</ele><time>2026-03-30T13:31:59.298Z</time></trkpt><trkpt lat="40.9569083" lon="14.30497"><ele>29.0</ele><time>2026-03-30T13:32:01.298Z</time></trkpt><trkpt lat="40.9568" lon="14.3048833"><ele>29.0</ele><time>2026-03-30T13:32:03.296Z</time></trkpt><trkpt lat="40.956705" lon="14.3048"><ele>28.999999999999996</ele><time>2026-03-30T13:32:05.296Z</time></trkpt><trkpt lat="40.956585" lon="14.304745"><ele>29.0</ele><time>2026-03-30T13:32:07.297Z</time></trkpt><trkpt lat="40.9565217" lon="14.3047267"><ele>29.0</ele><time>2026-03-30T13:32:08.297Z</time></trkpt><trkpt lat="40.95646" lon="14.3047067"><ele>29.0</ele><time>2026-03-30T13:32:09.296Z</time></trkpt><trkpt lat="40.9563967" lon="14.3046867"><ele>28.999999999999996</ele><time>2026-03-30T13:32:10.297Z</time></trkpt><trkpt lat="40.95633" lon="14.3046683"><ele>29.0</ele><time>2026-03-30T13:32:11.296Z</time></trkpt><trkpt lat="40.9562667" lon="14.3046483"><ele>29.000000000000004</ele><time>2026-03-30T13:32:12.298Z</time></trkpt><trkpt lat="40.9562017" lon="14.3046267"><ele>29.0</ele><time>2026-03-30T13:32:13.298Z</time></trkpt><trkpt lat="40.956135" lon="14.3045983"><ele>29.000000000000004</ele><time>2026-03-30T13:32:14.296Z</time></trkpt><trkpt lat="40.9560683" lon="14.3045783"><ele>29.000000000000004</ele><time>2026-03-30T13:32:15.297Z</time></trkpt><trkpt lat="40.9560067" lon="14.30456"><ele>29.0</ele><time>2026-03-30T13:32:16.296Z</time></trkpt><trkpt lat="40.9559367" lon="14.304545"><ele>29.000000000000004</ele><time>2026-03-30T13:32:17.296Z</time></trkpt><trkpt lat="40.9558667" lon="14.304525"><ele>29.000000000000004</ele><time>2026-03-30T13:32:18.296Z</time></trkpt><trkpt lat="40.9557983" lon="14.304505"><ele>28.833333333333332</ele><time>2026-03-30T13:32:19.295Z</time></trkpt><trkpt lat="40.9557367" lon="14.3044867"><ele>28.666666666666664</ele><time>2026-03-30T13:32:20.294Z</time></trkpt><trkpt lat="40.9556183" lon="14.30445"><ele>28.5</ele><time>2026-03-30T13:32:22.296Z</time></trkpt><trkpt lat="40.9554983" lon="14.30441"><ele>28.333333333333336</ele><time>2026-03-30T13:32:24.295Z</time></trkpt><trkpt lat="40.955435" lon="14.3043917"><ele>28.166666666666668</ele><time>2026-03-30T13:32:25.294Z</time></trkpt><trkpt lat="40.9553717" lon="14.3043733"><ele>28.0</ele><time>2026-03-30T13:32:26.294Z</time></trkpt><trkpt lat="40.9553067" lon="14.304355"><ele>28.0</ele><time>2026-03-30T13:32:27.295Z</time></trkpt><trkpt lat="40.95524" lon="14.304335"><ele>28.0</ele><time>2026-03-30T13:32:28.295Z</time></trkpt><trkpt lat="40.955175" lon="14.3043117"><ele>28.0</ele><time>2026-03-30T13:32:29.295Z</time></trkpt><trkpt lat="40.9551083" lon="14.304295"><ele>28.0</ele><time>2026-03-30T13:32:30.295Z</time></trkpt><trkpt lat="40.9550467" lon="14.3042733"><ele>28.0</ele><time>2026-03-30T13:32:31.296Z</time></trkpt><trkpt lat="40.954985" lon="14.30425"><ele>28.0</ele><time>2026-03-30T13:32:32.296Z</time></trkpt><trkpt lat="40.954925" lon="14.3042233"><ele>28.0</ele><time>2026-03-30T13:32:33.296Z</time></trkpt><trkpt lat="40.95481" lon="14.3041783"><ele>28.0</ele><time>2026-03-30T13:32:35.293Z</time></trkpt><trkpt lat="40.9546967" lon="14.3041283"><ele>28.0</ele><time>2026-03-30T13:32:37.296Z</time></trkpt><trkpt lat="40.9545817" lon="14.30409"><ele>28.0</ele><time>2026-03-30T13:32:39.294Z</time></trkpt><trkpt lat="40.9544667" lon="14.30406"><ele>28.0</ele><time>2026-03-30T13:32:41.295Z</time></trkpt><trkpt lat="40.9543533" lon="14.3040217"><ele>28.0</ele><time>2026-03-30T13:32:43.296Z</time></trkpt><trkpt lat="40.9542417" lon="14.304"><ele>28.0</ele><time>2026-03-30T13:32:45.295Z</time></trkpt><trkpt lat="40.95413" lon="14.3039633"><ele>28.0</ele><time>2026-03-30T13:32:47.295Z</time></trkpt><trkpt lat="40.9540217" lon="14.3039117"><ele>28.0</ele><time>2026-03-30T13:32:49.295Z</time></trkpt><trkpt lat="40.9539117" lon="14.30385"><ele>28.75</ele><time>2026-03-30T13:32:51.295Z</time></trkpt><trkpt lat="40.9538017" lon="14.303785"><ele>29.5</ele><time>2026-03-30T13:32:53.294Z</time></trkpt><trkpt lat="40.953695" lon="14.30372"><ele>30.25</ele><time>2026-03-30T13:32:55.296Z</time></trkpt><trkpt lat="40.9535967" lon="14.3036583"><ele>31.0</ele><time>2026-03-30T13:32:57.294Z</time></trkpt><trkpt lat="40.9534867" lon="14.3036117"><ele>30.25</ele><time>2026-03-30T13:32:59.295Z</time></trkpt><trkpt lat="40.9533667" lon="14.3035833"><ele>29.5</ele><time>2026-03-30T13:33:01.296Z</time></trkpt><trkpt lat="40.953245" lon="14.30356"><ele>28.75</ele><time>2026-03-30T13:33:03.295Z</time></trkpt><trkpt lat="40.9531217" lon="14.30354"><ele>28.0</ele><time>2026-03-30T13:33:05.296Z</time></trkpt><trkpt lat="40.953005" lon="14.303495"><ele>28.0</ele><time>2026-03-30T13:33:07.296Z</time></trkpt><trkpt lat="40.9529417" lon="14.3034817"><ele>27.999999999999996</ele><time>2026-03-30T13:33:08.296Z</time></trkpt><trkpt lat="40.9528133" lon="14.3034467"><ele>27.999999999999996</ele><time>2026-03-30T13:33:10.295Z</time></trkpt><trkpt lat="40.95275" lon="14.3034317"><ele>28.0</ele><time>2026-03-30T13:33:11.295Z</time></trkpt><trkpt lat="40.95263" lon="14.3034"><ele>28.0</ele><time>2026-03-30T13:33:13.296Z</time></trkpt><trkpt lat="40.9525183" lon="14.303355"><ele>28.5</ele><time>2026-03-30T13:33:15.294Z</time></trkpt><trkpt lat="40.95241" lon="14.3033083"><ele>29.0</ele><time>2026-03-30T13:33:17.295Z</time></trkpt><trkpt lat="40.9523" lon="14.303265"><ele>29.5</ele><time>2026-03-30T13:33:19.296Z</time></trkpt><trkpt lat="40.9521817" lon="14.30324"><ele>30.0</ele><time>2026-03-30T13:33:21.294Z</time></trkpt><trkpt lat="40.95206" lon="14.3032"><ele>30.0</ele><time>2026-03-30T13:33:23.295Z</time></trkpt><trkpt lat="40.9519367" lon="14.3031667"><ele>30.0</ele><time>2026-03-30T13:33:25.296Z</time></trkpt><trkpt lat="40.9518733" lon="14.3031517"><ele>30.0</ele><time>2026-03-30T13:33:26.295Z</time></trkpt><trkpt lat="40.9517517" lon="14.3031133"><ele>30.0</ele><time>2026-03-30T13:33:28.296Z</time></trkpt><trkpt lat="40.9516883" lon="14.3030917"><ele>30.0</ele><time>2026-03-30T13:33:29.295Z</time></trkpt><trkpt lat="40.9515667" lon="14.303055"><ele>29.857142857142858</ele><time>2026-03-30T13:33:31.295Z</time></trkpt><trkpt lat="40.9515017" lon="14.3030317"><ele>29.714285714285715</ele><time>2026-03-30T13:33:32.293Z</time></trkpt><trkpt lat="40.951435" lon="14.3030133"><ele>29.571428571428573</ele><time>2026-03-30T13:33:33.294Z</time></trkpt><trkpt lat="40.9513667" lon="14.302995"><ele>29.42857142857143</ele><time>2026-03-30T13:33:34.295Z</time></trkpt><trkpt lat="40.951295" lon="14.3029767"><ele>29.285714285714285</ele><time>2026-03-30T13:33:35.295Z</time></trkpt><trkpt lat="40.9512217" lon="14.302955"><ele>29.142857142857146</ele><time>2026-03-30T13:33:36.295Z</time></trkpt><trkpt lat="40.9511483" lon="14.302935"><ele>29.000000000000004</ele><time>2026-03-30T13:33:37.295Z</time></trkpt><trkpt lat="40.9510767" lon="14.3029067"><ele>29.000000000000004</ele><time>2026-03-30T13:33:38.294Z</time></trkpt><trkpt lat="40.9510033" lon="14.302885"><ele>29.0</ele><time>2026-03-30T13:33:39.293Z</time></trkpt><trkpt lat="40.9509333" lon="14.3028567"><ele>29.000000000000004</ele><time>2026-03-30T13:33:40.293Z</time></trkpt><trkpt lat="40.9508617" lon="14.3028267"><ele>29.000000000000004</ele><time>2026-03-30T13:33:41.293Z</time></trkpt><trkpt lat="40.9507933" lon="14.3028067"><ele>29.0</ele><time>2026-03-30T13:33:42.295Z</time></trkpt><trkpt lat="40.95073" lon="14.3027883"><ele>29.000000000000004</ele><time>2026-03-30T13:33:43.295Z</time></trkpt><trkpt lat="40.9506633" lon="14.3027683"><ele>29.000000000000004</ele><time>2026-03-30T13:33:44.294Z</time></trkpt><trkpt lat="40.9505983" lon="14.3027517"><ele>29.499999999999996</ele><time>2026-03-30T13:33:45.293Z</time></trkpt><trkpt lat="40.9505317" lon="14.302735"><ele>30.0</ele><time>2026-03-30T13:33:46.294Z</time></trkpt><trkpt lat="40.950465" lon="14.30272"><ele>30.5</ele><time>2026-03-30T13:33:47.293Z</time></trkpt><trkpt lat="40.9504017" lon="14.3026983"><ele>31.0</ele><time>2026-03-30T13:33:48.294Z</time></trkpt><trkpt lat="40.9503383" lon="14.3026817"><ele>31.499999999999996</ele><time>2026-03-30T13:33:49.294Z</time></trkpt><trkpt lat="40.9502767" lon="14.3026617"><ele>32.0</ele><time>2026-03-30T13:33:50.293Z</time></trkpt><trkpt lat="40.9501533" lon="14.302635"><ele>32.166666666666664</ele><time>2026-03-30T13:33:52.293Z</time></trkpt><trkpt lat="40.9500333" lon="14.30261"><ele>32.33333333333333</ele><time>2026-03-30T13:33:54.294Z</time></trkpt><trkpt lat="40.9499117" lon="14.3025917"><ele>32.5</ele><time>2026-03-30T13:33:56.294Z</time></trkpt><trkpt lat="40.9498483" lon="14.3025867"><ele>32.666666666666664</ele><time>2026-03-30T13:33:57.293Z</time></trkpt><trkpt lat="40.9497833" lon="14.3025783"><ele>32.833333333333336</ele><time>2026-03-30T13:33:58.295Z</time></trkpt><trkpt lat="40.9497167" lon="14.30257"><ele>33.0</ele><time>2026-03-30T13:33:59.295Z</time></trkpt><trkpt lat="40.94965" lon="14.3025567"><ele>33.0</ele><time>2026-03-30T13:34:00.293Z</time></trkpt><trkpt lat="40.9495867" lon="14.3025417"><ele>33.0</ele><time>2026-03-30T13:34:01.295Z</time></trkpt><trkpt lat="40.9494717" lon="14.3025067"><ele>33.0</ele><time>2026-03-30T13:34:03.293Z</time></trkpt><trkpt lat="40.94935" lon="14.302475"><ele>33.0</ele><time>2026-03-30T13:34:05.293Z</time></trkpt><trkpt lat="40.949285" lon="14.302465"><ele>33.0</ele><time>2026-03-30T13:34:06.292Z</time></trkpt><trkpt lat="40.9491667" lon="14.3024433"><ele>32.6</ele><time>2026-03-30T13:34:08.293Z</time></trkpt><trkpt lat="40.9490417" lon="14.3024233"><ele>32.199999999999996</ele><time>2026-03-30T13:34:10.295Z</time></trkpt><trkpt lat="40.9489183" lon="14.30239"><ele>31.8</ele><time>2026-03-30T13:34:12.295Z</time></trkpt><trkpt lat="40.9488533" lon="14.3023717"><ele>31.4</ele><time>2026-03-30T13:34:13.295Z</time></trkpt><trkpt lat="40.94879" lon="14.3023583"><ele>31.0</ele><time>2026-03-30T13:34:14.294Z</time></trkpt><trkpt lat="40.9486717" lon="14.30233"><ele>31.0</ele><time>2026-03-30T13:34:16.295Z</time></trkpt><trkpt lat="40.94861" lon="14.3023117"><ele>31.0</ele><time>2026-03-30T13:34:17.294Z</time></trkpt><trkpt lat="40.9484933" lon="14.302275"><ele>31.0</ele><time>2026-03-30T13:34:19.295Z</time></trkpt><trkpt lat="40.9483817" lon="14.3022483"><ele>31.0</ele><time>2026-03-30T13:34:21.295Z</time></trkpt><trkpt lat="40.9482783" lon="14.3022283"><ele>31.0</ele><time>2026-03-30T13:34:23.295Z</time></trkpt><trkpt lat="40.948175" lon="14.3022017"><ele>31.200000000000003</ele><time>2026-03-30T13:34:25.294Z</time></trkpt><trkpt lat="40.94807" lon="14.3021783"><ele>31.400000000000002</ele><time>2026-03-30T13:34:27.294Z</time></trkpt><trkpt lat="40.9479583" lon="14.3021567"><ele>31.6</ele><time>2026-03-30T13:34:29.293Z</time></trkpt><trkpt lat="40.9478467" lon="14.30214"><ele>31.8</ele><time>2026-03-30T13:34:31.295Z</time></trkpt><trkpt lat="40.9477383" lon="14.3021"><ele>32.0</ele><time>2026-03-30T13:34:33.293Z</time></trkpt><trkpt lat="40.9476267" lon="14.3020767"><ele>32.2</ele><time>2026-03-30T13:34:35.295Z</time></trkpt><trkpt lat="40.94752" lon="14.302025"><ele>32.400000000000006</ele><time>2026-03-30T13:34:37.294Z</time></trkpt><trkpt lat="40.9474283" lon="14.3019567"><ele>32.599999999999994</ele><time>2026-03-30T13:34:39.296Z</time></trkpt><trkpt lat="40.9473517" lon="14.3018567"><ele>32.8</ele><time>2026-03-30T13:34:41.297Z</time></trkpt><trkpt lat="40.947285" lon="14.30176"><ele>33.0</ele><time>2026-03-30T13:34:43.297Z</time></trkpt><trkpt lat="40.9472333" lon="14.3016333"><ele>33.0</ele><time>2026-03-30T13:34:45.297Z</time></trkpt><trkpt lat="40.9471767" lon="14.301495"><ele>33.0</ele><time>2026-03-30T13:34:47.297Z</time></trkpt><trkpt lat="40.9471233" lon="14.3013517"><ele>33.0</ele><time>2026-03-30T13:34:49.297Z</time></trkpt><trkpt lat="40.9470967" lon="14.301275"><ele>33.0</ele><time>2026-03-30T13:34:50.296Z</time></trkpt><trkpt lat="40.9470433" lon="14.301125"><ele>33.0</ele><time>2026-03-30T13:34:52.297Z</time></trkpt><trkpt lat="40.9470133" lon="14.3010517"><ele>32.6</ele><time>2026-03-30T13:34:53.297Z</time></trkpt><trkpt lat="40.9469833" lon="14.3009767"><ele>32.199999999999996</ele><time>2026-03-30T13:34:54.297Z</time></trkpt><trkpt lat="40.94693" lon="14.3008283"><ele>31.8</ele><time>2026-03-30T13:34:56.295Z</time></trkpt><trkpt lat="40.946875" lon="14.3006817"><ele>31.4</ele><time>2026-03-30T13:34:58.296Z</time></trkpt><trkpt lat="40.9468217" lon="14.3005367"><ele>31.0</ele><time>2026-03-30T13:35:00.295Z</time></trkpt><trkpt lat="40.946765" lon="14.3003967"><ele>31.200000000000003</ele><time>2026-03-30T13:35:02.295Z</time></trkpt><trkpt lat="40.94671" lon="14.3002667"><ele>31.400000000000002</ele><time>2026-03-30T13:35:04.296Z</time></trkpt><trkpt lat="40.9466567" lon="14.300135"><ele>31.6</ele><time>2026-03-30T13:35:06.295Z</time></trkpt><trkpt lat="40.9466067" lon="14.300005"><ele>31.8</ele><time>2026-03-30T13:35:08.297Z</time></trkpt><trkpt lat="40.9465633" lon="14.2998717"><ele>32.0</ele><time>2026-03-30T13:35:10.297Z</time></trkpt><trkpt lat="40.9465183" lon="14.2997417"><ele>32.0</ele><time>2026-03-30T13:35:12.295Z</time></trkpt><trkpt lat="40.9464667" lon="14.2996167"><ele>32.0</ele><time>2026-03-30T13:35:14.297Z</time></trkpt><trkpt lat="40.9464033" lon="14.299505"><ele>32.0</ele><time>2026-03-30T13:35:16.296Z</time></trkpt><trkpt lat="40.9463167" lon="14.2994517"><ele>32.0</ele><time>2026-03-30T13:35:18.296Z</time></trkpt><trkpt lat="40.9462067" lon="14.2994767"><ele>32.0</ele><time>2026-03-30T13:35:20.297Z</time></trkpt><trkpt lat="40.9460917" lon="14.29949"><ele>32.0</ele><time>2026-03-30T13:35:22.295Z</time></trkpt><trkpt lat="40.945975" lon="14.2994767"><ele>32.0</ele><time>2026-03-30T13:35:24.297Z</time></trkpt><trkpt lat="40.9458567" lon="14.2994467"><ele>32.0</ele><time>2026-03-30T13:35:26.296Z</time></trkpt><trkpt lat="40.945735" lon="14.2994133"><ele>32.0</ele><time>2026-03-30T13:35:28.296Z</time></trkpt><trkpt lat="40.9456183" lon="14.2993917"><ele>32.25</ele><time>2026-03-30T13:35:30.296Z</time></trkpt><trkpt lat="40.9455033" lon="14.29936"><ele>32.5</ele><time>2026-03-30T13:35:32.296Z</time></trkpt><trkpt lat="40.9453867" lon="14.2993333"><ele>32.75</ele><time>2026-03-30T13:35:34.296Z</time></trkpt><trkpt lat="40.9452733" lon="14.2993067"><ele>33.0</ele><time>2026-03-30T13:35:36.296Z</time></trkpt><trkpt lat="40.9451567" lon="14.2992817"><ele>33.0</ele><time>2026-03-30T13:35:38.296Z</time></trkpt><trkpt lat="40.9450433" lon="14.299265"><ele>33.0</ele><time>2026-03-30T13:35:40.297Z</time></trkpt><trkpt lat="40.9449267" lon="14.299245"><ele>33.0</ele><time>2026-03-30T13:35:42.297Z</time></trkpt><trkpt lat="40.94481" lon="14.2992117"><ele>33.0</ele><time>2026-03-30T13:35:44.297Z</time></trkpt><trkpt lat="40.9446833" lon="14.2991967"><ele>33.0</ele><time>2026-03-30T13:35:46.297Z</time></trkpt><trkpt lat="40.9445617" lon="14.2991817"><ele>33.0</ele><time>2026-03-30T13:35:48.295Z</time></trkpt><trkpt lat="40.944455" lon="14.299165"><ele>33.0</ele><time>2026-03-30T13:35:50.295Z</time></trkpt><trkpt lat="40.9443717" lon="14.2991217"><ele>33.0</ele><time>2026-03-30T13:35:52.297Z</time></trkpt><trkpt lat="40.94428" lon="14.2991167"><ele>33.0</ele><time>2026-03-30T13:35:54.295Z</time></trkpt><trkpt lat="40.9441633" lon="14.2991133"><ele>32.8</ele><time>2026-03-30T13:35:56.296Z</time></trkpt><trkpt lat="40.94404" lon="14.2991033"><ele>32.599999999999994</ele><time>2026-03-30T13:35:58.297Z</time></trkpt><trkpt lat="40.9439183" lon="14.29908"><ele>32.400000000000006</ele><time>2026-03-30T13:36:00.295Z</time></trkpt><trkpt lat="40.943855" lon="14.2990683"><ele>32.2</ele><time>2026-03-30T13:36:01.297Z</time></trkpt><trkpt lat="40.9437383" lon="14.2990467"><ele>32.0</ele><time>2026-03-30T13:36:03.295Z</time></trkpt><trkpt lat="40.9436183" lon="14.29903"><ele>32.0</ele><time>2026-03-30T13:36:05.295Z</time></trkpt><trkpt lat="40.9435033" lon="14.2990117"><ele>32.0</ele><time>2026-03-30T13:36:07.297Z</time></trkpt><trkpt lat="40.9433867" lon="14.2990067"><ele>32.0</ele><time>2026-03-30T13:36:09.295Z</time></trkpt><trkpt lat="40.94327" lon="14.2990017"><ele>32.0</ele><time>2026-03-30T13:36:11.296Z</time></trkpt><trkpt lat="40.9431467" lon="14.299"><ele>32.4</ele><time>2026-03-30T13:36:13.295Z</time></trkpt><trkpt lat="40.9430317" lon="14.2989967"><ele>32.800000000000004</ele><time>2026-03-30T13:36:15.296Z</time></trkpt><trkpt lat="40.9429083" lon="14.2989817"><ele>33.2</ele><time>2026-03-30T13:36:17.296Z</time></trkpt><trkpt lat="40.942845" lon="14.2989783"><ele>33.6</ele><time>2026-03-30T13:36:18.296Z</time></trkpt><trkpt lat="40.94278" lon="14.298975"><ele>34.0</ele><time>2026-03-30T13:36:19.297Z</time></trkpt><trkpt lat="40.9426567" lon="14.2989783"><ele>34.4</ele><time>2026-03-30T13:36:21.296Z</time></trkpt><trkpt lat="40.9425333" lon="14.2989933"><ele>34.8</ele><time>2026-03-30T13:36:23.297Z</time></trkpt><trkpt lat="40.94247" lon="14.299"><ele>35.2</ele><time>2026-03-30T13:36:24.297Z</time></trkpt><trkpt lat="40.9423483" lon="14.299005"><ele>35.6</ele><time>2026-03-30T13:36:26.295Z</time></trkpt><trkpt lat="40.9422217" lon="14.2990117"><ele>36.0</ele><time>2026-03-30T13:36:28.297Z</time></trkpt><trkpt lat="40.9421017" lon="14.29901"><ele>36.0</ele><time>2026-03-30T13:36:30.296Z</time></trkpt><trkpt lat="40.9419833" lon="14.29902"><ele>36.0</ele><time>2026-03-30T13:36:32.296Z</time></trkpt><trkpt lat="40.9418717" lon="14.2990167"><ele>36.0</ele><time>2026-03-30T13:36:34.296Z</time></trkpt><trkpt lat="40.941765" lon="14.299035"><ele>36.0</ele><time>2026-03-30T13:36:36.297Z</time></trkpt><trkpt lat="40.9416583" lon="14.299055"><ele>36.0</ele><time>2026-03-30T13:36:38.296Z</time></trkpt><trkpt lat="40.9415467" lon="14.2990817"><ele>36.25</ele><time>2026-03-30T13:36:40.297Z</time></trkpt><trkpt lat="40.94143" lon="14.2991183"><ele>36.5</ele><time>2026-03-30T13:36:42.297Z</time></trkpt><trkpt lat="40.9413083" lon="14.2991417"><ele>36.75</ele><time>2026-03-30T13:36:44.297Z</time></trkpt><trkpt lat="40.94119" lon="14.2991817"><ele>37.0</ele><time>2026-03-30T13:36:46.297Z</time></trkpt><trkpt lat="40.941075" lon="14.2992317"><ele>37.0</ele><time>2026-03-30T13:36:48.296Z</time></trkpt><trkpt lat="40.9409617" lon="14.2992783"><ele>37.0</ele><time>2026-03-30T13:36:50.297Z</time></trkpt><trkpt lat="40.9408483" lon="14.2993267"><ele>37.0</ele><time>2026-03-30T13:36:52.297Z</time></trkpt><trkpt lat="40.940735" lon="14.299365"><ele>37.0</ele><time>2026-03-30T13:36:54.295Z</time></trkpt><trkpt lat="40.9406233" lon="14.2994"><ele>37.0</ele><time>2026-03-30T13:36:56.297Z</time></trkpt><trkpt lat="40.9405117" lon="14.2994333"><ele>37.0</ele><time>2026-03-30T13:36:58.296Z</time></trkpt><trkpt lat="40.94039" lon="14.2994667"><ele>37.0</ele><time>2026-03-30T13:37:00.297Z</time></trkpt><trkpt lat="40.9402783" lon="14.2995017"><ele>37.0</ele><time>2026-03-30T13:37:02.295Z</time></trkpt><trkpt lat="40.9401683" lon="14.2995333"><ele>37.0</ele><time>2026-03-30T13:37:04.295Z</time></trkpt><trkpt lat="40.9400617" lon="14.2995767"><ele>37.0</ele><time>2026-03-30T13:37:06.297Z</time></trkpt><trkpt lat="40.9399483" lon="14.2996183"><ele>37.0</ele><time>2026-03-30T13:37:08.297Z</time></trkpt><trkpt lat="40.9398267" lon="14.2996717"><ele>37.0</ele><time>2026-03-30T13:37:10.297Z</time></trkpt><trkpt lat="40.9397633" lon="14.2997033"><ele>37.0</ele><time>2026-03-30T13:37:11.297Z</time></trkpt><trkpt lat="40.939705" lon="14.299735"><ele>36.833333333333336</ele><time>2026-03-30T13:37:12.297Z</time></trkpt><trkpt lat="40.939645" lon="14.2997667"><ele>36.66666666666667</ele><time>2026-03-30T13:37:13.297Z</time></trkpt><trkpt lat="40.939535" lon="14.2998333"><ele>36.5</ele><time>2026-03-30T13:37:15.294Z</time></trkpt><trkpt lat="40.93942" lon="14.2999017"><ele>36.333333333333336</ele><time>2026-03-30T13:37:17.297Z</time></trkpt><trkpt lat="40.9393617" lon="14.2999383"><ele>36.166666666666664</ele><time>2026-03-30T13:37:18.297Z</time></trkpt><trkpt lat="40.9393017" lon="14.2999767"><ele>36.0</ele><time>2026-03-30T13:37:19.296Z</time></trkpt><trkpt lat="40.9392417" lon="14.3000167"><ele>36.142857142857146</ele><time>2026-03-30T13:37:20.296Z</time></trkpt><trkpt lat="40.9391817" lon="14.3000567"><ele>36.285714285714285</ele><time>2026-03-30T13:37:21.297Z</time></trkpt><trkpt lat="40.939125" lon="14.300095"><ele>36.42857142857143</ele><time>2026-03-30T13:37:22.297Z</time></trkpt><trkpt lat="40.939065" lon="14.30013"><ele>36.57142857142857</ele><time>2026-03-30T13:37:23.297Z</time></trkpt><trkpt lat="40.9390067" lon="14.3001617"><ele>36.714285714285715</ele><time>2026-03-30T13:37:24.297Z</time></trkpt><trkpt lat="40.9389467" lon="14.300195"><ele>36.85714285714286</ele><time>2026-03-30T13:37:25.297Z</time></trkpt><trkpt lat="40.938885" lon="14.3002267"><ele>37.0</ele><time>2026-03-30T13:37:26.296Z</time></trkpt><trkpt lat="40.9388233" lon="14.3002583"><ele>37.0</ele><time>2026-03-30T13:37:27.296Z</time></trkpt><trkpt lat="40.938765" lon="14.3002917"><ele>37.0</ele><time>2026-03-30T13:37:28.297Z</time></trkpt><trkpt lat="40.9387017" lon="14.3003183"><ele>37.0</ele><time>2026-03-30T13:37:29.297Z</time></trkpt><trkpt lat="40.93864" lon="14.3003483"><ele>37.0</ele><time>2026-03-30T13:37:30.297Z</time></trkpt><trkpt lat="40.9385767" lon="14.3003767"><ele>37.0</ele><time>2026-03-30T13:37:31.297Z</time></trkpt><trkpt lat="40.9385133" lon="14.3004033"><ele>37.0</ele><time>2026-03-30T13:37:32.297Z</time></trkpt><trkpt lat="40.9383983" lon="14.300465"><ele>37.2</ele><time>2026-03-30T13:37:34.296Z</time></trkpt><trkpt lat="40.9383367" lon="14.3005033"><ele>37.400000000000006</ele><time>2026-03-30T13:37:35.296Z</time></trkpt><trkpt lat="40.9382317" lon="14.3005817"><ele>37.599999999999994</ele><time>2026-03-30T13:37:37.297Z</time></trkpt><trkpt lat="40.9381283" lon="14.300645"><ele>37.8</ele><time>2026-03-30T13:37:39.296Z</time></trkpt><trkpt lat="40.9380117" lon="14.300695"><ele>38.0</ele><time>2026-03-30T13:37:41.294Z</time></trkpt><trkpt lat="40.93789" lon="14.30074"><ele>38.0</ele><time>2026-03-30T13:37:43.295Z</time></trkpt><trkpt lat="40.93777" lon="14.3007783"><ele>38.0</ele><time>2026-03-30T13:37:45.293Z</time></trkpt><trkpt lat="40.9376517" lon="14.3008067"><ele>38.0</ele><time>2026-03-30T13:37:47.298Z</time></trkpt><trkpt lat="40.9375333" lon="14.3008383"><ele>38.0</ele><time>2026-03-30T13:37:49.295Z</time></trkpt><trkpt lat="40.9374717" lon="14.3008567"><ele>38.0</ele><time>2026-03-30T13:37:50.294Z</time></trkpt><trkpt lat="40.9373483" lon="14.3008833"><ele>37.83333333333333</ele><time>2026-03-30T13:37:52.295Z</time></trkpt><trkpt lat="40.937285" lon="14.3008967"><ele>37.666666666666664</ele><time>2026-03-30T13:37:53.295Z</time></trkpt><trkpt lat="40.9372217" lon="14.3009117"><ele>37.5</ele><time>2026-03-30T13:37:54.293Z</time></trkpt><trkpt lat="40.9370933" lon="14.30094"><ele>37.333333333333336</ele><time>2026-03-30T13:37:56.293Z</time></trkpt><trkpt lat="40.9370283" lon="14.300955"><ele>37.16666666666667</ele><time>2026-03-30T13:37:57.294Z</time></trkpt><trkpt lat="40.9369633" lon="14.30097"><ele>37.0</ele><time>2026-03-30T13:37:58.295Z</time></trkpt><trkpt lat="40.9368967" lon="14.300985"><ele>37.0</ele><time>2026-03-30T13:37:59.294Z</time></trkpt><trkpt lat="40.93683" lon="14.3009967"><ele>37.0</ele><time>2026-03-30T13:38:00.294Z</time></trkpt><trkpt lat="40.9367667" lon="14.3010083"><ele>37.0</ele><time>2026-03-30T13:38:01.295Z</time></trkpt><trkpt lat="40.9367" lon="14.3010217"><ele>37.0</ele><time>2026-03-30T13:38:02.295Z</time></trkpt><trkpt lat="40.9366367" lon="14.3010367"><ele>37.0</ele><time>2026-03-30T13:38:03.296Z</time></trkpt><trkpt lat="40.9365733" lon="14.30105"><ele>37.0</ele><time>2026-03-30T13:38:04.295Z</time></trkpt><trkpt lat="40.93651" lon="14.301065"><ele>37.0</ele><time>2026-03-30T13:38:05.295Z</time></trkpt><trkpt lat="40.936445" lon="14.30108"><ele>37.0</ele><time>2026-03-30T13:38:06.297Z</time></trkpt><trkpt lat="40.9363817" lon="14.3010967"><ele>37.0</ele><time>2026-03-30T13:38:07.295Z</time></trkpt><trkpt lat="40.93626" lon="14.3011217"><ele>37.0</ele><time>2026-03-30T13:38:09.292Z</time></trkpt><trkpt lat="40.9361967" lon="14.301135"><ele>37.0</ele><time>2026-03-30T13:38:10.297Z</time></trkpt><trkpt lat="40.9361333" lon="14.3011483"><ele>37.0</ele><time>2026-03-30T13:38:11.296Z</time></trkpt><trkpt lat="40.9360133" lon="14.3011783"><ele>37.0</ele><time>2026-03-30T13:38:13.298Z</time></trkpt><trkpt lat="40.9359483" lon="14.3011917"><ele>37.0</ele><time>2026-03-30T13:38:14.296Z</time></trkpt><trkpt lat="40.9358217" lon="14.3012133"><ele>37.0</ele><time>2026-03-30T13:38:16.297Z</time></trkpt><trkpt lat="40.9357533" lon="14.3012217"><ele>37.0</ele><time>2026-03-30T13:38:17.293Z</time></trkpt><trkpt lat="40.9356867" lon="14.30123"><ele>37.0</ele><time>2026-03-30T13:38:18.293Z</time></trkpt><trkpt lat="40.9356167" lon="14.3012333"><ele>37.0</ele><time>2026-03-30T13:38:19.293Z</time></trkpt><trkpt lat="40.9355433" lon="14.301235"><ele>37.0</ele><time>2026-03-30T13:38:20.293Z</time></trkpt><trkpt lat="40.9354733" lon="14.3012333"><ele>37.0</ele><time>2026-03-30T13:38:21.293Z</time></trkpt><trkpt lat="40.9354033" lon="14.3012333"><ele>37.0</ele><time>2026-03-30T13:38:22.293Z</time></trkpt><trkpt lat="40.9353367" lon="14.301235"><ele>37.0</ele><time>2026-03-30T13:38:23.295Z</time></trkpt><trkpt lat="40.935265" lon="14.30123"><ele>37.0</ele><time>2026-03-30T13:38:24.294Z</time></trkpt><trkpt lat="40.935195" lon="14.3012283"><ele>37.0</ele><time>2026-03-30T13:38:25.295Z</time></trkpt><trkpt lat="40.93513" lon="14.3012267"><ele>37.0</ele><time>2026-03-30T13:38:26.294Z</time></trkpt><trkpt lat="40.9350617" lon="14.301225"><ele>37.0</ele><time>2026-03-30T13:38:27.294Z</time></trkpt><trkpt lat="40.934995" lon="14.3012217"><ele>37.285714285714285</ele><time>2026-03-30T13:38:28.294Z</time></trkpt><trkpt lat="40.934925" lon="14.3012167"><ele>37.57142857142857</ele><time>2026-03-30T13:38:29.296Z</time></trkpt><trkpt lat="40.9348567" lon="14.3012117"><ele>37.85714285714286</ele><time>2026-03-30T13:38:30.293Z</time></trkpt><trkpt lat="40.93479" lon="14.3012083"><ele>38.14285714285714</ele><time>2026-03-30T13:38:31.294Z</time></trkpt><trkpt lat="40.9347217" lon="14.3012"><ele>38.42857142857142</ele><time>2026-03-30T13:38:32.293Z</time></trkpt><trkpt lat="40.9346533" lon="14.301195"><ele>38.714285714285715</ele><time>2026-03-30T13:38:33.293Z</time></trkpt><trkpt lat="40.934585" lon="14.3011917"><ele>39.0</ele><time>2026-03-30T13:38:34.295Z</time></trkpt><trkpt lat="40.9345217" lon="14.3011917"><ele>39.0</ele><time>2026-03-30T13:38:35.295Z</time></trkpt><trkpt lat="40.9344567" lon="14.30119"><ele>39.0</ele><time>2026-03-30T13:38:36.295Z</time></trkpt><trkpt lat="40.93439" lon="14.3011883"><ele>39.0</ele><time>2026-03-30T13:38:37.296Z</time></trkpt><trkpt lat="40.9343217" lon="14.3011917"><ele>39.0</ele><time>2026-03-30T13:38:38.293Z</time></trkpt><trkpt lat="40.9342517" lon="14.3011967"><ele>39.0</ele><time>2026-03-30T13:38:39.295Z</time></trkpt><trkpt lat="40.9341883" lon="14.3012"><ele>39.0</ele><time>2026-03-30T13:38:40.295Z</time></trkpt><trkpt lat="40.9341217" lon="14.3012067"><ele>39.0</ele><time>2026-03-30T13:38:41.295Z</time></trkpt><trkpt lat="40.934" lon="14.301215"><ele>39.285714285714285</ele><time>2026-03-30T13:38:43.295Z</time></trkpt><trkpt lat="40.9339333" lon="14.3012167"><ele>39.57142857142857</ele><time>2026-03-30T13:38:44.294Z</time></trkpt><trkpt lat="40.9338633" lon="14.30121"><ele>39.857142857142854</ele><time>2026-03-30T13:38:45.295Z</time></trkpt><trkpt lat="40.9337983" lon="14.3012017"><ele>40.14285714285714</ele><time>2026-03-30T13:38:46.295Z</time></trkpt><trkpt lat="40.93373" lon="14.3011983"><ele>40.42857142857143</ele><time>2026-03-30T13:38:47.295Z</time></trkpt><trkpt lat="40.9336633" lon="14.301195"><ele>40.71428571428571</ele><time>2026-03-30T13:38:48.296Z</time></trkpt><trkpt lat="40.9335933" lon="14.3011883"><ele>41.0</ele><time>2026-03-30T13:38:49.295Z</time></trkpt><trkpt lat="40.9335217" lon="14.3011833"><ele>40.99999999999999</ele><time>2026-03-30T13:38:50.295Z</time></trkpt><trkpt lat="40.9334533" lon="14.3011767"><ele>41.0</ele><time>2026-03-30T13:38:51.293Z</time></trkpt><trkpt lat="40.9333833" lon="14.3011683"><ele>41.0</ele><time>2026-03-30T13:38:52.294Z</time></trkpt><trkpt lat="40.9333167" lon="14.3011633"><ele>41.0</ele><time>2026-03-30T13:38:53.293Z</time></trkpt><trkpt lat="40.9332483" lon="14.3011683"><ele>41.0</ele><time>2026-03-30T13:38:54.294Z</time></trkpt><trkpt lat="40.93318" lon="14.3011683"><ele>40.99999999999999</ele><time>2026-03-30T13:38:55.294Z</time></trkpt><trkpt lat="40.9331083" lon="14.3011617"><ele>41.0</ele><time>2026-03-30T13:38:56.295Z</time></trkpt><trkpt lat="40.93304" lon="14.3011567"><ele>40.666666666666664</ele><time>2026-03-30T13:38:57.293Z</time></trkpt><trkpt lat="40.93297" lon="14.3011483"><ele>40.33333333333333</ele><time>2026-03-30T13:38:58.292Z</time></trkpt><trkpt lat="40.932905" lon="14.3011483"><ele>40.0</ele><time>2026-03-30T13:38:59.295Z</time></trkpt><trkpt lat="40.93284" lon="14.3011467"><ele>39.666666666666664</ele><time>2026-03-30T13:39:00.295Z</time></trkpt><trkpt lat="40.9327767" lon="14.3011433"><ele>39.333333333333336</ele><time>2026-03-30T13:39:01.293Z</time></trkpt><trkpt lat="40.9327133" lon="14.3011433"><ele>39.0</ele><time>2026-03-30T13:39:02.293Z</time></trkpt><trkpt lat="40.9325867" lon="14.3011367"><ele>39.166666666666664</ele><time>2026-03-30T13:39:04.293Z</time></trkpt><trkpt lat="40.9325217" lon="14.3011317"><ele>39.333333333333336</ele><time>2026-03-30T13:39:05.295Z</time></trkpt><trkpt lat="40.932455" lon="14.30113"><ele>39.5</ele><time>2026-03-30T13:39:06.295Z</time></trkpt><trkpt lat="40.9323883" lon="14.3011267"><ele>39.66666666666667</ele><time>2026-03-30T13:39:07.296Z</time></trkpt><trkpt lat="40.9323233" lon="14.3011233"><ele>39.833333333333336</ele><time>2026-03-30T13:39:08.296Z</time></trkpt><trkpt lat="40.932255" lon="14.3011167"><ele>40.0</ele><time>2026-03-30T13:39:09.293Z</time></trkpt><trkpt lat="40.9321283" lon="14.3010833"><ele>40.0</ele><time>2026-03-30T13:39:11.295Z</time></trkpt><trkpt lat="40.9320633" lon="14.3010567"><ele>40.0</ele><time>2026-03-30T13:39:12.295Z</time></trkpt><trkpt lat="40.932005" lon="14.30102"><ele>40.0</ele><time>2026-03-30T13:39:13.295Z</time></trkpt><trkpt lat="40.9319467" lon="14.300975"><ele>40.0</ele><time>2026-03-30T13:39:14.295Z</time></trkpt><trkpt lat="40.9318917" lon="14.3009283"><ele>40.0</ele><time>2026-03-30T13:39:15.295Z</time></trkpt><trkpt lat="40.931835" lon="14.300875"><ele>40.0</ele><time>2026-03-30T13:39:16.295Z</time></trkpt><trkpt lat="40.9317883" lon="14.3008133"><ele>40.0</ele><time>2026-03-30T13:39:17.295Z</time></trkpt><trkpt lat="40.9317417" lon="14.3007483"><ele>40.0</ele><time>2026-03-30T13:39:18.294Z</time></trkpt><trkpt lat="40.931695" lon="14.30068"><ele>40.0</ele><time>2026-03-30T13:39:19.295Z</time></trkpt><trkpt lat="40.9316483" lon="14.3006117"><ele>40.0</ele><time>2026-03-30T13:39:20.294Z</time></trkpt><trkpt lat="40.9316017" lon="14.300545"><ele>40.0</ele><time>2026-03-30T13:39:21.293Z</time></trkpt><trkpt lat="40.9315517" lon="14.3004767"><ele>40.0</ele><time>2026-03-30T13:39:22.294Z</time></trkpt><trkpt lat="40.9315067" lon="14.30041"><ele>40.0</ele><time>2026-03-30T13:39:23.293Z</time></trkpt><trkpt lat="40.9314567" lon="14.300345"><ele>40.0</ele><time>2026-03-30T13:39:24.293Z</time></trkpt><trkpt lat="40.93141" lon="14.3002767"><ele>40.0</ele><time>2026-03-30T13:39:25.295Z</time></trkpt><trkpt lat="40.9313617" lon="14.300205"><ele>40.0</ele><time>2026-03-30T13:39:26.295Z</time></trkpt><trkpt lat="40.9313133" lon="14.300135"><ele>40.0</ele><time>2026-03-30T13:39:27.293Z</time></trkpt><trkpt lat="40.9312683" lon="14.3000683"><ele>40.0</ele><time>2026-03-30T13:39:28.295Z</time></trkpt><trkpt lat="40.93122" lon="14.3000017"><ele>40.0</ele><time>2026-03-30T13:39:29.293Z</time></trkpt><trkpt lat="40.9311783" lon="14.299935"><ele>40.0</ele><time>2026-03-30T13:39:30.295Z</time></trkpt><trkpt lat="40.93113" lon="14.29987"><ele>40.0</ele><time>2026-03-30T13:39:31.295Z</time></trkpt><trkpt lat="40.9310867" lon="14.299805"><ele>40.0</ele><time>2026-03-30T13:39:32.295Z</time></trkpt><trkpt lat="40.9310417" lon="14.2997433"><ele>40.0</ele><time>2026-03-30T13:39:33.295Z</time></trkpt><trkpt lat="40.930995" lon="14.2996817"><ele>40.0</ele><time>2026-03-30T13:39:34.293Z</time></trkpt><trkpt lat="40.9309517" lon="14.29962"><ele>40.0</ele><time>2026-03-30T13:39:35.295Z</time></trkpt><trkpt lat="40.930905" lon="14.29956"><ele>40.0</ele><time>2026-03-30T13:39:36.295Z</time></trkpt><trkpt lat="40.9308183" lon="14.2994417"><ele>40.0</ele><time>2026-03-30T13:39:38.295Z</time></trkpt><trkpt lat="40.9307733" lon="14.29938"><ele>40.0</ele><time>2026-03-30T13:39:39.293Z</time></trkpt><trkpt lat="40.930725" lon="14.2993233"><ele>40.0</ele><time>2026-03-30T13:39:40.295Z</time></trkpt><trkpt lat="40.9306783" lon="14.2992617"><ele>40.0</ele><time>2026-03-30T13:39:41.295Z</time></trkpt><trkpt lat="40.930635" lon="14.2991983"><ele>40.0</ele><time>2026-03-30T13:39:42.295Z</time></trkpt><trkpt lat="40.93059" lon="14.2991367"><ele>40.0</ele><time>2026-03-30T13:39:43.295Z</time></trkpt><trkpt lat="40.930545" lon="14.299075"><ele>40.0</ele><time>2026-03-30T13:39:44.293Z</time></trkpt><trkpt lat="40.9304567" lon="14.2989533"><ele>40.0</ele><time>2026-03-30T13:39:46.294Z</time></trkpt><trkpt lat="40.9303733" lon="14.2988383"><ele>40.4</ele><time>2026-03-30T13:39:48.295Z</time></trkpt><trkpt lat="40.9303" lon="14.2987183"><ele>40.8</ele><time>2026-03-30T13:39:50.294Z</time></trkpt><trkpt lat="40.9302517" lon="14.2985883"><ele>41.2</ele><time>2026-03-30T13:39:52.294Z</time></trkpt><trkpt lat="40.9301883" lon="14.2984733"><ele>41.6</ele><time>2026-03-30T13:39:54.295Z</time></trkpt><trkpt lat="40.9301533" lon="14.2983467"><ele>42.0</ele><time>2026-03-30T13:39:56.295Z</time></trkpt><trkpt lat="40.93012" lon="14.298225"><ele>42.0</ele><time>2026-03-30T13:39:58.295Z</time></trkpt><trkpt lat="40.9300517" lon="14.298155"><ele>42.0</ele><time>2026-03-30T13:40:00.295Z</time></trkpt><trkpt lat="40.9299517" lon="14.2981783"><ele>42.0</ele><time>2026-03-30T13:40:02.294Z</time></trkpt><trkpt lat="40.929835" lon="14.29822"><ele>42.0</ele><time>2026-03-30T13:40:04.295Z</time></trkpt><trkpt lat="40.929725" lon="14.2982217"><ele>42.0</ele><time>2026-03-30T13:40:06.296Z</time></trkpt><trkpt lat="40.9296017" lon="14.29823"><ele>42.0</ele><time>2026-03-30T13:40:08.297Z</time></trkpt><trkpt lat="40.9294817" lon="14.2982467"><ele>42.0</ele><time>2026-03-30T13:40:10.293Z</time></trkpt><trkpt lat="40.9293717" lon="14.29827"><ele>42.0</ele><time>2026-03-30T13:40:12.295Z</time></trkpt><trkpt lat="40.9292617" lon="14.298275"><ele>42.0</ele><time>2026-03-30T13:40:14.294Z</time></trkpt><trkpt lat="40.92915" lon="14.2982933"><ele>42.0</ele><time>2026-03-30T13:40:16.293Z</time></trkpt><trkpt lat="40.9290283" lon="14.2983083"><ele>42.0</ele><time>2026-03-30T13:40:18.295Z</time></trkpt><trkpt lat="40.9289217" lon="14.2983267"><ele>42.0</ele><time>2026-03-30T13:40:20.295Z</time></trkpt><trkpt lat="40.9288133" lon="14.2983433"><ele>42.0</ele><time>2026-03-30T13:40:22.295Z</time></trkpt><trkpt lat="40.9286983" lon="14.29836"><ele>42.0</ele><time>2026-03-30T13:40:24.295Z</time></trkpt><trkpt lat="40.92859" lon="14.2983817"><ele>42.0</ele><time>2026-03-30T13:40:26.292Z</time></trkpt><trkpt lat="40.928475" lon="14.2984017"><ele>42.0</ele><time>2026-03-30T13:40:28.295Z</time></trkpt><trkpt lat="40.9283617" lon="14.2984083"><ele>42.0</ele><time>2026-03-30T13:40:30.293Z</time></trkpt><trkpt lat="40.9282467" lon="14.298425"><ele>42.2</ele><time>2026-03-30T13:40:32.292Z</time></trkpt><trkpt lat="40.9281367" lon="14.29845"><ele>42.400000000000006</ele><time>2026-03-30T13:40:34.292Z</time></trkpt><trkpt lat="40.9280417" lon="14.29847"><ele>42.599999999999994</ele><time>2026-03-30T13:40:36.292Z</time></trkpt><trkpt lat="40.9279417" lon="14.2984733"><ele>42.8</ele><time>2026-03-30T13:40:38.292Z</time></trkpt><trkpt lat="40.9278317" lon="14.298485"><ele>43.0</ele><time>2026-03-30T13:40:40.293Z</time></trkpt><trkpt lat="40.9277267" lon="14.2985017"><ele>43.0</ele><time>2026-03-30T13:40:42.292Z</time></trkpt><trkpt lat="40.9276083" lon="14.2985217"><ele>43.0</ele><time>2026-03-30T13:40:44.292Z</time></trkpt><trkpt lat="40.9275067" lon="14.2985417"><ele>43.0</ele><time>2026-03-30T13:40:46.292Z</time></trkpt><trkpt lat="40.927415" lon="14.2985583"><ele>43.0</ele><time>2026-03-30T13:40:48.292Z</time></trkpt><trkpt lat="40.9273283" lon="14.29854"><ele>43.0</ele><time>2026-03-30T13:40:50.293Z</time></trkpt><trkpt lat="40.9272517" lon="14.2984883"><ele>43.0</ele><time>2026-03-30T13:40:52.294Z</time></trkpt><trkpt lat="40.92716" lon="14.2984983"><ele>43.0</ele><time>2026-03-30T13:40:54.294Z</time></trkpt><trkpt lat="40.9270583" lon="14.2985383"><ele>43.0</ele><time>2026-03-30T13:40:56.294Z</time></trkpt><trkpt lat="40.9269917" lon="14.298545"><ele>43.0</ele><time>2026-03-30T13:40:57.295Z</time></trkpt><trkpt lat="40.9268717" lon="14.2985467"><ele>43.0</ele><time>2026-03-30T13:40:59.294Z</time></trkpt><trkpt lat="40.926805" lon="14.2985533"><ele>43.00000000000001</ele><time>2026-03-30T13:41:00.295Z</time></trkpt><trkpt lat="40.9267383" lon="14.2985583"><ele>43.0</ele><time>2026-03-30T13:41:01.294Z</time></trkpt><trkpt lat="40.9266683" lon="14.29856"><ele>43.0</ele><time>2026-03-30T13:41:02.294Z</time></trkpt><trkpt lat="40.9266017" lon="14.298565"><ele>43.0</ele><time>2026-03-30T13:41:03.294Z</time></trkpt><trkpt lat="40.9265333" lon="14.2985767"><ele>43.0</ele><time>2026-03-30T13:41:04.294Z</time></trkpt><trkpt lat="40.9264683" lon="14.2985933"><ele>43.00000000000001</ele><time>2026-03-30T13:41:05.296Z</time></trkpt><trkpt lat="40.9264017" lon="14.298605"><ele>43.0</ele><time>2026-03-30T13:41:06.295Z</time></trkpt><trkpt lat="40.9263317" lon="14.2986083"><ele>43.28571428571429</ele><time>2026-03-30T13:41:07.295Z</time></trkpt><trkpt lat="40.9262533" lon="14.2986117"><ele>43.57142857142857</ele><time>2026-03-30T13:41:08.294Z</time></trkpt><trkpt lat="40.9261767" lon="14.2986133"><ele>43.85714285714286</ele><time>2026-03-30T13:41:09.294Z</time></trkpt><trkpt lat="40.9261067" lon="14.2986183"><ele>44.142857142857146</ele><time>2026-03-30T13:41:10.294Z</time></trkpt><trkpt lat="40.926035" lon="14.2986167"><ele>44.42857142857143</ele><time>2026-03-30T13:41:11.295Z</time></trkpt><trkpt lat="40.92596" lon="14.2986167"><ele>44.714285714285715</ele><time>2026-03-30T13:41:12.294Z</time></trkpt><trkpt lat="40.92589" lon="14.29862"><ele>45.0</ele><time>2026-03-30T13:41:13.294Z</time></trkpt><trkpt lat="40.9258167" lon="14.29862"><ele>45.285714285714285</ele><time>2026-03-30T13:41:14.295Z</time></trkpt><trkpt lat="40.9257383" lon="14.29862"><ele>45.57142857142858</ele><time>2026-03-30T13:41:15.294Z</time></trkpt><trkpt lat="40.9256633" lon="14.298625"><ele>45.85714285714286</ele><time>2026-03-30T13:41:16.293Z</time></trkpt><trkpt lat="40.9255883" lon="14.2986117"><ele>46.14285714285714</ele><time>2026-03-30T13:41:17.295Z</time></trkpt><trkpt lat="40.9255183" lon="14.2985917"><ele>46.42857142857143</ele><time>2026-03-30T13:41:18.294Z</time></trkpt><trkpt lat="40.9254533" lon="14.2985733"><ele>46.714285714285715</ele><time>2026-03-30T13:41:19.294Z</time></trkpt><trkpt lat="40.9253833" lon="14.2985533"><ele>47.0</ele><time>2026-03-30T13:41:20.294Z</time></trkpt><trkpt lat="40.9253133" lon="14.298535"><ele>47.0</ele><time>2026-03-30T13:41:21.294Z</time></trkpt><trkpt lat="40.925245" lon="14.2985117"><ele>47.0</ele><time>2026-03-30T13:41:22.295Z</time></trkpt><trkpt lat="40.9251783" lon="14.2984783"><ele>47.0</ele><time>2026-03-30T13:41:23.294Z</time></trkpt><trkpt lat="40.9251133" lon="14.29844"><ele>47.0</ele><time>2026-03-30T13:41:24.295Z</time></trkpt><trkpt lat="40.9250467" lon="14.298395"><ele>47.0</ele><time>2026-03-30T13:41:25.294Z</time></trkpt><trkpt lat="40.9249833" lon="14.29835"><ele>47.0</ele><time>2026-03-30T13:41:26.294Z</time></trkpt><trkpt lat="40.924925" lon="14.2983033"><ele>47.0</ele><time>2026-03-30T13:41:27.294Z</time></trkpt><trkpt lat="40.9248183" lon="14.2982133"><ele>46.8</ele><time>2026-03-30T13:41:29.294Z</time></trkpt><trkpt lat="40.9247333" lon="14.2981017"><ele>46.6</ele><time>2026-03-30T13:41:31.294Z</time></trkpt><trkpt lat="40.92466" lon="14.2979733"><ele>46.4</ele><time>2026-03-30T13:41:33.294Z</time></trkpt><trkpt lat="40.9245867" lon="14.2978417"><ele>46.199999999999996</ele><time>2026-03-30T13:41:35.294Z</time></trkpt><trkpt lat="40.92455" lon="14.2977733"><ele>46.0</ele><time>2026-03-30T13:41:36.294Z</time></trkpt><trkpt lat="40.9244833" lon="14.29764"><ele>46.0</ele><time>2026-03-30T13:41:38.296Z</time></trkpt><trkpt lat="40.9244133" lon="14.29751"><ele>46.0</ele><time>2026-03-30T13:41:40.294Z</time></trkpt><trkpt lat="40.9243433" lon="14.2973767"><ele>46.0</ele><time>2026-03-30T13:41:42.294Z</time></trkpt><trkpt lat="40.92426" lon="14.2972583"><ele>46.0</ele><time>2026-03-30T13:41:44.294Z</time></trkpt><trkpt lat="40.92418" lon="14.2971533"><ele>46.199999999999996</ele><time>2026-03-30T13:41:46.294Z</time></trkpt><trkpt lat="40.9241033" lon="14.2970467"><ele>46.4</ele><time>2026-03-30T13:41:48.294Z</time></trkpt><trkpt lat="40.9240433" lon="14.29693"><ele>46.6</ele><time>2026-03-30T13:41:50.294Z</time></trkpt><trkpt lat="40.9239867" lon="14.2968067"><ele>46.8</ele><time>2026-03-30T13:41:52.294Z</time></trkpt><trkpt lat="40.9239267" lon="14.2966833"><ele>47.0</ele><time>2026-03-30T13:41:54.294Z</time></trkpt><trkpt lat="40.9238633" lon="14.2965717"><ele>47.0</ele><time>2026-03-30T13:41:56.295Z</time></trkpt><trkpt lat="40.9238083" lon="14.296455"><ele>47.0</ele><time>2026-03-30T13:41:58.294Z</time></trkpt><trkpt lat="40.9237633" lon="14.296345"><ele>47.0</ele><time>2026-03-30T13:42:00.294Z</time></trkpt><trkpt lat="40.9237167" lon="14.2962317"><ele>47.0</ele><time>2026-03-30T13:42:02.294Z</time></trkpt><trkpt lat="40.92366" lon="14.29612"><ele>47.0</ele><time>2026-03-30T13:42:04.294Z</time></trkpt><trkpt lat="40.9236017" lon="14.2960017"><ele>47.0</ele><time>2026-03-30T13:42:06.294Z</time></trkpt><trkpt lat="40.92353" lon="14.29589"><ele>47.0</ele><time>2026-03-30T13:42:08.294Z</time></trkpt><trkpt lat="40.9234617" lon="14.2957683"><ele>47.0</ele><time>2026-03-30T13:42:10.294Z</time></trkpt><trkpt lat="40.9233933" lon="14.2956533"><ele>47.0</ele><time>2026-03-30T13:42:12.294Z</time></trkpt><trkpt lat="40.923325" lon="14.295535"><ele>47.0</ele><time>2026-03-30T13:42:14.295Z</time></trkpt><trkpt lat="40.923255" lon="14.295435"><ele>47.6</ele><time>2026-03-30T13:42:16.294Z</time></trkpt><trkpt lat="40.923185" lon="14.2953267"><ele>48.2</ele><time>2026-03-30T13:42:18.295Z</time></trkpt><trkpt lat="40.9231167" lon="14.2952167"><ele>48.8</ele><time>2026-03-30T13:42:20.294Z</time></trkpt><trkpt lat="40.923055" lon="14.2951117"><ele>49.4</ele><time>2026-03-30T13:42:22.295Z</time></trkpt><trkpt lat="40.9229933" lon="14.295005"><ele>50.0</ele><time>2026-03-30T13:42:24.294Z</time></trkpt><trkpt lat="40.9229267" lon="14.2949017"><ele>50.0</ele><time>2026-03-30T13:42:26.294Z</time></trkpt><trkpt lat="40.9228583" lon="14.2948"><ele>50.0</ele><time>2026-03-30T13:42:28.293Z</time></trkpt><trkpt lat="40.9227883" lon="14.2946983"><ele>50.0</ele><time>2026-03-30T13:42:30.294Z</time></trkpt><trkpt lat="40.9227117" lon="14.2946083"><ele>50.0</ele><time>2026-03-30T13:42:32.294Z</time></trkpt><trkpt lat="40.9226217" lon="14.294535"><ele>50.0</ele><time>2026-03-30T13:42:34.294Z</time></trkpt><trkpt lat="40.922535" lon="14.2944733"><ele>50.25</ele><time>2026-03-30T13:42:36.294Z</time></trkpt><trkpt lat="40.9224383" lon="14.2944133"><ele>50.5</ele><time>2026-03-30T13:42:38.294Z</time></trkpt><trkpt lat="40.9223267" lon="14.294375"><ele>50.75</ele><time>2026-03-30T13:42:40.293Z</time></trkpt><trkpt lat="40.9222117" lon="14.2943267"><ele>51.0</ele><time>2026-03-30T13:42:42.293Z</time></trkpt><trkpt lat="40.9220917" lon="14.29428"><ele>51.0</ele><time>2026-03-30T13:42:44.294Z</time></trkpt><trkpt lat="40.9220283" lon="14.2942533"><ele>51.0</ele><time>2026-03-30T13:42:45.294Z</time></trkpt><trkpt lat="40.921905" lon="14.2942067"><ele>51.0</ele><time>2026-03-30T13:42:47.295Z</time></trkpt><trkpt lat="40.9218383" lon="14.2941833"><ele>51.0</ele><time>2026-03-30T13:42:48.293Z</time></trkpt><trkpt lat="40.9217783" lon="14.2941567"><ele>51.0</ele><time>2026-03-30T13:42:49.294Z</time></trkpt><trkpt lat="40.9216617" lon="14.2940983"><ele>51.199999999999996</ele><time>2026-03-30T13:42:51.294Z</time></trkpt><trkpt lat="40.9215433" lon="14.2940383"><ele>51.4</ele><time>2026-03-30T13:42:53.294Z</time></trkpt><trkpt lat="40.92143" lon="14.293995"><ele>51.6</ele><time>2026-03-30T13:42:55.294Z</time></trkpt><trkpt lat="40.9213133" lon="14.2939483"><ele>51.8</ele><time>2026-03-30T13:42:57.294Z</time></trkpt><trkpt lat="40.92125" lon="14.293925"><ele>52.0</ele><time>2026-03-30T13:42:58.295Z</time></trkpt><trkpt lat="40.9211317" lon="14.2938717"><ele>52.0</ele><time>2026-03-30T13:43:00.293Z</time></trkpt><trkpt lat="40.9210133" lon="14.2938133"><ele>52.0</ele><time>2026-03-30T13:43:02.293Z</time></trkpt><trkpt lat="40.9209017" lon="14.2937433"><ele>52.0</ele><time>2026-03-30T13:43:04.295Z</time></trkpt><trkpt lat="40.9208" lon="14.29366"><ele>52.0</ele><time>2026-03-30T13:43:06.294Z</time></trkpt><trkpt lat="40.9206967" lon="14.293575"><ele>52.25</ele><time>2026-03-30T13:43:08.293Z</time></trkpt><trkpt lat="40.9206033" lon="14.29349"><ele>52.5</ele><time>2026-03-30T13:43:10.294Z</time></trkpt><trkpt lat="40.9205067" lon="14.29341"><ele>52.75</ele><time>2026-03-30T13:43:12.294Z</time></trkpt><trkpt lat="40.9204017" lon="14.293335"><ele>53.0</ele><time>2026-03-30T13:43:14.294Z</time></trkpt><trkpt lat="40.9203017" lon="14.2932467"><ele>53.0</ele><time>2026-03-30T13:43:16.294Z</time></trkpt><trkpt lat="40.9202183" lon="14.2931333"><ele>53.0</ele><time>2026-03-30T13:43:18.294Z</time></trkpt><trkpt lat="40.92012" lon="14.293025"><ele>53.0</ele><time>2026-03-30T13:43:20.294Z</time></trkpt><trkpt lat="40.9200217" lon="14.2929267"><ele>53.0</ele><time>2026-03-30T13:43:22.294Z</time></trkpt><trkpt lat="40.9199383" lon="14.2928233"><ele>53.0</ele><time>2026-03-30T13:43:24.295Z</time></trkpt><trkpt lat="40.919865" lon="14.2927283"><ele>53.0</ele><time>2026-03-30T13:43:26.293Z</time></trkpt><trkpt lat="40.9197983" lon="14.2926367"><ele>53.0</ele><time>2026-03-30T13:43:28.293Z</time></trkpt><trkpt lat="40.9197183" lon="14.2925633"><ele>53.0</ele><time>2026-03-30T13:43:30.294Z</time></trkpt><trkpt lat="40.9196367" lon="14.2925"><ele>53.0</ele><time>2026-03-30T13:43:32.293Z</time></trkpt><trkpt lat="40.9195533" lon="14.2924517"><ele>53.00000000000001</ele><time>2026-03-30T13:43:34.294Z</time></trkpt><trkpt lat="40.919475" lon="14.2924017"><ele>53.0</ele><time>2026-03-30T13:43:36.293Z</time></trkpt><trkpt lat="40.919395" lon="14.2923617"><ele>53.0</ele><time>2026-03-30T13:43:38.294Z</time></trkpt><trkpt lat="40.9193117" lon="14.2923233"><ele>53.0</ele><time>2026-03-30T13:43:40.294Z</time></trkpt><trkpt lat="40.9192283" lon="14.2922917"><ele>53.00000000000001</ele><time>2026-03-30T13:43:42.295Z</time></trkpt><trkpt lat="40.9191483" lon="14.2922567"><ele>53.0</ele><time>2026-03-30T13:43:44.295Z</time></trkpt><trkpt lat="40.919065" lon="14.2922133"><ele>53.4</ele><time>2026-03-30T13:43:46.293Z</time></trkpt><trkpt lat="40.918985" lon="14.2921783"><ele>53.8</ele><time>2026-03-30T13:43:48.295Z</time></trkpt><trkpt lat="40.9188983" lon="14.2921483"><ele>54.2</ele><time>2026-03-30T13:43:50.294Z</time></trkpt><trkpt lat="40.918795" lon="14.2921183"><ele>54.6</ele><time>2026-03-30T13:43:52.295Z</time></trkpt><trkpt lat="40.9186967" lon="14.2920733"><ele>55.0</ele><time>2026-03-30T13:43:54.294Z</time></trkpt><trkpt lat="40.9185933" lon="14.29203"><ele>54.99999999999999</ele><time>2026-03-30T13:43:56.294Z</time></trkpt><trkpt lat="40.918475" lon="14.2919867"><ele>55.0</ele><time>2026-03-30T13:43:58.294Z</time></trkpt><trkpt lat="40.9183583" lon="14.29194"><ele>55.0</ele><time>2026-03-30T13:44:00.294Z</time></trkpt><trkpt lat="40.918295" lon="14.2919167"><ele>55.0</ele><time>2026-03-30T13:44:01.294Z</time></trkpt><trkpt lat="40.91823" lon="14.2918917"><ele>54.99999999999999</ele><time>2026-03-30T13:44:02.295Z</time></trkpt><trkpt lat="40.9181683" lon="14.2918633"><ele>55.0</ele><time>2026-03-30T13:44:03.295Z</time></trkpt><trkpt lat="40.9181067" lon="14.29183"><ele>54.99999999999999</ele><time>2026-03-30T13:44:04.294Z</time></trkpt><trkpt lat="40.9180433" lon="14.2918"><ele>55.0</ele><time>2026-03-30T13:44:05.295Z</time></trkpt><trkpt lat="40.9179783" lon="14.29177"><ele>55.0</ele><time>2026-03-30T13:44:06.294Z</time></trkpt><trkpt lat="40.9179133" lon="14.2917333"><ele>55.0</ele><time>2026-03-30T13:44:07.294Z</time></trkpt><trkpt lat="40.9178467" lon="14.2916967"><ele>55.0</ele><time>2026-03-30T13:44:08.294Z</time></trkpt><trkpt lat="40.91778" lon="14.291655"><ele>54.99999999999999</ele><time>2026-03-30T13:44:09.292Z</time></trkpt><trkpt lat="40.917715" lon="14.2916"><ele>55.0</ele><time>2026-03-30T13:44:10.293Z</time></trkpt><trkpt lat="40.9176517" lon="14.2915533"><ele>54.99999999999999</ele><time>2026-03-30T13:44:11.293Z</time></trkpt><trkpt lat="40.917585" lon="14.2915167"><ele>55.0</ele><time>2026-03-30T13:44:12.293Z</time></trkpt><trkpt lat="40.9175167" lon="14.2914833"><ele>55.0</ele><time>2026-03-30T13:44:13.295Z</time></trkpt><trkpt lat="40.9174583" lon="14.29145"><ele>55.0</ele><time>2026-03-30T13:44:14.294Z</time></trkpt><trkpt lat="40.9173983" lon="14.2914217"><ele>54.99999999999999</ele><time>2026-03-30T13:44:15.294Z</time></trkpt><trkpt lat="40.9172867" lon="14.2913533"><ele>55.0</ele><time>2026-03-30T13:44:17.294Z</time></trkpt><trkpt lat="40.917185" lon="14.2912867"><ele>55.33333333333333</ele><time>2026-03-30T13:44:19.294Z</time></trkpt><trkpt lat="40.91709" lon="14.2912267"><ele>55.666666666666664</ele><time>2026-03-30T13:44:21.294Z</time></trkpt><trkpt lat="40.916985" lon="14.2911483"><ele>56.0</ele><time>2026-03-30T13:44:23.295Z</time></trkpt><trkpt lat="40.91693" lon="14.291105"><ele>56.33333333333333</ele><time>2026-03-30T13:44:24.293Z</time></trkpt><trkpt lat="40.9168733" lon="14.2910567"><ele>56.666666666666664</ele><time>2026-03-30T13:44:25.294Z</time></trkpt><trkpt lat="40.9168117" lon="14.2910117"><ele>57.0</ele><time>2026-03-30T13:44:26.294Z</time></trkpt><trkpt lat="40.9167483" lon="14.29097"><ele>57.0</ele><time>2026-03-30T13:44:27.293Z</time></trkpt><trkpt lat="40.9166833" lon="14.29093"><ele>57.0</ele><time>2026-03-30T13:44:28.294Z</time></trkpt><trkpt lat="40.9166183" lon="14.2908883"><ele>57.0</ele><time>2026-03-30T13:44:29.294Z</time></trkpt><trkpt lat="40.9165517" lon="14.2908467"><ele>57.0</ele><time>2026-03-30T13:44:30.294Z</time></trkpt><trkpt lat="40.9164817" lon="14.29081"><ele>57.0</ele><time>2026-03-30T13:44:31.294Z</time></trkpt><trkpt lat="40.9164067" lon="14.29077"><ele>57.0</ele><time>2026-03-30T13:44:32.293Z</time></trkpt><trkpt lat="40.9163317" lon="14.2907333"><ele>57.0</ele><time>2026-03-30T13:44:33.294Z</time></trkpt><trkpt lat="40.916255" lon="14.290705"><ele>56.99999999999999</ele><time>2026-03-30T13:44:34.293Z</time></trkpt><trkpt lat="40.9161817" lon="14.2906767"><ele>57.0</ele><time>2026-03-30T13:44:35.294Z</time></trkpt><trkpt lat="40.9161117" lon="14.2906467"><ele>57.0</ele><time>2026-03-30T13:44:36.295Z</time></trkpt><trkpt lat="40.9160417" lon="14.2906083"><ele>56.99999999999999</ele><time>2026-03-30T13:44:37.293Z</time></trkpt><trkpt lat="40.9159783" lon="14.290575"><ele>57.0</ele><time>2026-03-30T13:44:38.294Z</time></trkpt><trkpt lat="40.9159067" lon="14.2905517"><ele>57.0</ele><time>2026-03-30T13:44:39.294Z</time></trkpt><trkpt lat="40.9158433" lon="14.290535"><ele>57.285714285714285</ele><time>2026-03-30T13:44:40.293Z</time></trkpt><trkpt lat="40.9157767" lon="14.2905233"><ele>57.57142857142857</ele><time>2026-03-30T13:44:41.294Z</time></trkpt><trkpt lat="40.9157133" lon="14.2905133"><ele>57.857142857142854</ele><time>2026-03-30T13:44:42.294Z</time></trkpt><trkpt lat="40.9156417" lon="14.2905083"><ele>58.14285714285714</ele><time>2026-03-30T13:44:43.294Z</time></trkpt><trkpt lat="40.915565" lon="14.2905033"><ele>58.42857142857143</ele><time>2026-03-30T13:44:44.294Z</time></trkpt><trkpt lat="40.9154833" lon="14.2905017"><ele>58.71428571428571</ele><time>2026-03-30T13:44:45.294Z</time></trkpt><trkpt lat="40.9154033" lon="14.290505"><ele>59.0</ele><time>2026-03-30T13:44:46.294Z</time></trkpt><trkpt lat="40.91532" lon="14.2905067"><ele>59.00000000000001</ele><time>2026-03-30T13:44:47.294Z</time></trkpt><trkpt lat="40.91524" lon="14.2905117"><ele>59.0</ele><time>2026-03-30T13:44:48.294Z</time></trkpt><trkpt lat="40.9151533" lon="14.2905183"><ele>59.0</ele><time>2026-03-30T13:44:49.294Z</time></trkpt><trkpt lat="40.9150717" lon="14.2905283"><ele>59.0</ele><time>2026-03-30T13:44:50.294Z</time></trkpt><trkpt lat="40.91499" lon="14.2905333"><ele>59.00000000000001</ele><time>2026-03-30T13:44:51.293Z</time></trkpt><trkpt lat="40.914905" lon="14.2905383"><ele>59.0</ele><time>2026-03-30T13:44:52.293Z</time></trkpt><trkpt lat="40.91482" lon="14.2905467"><ele>59.16666666666667</ele><time>2026-03-30T13:44:53.293Z</time></trkpt><trkpt lat="40.9147417" lon="14.29055"><ele>59.333333333333336</ele><time>2026-03-30T13:44:54.294Z</time></trkpt><trkpt lat="40.9146633" lon="14.290555"><ele>59.5</ele><time>2026-03-30T13:44:55.294Z</time></trkpt><trkpt lat="40.9145817" lon="14.2905583"><ele>59.66666666666667</ele><time>2026-03-30T13:44:56.294Z</time></trkpt><trkpt lat="40.9144967" lon="14.2905683"><ele>59.833333333333336</ele><time>2026-03-30T13:44:57.294Z</time></trkpt><trkpt lat="40.914415" lon="14.2905717"><ele>60.0</ele><time>2026-03-30T13:44:58.294Z</time></trkpt><trkpt lat="40.9143367" lon="14.2905733"><ele>60.0</ele><time>2026-03-30T13:44:59.295Z</time></trkpt><trkpt lat="40.9142533" lon="14.29057"><ele>60.0</ele><time>2026-03-30T13:45:00.294Z</time></trkpt><trkpt lat="40.9141683" lon="14.2905617"><ele>60.0</ele><time>2026-03-30T13:45:01.294Z</time></trkpt><trkpt lat="40.914085" lon="14.29055"><ele>60.0</ele><time>2026-03-30T13:45:02.293Z</time></trkpt><trkpt lat="40.9140017" lon="14.2905333"><ele>60.0</ele><time>2026-03-30T13:45:03.294Z</time></trkpt><trkpt lat="40.91392" lon="14.2905133"><ele>60.0</ele><time>2026-03-30T13:45:04.294Z</time></trkpt><trkpt lat="40.9138367" lon="14.2904933"><ele>60.333333333333336</ele><time>2026-03-30T13:45:05.293Z</time></trkpt><trkpt lat="40.913755" lon="14.2904717"><ele>60.66666666666667</ele><time>2026-03-30T13:45:06.293Z</time></trkpt><trkpt lat="40.9136767" lon="14.290445"><ele>61.0</ele><time>2026-03-30T13:45:07.294Z</time></trkpt><trkpt lat="40.9135983" lon="14.290415"><ele>61.333333333333336</ele><time>2026-03-30T13:45:08.294Z</time></trkpt><trkpt lat="40.9135267" lon="14.2903817"><ele>61.66666666666667</ele><time>2026-03-30T13:45:09.294Z</time></trkpt><trkpt lat="40.9134533" lon="14.2903533"><ele>62.0</ele><time>2026-03-30T13:45:10.294Z</time></trkpt><trkpt lat="40.9133867" lon="14.2903183"><ele>62.142857142857146</ele><time>2026-03-30T13:45:11.294Z</time></trkpt><trkpt lat="40.913315" lon="14.290285"><ele>62.28571428571429</ele><time>2026-03-30T13:45:12.293Z</time></trkpt><trkpt lat="40.9132467" lon="14.29025"><ele>62.42857142857143</ele><time>2026-03-30T13:45:13.294Z</time></trkpt><trkpt lat="40.9131817" lon="14.2902133"><ele>62.57142857142857</ele><time>2026-03-30T13:45:14.293Z</time></trkpt><trkpt lat="40.91312" lon="14.2901733"><ele>62.714285714285715</ele><time>2026-03-30T13:45:15.294Z</time></trkpt><trkpt lat="40.9130567" lon="14.2901317"><ele>62.85714285714286</ele><time>2026-03-30T13:45:16.294Z</time></trkpt><trkpt lat="40.9129983" lon="14.2900883"><ele>63.0</ele><time>2026-03-30T13:45:17.295Z</time></trkpt><trkpt lat="40.9128883" lon="14.2900183"><ele>63.0</ele><time>2026-03-30T13:45:19.294Z</time></trkpt><trkpt lat="40.9127683" lon="14.2899733"><ele>63.0</ele><time>2026-03-30T13:45:21.294Z</time></trkpt><trkpt lat="40.9127083" lon="14.28994"><ele>63.0</ele><time>2026-03-30T13:45:22.294Z</time></trkpt><trkpt lat="40.9126517" lon="14.289885"><ele>63.0</ele><time>2026-03-30T13:45:23.294Z</time></trkpt><trkpt lat="40.9125933" lon="14.2898367"><ele>63.0</ele><time>2026-03-30T13:45:24.294Z</time></trkpt><trkpt lat="40.912535" lon="14.28979"><ele>63.0</ele><time>2026-03-30T13:45:25.295Z</time></trkpt><trkpt lat="40.912475" lon="14.289735"><ele>63.0</ele><time>2026-03-30T13:45:26.294Z</time></trkpt><trkpt lat="40.9124117" lon="14.2896767"><ele>63.0</ele><time>2026-03-30T13:45:27.294Z</time></trkpt><trkpt lat="40.9123517" lon="14.289625"><ele>63.0</ele><time>2026-03-30T13:45:28.295Z</time></trkpt><trkpt lat="40.91229" lon="14.2895733"><ele>63.0</ele><time>2026-03-30T13:45:29.295Z</time></trkpt><trkpt lat="40.9122267" lon="14.2895133"><ele>63.0</ele><time>2026-03-30T13:45:30.294Z</time></trkpt><trkpt lat="40.912165" lon="14.2894517"><ele>63.0</ele><time>2026-03-30T13:45:31.295Z</time></trkpt><trkpt lat="40.9121033" lon="14.2893917"><ele>63.0</ele><time>2026-03-30T13:45:32.294Z</time></trkpt><trkpt lat="40.91204" lon="14.2893383"><ele>63.0</ele><time>2026-03-30T13:45:33.294Z</time></trkpt><trkpt lat="40.911975" lon="14.2892883"><ele>63.0</ele><time>2026-03-30T13:45:34.294Z</time></trkpt><trkpt lat="40.911915" lon="14.2892367"><ele>63.0</ele><time>2026-03-30T13:45:35.295Z</time></trkpt><trkpt lat="40.9118617" lon="14.2891883"><ele>63.0</ele><time>2026-03-30T13:45:36.295Z</time></trkpt><trkpt lat="40.9118067" lon="14.2891383"><ele>63.0</ele><time>2026-03-30T13:45:37.295Z</time></trkpt><trkpt lat="40.9117" lon="14.2890533"><ele>63.0</ele><time>2026-03-30T13:45:39.294Z</time></trkpt><trkpt lat="40.9116" lon="14.28897"><ele>63.0</ele><time>2026-03-30T13:45:41.294Z</time></trkpt><trkpt lat="40.9115017" lon="14.2888933"><ele>63.0</ele><time>2026-03-30T13:45:43.295Z</time></trkpt><trkpt lat="40.9114017" lon="14.2888133"><ele>63.0</ele><time>2026-03-30T13:45:45.294Z</time></trkpt><trkpt lat="40.9112967" lon="14.2887333"><ele>63.0</ele><time>2026-03-30T13:45:47.294Z</time></trkpt><trkpt lat="40.911195" lon="14.2886517"><ele>63.0</ele><time>2026-03-30T13:45:49.294Z</time></trkpt><trkpt lat="40.9110933" lon="14.2885633"><ele>63.0</ele><time>2026-03-30T13:45:51.294Z</time></trkpt><trkpt lat="40.91104" lon="14.288515"><ele>63.0</ele><time>2026-03-30T13:45:52.293Z</time></trkpt><trkpt lat="40.91094" lon="14.2884183"><ele>63.0</ele><time>2026-03-30T13:45:54.294Z</time></trkpt><trkpt lat="40.910835" lon="14.2883317"><ele>63.0</ele><time>2026-03-30T13:45:56.294Z</time></trkpt><trkpt lat="40.91073" lon="14.2882483"><ele>63.0</ele><time>2026-03-30T13:45:58.295Z</time></trkpt><trkpt lat="40.910635" lon="14.2881683"><ele>63.0</ele><time>2026-03-30T13:46:00.293Z</time></trkpt><trkpt lat="40.9105433" lon="14.28809"><ele>63.0</ele><time>2026-03-30T13:46:02.296Z</time></trkpt><trkpt lat="40.91044" lon="14.2880117"><ele>63.0</ele><time>2026-03-30T13:46:04.295Z</time></trkpt><trkpt lat="40.910365" lon="14.28793"><ele>63.0</ele><time>2026-03-30T13:46:06.293Z</time></trkpt><trkpt lat="40.9102967" lon="14.2878567"><ele>63.0</ele><time>2026-03-30T13:46:08.294Z</time></trkpt><trkpt lat="40.91021" lon="14.28779"><ele>63.0</ele><time>2026-03-30T13:46:10.293Z</time></trkpt><trkpt lat="40.9101133" lon="14.2877367"><ele>63.0</ele><time>2026-03-30T13:46:12.293Z</time></trkpt><trkpt lat="40.9100083" lon="14.2876933"><ele>64.0</ele><time>2026-03-30T13:46:14.292Z</time></trkpt><trkpt lat="40.9099317" lon="14.287615"><ele>65.0</ele><time>2026-03-30T13:46:16.292Z</time></trkpt><trkpt lat="40.9098483" lon="14.28753"><ele>66.0</ele><time>2026-03-30T13:46:18.292Z</time></trkpt><trkpt lat="40.9097683" lon="14.2874617"><ele>67.0</ele><time>2026-03-30T13:46:20.293Z</time></trkpt><trkpt lat="40.90968" lon="14.287395"><ele>68.0</ele><time>2026-03-30T13:46:22.292Z</time></trkpt><trkpt lat="40.9096017" lon="14.2873217"><ele>68.2</ele><time>2026-03-30T13:46:24.292Z</time></trkpt><trkpt lat="40.909525" lon="14.28725"><ele>68.4</ele><time>2026-03-30T13:46:26.292Z</time></trkpt><trkpt lat="40.909465" lon="14.287175"><ele>68.60000000000001</ele><time>2026-03-30T13:46:28.292Z</time></trkpt><trkpt lat="40.90939" lon="14.287105"><ele>68.8</ele><time>2026-03-30T13:46:30.292Z</time></trkpt><trkpt lat="40.90931" lon="14.2870367"><ele>69.0</ele><time>2026-03-30T13:46:32.293Z</time></trkpt><trkpt lat="40.9092283" lon="14.28697"><ele>69.2</ele><time>2026-03-30T13:46:34.292Z</time></trkpt><trkpt lat="40.9091483" lon="14.286905"><ele>69.4</ele><time>2026-03-30T13:46:36.292Z</time></trkpt><trkpt lat="40.9090583" lon="14.28683"><ele>69.6</ele><time>2026-03-30T13:46:38.292Z</time></trkpt><trkpt lat="40.9089633" lon="14.2867517"><ele>69.8</ele><time>2026-03-30T13:46:40.292Z</time></trkpt><trkpt lat="40.9088617" lon="14.2866767"><ele>70.0</ele><time>2026-03-30T13:46:42.292Z</time></trkpt><trkpt lat="40.90877" lon="14.2866017"><ele>70.0</ele><time>2026-03-30T13:46:44.292Z</time></trkpt><trkpt lat="40.90868" lon="14.2865283"><ele>70.0</ele><time>2026-03-30T13:46:46.292Z</time></trkpt><trkpt lat="40.9085817" lon="14.2864517"><ele>70.0</ele><time>2026-03-30T13:46:48.291Z</time></trkpt><trkpt lat="40.908485" lon="14.2863733"><ele>70.0</ele><time>2026-03-30T13:46:50.291Z</time></trkpt><trkpt lat="40.90839" lon="14.28629"><ele>70.0</ele><time>2026-03-30T13:46:52.292Z</time></trkpt><trkpt lat="40.90829" lon="14.2862083"><ele>69.75</ele><time>2026-03-30T13:46:54.291Z</time></trkpt><trkpt lat="40.9081967" lon="14.2861233"><ele>69.5</ele><time>2026-03-30T13:46:56.291Z</time></trkpt><trkpt lat="40.908105" lon="14.2860383"><ele>69.25</ele><time>2026-03-30T13:46:58.293Z</time></trkpt><trkpt lat="40.9080017" lon="14.2859617"><ele>69.0</ele><time>2026-03-30T13:47:00.291Z</time></trkpt><trkpt lat="40.90791" lon="14.2858867"><ele>69.0</ele><time>2026-03-30T13:47:02.291Z</time></trkpt><trkpt lat="40.90781" lon="14.2858033"><ele>69.0</ele><time>2026-03-30T13:47:04.291Z</time></trkpt><trkpt lat="40.9077217" lon="14.2857217"><ele>69.0</ele><time>2026-03-30T13:47:06.291Z</time></trkpt><trkpt lat="40.9076367" lon="14.2856467"><ele>69.0</ele><time>2026-03-30T13:47:08.291Z</time></trkpt><trkpt lat="40.9075517" lon="14.285575"><ele>69.0</ele><time>2026-03-30T13:47:10.291Z</time></trkpt><trkpt lat="40.9074733" lon="14.28551"><ele>70.0</ele><time>2026-03-30T13:47:12.291Z</time></trkpt><trkpt lat="40.907385" lon="14.28544"><ele>71.0</ele><time>2026-03-30T13:47:14.291Z</time></trkpt><trkpt lat="40.907305" lon="14.285385"><ele>72.0</ele><time>2026-03-30T13:47:16.291Z</time></trkpt><trkpt lat="40.9072283" lon="14.2853233"><ele>73.0</ele><time>2026-03-30T13:47:18.291Z</time></trkpt><trkpt lat="40.9071533" lon="14.2852533"><ele>74.0</ele><time>2026-03-30T13:47:20.292Z</time></trkpt><trkpt lat="40.9070733" lon="14.2851817"><ele>74.0</ele><time>2026-03-30T13:47:22.291Z</time></trkpt><trkpt lat="40.9069917" lon="14.285105"><ele>74.0</ele><time>2026-03-30T13:47:24.291Z</time></trkpt><trkpt lat="40.906905" lon="14.2850317"><ele>74.0</ele><time>2026-03-30T13:47:26.292Z</time></trkpt><trkpt lat="40.906805" lon="14.2849667"><ele>74.0</ele><time>2026-03-30T13:47:28.292Z</time></trkpt><trkpt lat="40.9067033" lon="14.284905"><ele>74.0</ele><time>2026-03-30T13:47:30.292Z</time></trkpt><trkpt lat="40.9066017" lon="14.2848517"><ele>74.8</ele><time>2026-03-30T13:47:32.291Z</time></trkpt><trkpt lat="40.9064933" lon="14.2848133"><ele>75.60000000000001</ele><time>2026-03-30T13:47:34.292Z</time></trkpt><trkpt lat="40.90639" lon="14.28477"><ele>76.4</ele><time>2026-03-30T13:47:36.291Z</time></trkpt><trkpt lat="40.9062867" lon="14.2847433"><ele>77.2</ele><time>2026-03-30T13:47:38.291Z</time></trkpt><trkpt lat="40.906185" lon="14.2847333"><ele>78.0</ele><time>2026-03-30T13:47:40.291Z</time></trkpt><trkpt lat="40.9060883" lon="14.2847167"><ele>78.2</ele><time>2026-03-30T13:47:42.291Z</time></trkpt><trkpt lat="40.905985" lon="14.2847083"><ele>78.4</ele><time>2026-03-30T13:47:44.291Z</time></trkpt><trkpt lat="40.9058933" lon="14.2847017"><ele>78.60000000000001</ele><time>2026-03-30T13:47:46.292Z</time></trkpt><trkpt lat="40.9058017" lon="14.2847017"><ele>78.8</ele><time>2026-03-30T13:47:48.292Z</time></trkpt><trkpt lat="40.9057167" lon="14.2847183"><ele>79.0</ele><time>2026-03-30T13:47:50.292Z</time></trkpt><trkpt lat="40.905635" lon="14.2847317"><ele>79.0</ele><time>2026-03-30T13:47:52.292Z</time></trkpt><trkpt lat="40.905545" lon="14.28475"><ele>79.0</ele><time>2026-03-30T13:47:54.292Z</time></trkpt><trkpt lat="40.90548" lon="14.2847583"><ele>79.0</ele><time>2026-03-30T13:47:55.293Z</time></trkpt><trkpt lat="40.905415" lon="14.2847733"><ele>79.0</ele><time>2026-03-30T13:47:56.291Z</time></trkpt><trkpt lat="40.9052917" lon="14.2848017"><ele>79.0</ele><time>2026-03-30T13:47:58.291Z</time></trkpt><trkpt lat="40.9051783" lon="14.28483"><ele>79.0</ele><time>2026-03-30T13:48:00.292Z</time></trkpt><trkpt lat="40.9050683" lon="14.2848367"><ele>79.0</ele><time>2026-03-30T13:48:02.291Z</time></trkpt><trkpt lat="40.9049667" lon="14.28487"><ele>79.0</ele><time>2026-03-30T13:48:04.291Z</time></trkpt><trkpt lat="40.9048783" lon="14.284885"><ele>79.0</ele><time>2026-03-30T13:48:06.292Z</time></trkpt><trkpt lat="40.9047667" lon="14.28492"><ele>79.0</ele><time>2026-03-30T13:48:08.291Z</time></trkpt><trkpt lat="40.9046617" lon="14.28496"><ele>79.0</ele><time>2026-03-30T13:48:10.291Z</time></trkpt><trkpt lat="40.9045583" lon="14.2849933"><ele>79.0</ele><time>2026-03-30T13:48:12.292Z</time></trkpt><trkpt lat="40.9044383" lon="14.28502"><ele>79.0</ele><time>2026-03-30T13:48:14.291Z</time></trkpt><trkpt lat="40.9043683" lon="14.2850417"><ele>79.0</ele><time>2026-03-30T13:48:15.291Z</time></trkpt><trkpt lat="40.9042967" lon="14.285065"><ele>79.0</ele><time>2026-03-30T13:48:16.292Z</time></trkpt><trkpt lat="40.904225" lon="14.2850867"><ele>79.0</ele><time>2026-03-30T13:48:17.292Z</time></trkpt><trkpt lat="40.90415" lon="14.2851083"><ele>79.16666666666666</ele><time>2026-03-30T13:48:18.291Z</time></trkpt><trkpt lat="40.9040783" lon="14.2851333"><ele>79.33333333333333</ele><time>2026-03-30T13:48:19.292Z</time></trkpt><trkpt lat="40.9040033" lon="14.2851517"><ele>79.5</ele><time>2026-03-30T13:48:20.292Z</time></trkpt><trkpt lat="40.90393" lon="14.28517"><ele>79.66666666666667</ele><time>2026-03-30T13:48:21.293Z</time></trkpt><trkpt lat="40.9038417" lon="14.28519"><ele>79.83333333333334</ele><time>2026-03-30T13:48:22.293Z</time></trkpt><trkpt lat="40.9037733" lon="14.2852167"><ele>80.0</ele><time>2026-03-30T13:48:23.293Z</time></trkpt><trkpt lat="40.9037017" lon="14.285225"><ele>80.0</ele><time>2026-03-30T13:48:24.294Z</time></trkpt><trkpt lat="40.90358" lon="14.2852583"><ele>80.0</ele><time>2026-03-30T13:48:26.293Z</time></trkpt><trkpt lat="40.9034617" lon="14.285295"><ele>80.0</ele><time>2026-03-30T13:48:28.294Z</time></trkpt><trkpt lat="40.903395" lon="14.2853133"><ele>80.0</ele><time>2026-03-30T13:48:29.293Z</time></trkpt><trkpt lat="40.9033333" lon="14.2853367"><ele>80.0</ele><time>2026-03-30T13:48:30.293Z</time></trkpt><trkpt lat="40.90322" lon="14.285385"><ele>80.57142857142857</ele><time>2026-03-30T13:48:32.293Z</time></trkpt><trkpt lat="40.90316" lon="14.285415"><ele>81.14285714285714</ele><time>2026-03-30T13:48:33.294Z</time></trkpt><trkpt lat="40.9030983" lon="14.2854417"><ele>81.71428571428572</ele><time>2026-03-30T13:48:34.295Z</time></trkpt><trkpt lat="40.903035" lon="14.285465"><ele>82.28571428571428</ele><time>2026-03-30T13:48:35.294Z</time></trkpt><trkpt lat="40.9029733" lon="14.2854817"><ele>82.85714285714286</ele><time>2026-03-30T13:48:36.293Z</time></trkpt><trkpt lat="40.9029067" lon="14.2855"><ele>83.42857142857143</ele><time>2026-03-30T13:48:37.294Z</time></trkpt><trkpt lat="40.9028383" lon="14.2855217"><ele>84.0</ele><time>2026-03-30T13:48:38.294Z</time></trkpt><trkpt lat="40.9027633" lon="14.2855467"><ele>84.0</ele><time>2026-03-30T13:48:39.293Z</time></trkpt><trkpt lat="40.9026833" lon="14.285565"><ele>84.0</ele><time>2026-03-30T13:48:40.293Z</time></trkpt><trkpt lat="40.90261" lon="14.2855833"><ele>84.0</ele><time>2026-03-30T13:48:41.294Z</time></trkpt><trkpt lat="40.9025417" lon="14.2856033"><ele>84.0</ele><time>2026-03-30T13:48:42.293Z</time></trkpt><trkpt lat="40.9024617" lon="14.2856283"><ele>84.0</ele><time>2026-03-30T13:48:43.293Z</time></trkpt><trkpt lat="40.9024" lon="14.28565"><ele>84.0</ele><time>2026-03-30T13:48:44.293Z</time></trkpt><trkpt lat="40.90233" lon="14.2856717"><ele>84.0</ele><time>2026-03-30T13:48:45.291Z</time></trkpt><trkpt lat="40.9022533" lon="14.2856917"><ele>84.33333333333333</ele><time>2026-03-30T13:48:46.291Z</time></trkpt><trkpt lat="40.9021683" lon="14.28571"><ele>84.66666666666667</ele><time>2026-03-30T13:48:47.292Z</time></trkpt><trkpt lat="40.9020867" lon="14.2857267"><ele>85.0</ele><time>2026-03-30T13:48:48.292Z</time></trkpt><trkpt lat="40.902015" lon="14.2857517"><ele>85.33333333333334</ele><time>2026-03-30T13:48:49.292Z</time></trkpt><trkpt lat="40.9019467" lon="14.2857717"><ele>85.66666666666667</ele><time>2026-03-30T13:48:50.292Z</time></trkpt><trkpt lat="40.9018783" lon="14.28579"><ele>86.0</ele><time>2026-03-30T13:48:51.291Z</time></trkpt><trkpt lat="40.90181" lon="14.2858083"><ele>85.85714285714286</ele><time>2026-03-30T13:48:52.292Z</time></trkpt><trkpt lat="40.9017433" lon="14.2858217"><ele>85.71428571428572</ele><time>2026-03-30T13:48:53.291Z</time></trkpt><trkpt lat="40.9016783" lon="14.2858367"><ele>85.57142857142858</ele><time>2026-03-30T13:48:54.291Z</time></trkpt><trkpt lat="40.90161" lon="14.2858517"><ele>85.42857142857143</ele><time>2026-03-30T13:48:55.292Z</time></trkpt><trkpt lat="40.9015383" lon="14.2858667"><ele>85.28571428571428</ele><time>2026-03-30T13:48:56.292Z</time></trkpt><trkpt lat="40.9014617" lon="14.2858817"><ele>85.14285714285715</ele><time>2026-03-30T13:48:57.291Z</time></trkpt><trkpt lat="40.9013817" lon="14.2858983"><ele>85.0</ele><time>2026-03-30T13:48:58.292Z</time></trkpt><trkpt lat="40.9012967" lon="14.2859133"><ele>85.0</ele><time>2026-03-30T13:48:59.292Z</time></trkpt><trkpt lat="40.9012267" lon="14.2859283"><ele>85.0</ele><time>2026-03-30T13:49:00.292Z</time></trkpt><trkpt lat="40.90116" lon="14.285935"><ele>85.0</ele><time>2026-03-30T13:49:01.292Z</time></trkpt><trkpt lat="40.9010967" lon="14.2859417"><ele>85.0</ele><time>2026-03-30T13:49:02.292Z</time></trkpt><trkpt lat="40.9010333" lon="14.2859417"><ele>85.0</ele><time>2026-03-30T13:49:03.291Z</time></trkpt><trkpt lat="40.900915" lon="14.28596"><ele>85.0</ele><time>2026-03-30T13:49:05.291Z</time></trkpt><trkpt lat="40.9008017" lon="14.2859883"><ele>85.16666666666666</ele><time>2026-03-30T13:49:07.291Z</time></trkpt><trkpt lat="40.9007383" lon="14.2860133"><ele>85.33333333333333</ele><time>2026-03-30T13:49:08.291Z</time></trkpt><trkpt lat="40.9006183" lon="14.286035"><ele>85.5</ele><time>2026-03-30T13:49:10.292Z</time></trkpt><trkpt lat="40.900555" lon="14.2860267"><ele>85.66666666666667</ele><time>2026-03-30T13:49:11.292Z</time></trkpt><trkpt lat="40.9004917" lon="14.28601"><ele>85.83333333333334</ele><time>2026-03-30T13:49:12.291Z</time></trkpt><trkpt lat="40.9003733" lon="14.28599"><ele>86.0</ele><time>2026-03-30T13:49:14.292Z</time></trkpt><trkpt lat="40.9002617" lon="14.2859667"><ele>86.0</ele><time>2026-03-30T13:49:16.291Z</time></trkpt><trkpt lat="40.9001483" lon="14.2859367"><ele>86.0</ele><time>2026-03-30T13:49:18.292Z</time></trkpt><trkpt lat="40.90003" lon="14.285885"><ele>86.0</ele><time>2026-03-30T13:49:20.291Z</time></trkpt><trkpt lat="40.899915" lon="14.2858117"><ele>86.0</ele><time>2026-03-30T13:49:22.291Z</time></trkpt><trkpt lat="40.89981" lon="14.2857483"><ele>86.0</ele><time>2026-03-30T13:49:24.292Z</time></trkpt><trkpt lat="40.8997383" lon="14.2856967"><ele>86.0</ele><time>2026-03-30T13:49:26.291Z</time></trkpt><trkpt lat="40.8996567" lon="14.2856567"><ele>86.0</ele><time>2026-03-30T13:49:28.291Z</time></trkpt><trkpt lat="40.8995667" lon="14.285615"><ele>86.0</ele><time>2026-03-30T13:49:30.291Z</time></trkpt><trkpt lat="40.89947" lon="14.2855717"><ele>86.0</ele><time>2026-03-30T13:49:32.295Z</time></trkpt><trkpt lat="40.8993767" lon="14.28552"><ele>86.0</ele><time>2026-03-30T13:49:34.297Z</time></trkpt><trkpt lat="40.899305" lon="14.2854767"><ele>86.0</ele><time>2026-03-30T13:49:36.291Z</time></trkpt><trkpt lat="40.8992217" lon="14.2854333"><ele>86.0</ele><time>2026-03-30T13:49:39.292Z</time></trkpt><trkpt lat="40.8991483" lon="14.2853833"><ele>86.0</ele><time>2026-03-30T13:49:42.291Z</time></trkpt><trkpt lat="40.8990983" lon="14.2853"><ele>86.0</ele><time>2026-03-30T13:49:49.292Z</time></trkpt><trkpt lat="40.8990333" lon="14.2853033"><ele>86.0</ele><time>2026-03-30T13:49:52.291Z</time></trkpt><trkpt lat="40.8989417" lon="14.2852583"><ele>85.4</ele><time>2026-03-30T13:49:55.292Z</time></trkpt><trkpt lat="40.898875" lon="14.28524"><ele>84.8</ele><time>2026-03-30T13:49:57.292Z</time></trkpt><trkpt lat="40.89877" lon="14.2851933"><ele>84.2</ele><time>2026-03-30T13:49:59.292Z</time></trkpt><trkpt lat="40.8986733" lon="14.285115"><ele>83.60000000000001</ele><time>2026-03-30T13:50:01.292Z</time></trkpt><trkpt lat="40.8985933" lon="14.285"><ele>83.0</ele><time>2026-03-30T13:50:03.292Z</time></trkpt><trkpt lat="40.8985233" lon="14.28486"><ele>83.0</ele><time>2026-03-30T13:50:05.293Z</time></trkpt><trkpt lat="40.8984417" lon="14.28477"><ele>83.0</ele><time>2026-03-30T13:50:07.294Z</time></trkpt><trkpt lat="40.89836" lon="14.2847183"><ele>83.0</ele><time>2026-03-30T13:50:09.293Z</time></trkpt><trkpt lat="40.898285" lon="14.284655"><ele>83.0</ele><time>2026-03-30T13:50:11.292Z</time></trkpt><trkpt lat="40.8982067" lon="14.2845817"><ele>83.0</ele><time>2026-03-30T13:50:13.292Z</time></trkpt><trkpt lat="40.8981267" lon="14.2844933"><ele>82.5</ele><time>2026-03-30T13:50:15.292Z</time></trkpt><trkpt lat="40.8980617" lon="14.2844367"><ele>82.0</ele><time>2026-03-30T13:50:17.292Z</time></trkpt><trkpt lat="40.8979817" lon="14.2844917"><ele>81.5</ele><time>2026-03-30T13:50:19.292Z</time></trkpt><trkpt lat="40.8979183" lon="14.2845783"><ele>81.0</ele><time>2026-03-30T13:50:21.292Z</time></trkpt><trkpt lat="40.8978667" lon="14.2846783"><ele>80.5</ele><time>2026-03-30T13:50:23.292Z</time></trkpt><trkpt lat="40.89781" lon="14.2847717"><ele>80.0</ele><time>2026-03-30T13:50:25.292Z</time></trkpt><trkpt lat="40.89776" lon="14.28487"><ele>80.0</ele><time>2026-03-30T13:50:27.292Z</time></trkpt><trkpt lat="40.8976833" lon="14.2849867"><ele>80.0</ele><time>2026-03-30T13:50:29.292Z</time></trkpt><trkpt lat="40.897605" lon="14.2851017"><ele>80.0</ele><time>2026-03-30T13:50:31.292Z</time></trkpt><trkpt lat="40.89756" lon="14.28516"><ele>80.0</ele><time>2026-03-30T13:50:32.291Z</time></trkpt><trkpt lat="40.897515" lon="14.2852217"><ele>80.0</ele><time>2026-03-30T13:50:33.292Z</time></trkpt><trkpt lat="40.8974667" lon="14.28528"><ele>80.0</ele><time>2026-03-30T13:50:34.291Z</time></trkpt><trkpt lat="40.8973783" lon="14.28539"><ele>80.25</ele><time>2026-03-30T13:50:36.292Z</time></trkpt><trkpt lat="40.8972883" lon="14.2855033"><ele>80.5</ele><time>2026-03-30T13:50:38.291Z</time></trkpt><trkpt lat="40.8972133" lon="14.285625"><ele>80.75</ele><time>2026-03-30T13:50:40.292Z</time></trkpt><trkpt lat="40.8971433" lon="14.2857567"><ele>81.0</ele><time>2026-03-30T13:50:42.292Z</time></trkpt><trkpt lat="40.8970767" lon="14.2858817"><ele>81.19999999999999</ele><time>2026-03-30T13:50:44.292Z</time></trkpt><trkpt lat="40.897" lon="14.285995"><ele>81.39999999999999</ele><time>2026-03-30T13:50:46.292Z</time></trkpt><trkpt lat="40.8969183" lon="14.2861083"><ele>81.6</ele><time>2026-03-30T13:50:48.292Z</time></trkpt><trkpt lat="40.8968367" lon="14.286205"><ele>81.8</ele><time>2026-03-30T13:50:50.292Z</time></trkpt><trkpt lat="40.8967633" lon="14.2862867"><ele>82.0</ele><time>2026-03-30T13:50:52.292Z</time></trkpt><trkpt lat="40.8966967" lon="14.2863667"><ele>81.6</ele><time>2026-03-30T13:50:54.292Z</time></trkpt><trkpt lat="40.896605" lon="14.28642"><ele>81.19999999999999</ele><time>2026-03-30T13:50:56.292Z</time></trkpt><trkpt lat="40.8965133" lon="14.2864017"><ele>80.8</ele><time>2026-03-30T13:50:58.292Z</time></trkpt><trkpt lat="40.89644" lon="14.2863883"><ele>80.4</ele><time>2026-03-30T13:51:00.292Z</time></trkpt><trkpt lat="40.8963433" lon="14.2863567"><ele>80.0</ele><time>2026-03-30T13:51:02.292Z</time></trkpt><trkpt lat="40.8962317" lon="14.28633"><ele>80.0</ele><time>2026-03-30T13:51:04.292Z</time></trkpt><trkpt lat="40.8961167" lon="14.286305"><ele>80.0</ele><time>2026-03-30T13:51:06.292Z</time></trkpt><trkpt lat="40.8960017" lon="14.2862833"><ele>80.0</ele><time>2026-03-30T13:51:08.292Z</time></trkpt><trkpt lat="40.8958867" lon="14.2862567"><ele>80.0</ele><time>2026-03-30T13:51:10.291Z</time></trkpt><trkpt lat="40.8957667" lon="14.2862417"><ele>79.6</ele><time>2026-03-30T13:51:12.292Z</time></trkpt><trkpt lat="40.8956433" lon="14.28624"><ele>79.2</ele><time>2026-03-30T13:51:14.292Z</time></trkpt><trkpt lat="40.89552" lon="14.2862383"><ele>78.8</ele><time>2026-03-30T13:51:16.292Z</time></trkpt><trkpt lat="40.895455" lon="14.2862383"><ele>78.4</ele><time>2026-03-30T13:51:17.292Z</time></trkpt><trkpt lat="40.8953917" lon="14.2862383"><ele>78.0</ele><time>2026-03-30T13:51:18.292Z</time></trkpt><trkpt lat="40.8952717" lon="14.2862317"><ele>78.0</ele><time>2026-03-30T13:51:20.292Z</time></trkpt><trkpt lat="40.895175" lon="14.286235"><ele>78.0</ele><time>2026-03-30T13:51:22.292Z</time></trkpt><trkpt lat="40.8950333" lon="14.28624"><ele>78.0</ele><time>2026-03-30T13:51:25.292Z</time></trkpt><trkpt lat="40.8949517" lon="14.2862367"><ele>78.0</ele><time>2026-03-30T13:51:27.291Z</time></trkpt><trkpt lat="40.89486" lon="14.286245"><ele>78.0</ele><time>2026-03-30T13:51:29.292Z</time></trkpt><trkpt lat="40.89477" lon="14.2862383"><ele>78.4</ele><time>2026-03-30T13:51:31.292Z</time></trkpt><trkpt lat="40.89467" lon="14.286185"><ele>78.8</ele><time>2026-03-30T13:51:33.293Z</time></trkpt><trkpt lat="40.8945717" lon="14.2861667"><ele>79.2</ele><time>2026-03-30T13:51:35.293Z</time></trkpt><trkpt lat="40.8944783" lon="14.2861433"><ele>79.6</ele><time>2026-03-30T13:51:37.294Z</time></trkpt><trkpt lat="40.8943983" lon="14.2861167"><ele>80.0</ele><time>2026-03-30T13:51:39.293Z</time></trkpt><trkpt lat="40.8943167" lon="14.2861117"><ele>80.16666666666667</ele><time>2026-03-30T13:51:41.293Z</time></trkpt><trkpt lat="40.8942317" lon="14.2860933"><ele>80.33333333333334</ele><time>2026-03-30T13:51:43.293Z</time></trkpt><trkpt lat="40.89414" lon="14.28608"><ele>80.5</ele><time>2026-03-30T13:51:45.292Z</time></trkpt><trkpt lat="40.8940467" lon="14.28606"><ele>80.66666666666667</ele><time>2026-03-30T13:51:47.293Z</time></trkpt><trkpt lat="40.8939517" lon="14.286055"><ele>80.83333333333333</ele><time>2026-03-30T13:51:49.293Z</time></trkpt><trkpt lat="40.8938783" lon="14.2860633"><ele>81.0</ele><time>2026-03-30T13:51:51.292Z</time></trkpt><trkpt lat="40.893815" lon="14.286055"><ele>81.0</ele><time>2026-03-30T13:51:55.293Z</time></trkpt><trkpt lat="40.8937433" lon="14.2860417"><ele>81.0</ele><time>2026-03-30T13:52:01.292Z</time></trkpt><trkpt lat="40.8936767" lon="14.2860367"><ele>81.0</ele><time>2026-03-30T13:52:03.292Z</time></trkpt><trkpt lat="40.8935983" lon="14.2860283"><ele>81.0</ele><time>2026-03-30T13:52:05.292Z</time></trkpt><trkpt lat="40.89353" lon="14.2860233"><ele>81.0</ele><time>2026-03-30T13:52:07.292Z</time></trkpt><trkpt lat="40.8934467" lon="14.2860833"><ele>81.0</ele><time>2026-03-30T13:52:10.292Z</time></trkpt><trkpt lat="40.893445" lon="14.2862"><ele>81.0</ele><time>2026-03-30T13:52:12.292Z</time></trkpt><trkpt lat="40.8934833" lon="14.286345"><ele>81.0</ele><time>2026-03-30T13:52:14.293Z</time></trkpt><trkpt lat="40.8935117" lon="14.2864833"><ele>81.0</ele><time>2026-03-30T13:52:16.292Z</time></trkpt><trkpt lat="40.8935483" lon="14.286625"><ele>81.0</ele><time>2026-03-30T13:52:18.292Z</time></trkpt><trkpt lat="40.89359" lon="14.2867733"><ele>80.8</ele><time>2026-03-30T13:52:20.292Z</time></trkpt><trkpt lat="40.89363" lon="14.286915"><ele>80.6</ele><time>2026-03-30T13:52:22.293Z</time></trkpt><trkpt lat="40.89367" lon="14.2870517"><ele>80.4</ele><time>2026-03-30T13:52:24.292Z</time></trkpt><trkpt lat="40.8937067" lon="14.2871767"><ele>80.2</ele><time>2026-03-30T13:52:26.292Z</time></trkpt><trkpt lat="40.89375" lon="14.2873067"><ele>80.0</ele><time>2026-03-30T13:52:28.292Z</time></trkpt><trkpt lat="40.8937933" lon="14.287435"><ele>80.0</ele><time>2026-03-30T13:52:30.292Z</time></trkpt><trkpt lat="40.8938383" lon="14.2875533"><ele>80.0</ele><time>2026-03-30T13:52:32.292Z</time></trkpt><trkpt lat="40.8938767" lon="14.2876683"><ele>80.0</ele><time>2026-03-30T13:52:34.292Z</time></trkpt><trkpt lat="40.893905" lon="14.287755"><ele>80.0</ele><time>2026-03-30T13:52:36.292Z</time></trkpt><trkpt lat="40.8937464" lon="14.2878356"><ele>80.0</ele><time>2026-03-30T13:53:39.218Z</time></trkpt></trkseg></trk></gpx>